<?xml version="1.0" encoding="UTF-8" standalone="no" ?>
<gpx xmlns="http://www.topografix.com/GPX/1/1" xmlns:xsi="http://www.w3.org/2001/XMLSchema-instance" xsi:schemaLocation="http://www.topografix.com/GPX/1/1 http://www.topografix.com/GPX/1/1/gpx.xsd" version="1.1" creator="VisuGPX - https://www.visugpx.com">
  <metadata>
    <name>YlwAR0mKDl</name>
    <desc><![CDATA[

]]></desc>
  </metadata>
  <trk>
    <name><![CDATA[YlwAR0mKDl_1]]></name>
    <trkseg>
      <trkpt lat="46.12661" lon="4.56397">
        <ele>625.2</ele>
        <time>2020-10-19T13:21:53Z</time>
      </trkpt>
      <trkpt lat="46.12661" lon="4.56397">
        <ele>625.2</ele>
        <time>2020-10-19T13:21:53Z</time>
      </trkpt>
      <trkpt lat="46.12661" lon="4.56397">
        <ele>625</ele>
        <time>2020-10-19T13:21:54Z</time>
      </trkpt>
      <trkpt lat="46.12658" lon="4.56398">
        <ele>625</ele>
        <time>2020-10-19T13:21:55Z</time>
      </trkpt>
      <trkpt lat="46.12658" lon="4.56398">
        <ele>625.2</ele>
        <time>2020-10-19T13:21:56Z</time>
      </trkpt>
      <trkpt lat="46.12655" lon="4.56399">
        <ele>625.2</ele>
        <time>2020-10-19T13:21:57Z</time>
      </trkpt>
      <trkpt lat="46.12655" lon="4.56399">
        <ele>625.2</ele>
        <time>2020-10-19T13:21:58Z</time>
      </trkpt>
      <trkpt lat="46.12653" lon="4.564">
        <ele>625.2</ele>
        <time>2020-10-19T13:21:59Z</time>
      </trkpt>
      <trkpt lat="46.12653" lon="4.564">
        <ele>624.8</ele>
        <time>2020-10-19T13:22:00Z</time>
      </trkpt>
      <trkpt lat="46.12651" lon="4.56398">
        <ele>624.8</ele>
        <time>2020-10-19T13:22:01Z</time>
      </trkpt>
      <trkpt lat="46.12651" lon="4.56398">
        <ele>624.6</ele>
        <time>2020-10-19T13:22:02Z</time>
      </trkpt>
      <trkpt lat="46.1265" lon="4.56393">
        <ele>624.4</ele>
        <time>2020-10-19T13:22:03Z</time>
      </trkpt>
      <trkpt lat="46.1265" lon="4.56393">
        <ele>624.2</ele>
        <time>2020-10-19T13:22:04Z</time>
      </trkpt>
      <trkpt lat="46.12649" lon="4.56389">
        <ele>624.2</ele>
        <time>2020-10-19T13:22:05Z</time>
      </trkpt>
      <trkpt lat="46.12648" lon="4.56387">
        <ele>624</ele>
        <time>2020-10-19T13:22:06Z</time>
      </trkpt>
      <trkpt lat="46.12648" lon="4.56387">
        <ele>624</ele>
        <time>2020-10-19T13:22:07Z</time>
      </trkpt>
      <trkpt lat="46.12646" lon="4.56385">
        <ele>624</ele>
        <time>2020-10-19T13:22:08Z</time>
      </trkpt>
      <trkpt lat="46.12646" lon="4.56385">
        <ele>623.8</ele>
        <time>2020-10-19T13:22:09Z</time>
      </trkpt>
      <trkpt lat="46.12646" lon="4.56385">
        <ele>624</ele>
        <time>2020-10-19T13:22:10Z</time>
      </trkpt>
      <trkpt lat="46.12647" lon="4.56388">
        <ele>623.8</ele>
        <time>2020-10-19T13:22:11Z</time>
      </trkpt>
      <trkpt lat="46.12647" lon="4.56388">
        <ele>623.6</ele>
        <time>2020-10-19T13:22:12Z</time>
      </trkpt>
      <trkpt lat="46.12647" lon="4.56391">
        <ele>623.4</ele>
        <time>2020-10-19T13:22:13Z</time>
      </trkpt>
      <trkpt lat="46.12647" lon="4.56391">
        <ele>623.4</ele>
        <time>2020-10-19T13:22:14Z</time>
      </trkpt>
      <trkpt lat="46.12648" lon="4.56395">
        <ele>623.2</ele>
        <time>2020-10-19T13:22:15Z</time>
      </trkpt>
      <trkpt lat="46.12648" lon="4.56395">
        <ele>623.2</ele>
        <time>2020-10-19T13:22:16Z</time>
      </trkpt>
      <trkpt lat="46.12648" lon="4.56398">
        <ele>623.2</ele>
        <time>2020-10-19T13:22:17Z</time>
      </trkpt>
      <trkpt lat="46.12648" lon="4.56398">
        <ele>623.2</ele>
        <time>2020-10-19T13:22:18Z</time>
      </trkpt>
      <trkpt lat="46.12648" lon="4.56401">
        <ele>623.2</ele>
        <time>2020-10-19T13:22:19Z</time>
      </trkpt>
      <trkpt lat="46.12648" lon="4.56401">
        <ele>623</ele>
        <time>2020-10-19T13:22:20Z</time>
      </trkpt>
      <trkpt lat="46.12648" lon="4.56401">
        <ele>623</ele>
        <time>2020-10-19T13:22:21Z</time>
      </trkpt>
      <trkpt lat="46.1265" lon="4.56403">
        <ele>622.6</ele>
        <time>2020-10-19T13:22:22Z</time>
      </trkpt>
      <trkpt lat="46.1265" lon="4.56403">
        <ele>622.8</ele>
        <time>2020-10-19T13:22:23Z</time>
      </trkpt>
      <trkpt lat="46.1265" lon="4.56403">
        <ele>622.8</ele>
        <time>2020-10-19T13:22:24Z</time>
      </trkpt>
      <trkpt lat="46.1265" lon="4.56403">
        <ele>623</ele>
        <time>2020-10-19T13:22:25Z</time>
      </trkpt>
      <trkpt lat="46.1265" lon="4.56403">
        <ele>623</ele>
        <time>2020-10-19T13:22:26Z</time>
      </trkpt>
      <trkpt lat="46.1265" lon="4.56403">
        <ele>623</ele>
        <time>2020-10-19T13:22:27Z</time>
      </trkpt>
      <trkpt lat="46.1265" lon="4.56403">
        <ele>622.8</ele>
        <time>2020-10-19T13:22:28Z</time>
      </trkpt>
      <trkpt lat="46.1265" lon="4.56403">
        <ele>622.8</ele>
        <time>2020-10-19T13:22:29Z</time>
      </trkpt>
      <trkpt lat="46.1265" lon="4.56403">
        <ele>622.6</ele>
        <time>2020-10-19T13:22:30Z</time>
      </trkpt>
      <trkpt lat="46.1265" lon="4.56403">
        <ele>622.8</ele>
        <time>2020-10-19T13:22:31Z</time>
      </trkpt>
      <trkpt lat="46.1265" lon="4.56403">
        <ele>622.8</ele>
        <time>2020-10-19T13:22:32Z</time>
      </trkpt>
      <trkpt lat="46.1265" lon="4.56403">
        <ele>623</ele>
        <time>2020-10-19T13:22:33Z</time>
      </trkpt>
      <trkpt lat="46.1265" lon="4.56403">
        <ele>623</ele>
        <time>2020-10-19T13:22:34Z</time>
      </trkpt>
      <trkpt lat="46.1265" lon="4.56403">
        <ele>622.8</ele>
        <time>2020-10-19T13:22:35Z</time>
      </trkpt>
      <trkpt lat="46.1265" lon="4.56403">
        <ele>622.8</ele>
        <time>2020-10-19T13:22:36Z</time>
      </trkpt>
      <trkpt lat="46.1265" lon="4.56403">
        <ele>622.8</ele>
        <time>2020-10-19T13:22:37Z</time>
      </trkpt>
      <trkpt lat="46.1265" lon="4.56403">
        <ele>623.2</ele>
        <time>2020-10-19T13:22:38Z</time>
      </trkpt>
      <trkpt lat="46.1265" lon="4.56403">
        <ele>623.4</ele>
        <time>2020-10-19T13:22:39Z</time>
      </trkpt>
      <trkpt lat="46.1265" lon="4.56403">
        <ele>623.6</ele>
        <time>2020-10-19T13:22:40Z</time>
      </trkpt>
      <trkpt lat="46.1265" lon="4.56403">
        <ele>623.8</ele>
        <time>2020-10-19T13:22:41Z</time>
      </trkpt>
      <trkpt lat="46.1265" lon="4.56403">
        <ele>623.8</ele>
        <time>2020-10-19T13:22:42Z</time>
      </trkpt>
      <trkpt lat="46.1265" lon="4.56403">
        <ele>623.8</ele>
        <time>2020-10-19T13:22:43Z</time>
      </trkpt>
      <trkpt lat="46.1265" lon="4.56403">
        <ele>623.8</ele>
        <time>2020-10-19T13:22:44Z</time>
      </trkpt>
      <trkpt lat="46.1265" lon="4.56403">
        <ele>623.8</ele>
        <time>2020-10-19T13:22:45Z</time>
      </trkpt>
      <trkpt lat="46.1265" lon="4.56403">
        <ele>623.8</ele>
        <time>2020-10-19T13:22:46Z</time>
      </trkpt>
      <trkpt lat="46.1265" lon="4.56403">
        <ele>623.6</ele>
        <time>2020-10-19T13:22:47Z</time>
      </trkpt>
      <trkpt lat="46.1265" lon="4.56403">
        <ele>623.4</ele>
        <time>2020-10-19T13:22:48Z</time>
      </trkpt>
      <trkpt lat="46.1265" lon="4.56403">
        <ele>623</ele>
        <time>2020-10-19T13:22:49Z</time>
      </trkpt>
      <trkpt lat="46.12652" lon="4.56403">
        <ele>622.8</ele>
        <time>2020-10-19T13:22:50Z</time>
      </trkpt>
      <trkpt lat="46.12652" lon="4.56403">
        <ele>622.6</ele>
        <time>2020-10-19T13:22:51Z</time>
      </trkpt>
      <trkpt lat="46.12652" lon="4.56403">
        <ele>622.4</ele>
        <time>2020-10-19T13:22:52Z</time>
      </trkpt>
      <trkpt lat="46.12652" lon="4.56403">
        <ele>622.4</ele>
        <time>2020-10-19T13:22:53Z</time>
      </trkpt>
      <trkpt lat="46.12652" lon="4.56403">
        <ele>622</ele>
        <time>2020-10-19T13:22:54Z</time>
      </trkpt>
      <trkpt lat="46.12652" lon="4.56403">
        <ele>621.8</ele>
        <time>2020-10-19T13:22:55Z</time>
      </trkpt>
      <trkpt lat="46.12654" lon="4.56405">
        <ele>621.4</ele>
        <time>2020-10-19T13:22:56Z</time>
      </trkpt>
      <trkpt lat="46.12654" lon="4.56405">
        <ele>621.2</ele>
        <time>2020-10-19T13:22:57Z</time>
      </trkpt>
      <trkpt lat="46.12656" lon="4.56408">
        <ele>621</ele>
        <time>2020-10-19T13:22:58Z</time>
      </trkpt>
      <trkpt lat="46.12656" lon="4.56408">
        <ele>620.8</ele>
        <time>2020-10-19T13:22:59Z</time>
      </trkpt>
      <trkpt lat="46.12657" lon="4.5641">
        <ele>621</ele>
        <time>2020-10-19T13:23:00Z</time>
      </trkpt>
      <trkpt lat="46.12657" lon="4.5641">
        <ele>620.6</ele>
        <time>2020-10-19T13:23:01Z</time>
      </trkpt>
      <trkpt lat="46.12657" lon="4.5641">
        <ele>620.6</ele>
        <time>2020-10-19T13:23:02Z</time>
      </trkpt>
      <trkpt lat="46.12658" lon="4.56413">
        <ele>620.2</ele>
        <time>2020-10-19T13:23:03Z</time>
      </trkpt>
      <trkpt lat="46.12658" lon="4.56413">
        <ele>620.2</ele>
        <time>2020-10-19T13:23:04Z</time>
      </trkpt>
      <trkpt lat="46.1266" lon="4.56415">
        <ele>620</ele>
        <time>2020-10-19T13:23:05Z</time>
      </trkpt>
      <trkpt lat="46.1266" lon="4.56415">
        <ele>620</ele>
        <time>2020-10-19T13:23:06Z</time>
      </trkpt>
      <trkpt lat="46.12662" lon="4.56417">
        <ele>619.6</ele>
        <time>2020-10-19T13:23:07Z</time>
      </trkpt>
      <trkpt lat="46.12662" lon="4.56417">
        <ele>619.8</ele>
        <time>2020-10-19T13:23:08Z</time>
      </trkpt>
      <trkpt lat="46.12663" lon="4.56419">
        <ele>619.2</ele>
        <time>2020-10-19T13:23:09Z</time>
      </trkpt>
      <trkpt lat="46.12663" lon="4.56419">
        <ele>619</ele>
        <time>2020-10-19T13:23:10Z</time>
      </trkpt>
      <trkpt lat="46.12665" lon="4.56422">
        <ele>618.8</ele>
        <time>2020-10-19T13:23:11Z</time>
      </trkpt>
      <trkpt lat="46.12665" lon="4.56422">
        <ele>618</ele>
        <time>2020-10-19T13:23:12Z</time>
      </trkpt>
      <trkpt lat="46.12668" lon="4.56426">
        <ele>617.8</ele>
        <time>2020-10-19T13:23:13Z</time>
      </trkpt>
      <trkpt lat="46.12668" lon="4.56426">
        <ele>617.8</ele>
        <time>2020-10-19T13:23:14Z</time>
      </trkpt>
      <trkpt lat="46.1267" lon="4.56429">
        <ele>617.2</ele>
        <time>2020-10-19T13:23:15Z</time>
      </trkpt>
      <trkpt lat="46.1267" lon="4.56429">
        <ele>616.6</ele>
        <time>2020-10-19T13:23:16Z</time>
      </trkpt>
      <trkpt lat="46.12672" lon="4.56432">
        <ele>616.4</ele>
        <time>2020-10-19T13:23:17Z</time>
      </trkpt>
      <trkpt lat="46.12672" lon="4.56432">
        <ele>616</ele>
        <time>2020-10-19T13:23:18Z</time>
      </trkpt>
      <trkpt lat="46.12672" lon="4.56432">
        <ele>615.6</ele>
        <time>2020-10-19T13:23:19Z</time>
      </trkpt>
      <trkpt lat="46.12673" lon="4.56434">
        <ele>615.2</ele>
        <time>2020-10-19T13:23:20Z</time>
      </trkpt>
      <trkpt lat="46.12673" lon="4.56434">
        <ele>614.8</ele>
        <time>2020-10-19T13:23:21Z</time>
      </trkpt>
      <trkpt lat="46.12673" lon="4.56434">
        <ele>614.4</ele>
        <time>2020-10-19T13:23:22Z</time>
      </trkpt>
      <trkpt lat="46.12673" lon="4.56434">
        <ele>614.2</ele>
        <time>2020-10-19T13:23:23Z</time>
      </trkpt>
      <trkpt lat="46.12673" lon="4.56434">
        <ele>613.6</ele>
        <time>2020-10-19T13:23:24Z</time>
      </trkpt>
      <trkpt lat="46.12673" lon="4.56434">
        <ele>613.8</ele>
        <time>2020-10-19T13:23:25Z</time>
      </trkpt>
      <trkpt lat="46.12673" lon="4.56434">
        <ele>614</ele>
        <time>2020-10-19T13:23:26Z</time>
      </trkpt>
      <trkpt lat="46.12675" lon="4.56435">
        <ele>614</ele>
        <time>2020-10-19T13:23:27Z</time>
      </trkpt>
      <trkpt lat="46.12675" lon="4.56435">
        <ele>613.6</ele>
        <time>2020-10-19T13:23:28Z</time>
      </trkpt>
      <trkpt lat="46.12677" lon="4.56438">
        <ele>613.2</ele>
        <time>2020-10-19T13:23:29Z</time>
      </trkpt>
      <trkpt lat="46.12677" lon="4.56438">
        <ele>613</ele>
        <time>2020-10-19T13:23:30Z</time>
      </trkpt>
      <trkpt lat="46.12679" lon="4.56441">
        <ele>612.6</ele>
        <time>2020-10-19T13:23:31Z</time>
      </trkpt>
      <trkpt lat="46.1268" lon="4.56443">
        <ele>612.4</ele>
        <time>2020-10-19T13:23:32Z</time>
      </trkpt>
      <trkpt lat="46.12682" lon="4.56445">
        <ele>612.2</ele>
        <time>2020-10-19T13:23:33Z</time>
      </trkpt>
      <trkpt lat="46.12683" lon="4.56448">
        <ele>612</ele>
        <time>2020-10-19T13:23:34Z</time>
      </trkpt>
      <trkpt lat="46.12684" lon="4.5645">
        <ele>611.2</ele>
        <time>2020-10-19T13:23:35Z</time>
      </trkpt>
      <trkpt lat="46.12685" lon="4.56452">
        <ele>611</ele>
        <time>2020-10-19T13:23:36Z</time>
      </trkpt>
      <trkpt lat="46.12686" lon="4.56455">
        <ele>610.2</ele>
        <time>2020-10-19T13:23:37Z</time>
      </trkpt>
      <trkpt lat="46.12688" lon="4.56457">
        <ele>609.2</ele>
        <time>2020-10-19T13:23:38Z</time>
      </trkpt>
      <trkpt lat="46.12689" lon="4.5646">
        <ele>608.8</ele>
        <time>2020-10-19T13:23:39Z</time>
      </trkpt>
      <trkpt lat="46.1269" lon="4.56462">
        <ele>608.2</ele>
        <time>2020-10-19T13:23:40Z</time>
      </trkpt>
      <trkpt lat="46.12692" lon="4.56464">
        <ele>608.2</ele>
        <time>2020-10-19T13:23:41Z</time>
      </trkpt>
      <trkpt lat="46.12692" lon="4.56464">
        <ele>606.8</ele>
        <time>2020-10-19T13:23:42Z</time>
      </trkpt>
      <trkpt lat="46.12694" lon="4.56466">
        <ele>606.4</ele>
        <time>2020-10-19T13:23:43Z</time>
      </trkpt>
      <trkpt lat="46.12695" lon="4.5647">
        <ele>606.4</ele>
        <time>2020-10-19T13:23:44Z</time>
      </trkpt>
      <trkpt lat="46.12695" lon="4.56472">
        <ele>606</ele>
        <time>2020-10-19T13:23:45Z</time>
      </trkpt>
      <trkpt lat="46.12696" lon="4.56475">
        <ele>605.6</ele>
        <time>2020-10-19T13:23:46Z</time>
      </trkpt>
      <trkpt lat="46.12697" lon="4.56478">
        <ele>605</ele>
        <time>2020-10-19T13:23:47Z</time>
      </trkpt>
      <trkpt lat="46.12698" lon="4.56481">
        <ele>604.2</ele>
        <time>2020-10-19T13:23:48Z</time>
      </trkpt>
      <trkpt lat="46.12699" lon="4.56483">
        <ele>603.8</ele>
        <time>2020-10-19T13:23:49Z</time>
      </trkpt>
      <trkpt lat="46.127" lon="4.56485">
        <ele>603.2</ele>
        <time>2020-10-19T13:23:50Z</time>
      </trkpt>
      <trkpt lat="46.12701" lon="4.56488">
        <ele>602.8</ele>
        <time>2020-10-19T13:23:51Z</time>
      </trkpt>
      <trkpt lat="46.12702" lon="4.5649">
        <ele>602.2</ele>
        <time>2020-10-19T13:23:52Z</time>
      </trkpt>
      <trkpt lat="46.12703" lon="4.56493">
        <ele>602</ele>
        <time>2020-10-19T13:23:53Z</time>
      </trkpt>
      <trkpt lat="46.12704" lon="4.56495">
        <ele>601</ele>
        <time>2020-10-19T13:23:54Z</time>
      </trkpt>
      <trkpt lat="46.12705" lon="4.56497">
        <ele>599.6</ele>
        <time>2020-10-19T13:23:55Z</time>
      </trkpt>
      <trkpt lat="46.12707" lon="4.56498">
        <ele>599</ele>
        <time>2020-10-19T13:23:56Z</time>
      </trkpt>
      <trkpt lat="46.12707" lon="4.565">
        <ele>598.4</ele>
        <time>2020-10-19T13:23:57Z</time>
      </trkpt>
      <trkpt lat="46.12708" lon="4.56503">
        <ele>598</ele>
        <time>2020-10-19T13:23:58Z</time>
      </trkpt>
      <trkpt lat="46.12709" lon="4.56505">
        <ele>597.4</ele>
        <time>2020-10-19T13:23:59Z</time>
      </trkpt>
      <trkpt lat="46.1271" lon="4.56507">
        <ele>597.2</ele>
        <time>2020-10-19T13:24:00Z</time>
      </trkpt>
      <trkpt lat="46.12711" lon="4.5651">
        <ele>596.6</ele>
        <time>2020-10-19T13:24:01Z</time>
      </trkpt>
      <trkpt lat="46.12712" lon="4.56512">
        <ele>596.2</ele>
        <time>2020-10-19T13:24:02Z</time>
      </trkpt>
      <trkpt lat="46.12713" lon="4.56514">
        <ele>595.8</ele>
        <time>2020-10-19T13:24:03Z</time>
      </trkpt>
      <trkpt lat="46.12713" lon="4.56516">
        <ele>595.4</ele>
        <time>2020-10-19T13:24:04Z</time>
      </trkpt>
      <trkpt lat="46.12714" lon="4.56519">
        <ele>594.6</ele>
        <time>2020-10-19T13:24:05Z</time>
      </trkpt>
      <trkpt lat="46.12715" lon="4.56521">
        <ele>594.6</ele>
        <time>2020-10-19T13:24:06Z</time>
      </trkpt>
      <trkpt lat="46.12716" lon="4.56523">
        <ele>594.2</ele>
        <time>2020-10-19T13:24:07Z</time>
      </trkpt>
      <trkpt lat="46.12717" lon="4.56525">
        <ele>593.6</ele>
        <time>2020-10-19T13:24:08Z</time>
      </trkpt>
      <trkpt lat="46.12718" lon="4.56527">
        <ele>593.4</ele>
        <time>2020-10-19T13:24:09Z</time>
      </trkpt>
      <trkpt lat="46.12718" lon="4.56527">
        <ele>593.6</ele>
        <time>2020-10-19T13:24:10Z</time>
      </trkpt>
      <trkpt lat="46.12719" lon="4.56531">
        <ele>593.4</ele>
        <time>2020-10-19T13:24:11Z</time>
      </trkpt>
      <trkpt lat="46.12719" lon="4.56531">
        <ele>593.4</ele>
        <time>2020-10-19T13:24:12Z</time>
      </trkpt>
      <trkpt lat="46.12718" lon="4.56535">
        <ele>593.2</ele>
        <time>2020-10-19T13:24:13Z</time>
      </trkpt>
      <trkpt lat="46.12718" lon="4.56535">
        <ele>593</ele>
        <time>2020-10-19T13:24:14Z</time>
      </trkpt>
      <trkpt lat="46.12718" lon="4.56535">
        <ele>592.8</ele>
        <time>2020-10-19T13:24:15Z</time>
      </trkpt>
      <trkpt lat="46.12719" lon="4.56537">
        <ele>593</ele>
        <time>2020-10-19T13:24:16Z</time>
      </trkpt>
      <trkpt lat="46.12719" lon="4.56537">
        <ele>593</ele>
        <time>2020-10-19T13:24:17Z</time>
      </trkpt>
      <trkpt lat="46.12717" lon="4.56539">
        <ele>593</ele>
        <time>2020-10-19T13:24:18Z</time>
      </trkpt>
      <trkpt lat="46.12717" lon="4.56539">
        <ele>593</ele>
        <time>2020-10-19T13:24:19Z</time>
      </trkpt>
      <trkpt lat="46.12715" lon="4.5654">
        <ele>593</ele>
        <time>2020-10-19T13:24:20Z</time>
      </trkpt>
      <trkpt lat="46.12715" lon="4.5654">
        <ele>593</ele>
        <time>2020-10-19T13:24:21Z</time>
      </trkpt>
      <trkpt lat="46.12715" lon="4.5654">
        <ele>593.2</ele>
        <time>2020-10-19T13:24:22Z</time>
      </trkpt>
      <trkpt lat="46.12714" lon="4.56543">
        <ele>593</ele>
        <time>2020-10-19T13:24:23Z</time>
      </trkpt>
      <trkpt lat="46.12714" lon="4.56543">
        <ele>593</ele>
        <time>2020-10-19T13:24:24Z</time>
      </trkpt>
      <trkpt lat="46.12714" lon="4.56543">
        <ele>593</ele>
        <time>2020-10-19T13:24:25Z</time>
      </trkpt>
      <trkpt lat="46.12714" lon="4.56543">
        <ele>592.8</ele>
        <time>2020-10-19T13:24:26Z</time>
      </trkpt>
      <trkpt lat="46.12714" lon="4.56543">
        <ele>593.2</ele>
        <time>2020-10-19T13:24:27Z</time>
      </trkpt>
      <trkpt lat="46.12714" lon="4.56543">
        <ele>593.2</ele>
        <time>2020-10-19T13:24:28Z</time>
      </trkpt>
      <trkpt lat="46.12714" lon="4.56543">
        <ele>593.4</ele>
        <time>2020-10-19T13:24:29Z</time>
      </trkpt>
      <trkpt lat="46.12714" lon="4.56543">
        <ele>593.6</ele>
        <time>2020-10-19T13:24:30Z</time>
      </trkpt>
      <trkpt lat="46.12714" lon="4.56543">
        <ele>593.6</ele>
        <time>2020-10-19T13:24:31Z</time>
      </trkpt>
      <trkpt lat="46.12714" lon="4.56543">
        <ele>593.6</ele>
        <time>2020-10-19T13:24:32Z</time>
      </trkpt>
      <trkpt lat="46.12714" lon="4.56543">
        <ele>593.4</ele>
        <time>2020-10-19T13:24:33Z</time>
      </trkpt>
      <trkpt lat="46.12714" lon="4.56543">
        <ele>593.2</ele>
        <time>2020-10-19T13:24:34Z</time>
      </trkpt>
      <trkpt lat="46.12714" lon="4.56543">
        <ele>593.2</ele>
        <time>2020-10-19T13:24:35Z</time>
      </trkpt>
      <trkpt lat="46.12714" lon="4.56545">
        <ele>593</ele>
        <time>2020-10-19T13:24:36Z</time>
      </trkpt>
      <trkpt lat="46.12714" lon="4.56545">
        <ele>592.8</ele>
        <time>2020-10-19T13:24:37Z</time>
      </trkpt>
      <trkpt lat="46.12714" lon="4.56545">
        <ele>593</ele>
        <time>2020-10-19T13:24:38Z</time>
      </trkpt>
      <trkpt lat="46.12714" lon="4.56545">
        <ele>593</ele>
        <time>2020-10-19T13:24:39Z</time>
      </trkpt>
      <trkpt lat="46.12714" lon="4.56545">
        <ele>592.8</ele>
        <time>2020-10-19T13:24:40Z</time>
      </trkpt>
      <trkpt lat="46.12714" lon="4.56545">
        <ele>592.4</ele>
        <time>2020-10-19T13:24:41Z</time>
      </trkpt>
      <trkpt lat="46.12714" lon="4.56545">
        <ele>592.2</ele>
        <time>2020-10-19T13:24:42Z</time>
      </trkpt>
      <trkpt lat="46.12716" lon="4.56546">
        <ele>591.8</ele>
        <time>2020-10-19T13:24:43Z</time>
      </trkpt>
      <trkpt lat="46.12716" lon="4.56546">
        <ele>591.8</ele>
        <time>2020-10-19T13:24:44Z</time>
      </trkpt>
      <trkpt lat="46.12716" lon="4.56546">
        <ele>591.8</ele>
        <time>2020-10-19T13:24:45Z</time>
      </trkpt>
      <trkpt lat="46.12718" lon="4.56549">
        <ele>591.6</ele>
        <time>2020-10-19T13:24:46Z</time>
      </trkpt>
      <trkpt lat="46.12718" lon="4.56549">
        <ele>591.2</ele>
        <time>2020-10-19T13:24:47Z</time>
      </trkpt>
      <trkpt lat="46.12718" lon="4.56549">
        <ele>591</ele>
        <time>2020-10-19T13:24:48Z</time>
      </trkpt>
      <trkpt lat="46.1272" lon="4.5655">
        <ele>591</ele>
        <time>2020-10-19T13:24:49Z</time>
      </trkpt>
      <trkpt lat="46.1272" lon="4.5655">
        <ele>590.8</ele>
        <time>2020-10-19T13:24:50Z</time>
      </trkpt>
      <trkpt lat="46.1272" lon="4.5655">
        <ele>590.4</ele>
        <time>2020-10-19T13:24:51Z</time>
      </trkpt>
      <trkpt lat="46.1272" lon="4.5655">
        <ele>590.2</ele>
        <time>2020-10-19T13:24:52Z</time>
      </trkpt>
      <trkpt lat="46.1272" lon="4.5655">
        <ele>590</ele>
        <time>2020-10-19T13:24:53Z</time>
      </trkpt>
      <trkpt lat="46.1272" lon="4.5655">
        <ele>589.8</ele>
        <time>2020-10-19T13:24:54Z</time>
      </trkpt>
      <trkpt lat="46.12721" lon="4.56555">
        <ele>589.8</ele>
        <time>2020-10-19T13:24:55Z</time>
      </trkpt>
      <trkpt lat="46.12721" lon="4.56555">
        <ele>589.6</ele>
        <time>2020-10-19T13:24:56Z</time>
      </trkpt>
      <trkpt lat="46.12721" lon="4.56555">
        <ele>589</ele>
        <time>2020-10-19T13:24:57Z</time>
      </trkpt>
      <trkpt lat="46.12721" lon="4.56555">
        <ele>588.6</ele>
        <time>2020-10-19T13:24:58Z</time>
      </trkpt>
      <trkpt lat="46.12721" lon="4.56555">
        <ele>588</ele>
        <time>2020-10-19T13:24:59Z</time>
      </trkpt>
      <trkpt lat="46.12722" lon="4.56558">
        <ele>588</ele>
        <time>2020-10-19T13:25:00Z</time>
      </trkpt>
      <trkpt lat="46.12722" lon="4.56558">
        <ele>587.6</ele>
        <time>2020-10-19T13:25:01Z</time>
      </trkpt>
      <trkpt lat="46.12722" lon="4.56558">
        <ele>587.6</ele>
        <time>2020-10-19T13:25:02Z</time>
      </trkpt>
      <trkpt lat="46.12722" lon="4.56558">
        <ele>587.4</ele>
        <time>2020-10-19T13:25:03Z</time>
      </trkpt>
      <trkpt lat="46.12723" lon="4.56561">
        <ele>587.2</ele>
        <time>2020-10-19T13:25:04Z</time>
      </trkpt>
      <trkpt lat="46.12723" lon="4.56561">
        <ele>587.2</ele>
        <time>2020-10-19T13:25:05Z</time>
      </trkpt>
      <trkpt lat="46.12723" lon="4.56561">
        <ele>586.8</ele>
        <time>2020-10-19T13:25:06Z</time>
      </trkpt>
      <trkpt lat="46.12725" lon="4.56562">
        <ele>586.4</ele>
        <time>2020-10-19T13:25:07Z</time>
      </trkpt>
      <trkpt lat="46.12725" lon="4.56562">
        <ele>586.4</ele>
        <time>2020-10-19T13:25:08Z</time>
      </trkpt>
      <trkpt lat="46.12725" lon="4.56562">
        <ele>586</ele>
        <time>2020-10-19T13:25:09Z</time>
      </trkpt>
      <trkpt lat="46.12727" lon="4.56563">
        <ele>586</ele>
        <time>2020-10-19T13:25:10Z</time>
      </trkpt>
      <trkpt lat="46.12727" lon="4.56563">
        <ele>586</ele>
        <time>2020-10-19T13:25:11Z</time>
      </trkpt>
      <trkpt lat="46.12729" lon="4.56564">
        <ele>586</ele>
        <time>2020-10-19T13:25:12Z</time>
      </trkpt>
      <trkpt lat="46.12729" lon="4.56564">
        <ele>585.8</ele>
        <time>2020-10-19T13:25:13Z</time>
      </trkpt>
      <trkpt lat="46.12731" lon="4.56564">
        <ele>585.8</ele>
        <time>2020-10-19T13:25:14Z</time>
      </trkpt>
      <trkpt lat="46.12731" lon="4.56564">
        <ele>585.8</ele>
        <time>2020-10-19T13:25:15Z</time>
      </trkpt>
      <trkpt lat="46.12731" lon="4.56564">
        <ele>586</ele>
        <time>2020-10-19T13:25:16Z</time>
      </trkpt>
      <trkpt lat="46.12731" lon="4.56564">
        <ele>585.8</ele>
        <time>2020-10-19T13:25:17Z</time>
      </trkpt>
      <trkpt lat="46.12731" lon="4.56564">
        <ele>586</ele>
        <time>2020-10-19T13:25:18Z</time>
      </trkpt>
      <trkpt lat="46.12731" lon="4.56564">
        <ele>586</ele>
        <time>2020-10-19T13:25:19Z</time>
      </trkpt>
      <trkpt lat="46.12731" lon="4.56564">
        <ele>586</ele>
        <time>2020-10-19T13:25:20Z</time>
      </trkpt>
      <trkpt lat="46.12731" lon="4.56564">
        <ele>586</ele>
        <time>2020-10-19T13:25:21Z</time>
      </trkpt>
      <trkpt lat="46.12731" lon="4.56564">
        <ele>586.2</ele>
        <time>2020-10-19T13:25:22Z</time>
      </trkpt>
      <trkpt lat="46.12731" lon="4.56564">
        <ele>586.4</ele>
        <time>2020-10-19T13:25:23Z</time>
      </trkpt>
      <trkpt lat="46.12731" lon="4.56564">
        <ele>586.2</ele>
        <time>2020-10-19T13:25:24Z</time>
      </trkpt>
      <trkpt lat="46.12731" lon="4.56564">
        <ele>586.2</ele>
        <time>2020-10-19T13:25:25Z</time>
      </trkpt>
      <trkpt lat="46.12731" lon="4.56564">
        <ele>586.4</ele>
        <time>2020-10-19T13:25:26Z</time>
      </trkpt>
      <trkpt lat="46.12731" lon="4.56564">
        <ele>586.4</ele>
        <time>2020-10-19T13:25:27Z</time>
      </trkpt>
      <trkpt lat="46.12732" lon="4.56568">
        <ele>586.6</ele>
        <time>2020-10-19T13:25:28Z</time>
      </trkpt>
      <trkpt lat="46.12732" lon="4.56568">
        <ele>586.6</ele>
        <time>2020-10-19T13:25:29Z</time>
      </trkpt>
      <trkpt lat="46.12731" lon="4.5657">
        <ele>586.8</ele>
        <time>2020-10-19T13:25:30Z</time>
      </trkpt>
      <trkpt lat="46.12731" lon="4.5657">
        <ele>587</ele>
        <time>2020-10-19T13:25:31Z</time>
      </trkpt>
      <trkpt lat="46.12732" lon="4.56574">
        <ele>586.8</ele>
        <time>2020-10-19T13:25:32Z</time>
      </trkpt>
      <trkpt lat="46.12732" lon="4.56574">
        <ele>586.6</ele>
        <time>2020-10-19T13:25:33Z</time>
      </trkpt>
      <trkpt lat="46.12733" lon="4.56577">
        <ele>586</ele>
        <time>2020-10-19T13:25:34Z</time>
      </trkpt>
      <trkpt lat="46.12733" lon="4.56577">
        <ele>586</ele>
        <time>2020-10-19T13:25:35Z</time>
      </trkpt>
      <trkpt lat="46.12734" lon="4.5658">
        <ele>585.2</ele>
        <time>2020-10-19T13:25:36Z</time>
      </trkpt>
      <trkpt lat="46.12734" lon="4.5658">
        <ele>585</ele>
        <time>2020-10-19T13:25:37Z</time>
      </trkpt>
      <trkpt lat="46.12734" lon="4.5658">
        <ele>584.8</ele>
        <time>2020-10-19T13:25:38Z</time>
      </trkpt>
      <trkpt lat="46.12734" lon="4.5658">
        <ele>585</ele>
        <time>2020-10-19T13:25:39Z</time>
      </trkpt>
      <trkpt lat="46.12734" lon="4.5658">
        <ele>585</ele>
        <time>2020-10-19T13:25:40Z</time>
      </trkpt>
      <trkpt lat="46.12735" lon="4.56583">
        <ele>585</ele>
        <time>2020-10-19T13:25:41Z</time>
      </trkpt>
      <trkpt lat="46.12735" lon="4.56583">
        <ele>584.8</ele>
        <time>2020-10-19T13:25:42Z</time>
      </trkpt>
      <trkpt lat="46.12736" lon="4.56585">
        <ele>584.8</ele>
        <time>2020-10-19T13:25:43Z</time>
      </trkpt>
      <trkpt lat="46.12736" lon="4.56585">
        <ele>585</ele>
        <time>2020-10-19T13:25:44Z</time>
      </trkpt>
      <trkpt lat="46.12736" lon="4.56585">
        <ele>585</ele>
        <time>2020-10-19T13:25:45Z</time>
      </trkpt>
      <trkpt lat="46.12736" lon="4.56585">
        <ele>585</ele>
        <time>2020-10-19T13:25:46Z</time>
      </trkpt>
      <trkpt lat="46.12738" lon="4.56587">
        <ele>585</ele>
        <time>2020-10-19T13:25:47Z</time>
      </trkpt>
      <trkpt lat="46.12738" lon="4.56587">
        <ele>584.8</ele>
        <time>2020-10-19T13:25:48Z</time>
      </trkpt>
      <trkpt lat="46.12738" lon="4.56587">
        <ele>585</ele>
        <time>2020-10-19T13:25:49Z</time>
      </trkpt>
      <trkpt lat="46.12738" lon="4.56587">
        <ele>585</ele>
        <time>2020-10-19T13:25:50Z</time>
      </trkpt>
      <trkpt lat="46.12738" lon="4.5659">
        <ele>585</ele>
        <time>2020-10-19T13:25:51Z</time>
      </trkpt>
      <trkpt lat="46.12738" lon="4.5659">
        <ele>585</ele>
        <time>2020-10-19T13:25:52Z</time>
      </trkpt>
      <trkpt lat="46.12738" lon="4.56593">
        <ele>584.8</ele>
        <time>2020-10-19T13:25:53Z</time>
      </trkpt>
      <trkpt lat="46.12738" lon="4.56593">
        <ele>584.8</ele>
        <time>2020-10-19T13:25:54Z</time>
      </trkpt>
      <trkpt lat="46.12739" lon="4.56596">
        <ele>585</ele>
        <time>2020-10-19T13:25:55Z</time>
      </trkpt>
      <trkpt lat="46.12739" lon="4.56596">
        <ele>584.8</ele>
        <time>2020-10-19T13:25:56Z</time>
      </trkpt>
      <trkpt lat="46.12739" lon="4.56596">
        <ele>584.6</ele>
        <time>2020-10-19T13:25:57Z</time>
      </trkpt>
      <trkpt lat="46.12739" lon="4.56599">
        <ele>584.4</ele>
        <time>2020-10-19T13:25:58Z</time>
      </trkpt>
      <trkpt lat="46.12739" lon="4.56599">
        <ele>584.2</ele>
        <time>2020-10-19T13:25:59Z</time>
      </trkpt>
      <trkpt lat="46.1274" lon="4.56602">
        <ele>584</ele>
        <time>2020-10-19T13:26:00Z</time>
      </trkpt>
      <trkpt lat="46.1274" lon="4.56602">
        <ele>583.8</ele>
        <time>2020-10-19T13:26:01Z</time>
      </trkpt>
      <trkpt lat="46.1274" lon="4.56605">
        <ele>583.4</ele>
        <time>2020-10-19T13:26:02Z</time>
      </trkpt>
      <trkpt lat="46.1274" lon="4.56605">
        <ele>583</ele>
        <time>2020-10-19T13:26:03Z</time>
      </trkpt>
      <trkpt lat="46.1274" lon="4.56605">
        <ele>582.8</ele>
        <time>2020-10-19T13:26:04Z</time>
      </trkpt>
      <trkpt lat="46.1274" lon="4.56605">
        <ele>582.8</ele>
        <time>2020-10-19T13:26:05Z</time>
      </trkpt>
      <trkpt lat="46.1274" lon="4.56605">
        <ele>582.6</ele>
        <time>2020-10-19T13:26:06Z</time>
      </trkpt>
      <trkpt lat="46.1274" lon="4.56605">
        <ele>582.4</ele>
        <time>2020-10-19T13:26:07Z</time>
      </trkpt>
      <trkpt lat="46.1274" lon="4.56605">
        <ele>582.4</ele>
        <time>2020-10-19T13:26:08Z</time>
      </trkpt>
      <trkpt lat="46.1274" lon="4.56605">
        <ele>582.4</ele>
        <time>2020-10-19T13:26:09Z</time>
      </trkpt>
      <trkpt lat="46.1274" lon="4.56605">
        <ele>582.4</ele>
        <time>2020-10-19T13:26:10Z</time>
      </trkpt>
      <trkpt lat="46.12741" lon="4.56607">
        <ele>582.2</ele>
        <time>2020-10-19T13:26:11Z</time>
      </trkpt>
      <trkpt lat="46.12741" lon="4.56607">
        <ele>582.4</ele>
        <time>2020-10-19T13:26:12Z</time>
      </trkpt>
      <trkpt lat="46.12741" lon="4.56607">
        <ele>582.2</ele>
        <time>2020-10-19T13:26:13Z</time>
      </trkpt>
      <trkpt lat="46.12742" lon="4.5661">
        <ele>582.2</ele>
        <time>2020-10-19T13:26:14Z</time>
      </trkpt>
      <trkpt lat="46.12742" lon="4.5661">
        <ele>582</ele>
        <time>2020-10-19T13:26:15Z</time>
      </trkpt>
      <trkpt lat="46.12742" lon="4.5661">
        <ele>582</ele>
        <time>2020-10-19T13:26:16Z</time>
      </trkpt>
      <trkpt lat="46.12741" lon="4.56614">
        <ele>581.8</ele>
        <time>2020-10-19T13:26:17Z</time>
      </trkpt>
      <trkpt lat="46.12741" lon="4.56614">
        <ele>581.6</ele>
        <time>2020-10-19T13:26:18Z</time>
      </trkpt>
      <trkpt lat="46.12741" lon="4.56614">
        <ele>581.6</ele>
        <time>2020-10-19T13:26:19Z</time>
      </trkpt>
      <trkpt lat="46.1274" lon="4.56617">
        <ele>581.4</ele>
        <time>2020-10-19T13:26:20Z</time>
      </trkpt>
      <trkpt lat="46.1274" lon="4.56617">
        <ele>581.4</ele>
        <time>2020-10-19T13:26:21Z</time>
      </trkpt>
      <trkpt lat="46.1274" lon="4.56617">
        <ele>581</ele>
        <time>2020-10-19T13:26:22Z</time>
      </trkpt>
      <trkpt lat="46.12741" lon="4.5662">
        <ele>580.8</ele>
        <time>2020-10-19T13:26:23Z</time>
      </trkpt>
      <trkpt lat="46.12741" lon="4.5662">
        <ele>580.4</ele>
        <time>2020-10-19T13:26:24Z</time>
      </trkpt>
      <trkpt lat="46.12741" lon="4.5662">
        <ele>580.2</ele>
        <time>2020-10-19T13:26:25Z</time>
      </trkpt>
      <trkpt lat="46.12741" lon="4.5662">
        <ele>579.6</ele>
        <time>2020-10-19T13:26:26Z</time>
      </trkpt>
      <trkpt lat="46.12742" lon="4.56623">
        <ele>579.4</ele>
        <time>2020-10-19T13:26:27Z</time>
      </trkpt>
      <trkpt lat="46.12742" lon="4.56623">
        <ele>578.8</ele>
        <time>2020-10-19T13:26:28Z</time>
      </trkpt>
      <trkpt lat="46.12742" lon="4.56623">
        <ele>578.6</ele>
        <time>2020-10-19T13:26:29Z</time>
      </trkpt>
      <trkpt lat="46.12743" lon="4.56626">
        <ele>578.2</ele>
        <time>2020-10-19T13:26:30Z</time>
      </trkpt>
      <trkpt lat="46.12743" lon="4.56626">
        <ele>577.8</ele>
        <time>2020-10-19T13:26:31Z</time>
      </trkpt>
      <trkpt lat="46.12744" lon="4.56629">
        <ele>577.2</ele>
        <time>2020-10-19T13:26:32Z</time>
      </trkpt>
      <trkpt lat="46.12744" lon="4.56629">
        <ele>576.8</ele>
        <time>2020-10-19T13:26:33Z</time>
      </trkpt>
      <trkpt lat="46.12744" lon="4.56629">
        <ele>576.4</ele>
        <time>2020-10-19T13:26:34Z</time>
      </trkpt>
      <trkpt lat="46.12744" lon="4.56629">
        <ele>576.2</ele>
        <time>2020-10-19T13:26:35Z</time>
      </trkpt>
      <trkpt lat="46.12745" lon="4.56632">
        <ele>575.8</ele>
        <time>2020-10-19T13:26:36Z</time>
      </trkpt>
      <trkpt lat="46.12745" lon="4.56632">
        <ele>575.4</ele>
        <time>2020-10-19T13:26:37Z</time>
      </trkpt>
      <trkpt lat="46.12745" lon="4.56632">
        <ele>575.2</ele>
        <time>2020-10-19T13:26:38Z</time>
      </trkpt>
      <trkpt lat="46.12747" lon="4.56635">
        <ele>574.8</ele>
        <time>2020-10-19T13:26:39Z</time>
      </trkpt>
      <trkpt lat="46.12747" lon="4.56635">
        <ele>574.6</ele>
        <time>2020-10-19T13:26:40Z</time>
      </trkpt>
      <trkpt lat="46.12749" lon="4.56638">
        <ele>574.2</ele>
        <time>2020-10-19T13:26:41Z</time>
      </trkpt>
      <trkpt lat="46.12749" lon="4.56638">
        <ele>574</ele>
        <time>2020-10-19T13:26:42Z</time>
      </trkpt>
      <trkpt lat="46.1275" lon="4.5664">
        <ele>573.6</ele>
        <time>2020-10-19T13:26:43Z</time>
      </trkpt>
      <trkpt lat="46.1275" lon="4.5664">
        <ele>573.4</ele>
        <time>2020-10-19T13:26:44Z</time>
      </trkpt>
      <trkpt lat="46.12752" lon="4.5664">
        <ele>572.6</ele>
        <time>2020-10-19T13:26:45Z</time>
      </trkpt>
      <trkpt lat="46.12754" lon="4.56639">
        <ele>572.4</ele>
        <time>2020-10-19T13:26:46Z</time>
      </trkpt>
      <trkpt lat="46.12755" lon="4.56638">
        <ele>571.4</ele>
        <time>2020-10-19T13:26:47Z</time>
      </trkpt>
      <trkpt lat="46.12756" lon="4.56637">
        <ele>570.4</ele>
        <time>2020-10-19T13:26:48Z</time>
      </trkpt>
      <trkpt lat="46.12757" lon="4.56636">
        <ele>570</ele>
        <time>2020-10-19T13:26:49Z</time>
      </trkpt>
      <trkpt lat="46.12759" lon="4.56635">
        <ele>569.6</ele>
        <time>2020-10-19T13:26:50Z</time>
      </trkpt>
      <trkpt lat="46.1276" lon="4.56633">
        <ele>569.2</ele>
        <time>2020-10-19T13:26:51Z</time>
      </trkpt>
      <trkpt lat="46.12761" lon="4.56632">
        <ele>568.6</ele>
        <time>2020-10-19T13:26:52Z</time>
      </trkpt>
      <trkpt lat="46.12762" lon="4.56631">
        <ele>568</ele>
        <time>2020-10-19T13:26:53Z</time>
      </trkpt>
      <trkpt lat="46.12762" lon="4.56631">
        <ele>567.8</ele>
        <time>2020-10-19T13:26:54Z</time>
      </trkpt>
      <trkpt lat="46.12763" lon="4.5663">
        <ele>567.4</ele>
        <time>2020-10-19T13:26:55Z</time>
      </trkpt>
      <trkpt lat="46.12764" lon="4.56629">
        <ele>566.8</ele>
        <time>2020-10-19T13:26:56Z</time>
      </trkpt>
      <trkpt lat="46.12764" lon="4.56629">
        <ele>566.4</ele>
        <time>2020-10-19T13:26:57Z</time>
      </trkpt>
      <trkpt lat="46.12765" lon="4.56628">
        <ele>565.8</ele>
        <time>2020-10-19T13:26:58Z</time>
      </trkpt>
      <trkpt lat="46.12766" lon="4.56627">
        <ele>565.4</ele>
        <time>2020-10-19T13:26:59Z</time>
      </trkpt>
      <trkpt lat="46.12772" lon="4.56621">
        <ele>564.2</ele>
        <time>2020-10-19T13:27:00Z</time>
      </trkpt>
      <trkpt lat="46.12773" lon="4.5662">
        <ele>563.4</ele>
        <time>2020-10-19T13:27:01Z</time>
      </trkpt>
      <trkpt lat="46.12775" lon="4.56618">
        <ele>563.4</ele>
        <time>2020-10-19T13:27:02Z</time>
      </trkpt>
      <trkpt lat="46.12777" lon="4.56617">
        <ele>563</ele>
        <time>2020-10-19T13:27:03Z</time>
      </trkpt>
      <trkpt lat="46.12778" lon="4.56615">
        <ele>562.8</ele>
        <time>2020-10-19T13:27:04Z</time>
      </trkpt>
      <trkpt lat="46.1278" lon="4.56614">
        <ele>562</ele>
        <time>2020-10-19T13:27:05Z</time>
      </trkpt>
      <trkpt lat="46.12782" lon="4.56612">
        <ele>561.8</ele>
        <time>2020-10-19T13:27:06Z</time>
      </trkpt>
      <trkpt lat="46.12784" lon="4.5661">
        <ele>561.4</ele>
        <time>2020-10-19T13:27:07Z</time>
      </trkpt>
      <trkpt lat="46.12784" lon="4.5661">
        <ele>560.8</ele>
        <time>2020-10-19T13:27:08Z</time>
      </trkpt>
      <trkpt lat="46.12787" lon="4.56606">
        <ele>560.2</ele>
        <time>2020-10-19T13:27:09Z</time>
      </trkpt>
      <trkpt lat="46.12789" lon="4.56605">
        <ele>559.4</ele>
        <time>2020-10-19T13:27:10Z</time>
      </trkpt>
      <trkpt lat="46.1279" lon="4.56604">
        <ele>558.6</ele>
        <time>2020-10-19T13:27:11Z</time>
      </trkpt>
      <trkpt lat="46.1279" lon="4.56604">
        <ele>558</ele>
        <time>2020-10-19T13:27:12Z</time>
      </trkpt>
      <trkpt lat="46.12794" lon="4.56602">
        <ele>557.4</ele>
        <time>2020-10-19T13:27:13Z</time>
      </trkpt>
      <trkpt lat="46.12796" lon="4.56602">
        <ele>557.6</ele>
        <time>2020-10-19T13:27:14Z</time>
      </trkpt>
      <trkpt lat="46.12799" lon="4.56602">
        <ele>557</ele>
        <time>2020-10-19T13:27:15Z</time>
      </trkpt>
      <trkpt lat="46.12801" lon="4.56602">
        <ele>556.4</ele>
        <time>2020-10-19T13:27:16Z</time>
      </trkpt>
      <trkpt lat="46.12804" lon="4.56601">
        <ele>556.4</ele>
        <time>2020-10-19T13:27:17Z</time>
      </trkpt>
      <trkpt lat="46.12806" lon="4.56599">
        <ele>555.8</ele>
        <time>2020-10-19T13:27:18Z</time>
      </trkpt>
      <trkpt lat="46.12808" lon="4.56596">
        <ele>555.4</ele>
        <time>2020-10-19T13:27:19Z</time>
      </trkpt>
      <trkpt lat="46.1281" lon="4.56594">
        <ele>554.8</ele>
        <time>2020-10-19T13:27:20Z</time>
      </trkpt>
      <trkpt lat="46.12812" lon="4.56592">
        <ele>554.6</ele>
        <time>2020-10-19T13:27:21Z</time>
      </trkpt>
      <trkpt lat="46.12814" lon="4.56591">
        <ele>553.8</ele>
        <time>2020-10-19T13:27:22Z</time>
      </trkpt>
      <trkpt lat="46.12816" lon="4.5659">
        <ele>553.4</ele>
        <time>2020-10-19T13:27:23Z</time>
      </trkpt>
      <trkpt lat="46.12819" lon="4.56588">
        <ele>552.8</ele>
        <time>2020-10-19T13:27:24Z</time>
      </trkpt>
      <trkpt lat="46.1282" lon="4.56587">
        <ele>552.2</ele>
        <time>2020-10-19T13:27:25Z</time>
      </trkpt>
      <trkpt lat="46.12823" lon="4.56586">
        <ele>551.6</ele>
        <time>2020-10-19T13:27:26Z</time>
      </trkpt>
      <trkpt lat="46.12825" lon="4.56584">
        <ele>551</ele>
        <time>2020-10-19T13:27:27Z</time>
      </trkpt>
      <trkpt lat="46.12827" lon="4.56583">
        <ele>550.6</ele>
        <time>2020-10-19T13:27:28Z</time>
      </trkpt>
      <trkpt lat="46.12829" lon="4.56581">
        <ele>550.2</ele>
        <time>2020-10-19T13:27:29Z</time>
      </trkpt>
      <trkpt lat="46.12831" lon="4.56579">
        <ele>549.8</ele>
        <time>2020-10-19T13:27:30Z</time>
      </trkpt>
      <trkpt lat="46.12831" lon="4.56579">
        <ele>549.6</ele>
        <time>2020-10-19T13:27:31Z</time>
      </trkpt>
      <trkpt lat="46.12834" lon="4.56577">
        <ele>549.2</ele>
        <time>2020-10-19T13:27:32Z</time>
      </trkpt>
      <trkpt lat="46.12836" lon="4.56576">
        <ele>548.6</ele>
        <time>2020-10-19T13:27:33Z</time>
      </trkpt>
      <trkpt lat="46.12838" lon="4.56574">
        <ele>548.4</ele>
        <time>2020-10-19T13:27:34Z</time>
      </trkpt>
      <trkpt lat="46.1284" lon="4.56572">
        <ele>548</ele>
        <time>2020-10-19T13:27:35Z</time>
      </trkpt>
      <trkpt lat="46.12843" lon="4.5657">
        <ele>547.6</ele>
        <time>2020-10-19T13:27:36Z</time>
      </trkpt>
      <trkpt lat="46.12845" lon="4.56568">
        <ele>547</ele>
        <time>2020-10-19T13:27:37Z</time>
      </trkpt>
      <trkpt lat="46.12847" lon="4.56567">
        <ele>546.2</ele>
        <time>2020-10-19T13:27:38Z</time>
      </trkpt>
      <trkpt lat="46.1285" lon="4.56566">
        <ele>546.4</ele>
        <time>2020-10-19T13:27:39Z</time>
      </trkpt>
      <trkpt lat="46.12853" lon="4.56565">
        <ele>545.6</ele>
        <time>2020-10-19T13:27:40Z</time>
      </trkpt>
      <trkpt lat="46.12856" lon="4.56566">
        <ele>545.2</ele>
        <time>2020-10-19T13:27:41Z</time>
      </trkpt>
      <trkpt lat="46.12859" lon="4.56566">
        <ele>544.8</ele>
        <time>2020-10-19T13:27:42Z</time>
      </trkpt>
      <trkpt lat="46.12862" lon="4.56567">
        <ele>544.4</ele>
        <time>2020-10-19T13:27:43Z</time>
      </trkpt>
      <trkpt lat="46.12865" lon="4.56567">
        <ele>544.2</ele>
        <time>2020-10-19T13:27:44Z</time>
      </trkpt>
      <trkpt lat="46.12868" lon="4.56567">
        <ele>543.8</ele>
        <time>2020-10-19T13:27:45Z</time>
      </trkpt>
      <trkpt lat="46.1287" lon="4.56567">
        <ele>543.6</ele>
        <time>2020-10-19T13:27:46Z</time>
      </trkpt>
      <trkpt lat="46.12873" lon="4.56567">
        <ele>543</ele>
        <time>2020-10-19T13:27:47Z</time>
      </trkpt>
      <trkpt lat="46.12876" lon="4.56568">
        <ele>542.4</ele>
        <time>2020-10-19T13:27:48Z</time>
      </trkpt>
      <trkpt lat="46.12879" lon="4.56569">
        <ele>541.8</ele>
        <time>2020-10-19T13:27:49Z</time>
      </trkpt>
      <trkpt lat="46.12881" lon="4.56569">
        <ele>541.4</ele>
        <time>2020-10-19T13:27:50Z</time>
      </trkpt>
      <trkpt lat="46.12883" lon="4.5657">
        <ele>541.2</ele>
        <time>2020-10-19T13:27:51Z</time>
      </trkpt>
      <trkpt lat="46.12883" lon="4.5657">
        <ele>540.8</ele>
        <time>2020-10-19T13:27:52Z</time>
      </trkpt>
      <trkpt lat="46.12885" lon="4.56571">
        <ele>540.2</ele>
        <time>2020-10-19T13:27:53Z</time>
      </trkpt>
      <trkpt lat="46.12885" lon="4.56571">
        <ele>539.8</ele>
        <time>2020-10-19T13:27:54Z</time>
      </trkpt>
      <trkpt lat="46.12888" lon="4.56571">
        <ele>539.4</ele>
        <time>2020-10-19T13:27:55Z</time>
      </trkpt>
      <trkpt lat="46.12888" lon="4.56571">
        <ele>539.4</ele>
        <time>2020-10-19T13:27:56Z</time>
      </trkpt>
      <trkpt lat="46.1289" lon="4.56572">
        <ele>539</ele>
        <time>2020-10-19T13:27:57Z</time>
      </trkpt>
      <trkpt lat="46.1289" lon="4.56572">
        <ele>538.6</ele>
        <time>2020-10-19T13:27:58Z</time>
      </trkpt>
      <trkpt lat="46.12893" lon="4.56573">
        <ele>538.4</ele>
        <time>2020-10-19T13:27:59Z</time>
      </trkpt>
      <trkpt lat="46.12893" lon="4.56573">
        <ele>538.2</ele>
        <time>2020-10-19T13:28:00Z</time>
      </trkpt>
      <trkpt lat="46.12895" lon="4.56573">
        <ele>538</ele>
        <time>2020-10-19T13:28:01Z</time>
      </trkpt>
      <trkpt lat="46.12895" lon="4.56573">
        <ele>538.2</ele>
        <time>2020-10-19T13:28:02Z</time>
      </trkpt>
      <trkpt lat="46.12895" lon="4.56573">
        <ele>538</ele>
        <time>2020-10-19T13:28:03Z</time>
      </trkpt>
      <trkpt lat="46.12897" lon="4.56573">
        <ele>537.8</ele>
        <time>2020-10-19T13:28:04Z</time>
      </trkpt>
      <trkpt lat="46.12897" lon="4.56573">
        <ele>537.8</ele>
        <time>2020-10-19T13:28:05Z</time>
      </trkpt>
      <trkpt lat="46.12899" lon="4.56574">
        <ele>537.6</ele>
        <time>2020-10-19T13:28:06Z</time>
      </trkpt>
      <trkpt lat="46.12899" lon="4.56574">
        <ele>537.4</ele>
        <time>2020-10-19T13:28:07Z</time>
      </trkpt>
      <trkpt lat="46.12903" lon="4.56575">
        <ele>537.4</ele>
        <time>2020-10-19T13:28:08Z</time>
      </trkpt>
      <trkpt lat="46.12905" lon="4.56576">
        <ele>537.2</ele>
        <time>2020-10-19T13:28:09Z</time>
      </trkpt>
      <trkpt lat="46.12908" lon="4.56577">
        <ele>536.8</ele>
        <time>2020-10-19T13:28:10Z</time>
      </trkpt>
      <trkpt lat="46.1291" lon="4.56579">
        <ele>536.8</ele>
        <time>2020-10-19T13:28:11Z</time>
      </trkpt>
      <trkpt lat="46.12913" lon="4.5658">
        <ele>536.6</ele>
        <time>2020-10-19T13:28:12Z</time>
      </trkpt>
      <trkpt lat="46.12916" lon="4.56581">
        <ele>536.4</ele>
        <time>2020-10-19T13:28:13Z</time>
      </trkpt>
      <trkpt lat="46.12918" lon="4.56582">
        <ele>535.4</ele>
        <time>2020-10-19T13:28:14Z</time>
      </trkpt>
      <trkpt lat="46.1292" lon="4.56583">
        <ele>535.2</ele>
        <time>2020-10-19T13:28:15Z</time>
      </trkpt>
      <trkpt lat="46.12922" lon="4.56584">
        <ele>535.2</ele>
        <time>2020-10-19T13:28:16Z</time>
      </trkpt>
      <trkpt lat="46.12924" lon="4.56585">
        <ele>534.8</ele>
        <time>2020-10-19T13:28:17Z</time>
      </trkpt>
      <trkpt lat="46.12927" lon="4.56585">
        <ele>534.6</ele>
        <time>2020-10-19T13:28:18Z</time>
      </trkpt>
      <trkpt lat="46.1293" lon="4.56587">
        <ele>533.8</ele>
        <time>2020-10-19T13:28:19Z</time>
      </trkpt>
      <trkpt lat="46.12932" lon="4.56588">
        <ele>533.6</ele>
        <time>2020-10-19T13:28:20Z</time>
      </trkpt>
      <trkpt lat="46.12934" lon="4.56589">
        <ele>532.8</ele>
        <time>2020-10-19T13:28:21Z</time>
      </trkpt>
      <trkpt lat="46.12936" lon="4.56591">
        <ele>532.4</ele>
        <time>2020-10-19T13:28:22Z</time>
      </trkpt>
      <trkpt lat="46.12937" lon="4.56592">
        <ele>531.6</ele>
        <time>2020-10-19T13:28:23Z</time>
      </trkpt>
      <trkpt lat="46.12939" lon="4.56594">
        <ele>531.6</ele>
        <time>2020-10-19T13:28:24Z</time>
      </trkpt>
      <trkpt lat="46.12941" lon="4.56595">
        <ele>531</ele>
        <time>2020-10-19T13:28:25Z</time>
      </trkpt>
      <trkpt lat="46.12943" lon="4.56597">
        <ele>530.6</ele>
        <time>2020-10-19T13:28:26Z</time>
      </trkpt>
      <trkpt lat="46.12945" lon="4.56598">
        <ele>529.8</ele>
        <time>2020-10-19T13:28:27Z</time>
      </trkpt>
      <trkpt lat="46.12947" lon="4.566">
        <ele>529.6</ele>
        <time>2020-10-19T13:28:28Z</time>
      </trkpt>
      <trkpt lat="46.12948" lon="4.56601">
        <ele>529.2</ele>
        <time>2020-10-19T13:28:29Z</time>
      </trkpt>
      <trkpt lat="46.1295" lon="4.56602">
        <ele>528.8</ele>
        <time>2020-10-19T13:28:30Z</time>
      </trkpt>
      <trkpt lat="46.12953" lon="4.56604">
        <ele>528</ele>
        <time>2020-10-19T13:28:31Z</time>
      </trkpt>
      <trkpt lat="46.12955" lon="4.56606">
        <ele>527.4</ele>
        <time>2020-10-19T13:28:32Z</time>
      </trkpt>
      <trkpt lat="46.12957" lon="4.56607">
        <ele>526.8</ele>
        <time>2020-10-19T13:28:33Z</time>
      </trkpt>
      <trkpt lat="46.12958" lon="4.56609">
        <ele>526.2</ele>
        <time>2020-10-19T13:28:34Z</time>
      </trkpt>
      <trkpt lat="46.1296" lon="4.5661">
        <ele>525.6</ele>
        <time>2020-10-19T13:28:35Z</time>
      </trkpt>
      <trkpt lat="46.12962" lon="4.56612">
        <ele>524.8</ele>
        <time>2020-10-19T13:28:36Z</time>
      </trkpt>
      <trkpt lat="46.12965" lon="4.56612">
        <ele>524.6</ele>
        <time>2020-10-19T13:28:37Z</time>
      </trkpt>
      <trkpt lat="46.12967" lon="4.56614">
        <ele>523.8</ele>
        <time>2020-10-19T13:28:38Z</time>
      </trkpt>
      <trkpt lat="46.12968" lon="4.56615">
        <ele>523.6</ele>
        <time>2020-10-19T13:28:39Z</time>
      </trkpt>
      <trkpt lat="46.1297" lon="4.56616">
        <ele>523.2</ele>
        <time>2020-10-19T13:28:40Z</time>
      </trkpt>
      <trkpt lat="46.12972" lon="4.56617">
        <ele>522.8</ele>
        <time>2020-10-19T13:28:41Z</time>
      </trkpt>
      <trkpt lat="46.12974" lon="4.56618">
        <ele>522.4</ele>
        <time>2020-10-19T13:28:42Z</time>
      </trkpt>
      <trkpt lat="46.12976" lon="4.56619">
        <ele>522</ele>
        <time>2020-10-19T13:28:43Z</time>
      </trkpt>
      <trkpt lat="46.12978" lon="4.56621">
        <ele>521.2</ele>
        <time>2020-10-19T13:28:44Z</time>
      </trkpt>
      <trkpt lat="46.1298" lon="4.56622">
        <ele>521</ele>
        <time>2020-10-19T13:28:45Z</time>
      </trkpt>
      <trkpt lat="46.12982" lon="4.56623">
        <ele>520.4</ele>
        <time>2020-10-19T13:28:46Z</time>
      </trkpt>
      <trkpt lat="46.12982" lon="4.56623">
        <ele>520</ele>
        <time>2020-10-19T13:28:47Z</time>
      </trkpt>
      <trkpt lat="46.12985" lon="4.56625">
        <ele>519.6</ele>
        <time>2020-10-19T13:28:48Z</time>
      </trkpt>
      <trkpt lat="46.12987" lon="4.56624">
        <ele>518.8</ele>
        <time>2020-10-19T13:28:49Z</time>
      </trkpt>
      <trkpt lat="46.12989" lon="4.56625">
        <ele>518.2</ele>
        <time>2020-10-19T13:28:50Z</time>
      </trkpt>
      <trkpt lat="46.12991" lon="4.56625">
        <ele>517.8</ele>
        <time>2020-10-19T13:28:51Z</time>
      </trkpt>
      <trkpt lat="46.12991" lon="4.56625">
        <ele>517.8</ele>
        <time>2020-10-19T13:28:52Z</time>
      </trkpt>
      <trkpt lat="46.12994" lon="4.56625">
        <ele>517.2</ele>
        <time>2020-10-19T13:28:53Z</time>
      </trkpt>
      <trkpt lat="46.12994" lon="4.56625">
        <ele>517</ele>
        <time>2020-10-19T13:28:54Z</time>
      </trkpt>
      <trkpt lat="46.12996" lon="4.56626">
        <ele>516.6</ele>
        <time>2020-10-19T13:28:55Z</time>
      </trkpt>
      <trkpt lat="46.12996" lon="4.56626">
        <ele>516.4</ele>
        <time>2020-10-19T13:28:56Z</time>
      </trkpt>
      <trkpt lat="46.12998" lon="4.56628">
        <ele>515.6</ele>
        <time>2020-10-19T13:28:57Z</time>
      </trkpt>
      <trkpt lat="46.13001" lon="4.56629">
        <ele>515.4</ele>
        <time>2020-10-19T13:28:58Z</time>
      </trkpt>
      <trkpt lat="46.13003" lon="4.5663">
        <ele>515</ele>
        <time>2020-10-19T13:28:59Z</time>
      </trkpt>
      <trkpt lat="46.13005" lon="4.56631">
        <ele>515</ele>
        <time>2020-10-19T13:29:00Z</time>
      </trkpt>
      <trkpt lat="46.13007" lon="4.56632">
        <ele>514.4</ele>
        <time>2020-10-19T13:29:01Z</time>
      </trkpt>
      <trkpt lat="46.1301" lon="4.56633">
        <ele>514.2</ele>
        <time>2020-10-19T13:29:02Z</time>
      </trkpt>
      <trkpt lat="46.13013" lon="4.56635">
        <ele>513.4</ele>
        <time>2020-10-19T13:29:03Z</time>
      </trkpt>
      <trkpt lat="46.13017" lon="4.56637">
        <ele>513.4</ele>
        <time>2020-10-19T13:29:04Z</time>
      </trkpt>
      <trkpt lat="46.13019" lon="4.56639">
        <ele>512.8</ele>
        <time>2020-10-19T13:29:05Z</time>
      </trkpt>
      <trkpt lat="46.13021" lon="4.5664">
        <ele>512.6</ele>
        <time>2020-10-19T13:29:06Z</time>
      </trkpt>
      <trkpt lat="46.13023" lon="4.56641">
        <ele>511.8</ele>
        <time>2020-10-19T13:29:07Z</time>
      </trkpt>
      <trkpt lat="46.13026" lon="4.56642">
        <ele>511.2</ele>
        <time>2020-10-19T13:29:08Z</time>
      </trkpt>
      <trkpt lat="46.13028" lon="4.56643">
        <ele>510.8</ele>
        <time>2020-10-19T13:29:09Z</time>
      </trkpt>
      <trkpt lat="46.13028" lon="4.56643">
        <ele>510.6</ele>
        <time>2020-10-19T13:29:10Z</time>
      </trkpt>
      <trkpt lat="46.13031" lon="4.56645">
        <ele>510</ele>
        <time>2020-10-19T13:29:11Z</time>
      </trkpt>
      <trkpt lat="46.13033" lon="4.56646">
        <ele>509.8</ele>
        <time>2020-10-19T13:29:12Z</time>
      </trkpt>
      <trkpt lat="46.13035" lon="4.56647">
        <ele>509.2</ele>
        <time>2020-10-19T13:29:13Z</time>
      </trkpt>
      <trkpt lat="46.13037" lon="4.56649">
        <ele>508.8</ele>
        <time>2020-10-19T13:29:14Z</time>
      </trkpt>
      <trkpt lat="46.13039" lon="4.56651">
        <ele>508.4</ele>
        <time>2020-10-19T13:29:15Z</time>
      </trkpt>
      <trkpt lat="46.13041" lon="4.56654">
        <ele>508</ele>
        <time>2020-10-19T13:29:16Z</time>
      </trkpt>
      <trkpt lat="46.13043" lon="4.56657">
        <ele>507.4</ele>
        <time>2020-10-19T13:29:17Z</time>
      </trkpt>
      <trkpt lat="46.13045" lon="4.56659">
        <ele>506.8</ele>
        <time>2020-10-19T13:29:18Z</time>
      </trkpt>
      <trkpt lat="46.13047" lon="4.56662">
        <ele>506.2</ele>
        <time>2020-10-19T13:29:19Z</time>
      </trkpt>
      <trkpt lat="46.13049" lon="4.56664">
        <ele>506</ele>
        <time>2020-10-19T13:29:20Z</time>
      </trkpt>
      <trkpt lat="46.13051" lon="4.56666">
        <ele>505.6</ele>
        <time>2020-10-19T13:29:21Z</time>
      </trkpt>
      <trkpt lat="46.13053" lon="4.56668">
        <ele>504.6</ele>
        <time>2020-10-19T13:29:22Z</time>
      </trkpt>
      <trkpt lat="46.13055" lon="4.5667">
        <ele>503.6</ele>
        <time>2020-10-19T13:29:23Z</time>
      </trkpt>
      <trkpt lat="46.13055" lon="4.5667">
        <ele>503</ele>
        <time>2020-10-19T13:29:24Z</time>
      </trkpt>
      <trkpt lat="46.13057" lon="4.56671">
        <ele>502.4</ele>
        <time>2020-10-19T13:29:25Z</time>
      </trkpt>
      <trkpt lat="46.13057" lon="4.56671">
        <ele>501.6</ele>
        <time>2020-10-19T13:29:26Z</time>
      </trkpt>
      <trkpt lat="46.13057" lon="4.56671">
        <ele>501</ele>
        <time>2020-10-19T13:29:27Z</time>
      </trkpt>
      <trkpt lat="46.13057" lon="4.56671">
        <ele>500.6</ele>
        <time>2020-10-19T13:29:28Z</time>
      </trkpt>
      <trkpt lat="46.13057" lon="4.56671">
        <ele>500.2</ele>
        <time>2020-10-19T13:29:29Z</time>
      </trkpt>
      <trkpt lat="46.13057" lon="4.56671">
        <ele>500.4</ele>
        <time>2020-10-19T13:29:30Z</time>
      </trkpt>
      <trkpt lat="46.13057" lon="4.56671">
        <ele>500.2</ele>
        <time>2020-10-19T13:29:31Z</time>
      </trkpt>
      <trkpt lat="46.13057" lon="4.56671">
        <ele>500.4</ele>
        <time>2020-10-19T13:29:32Z</time>
      </trkpt>
      <trkpt lat="46.13057" lon="4.56671">
        <ele>499.8</ele>
        <time>2020-10-19T13:29:33Z</time>
      </trkpt>
      <trkpt lat="46.13057" lon="4.56671">
        <ele>499.4</ele>
        <time>2020-10-19T13:29:34Z</time>
      </trkpt>
      <trkpt lat="46.13057" lon="4.56671">
        <ele>499.4</ele>
        <time>2020-10-19T13:29:35Z</time>
      </trkpt>
      <trkpt lat="46.1306" lon="4.56673">
        <ele>498.8</ele>
        <time>2020-10-19T13:29:36Z</time>
      </trkpt>
      <trkpt lat="46.1306" lon="4.56673">
        <ele>498.2</ele>
        <time>2020-10-19T13:29:37Z</time>
      </trkpt>
      <trkpt lat="46.13063" lon="4.56675">
        <ele>497.8</ele>
        <time>2020-10-19T13:29:38Z</time>
      </trkpt>
      <trkpt lat="46.13063" lon="4.56675">
        <ele>496.8</ele>
        <time>2020-10-19T13:29:39Z</time>
      </trkpt>
      <trkpt lat="46.13066" lon="4.56676">
        <ele>496.6</ele>
        <time>2020-10-19T13:29:40Z</time>
      </trkpt>
      <trkpt lat="46.13068" lon="4.56677">
        <ele>495.6</ele>
        <time>2020-10-19T13:29:41Z</time>
      </trkpt>
      <trkpt lat="46.13068" lon="4.56677">
        <ele>495.2</ele>
        <time>2020-10-19T13:29:42Z</time>
      </trkpt>
      <trkpt lat="46.1307" lon="4.56678">
        <ele>494.6</ele>
        <time>2020-10-19T13:29:43Z</time>
      </trkpt>
      <trkpt lat="46.1307" lon="4.56678">
        <ele>494.4</ele>
        <time>2020-10-19T13:29:44Z</time>
      </trkpt>
      <trkpt lat="46.13074" lon="4.56679">
        <ele>494</ele>
        <time>2020-10-19T13:29:45Z</time>
      </trkpt>
      <trkpt lat="46.13074" lon="4.56679">
        <ele>493.6</ele>
        <time>2020-10-19T13:29:46Z</time>
      </trkpt>
      <trkpt lat="46.13077" lon="4.56681">
        <ele>493.4</ele>
        <time>2020-10-19T13:29:47Z</time>
      </trkpt>
      <trkpt lat="46.13077" lon="4.56681">
        <ele>493.2</ele>
        <time>2020-10-19T13:29:48Z</time>
      </trkpt>
      <trkpt lat="46.1308" lon="4.56683">
        <ele>492.8</ele>
        <time>2020-10-19T13:29:49Z</time>
      </trkpt>
      <trkpt lat="46.1308" lon="4.56683">
        <ele>492.4</ele>
        <time>2020-10-19T13:29:50Z</time>
      </trkpt>
      <trkpt lat="46.13083" lon="4.56684">
        <ele>491.8</ele>
        <time>2020-10-19T13:29:51Z</time>
      </trkpt>
      <trkpt lat="46.13083" lon="4.56684">
        <ele>491.4</ele>
        <time>2020-10-19T13:29:52Z</time>
      </trkpt>
      <trkpt lat="46.13083" lon="4.56684">
        <ele>491.2</ele>
        <time>2020-10-19T13:29:53Z</time>
      </trkpt>
      <trkpt lat="46.13083" lon="4.56684">
        <ele>491</ele>
        <time>2020-10-19T13:29:54Z</time>
      </trkpt>
      <trkpt lat="46.13083" lon="4.56684">
        <ele>490.6</ele>
        <time>2020-10-19T13:29:55Z</time>
      </trkpt>
      <trkpt lat="46.13083" lon="4.56684">
        <ele>490.6</ele>
        <time>2020-10-19T13:29:56Z</time>
      </trkpt>
      <trkpt lat="46.13083" lon="4.56684">
        <ele>490.2</ele>
        <time>2020-10-19T13:29:57Z</time>
      </trkpt>
      <trkpt lat="46.13083" lon="4.56684">
        <ele>489.8</ele>
        <time>2020-10-19T13:29:58Z</time>
      </trkpt>
      <trkpt lat="46.13083" lon="4.56684">
        <ele>489.4</ele>
        <time>2020-10-19T13:29:59Z</time>
      </trkpt>
      <trkpt lat="46.13085" lon="4.56685">
        <ele>489.4</ele>
        <time>2020-10-19T13:30:00Z</time>
      </trkpt>
      <trkpt lat="46.13085" lon="4.56685">
        <ele>488.8</ele>
        <time>2020-10-19T13:30:01Z</time>
      </trkpt>
      <trkpt lat="46.13086" lon="4.56686">
        <ele>488.6</ele>
        <time>2020-10-19T13:30:02Z</time>
      </trkpt>
      <trkpt lat="46.13087" lon="4.56687">
        <ele>488.4</ele>
        <time>2020-10-19T13:30:03Z</time>
      </trkpt>
      <trkpt lat="46.13087" lon="4.56687">
        <ele>488.4</ele>
        <time>2020-10-19T13:30:04Z</time>
      </trkpt>
      <trkpt lat="46.13088" lon="4.56688">
        <ele>488.2</ele>
        <time>2020-10-19T13:30:05Z</time>
      </trkpt>
      <trkpt lat="46.1309" lon="4.5669">
        <ele>487.4</ele>
        <time>2020-10-19T13:30:06Z</time>
      </trkpt>
      <trkpt lat="46.13092" lon="4.56692">
        <ele>487.2</ele>
        <time>2020-10-19T13:30:07Z</time>
      </trkpt>
      <trkpt lat="46.13094" lon="4.56695">
        <ele>486.8</ele>
        <time>2020-10-19T13:30:08Z</time>
      </trkpt>
      <trkpt lat="46.13096" lon="4.56697">
        <ele>486.2</ele>
        <time>2020-10-19T13:30:09Z</time>
      </trkpt>
      <trkpt lat="46.13097" lon="4.56699">
        <ele>486</ele>
        <time>2020-10-19T13:30:10Z</time>
      </trkpt>
      <trkpt lat="46.13099" lon="4.56701">
        <ele>485.6</ele>
        <time>2020-10-19T13:30:11Z</time>
      </trkpt>
      <trkpt lat="46.13099" lon="4.56701">
        <ele>485.2</ele>
        <time>2020-10-19T13:30:12Z</time>
      </trkpt>
      <trkpt lat="46.13101" lon="4.56704">
        <ele>485</ele>
        <time>2020-10-19T13:30:13Z</time>
      </trkpt>
      <trkpt lat="46.13101" lon="4.56704">
        <ele>484.6</ele>
        <time>2020-10-19T13:30:14Z</time>
      </trkpt>
      <trkpt lat="46.13101" lon="4.56704">
        <ele>484.4</ele>
        <time>2020-10-19T13:30:15Z</time>
      </trkpt>
      <trkpt lat="46.13101" lon="4.56704">
        <ele>484.4</ele>
        <time>2020-10-19T13:30:16Z</time>
      </trkpt>
      <trkpt lat="46.13103" lon="4.56707">
        <ele>484</ele>
        <time>2020-10-19T13:30:17Z</time>
      </trkpt>
      <trkpt lat="46.13103" lon="4.56707">
        <ele>483.8</ele>
        <time>2020-10-19T13:30:18Z</time>
      </trkpt>
      <trkpt lat="46.13104" lon="4.56712">
        <ele>483.2</ele>
        <time>2020-10-19T13:30:19Z</time>
      </trkpt>
      <trkpt lat="46.13105" lon="4.56714">
        <ele>483.2</ele>
        <time>2020-10-19T13:30:20Z</time>
      </trkpt>
      <trkpt lat="46.13106" lon="4.56717">
        <ele>482.8</ele>
        <time>2020-10-19T13:30:21Z</time>
      </trkpt>
      <trkpt lat="46.13108" lon="4.5672">
        <ele>482.2</ele>
        <time>2020-10-19T13:30:22Z</time>
      </trkpt>
      <trkpt lat="46.13109" lon="4.56722">
        <ele>482</ele>
        <time>2020-10-19T13:30:23Z</time>
      </trkpt>
      <trkpt lat="46.1311" lon="4.56725">
        <ele>481.4</ele>
        <time>2020-10-19T13:30:24Z</time>
      </trkpt>
      <trkpt lat="46.1311" lon="4.56728">
        <ele>481.2</ele>
        <time>2020-10-19T13:30:25Z</time>
      </trkpt>
      <trkpt lat="46.13111" lon="4.56731">
        <ele>480.6</ele>
        <time>2020-10-19T13:30:26Z</time>
      </trkpt>
      <trkpt lat="46.13111" lon="4.56734">
        <ele>480.4</ele>
        <time>2020-10-19T13:30:27Z</time>
      </trkpt>
      <trkpt lat="46.13112" lon="4.56737">
        <ele>479.8</ele>
        <time>2020-10-19T13:30:28Z</time>
      </trkpt>
      <trkpt lat="46.13112" lon="4.56741">
        <ele>479.4</ele>
        <time>2020-10-19T13:30:29Z</time>
      </trkpt>
      <trkpt lat="46.13112" lon="4.56744">
        <ele>479.2</ele>
        <time>2020-10-19T13:30:30Z</time>
      </trkpt>
      <trkpt lat="46.13113" lon="4.56748">
        <ele>478.4</ele>
        <time>2020-10-19T13:30:31Z</time>
      </trkpt>
      <trkpt lat="46.13113" lon="4.56753">
        <ele>478</ele>
        <time>2020-10-19T13:30:32Z</time>
      </trkpt>
      <trkpt lat="46.13114" lon="4.56757">
        <ele>478.2</ele>
        <time>2020-10-19T13:30:33Z</time>
      </trkpt>
      <trkpt lat="46.13114" lon="4.56761">
        <ele>477.4</ele>
        <time>2020-10-19T13:30:34Z</time>
      </trkpt>
      <trkpt lat="46.13114" lon="4.56765">
        <ele>477</ele>
        <time>2020-10-19T13:30:35Z</time>
      </trkpt>
      <trkpt lat="46.13114" lon="4.56769">
        <ele>476.8</ele>
        <time>2020-10-19T13:30:36Z</time>
      </trkpt>
      <trkpt lat="46.13115" lon="4.56772">
        <ele>476.2</ele>
        <time>2020-10-19T13:30:37Z</time>
      </trkpt>
      <trkpt lat="46.13115" lon="4.56776">
        <ele>475.6</ele>
        <time>2020-10-19T13:30:38Z</time>
      </trkpt>
      <trkpt lat="46.13114" lon="4.5678">
        <ele>475.6</ele>
        <time>2020-10-19T13:30:39Z</time>
      </trkpt>
      <trkpt lat="46.13112" lon="4.56783">
        <ele>475.2</ele>
        <time>2020-10-19T13:30:40Z</time>
      </trkpt>
      <trkpt lat="46.13111" lon="4.56787">
        <ele>475.2</ele>
        <time>2020-10-19T13:30:41Z</time>
      </trkpt>
      <trkpt lat="46.1311" lon="4.56791">
        <ele>474.6</ele>
        <time>2020-10-19T13:30:42Z</time>
      </trkpt>
      <trkpt lat="46.13109" lon="4.56794">
        <ele>474.2</ele>
        <time>2020-10-19T13:30:43Z</time>
      </trkpt>
      <trkpt lat="46.13108" lon="4.56797">
        <ele>474.2</ele>
        <time>2020-10-19T13:30:44Z</time>
      </trkpt>
      <trkpt lat="46.13107" lon="4.568">
        <ele>473.6</ele>
        <time>2020-10-19T13:30:45Z</time>
      </trkpt>
      <trkpt lat="46.13106" lon="4.56803">
        <ele>473.4</ele>
        <time>2020-10-19T13:30:46Z</time>
      </trkpt>
      <trkpt lat="46.13106" lon="4.56806">
        <ele>472.8</ele>
        <time>2020-10-19T13:30:47Z</time>
      </trkpt>
      <trkpt lat="46.13105" lon="4.5681">
        <ele>472.4</ele>
        <time>2020-10-19T13:30:48Z</time>
      </trkpt>
      <trkpt lat="46.13104" lon="4.56813">
        <ele>472.4</ele>
        <time>2020-10-19T13:30:49Z</time>
      </trkpt>
      <trkpt lat="46.13103" lon="4.56817">
        <ele>471.6</ele>
        <time>2020-10-19T13:30:50Z</time>
      </trkpt>
      <trkpt lat="46.13103" lon="4.5682">
        <ele>471.4</ele>
        <time>2020-10-19T13:30:51Z</time>
      </trkpt>
      <trkpt lat="46.13104" lon="4.56823">
        <ele>471.2</ele>
        <time>2020-10-19T13:30:52Z</time>
      </trkpt>
      <trkpt lat="46.13105" lon="4.56824">
        <ele>470.6</ele>
        <time>2020-10-19T13:30:53Z</time>
      </trkpt>
      <trkpt lat="46.13105" lon="4.56824">
        <ele>470.6</ele>
        <time>2020-10-19T13:30:54Z</time>
      </trkpt>
      <trkpt lat="46.13108" lon="4.56826">
        <ele>470.4</ele>
        <time>2020-10-19T13:30:55Z</time>
      </trkpt>
      <trkpt lat="46.1311" lon="4.56827">
        <ele>470</ele>
        <time>2020-10-19T13:30:56Z</time>
      </trkpt>
      <trkpt lat="46.13113" lon="4.56828">
        <ele>469.8</ele>
        <time>2020-10-19T13:30:57Z</time>
      </trkpt>
      <trkpt lat="46.13115" lon="4.56829">
        <ele>469.4</ele>
        <time>2020-10-19T13:30:58Z</time>
      </trkpt>
      <trkpt lat="46.13118" lon="4.5683">
        <ele>468.4</ele>
        <time>2020-10-19T13:30:59Z</time>
      </trkpt>
      <trkpt lat="46.1312" lon="4.5683">
        <ele>468.6</ele>
        <time>2020-10-19T13:31:00Z</time>
      </trkpt>
      <trkpt lat="46.13122" lon="4.56831">
        <ele>468.2</ele>
        <time>2020-10-19T13:31:01Z</time>
      </trkpt>
      <trkpt lat="46.13124" lon="4.56832">
        <ele>467.6</ele>
        <time>2020-10-19T13:31:02Z</time>
      </trkpt>
      <trkpt lat="46.13127" lon="4.56833">
        <ele>467.6</ele>
        <time>2020-10-19T13:31:03Z</time>
      </trkpt>
      <trkpt lat="46.13129" lon="4.56834">
        <ele>467</ele>
        <time>2020-10-19T13:31:04Z</time>
      </trkpt>
      <trkpt lat="46.13132" lon="4.56835">
        <ele>466.8</ele>
        <time>2020-10-19T13:31:05Z</time>
      </trkpt>
      <trkpt lat="46.13134" lon="4.56835">
        <ele>466.8</ele>
        <time>2020-10-19T13:31:06Z</time>
      </trkpt>
      <trkpt lat="46.13136" lon="4.56836">
        <ele>466.4</ele>
        <time>2020-10-19T13:31:07Z</time>
      </trkpt>
      <trkpt lat="46.13138" lon="4.56837">
        <ele>466.4</ele>
        <time>2020-10-19T13:31:08Z</time>
      </trkpt>
      <trkpt lat="46.13141" lon="4.56838">
        <ele>466</ele>
        <time>2020-10-19T13:31:09Z</time>
      </trkpt>
      <trkpt lat="46.13143" lon="4.56839">
        <ele>465.8</ele>
        <time>2020-10-19T13:31:10Z</time>
      </trkpt>
      <trkpt lat="46.13145" lon="4.5684">
        <ele>466</ele>
        <time>2020-10-19T13:31:11Z</time>
      </trkpt>
      <trkpt lat="46.13148" lon="4.56841">
        <ele>465.8</ele>
        <time>2020-10-19T13:31:12Z</time>
      </trkpt>
      <trkpt lat="46.13151" lon="4.56842">
        <ele>465.6</ele>
        <time>2020-10-19T13:31:13Z</time>
      </trkpt>
      <trkpt lat="46.13153" lon="4.56843">
        <ele>465</ele>
        <time>2020-10-19T13:31:14Z</time>
      </trkpt>
      <trkpt lat="46.13155" lon="4.56843">
        <ele>464.4</ele>
        <time>2020-10-19T13:31:15Z</time>
      </trkpt>
      <trkpt lat="46.13158" lon="4.56843">
        <ele>464.6</ele>
        <time>2020-10-19T13:31:16Z</time>
      </trkpt>
      <trkpt lat="46.1316" lon="4.56844">
        <ele>464</ele>
        <time>2020-10-19T13:31:17Z</time>
      </trkpt>
      <trkpt lat="46.13162" lon="4.56844">
        <ele>463.8</ele>
        <time>2020-10-19T13:31:18Z</time>
      </trkpt>
      <trkpt lat="46.13165" lon="4.56844">
        <ele>463.6</ele>
        <time>2020-10-19T13:31:19Z</time>
      </trkpt>
      <trkpt lat="46.13167" lon="4.56845">
        <ele>463</ele>
        <time>2020-10-19T13:31:20Z</time>
      </trkpt>
      <trkpt lat="46.1317" lon="4.56845">
        <ele>463</ele>
        <time>2020-10-19T13:31:21Z</time>
      </trkpt>
      <trkpt lat="46.13173" lon="4.56846">
        <ele>462.8</ele>
        <time>2020-10-19T13:31:22Z</time>
      </trkpt>
      <trkpt lat="46.13176" lon="4.56847">
        <ele>462.2</ele>
        <time>2020-10-19T13:31:23Z</time>
      </trkpt>
      <trkpt lat="46.13178" lon="4.56849">
        <ele>462.4</ele>
        <time>2020-10-19T13:31:24Z</time>
      </trkpt>
      <trkpt lat="46.13181" lon="4.56851">
        <ele>461.8</ele>
        <time>2020-10-19T13:31:25Z</time>
      </trkpt>
      <trkpt lat="46.13184" lon="4.56853">
        <ele>461.6</ele>
        <time>2020-10-19T13:31:26Z</time>
      </trkpt>
      <trkpt lat="46.13186" lon="4.56855">
        <ele>461.6</ele>
        <time>2020-10-19T13:31:27Z</time>
      </trkpt>
      <trkpt lat="46.13188" lon="4.56857">
        <ele>461.4</ele>
        <time>2020-10-19T13:31:28Z</time>
      </trkpt>
      <trkpt lat="46.13191" lon="4.56859">
        <ele>460.8</ele>
        <time>2020-10-19T13:31:29Z</time>
      </trkpt>
      <trkpt lat="46.13193" lon="4.56861">
        <ele>461.2</ele>
        <time>2020-10-19T13:31:30Z</time>
      </trkpt>
      <trkpt lat="46.13195" lon="4.56863">
        <ele>460.8</ele>
        <time>2020-10-19T13:31:31Z</time>
      </trkpt>
      <trkpt lat="46.13195" lon="4.56863">
        <ele>460.6</ele>
        <time>2020-10-19T13:31:32Z</time>
      </trkpt>
      <trkpt lat="46.13198" lon="4.56866">
        <ele>460.4</ele>
        <time>2020-10-19T13:31:33Z</time>
      </trkpt>
      <trkpt lat="46.13198" lon="4.56866">
        <ele>460.2</ele>
        <time>2020-10-19T13:31:34Z</time>
      </trkpt>
      <trkpt lat="46.13201" lon="4.56868">
        <ele>459.8</ele>
        <time>2020-10-19T13:31:35Z</time>
      </trkpt>
      <trkpt lat="46.13203" lon="4.5687">
        <ele>459.8</ele>
        <time>2020-10-19T13:31:36Z</time>
      </trkpt>
      <trkpt lat="46.13205" lon="4.56872">
        <ele>459.6</ele>
        <time>2020-10-19T13:31:37Z</time>
      </trkpt>
      <trkpt lat="46.13206" lon="4.56874">
        <ele>459.4</ele>
        <time>2020-10-19T13:31:38Z</time>
      </trkpt>
      <trkpt lat="46.13208" lon="4.56875">
        <ele>458.8</ele>
        <time>2020-10-19T13:31:39Z</time>
      </trkpt>
      <trkpt lat="46.1321" lon="4.56877">
        <ele>458.8</ele>
        <time>2020-10-19T13:31:40Z</time>
      </trkpt>
      <trkpt lat="46.13212" lon="4.56879">
        <ele>458.2</ele>
        <time>2020-10-19T13:31:41Z</time>
      </trkpt>
      <trkpt lat="46.13214" lon="4.5688">
        <ele>457.8</ele>
        <time>2020-10-19T13:31:42Z</time>
      </trkpt>
      <trkpt lat="46.13216" lon="4.56881">
        <ele>457.2</ele>
        <time>2020-10-19T13:31:43Z</time>
      </trkpt>
      <trkpt lat="46.13218" lon="4.56883">
        <ele>456.6</ele>
        <time>2020-10-19T13:31:44Z</time>
      </trkpt>
      <trkpt lat="46.1322" lon="4.56884">
        <ele>456.2</ele>
        <time>2020-10-19T13:31:45Z</time>
      </trkpt>
      <trkpt lat="46.13222" lon="4.56885">
        <ele>455.4</ele>
        <time>2020-10-19T13:31:46Z</time>
      </trkpt>
      <trkpt lat="46.13224" lon="4.56886">
        <ele>454.8</ele>
        <time>2020-10-19T13:31:47Z</time>
      </trkpt>
      <trkpt lat="46.13226" lon="4.56887">
        <ele>454.2</ele>
        <time>2020-10-19T13:31:48Z</time>
      </trkpt>
      <trkpt lat="46.13226" lon="4.56887">
        <ele>453.6</ele>
        <time>2020-10-19T13:31:49Z</time>
      </trkpt>
      <trkpt lat="46.13229" lon="4.56889">
        <ele>452.8</ele>
        <time>2020-10-19T13:31:50Z</time>
      </trkpt>
      <trkpt lat="46.13229" lon="4.56889">
        <ele>452.6</ele>
        <time>2020-10-19T13:31:51Z</time>
      </trkpt>
      <trkpt lat="46.13232" lon="4.56887">
        <ele>452.4</ele>
        <time>2020-10-19T13:31:52Z</time>
      </trkpt>
      <trkpt lat="46.13232" lon="4.56887">
        <ele>451.8</ele>
        <time>2020-10-19T13:31:53Z</time>
      </trkpt>
      <trkpt lat="46.13234" lon="4.56885">
        <ele>451</ele>
        <time>2020-10-19T13:31:54Z</time>
      </trkpt>
      <trkpt lat="46.13234" lon="4.56885">
        <ele>450.4</ele>
        <time>2020-10-19T13:31:55Z</time>
      </trkpt>
      <trkpt lat="46.13236" lon="4.56883">
        <ele>450</ele>
        <time>2020-10-19T13:31:56Z</time>
      </trkpt>
      <trkpt lat="46.13236" lon="4.56883">
        <ele>449.4</ele>
        <time>2020-10-19T13:31:57Z</time>
      </trkpt>
      <trkpt lat="46.13236" lon="4.56883">
        <ele>449</ele>
        <time>2020-10-19T13:31:58Z</time>
      </trkpt>
      <trkpt lat="46.13233" lon="4.5688">
        <ele>448.6</ele>
        <time>2020-10-19T13:31:59Z</time>
      </trkpt>
      <trkpt lat="46.13233" lon="4.5688">
        <ele>448.2</ele>
        <time>2020-10-19T13:32:00Z</time>
      </trkpt>
      <trkpt lat="46.13233" lon="4.56876">
        <ele>447.8</ele>
        <time>2020-10-19T13:32:01Z</time>
      </trkpt>
      <trkpt lat="46.13233" lon="4.56876">
        <ele>447.4</ele>
        <time>2020-10-19T13:32:02Z</time>
      </trkpt>
      <trkpt lat="46.13233" lon="4.56873">
        <ele>447</ele>
        <time>2020-10-19T13:32:03Z</time>
      </trkpt>
      <trkpt lat="46.13233" lon="4.56873">
        <ele>446.6</ele>
        <time>2020-10-19T13:32:04Z</time>
      </trkpt>
      <trkpt lat="46.13234" lon="4.5687">
        <ele>446.4</ele>
        <time>2020-10-19T13:32:05Z</time>
      </trkpt>
      <trkpt lat="46.13234" lon="4.5687">
        <ele>446.2</ele>
        <time>2020-10-19T13:32:06Z</time>
      </trkpt>
      <trkpt lat="46.13237" lon="4.56867">
        <ele>446.2</ele>
        <time>2020-10-19T13:32:07Z</time>
      </trkpt>
      <trkpt lat="46.13237" lon="4.56867">
        <ele>446</ele>
        <time>2020-10-19T13:32:08Z</time>
      </trkpt>
      <trkpt lat="46.1324" lon="4.56866">
        <ele>445.8</ele>
        <time>2020-10-19T13:32:09Z</time>
      </trkpt>
      <trkpt lat="46.1324" lon="4.56866">
        <ele>445.6</ele>
        <time>2020-10-19T13:32:10Z</time>
      </trkpt>
      <trkpt lat="46.13243" lon="4.56865">
        <ele>445.4</ele>
        <time>2020-10-19T13:32:11Z</time>
      </trkpt>
      <trkpt lat="46.13243" lon="4.56865">
        <ele>445.4</ele>
        <time>2020-10-19T13:32:12Z</time>
      </trkpt>
      <trkpt lat="46.13245" lon="4.56864">
        <ele>445.2</ele>
        <time>2020-10-19T13:32:13Z</time>
      </trkpt>
      <trkpt lat="46.13245" lon="4.56864">
        <ele>445</ele>
        <time>2020-10-19T13:32:14Z</time>
      </trkpt>
      <trkpt lat="46.13248" lon="4.56864">
        <ele>444.8</ele>
        <time>2020-10-19T13:32:15Z</time>
      </trkpt>
      <trkpt lat="46.1325" lon="4.56865">
        <ele>444.6</ele>
        <time>2020-10-19T13:32:16Z</time>
      </trkpt>
      <trkpt lat="46.1325" lon="4.56865">
        <ele>444.4</ele>
        <time>2020-10-19T13:32:17Z</time>
      </trkpt>
      <trkpt lat="46.13254" lon="4.56867">
        <ele>444.4</ele>
        <time>2020-10-19T13:32:18Z</time>
      </trkpt>
      <trkpt lat="46.13254" lon="4.56867">
        <ele>444.6</ele>
        <time>2020-10-19T13:32:19Z</time>
      </trkpt>
      <trkpt lat="46.13257" lon="4.56869">
        <ele>444.8</ele>
        <time>2020-10-19T13:32:20Z</time>
      </trkpt>
      <trkpt lat="46.13257" lon="4.56869">
        <ele>445.2</ele>
        <time>2020-10-19T13:32:21Z</time>
      </trkpt>
      <trkpt lat="46.1326" lon="4.56872">
        <ele>445.4</ele>
        <time>2020-10-19T13:32:22Z</time>
      </trkpt>
      <trkpt lat="46.13262" lon="4.56873">
        <ele>445.4</ele>
        <time>2020-10-19T13:32:23Z</time>
      </trkpt>
      <trkpt lat="46.13263" lon="4.56875">
        <ele>445.2</ele>
        <time>2020-10-19T13:32:24Z</time>
      </trkpt>
      <trkpt lat="46.13263" lon="4.56875">
        <ele>444.8</ele>
        <time>2020-10-19T13:32:25Z</time>
      </trkpt>
      <trkpt lat="46.13266" lon="4.56878">
        <ele>444.6</ele>
        <time>2020-10-19T13:32:26Z</time>
      </trkpt>
      <trkpt lat="46.13267" lon="4.5688">
        <ele>444.8</ele>
        <time>2020-10-19T13:32:27Z</time>
      </trkpt>
      <trkpt lat="46.13267" lon="4.5688">
        <ele>445</ele>
        <time>2020-10-19T13:32:28Z</time>
      </trkpt>
      <trkpt lat="46.13269" lon="4.56883">
        <ele>445</ele>
        <time>2020-10-19T13:32:29Z</time>
      </trkpt>
      <trkpt lat="46.13269" lon="4.56883">
        <ele>444.8</ele>
        <time>2020-10-19T13:32:30Z</time>
      </trkpt>
      <trkpt lat="46.13272" lon="4.56886">
        <ele>444.8</ele>
        <time>2020-10-19T13:32:31Z</time>
      </trkpt>
      <trkpt lat="46.13273" lon="4.56888">
        <ele>444.6</ele>
        <time>2020-10-19T13:32:32Z</time>
      </trkpt>
      <trkpt lat="46.13273" lon="4.56888">
        <ele>444.4</ele>
        <time>2020-10-19T13:32:33Z</time>
      </trkpt>
      <trkpt lat="46.13275" lon="4.56891">
        <ele>444.2</ele>
        <time>2020-10-19T13:32:34Z</time>
      </trkpt>
      <trkpt lat="46.13277" lon="4.56893">
        <ele>444.2</ele>
        <time>2020-10-19T13:32:35Z</time>
      </trkpt>
      <trkpt lat="46.13277" lon="4.56893">
        <ele>444.2</ele>
        <time>2020-10-19T13:32:36Z</time>
      </trkpt>
      <trkpt lat="46.13279" lon="4.56897">
        <ele>444.4</ele>
        <time>2020-10-19T13:32:37Z</time>
      </trkpt>
      <trkpt lat="46.13281" lon="4.56899">
        <ele>444.6</ele>
        <time>2020-10-19T13:32:38Z</time>
      </trkpt>
      <trkpt lat="46.13281" lon="4.56899">
        <ele>444.6</ele>
        <time>2020-10-19T13:32:39Z</time>
      </trkpt>
      <trkpt lat="46.13283" lon="4.56903">
        <ele>444.8</ele>
        <time>2020-10-19T13:32:40Z</time>
      </trkpt>
      <trkpt lat="46.13283" lon="4.56903">
        <ele>444.8</ele>
        <time>2020-10-19T13:32:41Z</time>
      </trkpt>
      <trkpt lat="46.13285" lon="4.56906">
        <ele>445</ele>
        <time>2020-10-19T13:32:42Z</time>
      </trkpt>
      <trkpt lat="46.13285" lon="4.56906">
        <ele>445</ele>
        <time>2020-10-19T13:32:43Z</time>
      </trkpt>
      <trkpt lat="46.13287" lon="4.56908">
        <ele>445</ele>
        <time>2020-10-19T13:32:44Z</time>
      </trkpt>
      <trkpt lat="46.13287" lon="4.56908">
        <ele>444.8</ele>
        <time>2020-10-19T13:32:45Z</time>
      </trkpt>
      <trkpt lat="46.13289" lon="4.5691">
        <ele>445</ele>
        <time>2020-10-19T13:32:46Z</time>
      </trkpt>
      <trkpt lat="46.13289" lon="4.5691">
        <ele>444.8</ele>
        <time>2020-10-19T13:32:47Z</time>
      </trkpt>
      <trkpt lat="46.13291" lon="4.56911">
        <ele>444.4</ele>
        <time>2020-10-19T13:32:48Z</time>
      </trkpt>
      <trkpt lat="46.13291" lon="4.56911">
        <ele>444.4</ele>
        <time>2020-10-19T13:32:49Z</time>
      </trkpt>
      <trkpt lat="46.13291" lon="4.56911">
        <ele>444.6</ele>
        <time>2020-10-19T13:32:50Z</time>
      </trkpt>
      <trkpt lat="46.13291" lon="4.56911">
        <ele>444.8</ele>
        <time>2020-10-19T13:32:51Z</time>
      </trkpt>
      <trkpt lat="46.13291" lon="4.56911">
        <ele>445</ele>
        <time>2020-10-19T13:32:52Z</time>
      </trkpt>
      <trkpt lat="46.13291" lon="4.56911">
        <ele>445</ele>
        <time>2020-10-19T13:32:53Z</time>
      </trkpt>
      <trkpt lat="46.13292" lon="4.56914">
        <ele>445</ele>
        <time>2020-10-19T13:32:54Z</time>
      </trkpt>
      <trkpt lat="46.13292" lon="4.56914">
        <ele>445</ele>
        <time>2020-10-19T13:32:55Z</time>
      </trkpt>
      <trkpt lat="46.13292" lon="4.56914">
        <ele>445</ele>
        <time>2020-10-19T13:32:56Z</time>
      </trkpt>
      <trkpt lat="46.13292" lon="4.56914">
        <ele>445</ele>
        <time>2020-10-19T13:32:57Z</time>
      </trkpt>
      <trkpt lat="46.13292" lon="4.56914">
        <ele>445</ele>
        <time>2020-10-19T13:32:58Z</time>
      </trkpt>
      <trkpt lat="46.13292" lon="4.56914">
        <ele>445.2</ele>
        <time>2020-10-19T13:32:59Z</time>
      </trkpt>
      <trkpt lat="46.13292" lon="4.56914">
        <ele>445.2</ele>
        <time>2020-10-19T13:33:00Z</time>
      </trkpt>
      <trkpt lat="46.13292" lon="4.56914">
        <ele>445.4</ele>
        <time>2020-10-19T13:33:01Z</time>
      </trkpt>
      <trkpt lat="46.13292" lon="4.56914">
        <ele>445.6</ele>
        <time>2020-10-19T13:33:02Z</time>
      </trkpt>
      <trkpt lat="46.13292" lon="4.56914">
        <ele>445.4</ele>
        <time>2020-10-19T13:33:03Z</time>
      </trkpt>
      <trkpt lat="46.13292" lon="4.56914">
        <ele>445.4</ele>
        <time>2020-10-19T13:33:04Z</time>
      </trkpt>
      <trkpt lat="46.13292" lon="4.56914">
        <ele>445.2</ele>
        <time>2020-10-19T13:33:05Z</time>
      </trkpt>
      <trkpt lat="46.13292" lon="4.56914">
        <ele>445</ele>
        <time>2020-10-19T13:33:06Z</time>
      </trkpt>
      <trkpt lat="46.13292" lon="4.56914">
        <ele>444.8</ele>
        <time>2020-10-19T13:33:07Z</time>
      </trkpt>
      <trkpt lat="46.13292" lon="4.56914">
        <ele>444.6</ele>
        <time>2020-10-19T13:33:08Z</time>
      </trkpt>
      <trkpt lat="46.13292" lon="4.56914">
        <ele>444.4</ele>
        <time>2020-10-19T13:33:09Z</time>
      </trkpt>
      <trkpt lat="46.13292" lon="4.56914">
        <ele>444.4</ele>
        <time>2020-10-19T13:33:10Z</time>
      </trkpt>
      <trkpt lat="46.13292" lon="4.56914">
        <ele>444.4</ele>
        <time>2020-10-19T13:33:11Z</time>
      </trkpt>
      <trkpt lat="46.13292" lon="4.56914">
        <ele>444.4</ele>
        <time>2020-10-19T13:33:12Z</time>
      </trkpt>
      <trkpt lat="46.13292" lon="4.56914">
        <ele>444.2</ele>
        <time>2020-10-19T13:33:13Z</time>
      </trkpt>
      <trkpt lat="46.13292" lon="4.56914">
        <ele>444</ele>
        <time>2020-10-19T13:33:14Z</time>
      </trkpt>
      <trkpt lat="46.13292" lon="4.56914">
        <ele>444.2</ele>
        <time>2020-10-19T13:33:15Z</time>
      </trkpt>
      <trkpt lat="46.13292" lon="4.56914">
        <ele>444</ele>
        <time>2020-10-19T13:33:16Z</time>
      </trkpt>
      <trkpt lat="46.13292" lon="4.56914">
        <ele>444</ele>
        <time>2020-10-19T13:33:17Z</time>
      </trkpt>
      <trkpt lat="46.13292" lon="4.56914">
        <ele>443.8</ele>
        <time>2020-10-19T13:33:18Z</time>
      </trkpt>
      <trkpt lat="46.13292" lon="4.56914">
        <ele>443.8</ele>
        <time>2020-10-19T13:33:19Z</time>
      </trkpt>
      <trkpt lat="46.13292" lon="4.56914">
        <ele>443.6</ele>
        <time>2020-10-19T13:33:20Z</time>
      </trkpt>
      <trkpt lat="46.13292" lon="4.56914">
        <ele>443.6</ele>
        <time>2020-10-19T13:33:21Z</time>
      </trkpt>
      <trkpt lat="46.13292" lon="4.56914">
        <ele>443.6</ele>
        <time>2020-10-19T13:33:22Z</time>
      </trkpt>
      <trkpt lat="46.13292" lon="4.56914">
        <ele>443.6</ele>
        <time>2020-10-19T13:33:23Z</time>
      </trkpt>
      <trkpt lat="46.13292" lon="4.56914">
        <ele>443.8</ele>
        <time>2020-10-19T13:33:24Z</time>
      </trkpt>
      <trkpt lat="46.13292" lon="4.56917">
        <ele>443.6</ele>
        <time>2020-10-19T13:33:25Z</time>
      </trkpt>
      <trkpt lat="46.13292" lon="4.56917">
        <ele>443.6</ele>
        <time>2020-10-19T13:33:26Z</time>
      </trkpt>
      <trkpt lat="46.13292" lon="4.56917">
        <ele>443</ele>
        <time>2020-10-19T13:33:27Z</time>
      </trkpt>
      <trkpt lat="46.13292" lon="4.56917">
        <ele>442.8</ele>
        <time>2020-10-19T13:33:28Z</time>
      </trkpt>
      <trkpt lat="46.13292" lon="4.56917">
        <ele>442.6</ele>
        <time>2020-10-19T13:33:29Z</time>
      </trkpt>
      <trkpt lat="46.13292" lon="4.56917">
        <ele>442.6</ele>
        <time>2020-10-19T13:33:30Z</time>
      </trkpt>
      <trkpt lat="46.13294" lon="4.56917">
        <ele>442.6</ele>
        <time>2020-10-19T13:33:31Z</time>
      </trkpt>
      <trkpt lat="46.13294" lon="4.56917">
        <ele>442.4</ele>
        <time>2020-10-19T13:33:32Z</time>
      </trkpt>
      <trkpt lat="46.13296" lon="4.56918">
        <ele>442</ele>
        <time>2020-10-19T13:33:33Z</time>
      </trkpt>
      <trkpt lat="46.13296" lon="4.56918">
        <ele>442</ele>
        <time>2020-10-19T13:33:34Z</time>
      </trkpt>
      <trkpt lat="46.13298" lon="4.5692">
        <ele>442</ele>
        <time>2020-10-19T13:33:35Z</time>
      </trkpt>
      <trkpt lat="46.13298" lon="4.5692">
        <ele>442</ele>
        <time>2020-10-19T13:33:36Z</time>
      </trkpt>
      <trkpt lat="46.133" lon="4.5692">
        <ele>441.8</ele>
        <time>2020-10-19T13:33:37Z</time>
      </trkpt>
      <trkpt lat="46.133" lon="4.5692">
        <ele>441.8</ele>
        <time>2020-10-19T13:33:38Z</time>
      </trkpt>
      <trkpt lat="46.13302" lon="4.56922">
        <ele>441.8</ele>
        <time>2020-10-19T13:33:39Z</time>
      </trkpt>
      <trkpt lat="46.13302" lon="4.56922">
        <ele>441.8</ele>
        <time>2020-10-19T13:33:40Z</time>
      </trkpt>
      <trkpt lat="46.13305" lon="4.56925">
        <ele>442</ele>
        <time>2020-10-19T13:33:41Z</time>
      </trkpt>
      <trkpt lat="46.13305" lon="4.56925">
        <ele>442</ele>
        <time>2020-10-19T13:33:42Z</time>
      </trkpt>
      <trkpt lat="46.13307" lon="4.56927">
        <ele>442</ele>
        <time>2020-10-19T13:33:43Z</time>
      </trkpt>
      <trkpt lat="46.13307" lon="4.56927">
        <ele>442</ele>
        <time>2020-10-19T13:33:44Z</time>
      </trkpt>
      <trkpt lat="46.13309" lon="4.5693">
        <ele>442</ele>
        <time>2020-10-19T13:33:45Z</time>
      </trkpt>
      <trkpt lat="46.13309" lon="4.5693">
        <ele>442</ele>
        <time>2020-10-19T13:33:46Z</time>
      </trkpt>
      <trkpt lat="46.13312" lon="4.56933">
        <ele>441.6</ele>
        <time>2020-10-19T13:33:47Z</time>
      </trkpt>
      <trkpt lat="46.13312" lon="4.56933">
        <ele>441.6</ele>
        <time>2020-10-19T13:33:48Z</time>
      </trkpt>
      <trkpt lat="46.13314" lon="4.56935">
        <ele>441.4</ele>
        <time>2020-10-19T13:33:49Z</time>
      </trkpt>
      <trkpt lat="46.13314" lon="4.56935">
        <ele>441</ele>
        <time>2020-10-19T13:33:50Z</time>
      </trkpt>
      <trkpt lat="46.13317" lon="4.56937">
        <ele>441</ele>
        <time>2020-10-19T13:33:51Z</time>
      </trkpt>
      <trkpt lat="46.13317" lon="4.56937">
        <ele>441</ele>
        <time>2020-10-19T13:33:52Z</time>
      </trkpt>
      <trkpt lat="46.13319" lon="4.5694">
        <ele>441</ele>
        <time>2020-10-19T13:33:53Z</time>
      </trkpt>
      <trkpt lat="46.13319" lon="4.5694">
        <ele>441</ele>
        <time>2020-10-19T13:33:54Z</time>
      </trkpt>
      <trkpt lat="46.13321" lon="4.56943">
        <ele>440.8</ele>
        <time>2020-10-19T13:33:55Z</time>
      </trkpt>
      <trkpt lat="46.13321" lon="4.56943">
        <ele>440.8</ele>
        <time>2020-10-19T13:33:56Z</time>
      </trkpt>
      <trkpt lat="46.13321" lon="4.56943">
        <ele>440.8</ele>
        <time>2020-10-19T13:33:57Z</time>
      </trkpt>
      <trkpt lat="46.13321" lon="4.56943">
        <ele>441</ele>
        <time>2020-10-19T13:33:58Z</time>
      </trkpt>
      <trkpt lat="46.13321" lon="4.56943">
        <ele>440.8</ele>
        <time>2020-10-19T13:33:59Z</time>
      </trkpt>
      <trkpt lat="46.13321" lon="4.56943">
        <ele>440.8</ele>
        <time>2020-10-19T13:34:00Z</time>
      </trkpt>
      <trkpt lat="46.13322" lon="4.56946">
        <ele>440.6</ele>
        <time>2020-10-19T13:34:01Z</time>
      </trkpt>
      <trkpt lat="46.13322" lon="4.56946">
        <ele>440.6</ele>
        <time>2020-10-19T13:34:02Z</time>
      </trkpt>
      <trkpt lat="46.13324" lon="4.56948">
        <ele>440.6</ele>
        <time>2020-10-19T13:34:03Z</time>
      </trkpt>
      <trkpt lat="46.13324" lon="4.56948">
        <ele>440.8</ele>
        <time>2020-10-19T13:34:04Z</time>
      </trkpt>
      <trkpt lat="46.13326" lon="4.56951">
        <ele>440.8</ele>
        <time>2020-10-19T13:34:05Z</time>
      </trkpt>
      <trkpt lat="46.13326" lon="4.56951">
        <ele>440.6</ele>
        <time>2020-10-19T13:34:06Z</time>
      </trkpt>
      <trkpt lat="46.13329" lon="4.56954">
        <ele>440.4</ele>
        <time>2020-10-19T13:34:07Z</time>
      </trkpt>
      <trkpt lat="46.13329" lon="4.56954">
        <ele>440.2</ele>
        <time>2020-10-19T13:34:08Z</time>
      </trkpt>
      <trkpt lat="46.13332" lon="4.56957">
        <ele>440.4</ele>
        <time>2020-10-19T13:34:09Z</time>
      </trkpt>
      <trkpt lat="46.13332" lon="4.56957">
        <ele>440.2</ele>
        <time>2020-10-19T13:34:10Z</time>
      </trkpt>
      <trkpt lat="46.13334" lon="4.5696">
        <ele>440.4</ele>
        <time>2020-10-19T13:34:11Z</time>
      </trkpt>
      <trkpt lat="46.13334" lon="4.5696">
        <ele>440.4</ele>
        <time>2020-10-19T13:34:12Z</time>
      </trkpt>
      <trkpt lat="46.13337" lon="4.56962">
        <ele>440.4</ele>
        <time>2020-10-19T13:34:13Z</time>
      </trkpt>
      <trkpt lat="46.13337" lon="4.56962">
        <ele>440.4</ele>
        <time>2020-10-19T13:34:14Z</time>
      </trkpt>
      <trkpt lat="46.13339" lon="4.56964">
        <ele>440.4</ele>
        <time>2020-10-19T13:34:15Z</time>
      </trkpt>
      <trkpt lat="46.13339" lon="4.56964">
        <ele>440.2</ele>
        <time>2020-10-19T13:34:16Z</time>
      </trkpt>
      <trkpt lat="46.13342" lon="4.56967">
        <ele>440</ele>
        <time>2020-10-19T13:34:17Z</time>
      </trkpt>
      <trkpt lat="46.13342" lon="4.56967">
        <ele>440</ele>
        <time>2020-10-19T13:34:18Z</time>
      </trkpt>
      <trkpt lat="46.13344" lon="4.5697">
        <ele>439.8</ele>
        <time>2020-10-19T13:34:19Z</time>
      </trkpt>
      <trkpt lat="46.13344" lon="4.5697">
        <ele>439.8</ele>
        <time>2020-10-19T13:34:20Z</time>
      </trkpt>
      <trkpt lat="46.13346" lon="4.56972">
        <ele>439.6</ele>
        <time>2020-10-19T13:34:21Z</time>
      </trkpt>
      <trkpt lat="46.13346" lon="4.56972">
        <ele>439.8</ele>
        <time>2020-10-19T13:34:22Z</time>
      </trkpt>
      <trkpt lat="46.13349" lon="4.56974">
        <ele>439.6</ele>
        <time>2020-10-19T13:34:23Z</time>
      </trkpt>
      <trkpt lat="46.13349" lon="4.56974">
        <ele>439.8</ele>
        <time>2020-10-19T13:34:24Z</time>
      </trkpt>
      <trkpt lat="46.13351" lon="4.56976">
        <ele>439.8</ele>
        <time>2020-10-19T13:34:25Z</time>
      </trkpt>
      <trkpt lat="46.13351" lon="4.56976">
        <ele>439.6</ele>
        <time>2020-10-19T13:34:26Z</time>
      </trkpt>
      <trkpt lat="46.13353" lon="4.56979">
        <ele>439.4</ele>
        <time>2020-10-19T13:34:27Z</time>
      </trkpt>
      <trkpt lat="46.13355" lon="4.5698">
        <ele>439.2</ele>
        <time>2020-10-19T13:34:28Z</time>
      </trkpt>
      <trkpt lat="46.13355" lon="4.5698">
        <ele>439</ele>
        <time>2020-10-19T13:34:29Z</time>
      </trkpt>
      <trkpt lat="46.13358" lon="4.56982">
        <ele>439.2</ele>
        <time>2020-10-19T13:34:30Z</time>
      </trkpt>
      <trkpt lat="46.13358" lon="4.56982">
        <ele>439.2</ele>
        <time>2020-10-19T13:34:31Z</time>
      </trkpt>
      <trkpt lat="46.13361" lon="4.56983">
        <ele>439.4</ele>
        <time>2020-10-19T13:34:32Z</time>
      </trkpt>
      <trkpt lat="46.13361" lon="4.56983">
        <ele>439.6</ele>
        <time>2020-10-19T13:34:33Z</time>
      </trkpt>
      <trkpt lat="46.13363" lon="4.56985">
        <ele>439.8</ele>
        <time>2020-10-19T13:34:34Z</time>
      </trkpt>
      <trkpt lat="46.13363" lon="4.56985">
        <ele>440</ele>
        <time>2020-10-19T13:34:35Z</time>
      </trkpt>
      <trkpt lat="46.13363" lon="4.56985">
        <ele>440</ele>
        <time>2020-10-19T13:34:36Z</time>
      </trkpt>
      <trkpt lat="46.13365" lon="4.56985">
        <ele>440</ele>
        <time>2020-10-19T13:34:37Z</time>
      </trkpt>
      <trkpt lat="46.13365" lon="4.56985">
        <ele>440.2</ele>
        <time>2020-10-19T13:34:38Z</time>
      </trkpt>
      <trkpt lat="46.13365" lon="4.56985">
        <ele>440.2</ele>
        <time>2020-10-19T13:34:39Z</time>
      </trkpt>
      <trkpt lat="46.13365" lon="4.56985">
        <ele>440.2</ele>
        <time>2020-10-19T13:34:40Z</time>
      </trkpt>
      <trkpt lat="46.13366" lon="4.56983">
        <ele>440.4</ele>
        <time>2020-10-19T13:34:41Z</time>
      </trkpt>
      <trkpt lat="46.13366" lon="4.56983">
        <ele>440.4</ele>
        <time>2020-10-19T13:34:42Z</time>
      </trkpt>
      <trkpt lat="46.13366" lon="4.56983">
        <ele>440.2</ele>
        <time>2020-10-19T13:34:43Z</time>
      </trkpt>
      <trkpt lat="46.13366" lon="4.56983">
        <ele>440.4</ele>
        <time>2020-10-19T13:34:44Z</time>
      </trkpt>
      <trkpt lat="46.13366" lon="4.56983">
        <ele>440.6</ele>
        <time>2020-10-19T13:34:45Z</time>
      </trkpt>
      <trkpt lat="46.13366" lon="4.56983">
        <ele>440.8</ele>
        <time>2020-10-19T13:34:46Z</time>
      </trkpt>
      <trkpt lat="46.13366" lon="4.56983">
        <ele>441</ele>
        <time>2020-10-19T13:34:47Z</time>
      </trkpt>
      <trkpt lat="46.13366" lon="4.56983">
        <ele>441</ele>
        <time>2020-10-19T13:34:48Z</time>
      </trkpt>
      <trkpt lat="46.13366" lon="4.56983">
        <ele>440.8</ele>
        <time>2020-10-19T13:34:49Z</time>
      </trkpt>
      <trkpt lat="46.13366" lon="4.56983">
        <ele>440.8</ele>
        <time>2020-10-19T13:34:50Z</time>
      </trkpt>
      <trkpt lat="46.13366" lon="4.56983">
        <ele>440.8</ele>
        <time>2020-10-19T13:34:51Z</time>
      </trkpt>
      <trkpt lat="46.13366" lon="4.56983">
        <ele>440.8</ele>
        <time>2020-10-19T13:34:52Z</time>
      </trkpt>
      <trkpt lat="46.13366" lon="4.56983">
        <ele>440.8</ele>
        <time>2020-10-19T13:34:53Z</time>
      </trkpt>
      <trkpt lat="46.13366" lon="4.56983">
        <ele>440.8</ele>
        <time>2020-10-19T13:34:54Z</time>
      </trkpt>
      <trkpt lat="46.13366" lon="4.56983">
        <ele>441</ele>
        <time>2020-10-19T13:34:55Z</time>
      </trkpt>
      <trkpt lat="46.13366" lon="4.56983">
        <ele>441.2</ele>
        <time>2020-10-19T13:34:56Z</time>
      </trkpt>
      <trkpt lat="46.13366" lon="4.56983">
        <ele>441.4</ele>
        <time>2020-10-19T13:34:57Z</time>
      </trkpt>
      <trkpt lat="46.13366" lon="4.56983">
        <ele>441.4</ele>
        <time>2020-10-19T13:34:58Z</time>
      </trkpt>
      <trkpt lat="46.13366" lon="4.56983">
        <ele>441.6</ele>
        <time>2020-10-19T13:34:59Z</time>
      </trkpt>
      <trkpt lat="46.13366" lon="4.56983">
        <ele>441.6</ele>
        <time>2020-10-19T13:35:00Z</time>
      </trkpt>
      <trkpt lat="46.13366" lon="4.56983">
        <ele>441.6</ele>
        <time>2020-10-19T13:35:01Z</time>
      </trkpt>
      <trkpt lat="46.13366" lon="4.56983">
        <ele>441.6</ele>
        <time>2020-10-19T13:35:02Z</time>
      </trkpt>
      <trkpt lat="46.13366" lon="4.56983">
        <ele>441.6</ele>
        <time>2020-10-19T13:35:03Z</time>
      </trkpt>
      <trkpt lat="46.13366" lon="4.56983">
        <ele>442</ele>
        <time>2020-10-19T13:35:04Z</time>
      </trkpt>
      <trkpt lat="46.13366" lon="4.56983">
        <ele>442</ele>
        <time>2020-10-19T13:35:05Z</time>
      </trkpt>
      <trkpt lat="46.13366" lon="4.56983">
        <ele>442.2</ele>
        <time>2020-10-19T13:35:06Z</time>
      </trkpt>
      <trkpt lat="46.13366" lon="4.56983">
        <ele>442.2</ele>
        <time>2020-10-19T13:35:07Z</time>
      </trkpt>
      <trkpt lat="46.13366" lon="4.56983">
        <ele>442.2</ele>
        <time>2020-10-19T13:35:08Z</time>
      </trkpt>
      <trkpt lat="46.13366" lon="4.56983">
        <ele>442.2</ele>
        <time>2020-10-19T13:35:09Z</time>
      </trkpt>
      <trkpt lat="46.13366" lon="4.56983">
        <ele>442.2</ele>
        <time>2020-10-19T13:35:10Z</time>
      </trkpt>
      <trkpt lat="46.13366" lon="4.56983">
        <ele>442.2</ele>
        <time>2020-10-19T13:35:11Z</time>
      </trkpt>
      <trkpt lat="46.13366" lon="4.56983">
        <ele>442.2</ele>
        <time>2020-10-19T13:35:12Z</time>
      </trkpt>
      <trkpt lat="46.13366" lon="4.56983">
        <ele>442.2</ele>
        <time>2020-10-19T13:35:13Z</time>
      </trkpt>
      <trkpt lat="46.13366" lon="4.56983">
        <ele>442</ele>
        <time>2020-10-19T13:35:14Z</time>
      </trkpt>
      <trkpt lat="46.13366" lon="4.56983">
        <ele>442</ele>
        <time>2020-10-19T13:35:15Z</time>
      </trkpt>
      <trkpt lat="46.13366" lon="4.56983">
        <ele>442</ele>
        <time>2020-10-19T13:35:16Z</time>
      </trkpt>
      <trkpt lat="46.13366" lon="4.56983">
        <ele>442</ele>
        <time>2020-10-19T13:35:17Z</time>
      </trkpt>
      <trkpt lat="46.13366" lon="4.56983">
        <ele>442.2</ele>
        <time>2020-10-19T13:35:18Z</time>
      </trkpt>
      <trkpt lat="46.13366" lon="4.56983">
        <ele>442.2</ele>
        <time>2020-10-19T13:35:19Z</time>
      </trkpt>
      <trkpt lat="46.13366" lon="4.56983">
        <ele>442.2</ele>
        <time>2020-10-19T13:35:20Z</time>
      </trkpt>
      <trkpt lat="46.13366" lon="4.56983">
        <ele>442.2</ele>
        <time>2020-10-19T13:35:21Z</time>
      </trkpt>
      <trkpt lat="46.13366" lon="4.56983">
        <ele>442.2</ele>
        <time>2020-10-19T13:35:22Z</time>
      </trkpt>
      <trkpt lat="46.13366" lon="4.56983">
        <ele>442.4</ele>
        <time>2020-10-19T13:35:23Z</time>
      </trkpt>
      <trkpt lat="46.13366" lon="4.56983">
        <ele>442.6</ele>
        <time>2020-10-19T13:35:24Z</time>
      </trkpt>
      <trkpt lat="46.13366" lon="4.56983">
        <ele>442.6</ele>
        <time>2020-10-19T13:35:25Z</time>
      </trkpt>
      <trkpt lat="46.13366" lon="4.56983">
        <ele>442.6</ele>
        <time>2020-10-19T13:35:26Z</time>
      </trkpt>
      <trkpt lat="46.13366" lon="4.56983">
        <ele>442.6</ele>
        <time>2020-10-19T13:35:27Z</time>
      </trkpt>
      <trkpt lat="46.13366" lon="4.56983">
        <ele>442.8</ele>
        <time>2020-10-19T13:35:28Z</time>
      </trkpt>
      <trkpt lat="46.13366" lon="4.56983">
        <ele>442.8</ele>
        <time>2020-10-19T13:35:29Z</time>
      </trkpt>
      <trkpt lat="46.13366" lon="4.56983">
        <ele>442.8</ele>
        <time>2020-10-19T13:35:30Z</time>
      </trkpt>
      <trkpt lat="46.13366" lon="4.56983">
        <ele>443</ele>
        <time>2020-10-19T13:35:31Z</time>
      </trkpt>
      <trkpt lat="46.13366" lon="4.56983">
        <ele>442.8</ele>
        <time>2020-10-19T13:35:32Z</time>
      </trkpt>
      <trkpt lat="46.13366" lon="4.56983">
        <ele>442.6</ele>
        <time>2020-10-19T13:35:33Z</time>
      </trkpt>
      <trkpt lat="46.13366" lon="4.56983">
        <ele>442.6</ele>
        <time>2020-10-19T13:35:34Z</time>
      </trkpt>
      <trkpt lat="46.13366" lon="4.56983">
        <ele>442.8</ele>
        <time>2020-10-19T13:35:35Z</time>
      </trkpt>
      <trkpt lat="46.13366" lon="4.56983">
        <ele>442.8</ele>
        <time>2020-10-19T13:35:36Z</time>
      </trkpt>
      <trkpt lat="46.13366" lon="4.56983">
        <ele>443</ele>
        <time>2020-10-19T13:35:37Z</time>
      </trkpt>
      <trkpt lat="46.13366" lon="4.56983">
        <ele>442.8</ele>
        <time>2020-10-19T13:35:38Z</time>
      </trkpt>
      <trkpt lat="46.13366" lon="4.56983">
        <ele>442.8</ele>
        <time>2020-10-19T13:35:39Z</time>
      </trkpt>
      <trkpt lat="46.13366" lon="4.56983">
        <ele>443</ele>
        <time>2020-10-19T13:35:40Z</time>
      </trkpt>
      <trkpt lat="46.13366" lon="4.56983">
        <ele>443</ele>
        <time>2020-10-19T13:35:41Z</time>
      </trkpt>
      <trkpt lat="46.13366" lon="4.56983">
        <ele>442.8</ele>
        <time>2020-10-19T13:35:42Z</time>
      </trkpt>
      <trkpt lat="46.13367" lon="4.56981">
        <ele>442.8</ele>
        <time>2020-10-19T13:35:43Z</time>
      </trkpt>
      <trkpt lat="46.13367" lon="4.56981">
        <ele>442.8</ele>
        <time>2020-10-19T13:35:44Z</time>
      </trkpt>
      <trkpt lat="46.13367" lon="4.56981">
        <ele>442.6</ele>
        <time>2020-10-19T13:35:45Z</time>
      </trkpt>
      <trkpt lat="46.13367" lon="4.56981">
        <ele>442.4</ele>
        <time>2020-10-19T13:35:46Z</time>
      </trkpt>
      <trkpt lat="46.13367" lon="4.56981">
        <ele>442.6</ele>
        <time>2020-10-19T13:35:47Z</time>
      </trkpt>
      <trkpt lat="46.13367" lon="4.56981">
        <ele>442.6</ele>
        <time>2020-10-19T13:35:48Z</time>
      </trkpt>
      <trkpt lat="46.13367" lon="4.56981">
        <ele>442.6</ele>
        <time>2020-10-19T13:35:49Z</time>
      </trkpt>
      <trkpt lat="46.13367" lon="4.56981">
        <ele>442.6</ele>
        <time>2020-10-19T13:35:50Z</time>
      </trkpt>
      <trkpt lat="46.13367" lon="4.56981">
        <ele>442.6</ele>
        <time>2020-10-19T13:35:51Z</time>
      </trkpt>
      <trkpt lat="46.13367" lon="4.56981">
        <ele>442.4</ele>
        <time>2020-10-19T13:35:52Z</time>
      </trkpt>
      <trkpt lat="46.13367" lon="4.56981">
        <ele>442.4</ele>
        <time>2020-10-19T13:35:53Z</time>
      </trkpt>
      <trkpt lat="46.13367" lon="4.56981">
        <ele>442.6</ele>
        <time>2020-10-19T13:35:54Z</time>
      </trkpt>
      <trkpt lat="46.13367" lon="4.56981">
        <ele>442.6</ele>
        <time>2020-10-19T13:35:55Z</time>
      </trkpt>
      <trkpt lat="46.13367" lon="4.56981">
        <ele>442.6</ele>
        <time>2020-10-19T13:35:56Z</time>
      </trkpt>
      <trkpt lat="46.13367" lon="4.56981">
        <ele>442.4</ele>
        <time>2020-10-19T13:35:57Z</time>
      </trkpt>
      <trkpt lat="46.13366" lon="4.56983">
        <ele>442.4</ele>
        <time>2020-10-19T13:35:58Z</time>
      </trkpt>
      <trkpt lat="46.13366" lon="4.56983">
        <ele>442.2</ele>
        <time>2020-10-19T13:35:59Z</time>
      </trkpt>
      <trkpt lat="46.13366" lon="4.56983">
        <ele>442.2</ele>
        <time>2020-10-19T13:36:00Z</time>
      </trkpt>
      <trkpt lat="46.13366" lon="4.56983">
        <ele>442.2</ele>
        <time>2020-10-19T13:36:01Z</time>
      </trkpt>
      <trkpt lat="46.13366" lon="4.56983">
        <ele>442</ele>
        <time>2020-10-19T13:36:02Z</time>
      </trkpt>
      <trkpt lat="46.13366" lon="4.56983">
        <ele>442.2</ele>
        <time>2020-10-19T13:36:03Z</time>
      </trkpt>
      <trkpt lat="46.13366" lon="4.56983">
        <ele>442.2</ele>
        <time>2020-10-19T13:36:04Z</time>
      </trkpt>
      <trkpt lat="46.13366" lon="4.56983">
        <ele>442.2</ele>
        <time>2020-10-19T13:36:05Z</time>
      </trkpt>
      <trkpt lat="46.13366" lon="4.56983">
        <ele>441.8</ele>
        <time>2020-10-19T13:36:06Z</time>
      </trkpt>
      <trkpt lat="46.13366" lon="4.56983">
        <ele>442</ele>
        <time>2020-10-19T13:36:07Z</time>
      </trkpt>
      <trkpt lat="46.13365" lon="4.5698">
        <ele>442</ele>
        <time>2020-10-19T13:36:08Z</time>
      </trkpt>
      <trkpt lat="46.13365" lon="4.5698">
        <ele>442</ele>
        <time>2020-10-19T13:36:09Z</time>
      </trkpt>
      <trkpt lat="46.13365" lon="4.5698">
        <ele>441.8</ele>
        <time>2020-10-19T13:36:10Z</time>
      </trkpt>
      <trkpt lat="46.13365" lon="4.5698">
        <ele>441.8</ele>
        <time>2020-10-19T13:36:11Z</time>
      </trkpt>
      <trkpt lat="46.13365" lon="4.5698">
        <ele>441.8</ele>
        <time>2020-10-19T13:36:12Z</time>
      </trkpt>
      <trkpt lat="46.13365" lon="4.5698">
        <ele>441.6</ele>
        <time>2020-10-19T13:36:13Z</time>
      </trkpt>
      <trkpt lat="46.13365" lon="4.5698">
        <ele>441.6</ele>
        <time>2020-10-19T13:36:14Z</time>
      </trkpt>
      <trkpt lat="46.13365" lon="4.5698">
        <ele>441.4</ele>
        <time>2020-10-19T13:36:15Z</time>
      </trkpt>
      <trkpt lat="46.13365" lon="4.5698">
        <ele>441.4</ele>
        <time>2020-10-19T13:36:16Z</time>
      </trkpt>
      <trkpt lat="46.13365" lon="4.5698">
        <ele>441.4</ele>
        <time>2020-10-19T13:36:17Z</time>
      </trkpt>
      <trkpt lat="46.13365" lon="4.5698">
        <ele>441.4</ele>
        <time>2020-10-19T13:36:18Z</time>
      </trkpt>
      <trkpt lat="46.13365" lon="4.5698">
        <ele>441.8</ele>
        <time>2020-10-19T13:36:19Z</time>
      </trkpt>
      <trkpt lat="46.13365" lon="4.5698">
        <ele>442</ele>
        <time>2020-10-19T13:36:20Z</time>
      </trkpt>
      <trkpt lat="46.13365" lon="4.5698">
        <ele>441.8</ele>
        <time>2020-10-19T13:36:21Z</time>
      </trkpt>
      <trkpt lat="46.13365" lon="4.5698">
        <ele>441.6</ele>
        <time>2020-10-19T13:36:22Z</time>
      </trkpt>
      <trkpt lat="46.13365" lon="4.5698">
        <ele>441.8</ele>
        <time>2020-10-19T13:36:23Z</time>
      </trkpt>
      <trkpt lat="46.13365" lon="4.5698">
        <ele>441.6</ele>
        <time>2020-10-19T13:36:24Z</time>
      </trkpt>
      <trkpt lat="46.13365" lon="4.5698">
        <ele>441.6</ele>
        <time>2020-10-19T13:36:25Z</time>
      </trkpt>
      <trkpt lat="46.13364" lon="4.56984">
        <ele>441.6</ele>
        <time>2020-10-19T13:36:26Z</time>
      </trkpt>
      <trkpt lat="46.13364" lon="4.56984">
        <ele>441.8</ele>
        <time>2020-10-19T13:36:27Z</time>
      </trkpt>
      <trkpt lat="46.13364" lon="4.56984">
        <ele>441.8</ele>
        <time>2020-10-19T13:36:28Z</time>
      </trkpt>
      <trkpt lat="46.13362" lon="4.56985">
        <ele>441.6</ele>
        <time>2020-10-19T13:36:29Z</time>
      </trkpt>
      <trkpt lat="46.13362" lon="4.56985">
        <ele>441.4</ele>
        <time>2020-10-19T13:36:30Z</time>
      </trkpt>
      <trkpt lat="46.13362" lon="4.56985">
        <ele>441.2</ele>
        <time>2020-10-19T13:36:31Z</time>
      </trkpt>
      <trkpt lat="46.13362" lon="4.56985">
        <ele>441</ele>
        <time>2020-10-19T13:36:32Z</time>
      </trkpt>
      <trkpt lat="46.13362" lon="4.56985">
        <ele>441</ele>
        <time>2020-10-19T13:36:33Z</time>
      </trkpt>
      <trkpt lat="46.13362" lon="4.56985">
        <ele>441</ele>
        <time>2020-10-19T13:36:34Z</time>
      </trkpt>
      <trkpt lat="46.13362" lon="4.56985">
        <ele>441</ele>
        <time>2020-10-19T13:36:35Z</time>
      </trkpt>
      <trkpt lat="46.13362" lon="4.56985">
        <ele>441</ele>
        <time>2020-10-19T13:36:36Z</time>
      </trkpt>
      <trkpt lat="46.13362" lon="4.56985">
        <ele>441</ele>
        <time>2020-10-19T13:36:37Z</time>
      </trkpt>
      <trkpt lat="46.13362" lon="4.56985">
        <ele>441</ele>
        <time>2020-10-19T13:36:38Z</time>
      </trkpt>
      <trkpt lat="46.13362" lon="4.56985">
        <ele>441</ele>
        <time>2020-10-19T13:36:39Z</time>
      </trkpt>
      <trkpt lat="46.13362" lon="4.56985">
        <ele>440.8</ele>
        <time>2020-10-19T13:36:40Z</time>
      </trkpt>
      <trkpt lat="46.13362" lon="4.56985">
        <ele>441.2</ele>
        <time>2020-10-19T13:36:41Z</time>
      </trkpt>
      <trkpt lat="46.13362" lon="4.56985">
        <ele>441.2</ele>
        <time>2020-10-19T13:36:42Z</time>
      </trkpt>
      <trkpt lat="46.13362" lon="4.56985">
        <ele>441.6</ele>
        <time>2020-10-19T13:36:43Z</time>
      </trkpt>
      <trkpt lat="46.13363" lon="4.56989">
        <ele>441.6</ele>
        <time>2020-10-19T13:36:44Z</time>
      </trkpt>
      <trkpt lat="46.13363" lon="4.56989">
        <ele>442.2</ele>
        <time>2020-10-19T13:36:45Z</time>
      </trkpt>
      <trkpt lat="46.13363" lon="4.56989">
        <ele>442.2</ele>
        <time>2020-10-19T13:36:46Z</time>
      </trkpt>
      <trkpt lat="46.13363" lon="4.56989">
        <ele>442.6</ele>
        <time>2020-10-19T13:36:47Z</time>
      </trkpt>
      <trkpt lat="46.13363" lon="4.56989">
        <ele>442.8</ele>
        <time>2020-10-19T13:36:48Z</time>
      </trkpt>
      <trkpt lat="46.13363" lon="4.56989">
        <ele>443</ele>
        <time>2020-10-19T13:36:49Z</time>
      </trkpt>
      <trkpt lat="46.13363" lon="4.56989">
        <ele>443</ele>
        <time>2020-10-19T13:36:50Z</time>
      </trkpt>
      <trkpt lat="46.13363" lon="4.56989">
        <ele>443.2</ele>
        <time>2020-10-19T13:36:51Z</time>
      </trkpt>
      <trkpt lat="46.13363" lon="4.56989">
        <ele>443.4</ele>
        <time>2020-10-19T13:36:52Z</time>
      </trkpt>
      <trkpt lat="46.13363" lon="4.56989">
        <ele>443.4</ele>
        <time>2020-10-19T13:36:53Z</time>
      </trkpt>
      <trkpt lat="46.13363" lon="4.56989">
        <ele>443.8</ele>
        <time>2020-10-19T13:36:54Z</time>
      </trkpt>
      <trkpt lat="46.13364" lon="4.56986">
        <ele>444</ele>
        <time>2020-10-19T13:36:55Z</time>
      </trkpt>
      <trkpt lat="46.13364" lon="4.56986">
        <ele>444</ele>
        <time>2020-10-19T13:36:56Z</time>
      </trkpt>
      <trkpt lat="46.13364" lon="4.56986">
        <ele>444</ele>
        <time>2020-10-19T13:36:57Z</time>
      </trkpt>
      <trkpt lat="46.13364" lon="4.56986">
        <ele>444.2</ele>
        <time>2020-10-19T13:36:58Z</time>
      </trkpt>
      <trkpt lat="46.13365" lon="4.5699">
        <ele>444.2</ele>
        <time>2020-10-19T13:36:59Z</time>
      </trkpt>
      <trkpt lat="46.13365" lon="4.5699">
        <ele>444</ele>
        <time>2020-10-19T13:37:00Z</time>
      </trkpt>
      <trkpt lat="46.13366" lon="4.56992">
        <ele>444</ele>
        <time>2020-10-19T13:37:01Z</time>
      </trkpt>
      <trkpt lat="46.13366" lon="4.56992">
        <ele>444.2</ele>
        <time>2020-10-19T13:37:02Z</time>
      </trkpt>
      <trkpt lat="46.13367" lon="4.56994">
        <ele>444.2</ele>
        <time>2020-10-19T13:37:03Z</time>
      </trkpt>
      <trkpt lat="46.13367" lon="4.56994">
        <ele>444.2</ele>
        <time>2020-10-19T13:37:04Z</time>
      </trkpt>
      <trkpt lat="46.13369" lon="4.56998">
        <ele>444.2</ele>
        <time>2020-10-19T13:37:05Z</time>
      </trkpt>
      <trkpt lat="46.13369" lon="4.56998">
        <ele>444.2</ele>
        <time>2020-10-19T13:37:06Z</time>
      </trkpt>
      <trkpt lat="46.13371" lon="4.57001">
        <ele>444.2</ele>
        <time>2020-10-19T13:37:07Z</time>
      </trkpt>
      <trkpt lat="46.13371" lon="4.57001">
        <ele>444.2</ele>
        <time>2020-10-19T13:37:08Z</time>
      </trkpt>
      <trkpt lat="46.13372" lon="4.57005">
        <ele>444</ele>
        <time>2020-10-19T13:37:09Z</time>
      </trkpt>
      <trkpt lat="46.13372" lon="4.57005">
        <ele>444.2</ele>
        <time>2020-10-19T13:37:10Z</time>
      </trkpt>
      <trkpt lat="46.13374" lon="4.57008">
        <ele>443.8</ele>
        <time>2020-10-19T13:37:11Z</time>
      </trkpt>
      <trkpt lat="46.13374" lon="4.57008">
        <ele>443.4</ele>
        <time>2020-10-19T13:37:12Z</time>
      </trkpt>
      <trkpt lat="46.13375" lon="4.57011">
        <ele>443.2</ele>
        <time>2020-10-19T13:37:13Z</time>
      </trkpt>
      <trkpt lat="46.13375" lon="4.57011">
        <ele>443.2</ele>
        <time>2020-10-19T13:37:14Z</time>
      </trkpt>
      <trkpt lat="46.13377" lon="4.57014">
        <ele>443</ele>
        <time>2020-10-19T13:37:15Z</time>
      </trkpt>
      <trkpt lat="46.13377" lon="4.57014">
        <ele>442.8</ele>
        <time>2020-10-19T13:37:16Z</time>
      </trkpt>
      <trkpt lat="46.13379" lon="4.57017">
        <ele>442.8</ele>
        <time>2020-10-19T13:37:17Z</time>
      </trkpt>
      <trkpt lat="46.13379" lon="4.57017">
        <ele>443</ele>
        <time>2020-10-19T13:37:18Z</time>
      </trkpt>
      <trkpt lat="46.13381" lon="4.57018">
        <ele>443</ele>
        <time>2020-10-19T13:37:19Z</time>
      </trkpt>
      <trkpt lat="46.13381" lon="4.57018">
        <ele>443</ele>
        <time>2020-10-19T13:37:20Z</time>
      </trkpt>
      <trkpt lat="46.13384" lon="4.5702">
        <ele>442.8</ele>
        <time>2020-10-19T13:37:21Z</time>
      </trkpt>
      <trkpt lat="46.13384" lon="4.5702">
        <ele>443</ele>
        <time>2020-10-19T13:37:22Z</time>
      </trkpt>
      <trkpt lat="46.13386" lon="4.57023">
        <ele>443.2</ele>
        <time>2020-10-19T13:37:23Z</time>
      </trkpt>
      <trkpt lat="46.13386" lon="4.57023">
        <ele>443.4</ele>
        <time>2020-10-19T13:37:24Z</time>
      </trkpt>
      <trkpt lat="46.13387" lon="4.57027">
        <ele>443.2</ele>
        <time>2020-10-19T13:37:25Z</time>
      </trkpt>
      <trkpt lat="46.13387" lon="4.57027">
        <ele>443</ele>
        <time>2020-10-19T13:37:26Z</time>
      </trkpt>
      <trkpt lat="46.13388" lon="4.5703">
        <ele>443</ele>
        <time>2020-10-19T13:37:27Z</time>
      </trkpt>
      <trkpt lat="46.13388" lon="4.5703">
        <ele>442.8</ele>
        <time>2020-10-19T13:37:28Z</time>
      </trkpt>
      <trkpt lat="46.1339" lon="4.57034">
        <ele>443</ele>
        <time>2020-10-19T13:37:29Z</time>
      </trkpt>
      <trkpt lat="46.1339" lon="4.57034">
        <ele>442.8</ele>
        <time>2020-10-19T13:37:30Z</time>
      </trkpt>
      <trkpt lat="46.13391" lon="4.57037">
        <ele>442.8</ele>
        <time>2020-10-19T13:37:31Z</time>
      </trkpt>
      <trkpt lat="46.13391" lon="4.57037">
        <ele>442.8</ele>
        <time>2020-10-19T13:37:32Z</time>
      </trkpt>
      <trkpt lat="46.13392" lon="4.57041">
        <ele>442.8</ele>
        <time>2020-10-19T13:37:33Z</time>
      </trkpt>
      <trkpt lat="46.13392" lon="4.57041">
        <ele>442.8</ele>
        <time>2020-10-19T13:37:34Z</time>
      </trkpt>
      <trkpt lat="46.13394" lon="4.57045">
        <ele>442.6</ele>
        <time>2020-10-19T13:37:35Z</time>
      </trkpt>
      <trkpt lat="46.13394" lon="4.57045">
        <ele>442.6</ele>
        <time>2020-10-19T13:37:36Z</time>
      </trkpt>
      <trkpt lat="46.13395" lon="4.57048">
        <ele>442.4</ele>
        <time>2020-10-19T13:37:37Z</time>
      </trkpt>
      <trkpt lat="46.13395" lon="4.57048">
        <ele>442.4</ele>
        <time>2020-10-19T13:37:38Z</time>
      </trkpt>
      <trkpt lat="46.13395" lon="4.57048">
        <ele>442.6</ele>
        <time>2020-10-19T13:37:39Z</time>
      </trkpt>
      <trkpt lat="46.13395" lon="4.57048">
        <ele>442.4</ele>
        <time>2020-10-19T13:37:40Z</time>
      </trkpt>
      <trkpt lat="46.13395" lon="4.57048">
        <ele>442.4</ele>
        <time>2020-10-19T13:37:41Z</time>
      </trkpt>
      <trkpt lat="46.13395" lon="4.57048">
        <ele>442.4</ele>
        <time>2020-10-19T13:37:42Z</time>
      </trkpt>
      <trkpt lat="46.13396" lon="4.57051">
        <ele>442.2</ele>
        <time>2020-10-19T13:37:43Z</time>
      </trkpt>
      <trkpt lat="46.13396" lon="4.57051">
        <ele>442</ele>
        <time>2020-10-19T13:37:44Z</time>
      </trkpt>
      <trkpt lat="46.13398" lon="4.57054">
        <ele>441.8</ele>
        <time>2020-10-19T13:37:45Z</time>
      </trkpt>
      <trkpt lat="46.13398" lon="4.57054">
        <ele>441.6</ele>
        <time>2020-10-19T13:37:46Z</time>
      </trkpt>
      <trkpt lat="46.134" lon="4.57056">
        <ele>441.6</ele>
        <time>2020-10-19T13:37:47Z</time>
      </trkpt>
      <trkpt lat="46.134" lon="4.57056">
        <ele>441.4</ele>
        <time>2020-10-19T13:37:48Z</time>
      </trkpt>
      <trkpt lat="46.13402" lon="4.5706">
        <ele>441.6</ele>
        <time>2020-10-19T13:37:49Z</time>
      </trkpt>
      <trkpt lat="46.13402" lon="4.5706">
        <ele>441.6</ele>
        <time>2020-10-19T13:37:50Z</time>
      </trkpt>
      <trkpt lat="46.13403" lon="4.57063">
        <ele>441.8</ele>
        <time>2020-10-19T13:37:51Z</time>
      </trkpt>
      <trkpt lat="46.13403" lon="4.57063">
        <ele>441.6</ele>
        <time>2020-10-19T13:37:52Z</time>
      </trkpt>
      <trkpt lat="46.13405" lon="4.57067">
        <ele>441.8</ele>
        <time>2020-10-19T13:37:53Z</time>
      </trkpt>
      <trkpt lat="46.13405" lon="4.57067">
        <ele>441.4</ele>
        <time>2020-10-19T13:37:54Z</time>
      </trkpt>
      <trkpt lat="46.13407" lon="4.5707">
        <ele>441.6</ele>
        <time>2020-10-19T13:37:55Z</time>
      </trkpt>
      <trkpt lat="46.13407" lon="4.5707">
        <ele>441.6</ele>
        <time>2020-10-19T13:37:56Z</time>
      </trkpt>
      <trkpt lat="46.13408" lon="4.57074">
        <ele>441.4</ele>
        <time>2020-10-19T13:37:57Z</time>
      </trkpt>
      <trkpt lat="46.13408" lon="4.57074">
        <ele>441.2</ele>
        <time>2020-10-19T13:37:58Z</time>
      </trkpt>
      <trkpt lat="46.1341" lon="4.57077">
        <ele>441.2</ele>
        <time>2020-10-19T13:37:59Z</time>
      </trkpt>
      <trkpt lat="46.1341" lon="4.57077">
        <ele>441</ele>
        <time>2020-10-19T13:38:00Z</time>
      </trkpt>
      <trkpt lat="46.13411" lon="4.5708">
        <ele>440.6</ele>
        <time>2020-10-19T13:38:01Z</time>
      </trkpt>
      <trkpt lat="46.13411" lon="4.5708">
        <ele>440.6</ele>
        <time>2020-10-19T13:38:02Z</time>
      </trkpt>
      <trkpt lat="46.13413" lon="4.57084">
        <ele>440.6</ele>
        <time>2020-10-19T13:38:03Z</time>
      </trkpt>
      <trkpt lat="46.13413" lon="4.57084">
        <ele>440.4</ele>
        <time>2020-10-19T13:38:04Z</time>
      </trkpt>
      <trkpt lat="46.13415" lon="4.57087">
        <ele>440.2</ele>
        <time>2020-10-19T13:38:05Z</time>
      </trkpt>
      <trkpt lat="46.13415" lon="4.57087">
        <ele>440</ele>
        <time>2020-10-19T13:38:06Z</time>
      </trkpt>
      <trkpt lat="46.13416" lon="4.5709">
        <ele>439.8</ele>
        <time>2020-10-19T13:38:07Z</time>
      </trkpt>
      <trkpt lat="46.13416" lon="4.5709">
        <ele>439.8</ele>
        <time>2020-10-19T13:38:08Z</time>
      </trkpt>
      <trkpt lat="46.13418" lon="4.57094">
        <ele>439.6</ele>
        <time>2020-10-19T13:38:09Z</time>
      </trkpt>
      <trkpt lat="46.13418" lon="4.57094">
        <ele>439.4</ele>
        <time>2020-10-19T13:38:10Z</time>
      </trkpt>
      <trkpt lat="46.13419" lon="4.57097">
        <ele>439.4</ele>
        <time>2020-10-19T13:38:11Z</time>
      </trkpt>
      <trkpt lat="46.13419" lon="4.57097">
        <ele>439.4</ele>
        <time>2020-10-19T13:38:12Z</time>
      </trkpt>
      <trkpt lat="46.1342" lon="4.571">
        <ele>439.4</ele>
        <time>2020-10-19T13:38:13Z</time>
      </trkpt>
      <trkpt lat="46.1342" lon="4.571">
        <ele>439.4</ele>
        <time>2020-10-19T13:38:14Z</time>
      </trkpt>
      <trkpt lat="46.13422" lon="4.57104">
        <ele>439.2</ele>
        <time>2020-10-19T13:38:15Z</time>
      </trkpt>
      <trkpt lat="46.13422" lon="4.57104">
        <ele>439.2</ele>
        <time>2020-10-19T13:38:16Z</time>
      </trkpt>
      <trkpt lat="46.13424" lon="4.57107">
        <ele>439.2</ele>
        <time>2020-10-19T13:38:17Z</time>
      </trkpt>
      <trkpt lat="46.13424" lon="4.57107">
        <ele>439</ele>
        <time>2020-10-19T13:38:18Z</time>
      </trkpt>
      <trkpt lat="46.13425" lon="4.5711">
        <ele>438.8</ele>
        <time>2020-10-19T13:38:19Z</time>
      </trkpt>
      <trkpt lat="46.13425" lon="4.5711">
        <ele>438.8</ele>
        <time>2020-10-19T13:38:20Z</time>
      </trkpt>
      <trkpt lat="46.13427" lon="4.57114">
        <ele>438.8</ele>
        <time>2020-10-19T13:38:21Z</time>
      </trkpt>
      <trkpt lat="46.13427" lon="4.57114">
        <ele>438.8</ele>
        <time>2020-10-19T13:38:22Z</time>
      </trkpt>
      <trkpt lat="46.13428" lon="4.57117">
        <ele>438.6</ele>
        <time>2020-10-19T13:38:23Z</time>
      </trkpt>
      <trkpt lat="46.13428" lon="4.57117">
        <ele>438.6</ele>
        <time>2020-10-19T13:38:24Z</time>
      </trkpt>
      <trkpt lat="46.1343" lon="4.5712">
        <ele>438.4</ele>
        <time>2020-10-19T13:38:25Z</time>
      </trkpt>
      <trkpt lat="46.1343" lon="4.5712">
        <ele>438.4</ele>
        <time>2020-10-19T13:38:26Z</time>
      </trkpt>
      <trkpt lat="46.13432" lon="4.57122">
        <ele>438.4</ele>
        <time>2020-10-19T13:38:27Z</time>
      </trkpt>
      <trkpt lat="46.13432" lon="4.57122">
        <ele>438.6</ele>
        <time>2020-10-19T13:38:28Z</time>
      </trkpt>
      <trkpt lat="46.13434" lon="4.57125">
        <ele>438.6</ele>
        <time>2020-10-19T13:38:29Z</time>
      </trkpt>
      <trkpt lat="46.13434" lon="4.57125">
        <ele>438.6</ele>
        <time>2020-10-19T13:38:30Z</time>
      </trkpt>
      <trkpt lat="46.13437" lon="4.57127">
        <ele>438.6</ele>
        <time>2020-10-19T13:38:31Z</time>
      </trkpt>
      <trkpt lat="46.13437" lon="4.57127">
        <ele>438.6</ele>
        <time>2020-10-19T13:38:32Z</time>
      </trkpt>
      <trkpt lat="46.13439" lon="4.5713">
        <ele>438.8</ele>
        <time>2020-10-19T13:38:33Z</time>
      </trkpt>
      <trkpt lat="46.13439" lon="4.5713">
        <ele>438.8</ele>
        <time>2020-10-19T13:38:34Z</time>
      </trkpt>
      <trkpt lat="46.13441" lon="4.57133">
        <ele>438.8</ele>
        <time>2020-10-19T13:38:35Z</time>
      </trkpt>
      <trkpt lat="46.13441" lon="4.57133">
        <ele>438.8</ele>
        <time>2020-10-19T13:38:36Z</time>
      </trkpt>
      <trkpt lat="46.13443" lon="4.57135">
        <ele>438.8</ele>
        <time>2020-10-19T13:38:37Z</time>
      </trkpt>
      <trkpt lat="46.13443" lon="4.57135">
        <ele>438.6</ele>
        <time>2020-10-19T13:38:38Z</time>
      </trkpt>
      <trkpt lat="46.13445" lon="4.57137">
        <ele>438.6</ele>
        <time>2020-10-19T13:38:39Z</time>
      </trkpt>
      <trkpt lat="46.13445" lon="4.57137">
        <ele>438.4</ele>
        <time>2020-10-19T13:38:40Z</time>
      </trkpt>
      <trkpt lat="46.13447" lon="4.57139">
        <ele>438</ele>
        <time>2020-10-19T13:38:41Z</time>
      </trkpt>
      <trkpt lat="46.13447" lon="4.57139">
        <ele>438</ele>
        <time>2020-10-19T13:38:42Z</time>
      </trkpt>
      <trkpt lat="46.13449" lon="4.57141">
        <ele>438</ele>
        <time>2020-10-19T13:38:43Z</time>
      </trkpt>
      <trkpt lat="46.13449" lon="4.57141">
        <ele>438</ele>
        <time>2020-10-19T13:38:44Z</time>
      </trkpt>
      <trkpt lat="46.13451" lon="4.57143">
        <ele>438</ele>
        <time>2020-10-19T13:38:45Z</time>
      </trkpt>
      <trkpt lat="46.13451" lon="4.57143">
        <ele>438</ele>
        <time>2020-10-19T13:38:46Z</time>
      </trkpt>
      <trkpt lat="46.13453" lon="4.57145">
        <ele>437.8</ele>
        <time>2020-10-19T13:38:47Z</time>
      </trkpt>
      <trkpt lat="46.13453" lon="4.57145">
        <ele>438</ele>
        <time>2020-10-19T13:38:48Z</time>
      </trkpt>
      <trkpt lat="46.13455" lon="4.57147">
        <ele>437.6</ele>
        <time>2020-10-19T13:38:49Z</time>
      </trkpt>
      <trkpt lat="46.13455" lon="4.57147">
        <ele>437.4</ele>
        <time>2020-10-19T13:38:50Z</time>
      </trkpt>
      <trkpt lat="46.13457" lon="4.57149">
        <ele>437.2</ele>
        <time>2020-10-19T13:38:51Z</time>
      </trkpt>
      <trkpt lat="46.13457" lon="4.57149">
        <ele>437</ele>
        <time>2020-10-19T13:38:52Z</time>
      </trkpt>
      <trkpt lat="46.1346" lon="4.5715">
        <ele>437</ele>
        <time>2020-10-19T13:38:53Z</time>
      </trkpt>
      <trkpt lat="46.1346" lon="4.5715">
        <ele>436.8</ele>
        <time>2020-10-19T13:38:54Z</time>
      </trkpt>
      <trkpt lat="46.13462" lon="4.57151">
        <ele>436.8</ele>
        <time>2020-10-19T13:38:55Z</time>
      </trkpt>
      <trkpt lat="46.13462" lon="4.57151">
        <ele>436.8</ele>
        <time>2020-10-19T13:38:56Z</time>
      </trkpt>
      <trkpt lat="46.13464" lon="4.57153">
        <ele>436.8</ele>
        <time>2020-10-19T13:38:57Z</time>
      </trkpt>
      <trkpt lat="46.13464" lon="4.57153">
        <ele>436.6</ele>
        <time>2020-10-19T13:38:58Z</time>
      </trkpt>
      <trkpt lat="46.13466" lon="4.57154">
        <ele>436.6</ele>
        <time>2020-10-19T13:38:59Z</time>
      </trkpt>
      <trkpt lat="46.13466" lon="4.57154">
        <ele>436.4</ele>
        <time>2020-10-19T13:39:00Z</time>
      </trkpt>
      <trkpt lat="46.13469" lon="4.57156">
        <ele>436.2</ele>
        <time>2020-10-19T13:39:01Z</time>
      </trkpt>
      <trkpt lat="46.13469" lon="4.57156">
        <ele>436</ele>
        <time>2020-10-19T13:39:02Z</time>
      </trkpt>
      <trkpt lat="46.13471" lon="4.57157">
        <ele>435.8</ele>
        <time>2020-10-19T13:39:03Z</time>
      </trkpt>
      <trkpt lat="46.13471" lon="4.57157">
        <ele>435.6</ele>
        <time>2020-10-19T13:39:04Z</time>
      </trkpt>
      <trkpt lat="46.13473" lon="4.57159">
        <ele>435.8</ele>
        <time>2020-10-19T13:39:05Z</time>
      </trkpt>
      <trkpt lat="46.13473" lon="4.57159">
        <ele>435.6</ele>
        <time>2020-10-19T13:39:06Z</time>
      </trkpt>
      <trkpt lat="46.13476" lon="4.5716">
        <ele>435.4</ele>
        <time>2020-10-19T13:39:07Z</time>
      </trkpt>
      <trkpt lat="46.13476" lon="4.5716">
        <ele>435.4</ele>
        <time>2020-10-19T13:39:08Z</time>
      </trkpt>
      <trkpt lat="46.13479" lon="4.57162">
        <ele>435.4</ele>
        <time>2020-10-19T13:39:09Z</time>
      </trkpt>
      <trkpt lat="46.13479" lon="4.57162">
        <ele>435</ele>
        <time>2020-10-19T13:39:10Z</time>
      </trkpt>
      <trkpt lat="46.13481" lon="4.57163">
        <ele>435</ele>
        <time>2020-10-19T13:39:11Z</time>
      </trkpt>
      <trkpt lat="46.13481" lon="4.57163">
        <ele>434.8</ele>
        <time>2020-10-19T13:39:12Z</time>
      </trkpt>
      <trkpt lat="46.13484" lon="4.57164">
        <ele>434.6</ele>
        <time>2020-10-19T13:39:13Z</time>
      </trkpt>
      <trkpt lat="46.13484" lon="4.57164">
        <ele>434.4</ele>
        <time>2020-10-19T13:39:14Z</time>
      </trkpt>
      <trkpt lat="46.13487" lon="4.57165">
        <ele>434.4</ele>
        <time>2020-10-19T13:39:15Z</time>
      </trkpt>
      <trkpt lat="46.13487" lon="4.57165">
        <ele>434.4</ele>
        <time>2020-10-19T13:39:16Z</time>
      </trkpt>
      <trkpt lat="46.13489" lon="4.57167">
        <ele>434.4</ele>
        <time>2020-10-19T13:39:17Z</time>
      </trkpt>
      <trkpt lat="46.13489" lon="4.57167">
        <ele>434.2</ele>
        <time>2020-10-19T13:39:18Z</time>
      </trkpt>
      <trkpt lat="46.13492" lon="4.57168">
        <ele>434.2</ele>
        <time>2020-10-19T13:39:19Z</time>
      </trkpt>
      <trkpt lat="46.13492" lon="4.57168">
        <ele>434</ele>
        <time>2020-10-19T13:39:20Z</time>
      </trkpt>
      <trkpt lat="46.13494" lon="4.57168">
        <ele>433.8</ele>
        <time>2020-10-19T13:39:21Z</time>
      </trkpt>
      <trkpt lat="46.13494" lon="4.57168">
        <ele>433.8</ele>
        <time>2020-10-19T13:39:22Z</time>
      </trkpt>
      <trkpt lat="46.13497" lon="4.57169">
        <ele>433.6</ele>
        <time>2020-10-19T13:39:23Z</time>
      </trkpt>
      <trkpt lat="46.13497" lon="4.57169">
        <ele>433.2</ele>
        <time>2020-10-19T13:39:24Z</time>
      </trkpt>
      <trkpt lat="46.13499" lon="4.57171">
        <ele>433</ele>
        <time>2020-10-19T13:39:25Z</time>
      </trkpt>
      <trkpt lat="46.13499" lon="4.57171">
        <ele>433</ele>
        <time>2020-10-19T13:39:26Z</time>
      </trkpt>
      <trkpt lat="46.13502" lon="4.57172">
        <ele>432.6</ele>
        <time>2020-10-19T13:39:27Z</time>
      </trkpt>
      <trkpt lat="46.13502" lon="4.57172">
        <ele>432.6</ele>
        <time>2020-10-19T13:39:28Z</time>
      </trkpt>
      <trkpt lat="46.13504" lon="4.57172">
        <ele>432.6</ele>
        <time>2020-10-19T13:39:29Z</time>
      </trkpt>
      <trkpt lat="46.13504" lon="4.57172">
        <ele>432.6</ele>
        <time>2020-10-19T13:39:30Z</time>
      </trkpt>
      <trkpt lat="46.13507" lon="4.57173">
        <ele>432.4</ele>
        <time>2020-10-19T13:39:31Z</time>
      </trkpt>
      <trkpt lat="46.13507" lon="4.57173">
        <ele>432.4</ele>
        <time>2020-10-19T13:39:32Z</time>
      </trkpt>
      <trkpt lat="46.1351" lon="4.57173">
        <ele>432.2</ele>
        <time>2020-10-19T13:39:33Z</time>
      </trkpt>
      <trkpt lat="46.1351" lon="4.57173">
        <ele>432.2</ele>
        <time>2020-10-19T13:39:34Z</time>
      </trkpt>
      <trkpt lat="46.13512" lon="4.57174">
        <ele>432</ele>
        <time>2020-10-19T13:39:35Z</time>
      </trkpt>
      <trkpt lat="46.13512" lon="4.57174">
        <ele>431.8</ele>
        <time>2020-10-19T13:39:36Z</time>
      </trkpt>
      <trkpt lat="46.13515" lon="4.57175">
        <ele>431.8</ele>
        <time>2020-10-19T13:39:37Z</time>
      </trkpt>
      <trkpt lat="46.13515" lon="4.57175">
        <ele>431.8</ele>
        <time>2020-10-19T13:39:38Z</time>
      </trkpt>
      <trkpt lat="46.13518" lon="4.57175">
        <ele>431.8</ele>
        <time>2020-10-19T13:39:39Z</time>
      </trkpt>
      <trkpt lat="46.13518" lon="4.57175">
        <ele>431.8</ele>
        <time>2020-10-19T13:39:40Z</time>
      </trkpt>
      <trkpt lat="46.1352" lon="4.57176">
        <ele>431.8</ele>
        <time>2020-10-19T13:39:41Z</time>
      </trkpt>
      <trkpt lat="46.1352" lon="4.57176">
        <ele>431.8</ele>
        <time>2020-10-19T13:39:42Z</time>
      </trkpt>
      <trkpt lat="46.13523" lon="4.57176">
        <ele>431.6</ele>
        <time>2020-10-19T13:39:43Z</time>
      </trkpt>
      <trkpt lat="46.13523" lon="4.57176">
        <ele>431.6</ele>
        <time>2020-10-19T13:39:44Z</time>
      </trkpt>
      <trkpt lat="46.13526" lon="4.57177">
        <ele>431.6</ele>
        <time>2020-10-19T13:39:45Z</time>
      </trkpt>
      <trkpt lat="46.13526" lon="4.57177">
        <ele>431.4</ele>
        <time>2020-10-19T13:39:46Z</time>
      </trkpt>
      <trkpt lat="46.13528" lon="4.57178">
        <ele>431.4</ele>
        <time>2020-10-19T13:39:47Z</time>
      </trkpt>
      <trkpt lat="46.13528" lon="4.57178">
        <ele>431.4</ele>
        <time>2020-10-19T13:39:48Z</time>
      </trkpt>
      <trkpt lat="46.13531" lon="4.57178">
        <ele>431.2</ele>
        <time>2020-10-19T13:39:49Z</time>
      </trkpt>
      <trkpt lat="46.13531" lon="4.57178">
        <ele>431.2</ele>
        <time>2020-10-19T13:39:50Z</time>
      </trkpt>
      <trkpt lat="46.13533" lon="4.57179">
        <ele>431.4</ele>
        <time>2020-10-19T13:39:51Z</time>
      </trkpt>
      <trkpt lat="46.13533" lon="4.57179">
        <ele>431.2</ele>
        <time>2020-10-19T13:39:52Z</time>
      </trkpt>
      <trkpt lat="46.13536" lon="4.57179">
        <ele>431.2</ele>
        <time>2020-10-19T13:39:53Z</time>
      </trkpt>
      <trkpt lat="46.13536" lon="4.57179">
        <ele>431</ele>
        <time>2020-10-19T13:39:54Z</time>
      </trkpt>
      <trkpt lat="46.13538" lon="4.57179">
        <ele>431</ele>
        <time>2020-10-19T13:39:55Z</time>
      </trkpt>
      <trkpt lat="46.13538" lon="4.57179">
        <ele>430.8</ele>
        <time>2020-10-19T13:39:56Z</time>
      </trkpt>
      <trkpt lat="46.13541" lon="4.5718">
        <ele>430.6</ele>
        <time>2020-10-19T13:39:57Z</time>
      </trkpt>
      <trkpt lat="46.13541" lon="4.5718">
        <ele>430.6</ele>
        <time>2020-10-19T13:39:58Z</time>
      </trkpt>
      <trkpt lat="46.13543" lon="4.57181">
        <ele>430.6</ele>
        <time>2020-10-19T13:39:59Z</time>
      </trkpt>
      <trkpt lat="46.13546" lon="4.57182">
        <ele>430.4</ele>
        <time>2020-10-19T13:40:01Z</time>
      </trkpt>
      <trkpt lat="46.13546" lon="4.57182">
        <ele>430.4</ele>
        <time>2020-10-19T13:40:02Z</time>
      </trkpt>
      <trkpt lat="46.13549" lon="4.57182">
        <ele>430.2</ele>
        <time>2020-10-19T13:40:03Z</time>
      </trkpt>
      <trkpt lat="46.13549" lon="4.57182">
        <ele>430.2</ele>
        <time>2020-10-19T13:40:04Z</time>
      </trkpt>
      <trkpt lat="46.13551" lon="4.57183">
        <ele>430</ele>
        <time>2020-10-19T13:40:05Z</time>
      </trkpt>
      <trkpt lat="46.13551" lon="4.57183">
        <ele>430</ele>
        <time>2020-10-19T13:40:06Z</time>
      </trkpt>
      <trkpt lat="46.13553" lon="4.57183">
        <ele>429.8</ele>
        <time>2020-10-19T13:40:07Z</time>
      </trkpt>
      <trkpt lat="46.13553" lon="4.57183">
        <ele>429.8</ele>
        <time>2020-10-19T13:40:08Z</time>
      </trkpt>
      <trkpt lat="46.13556" lon="4.57184">
        <ele>429.4</ele>
        <time>2020-10-19T13:40:09Z</time>
      </trkpt>
      <trkpt lat="46.13556" lon="4.57184">
        <ele>429.2</ele>
        <time>2020-10-19T13:40:10Z</time>
      </trkpt>
      <trkpt lat="46.13558" lon="4.57185">
        <ele>429</ele>
        <time>2020-10-19T13:40:11Z</time>
      </trkpt>
      <trkpt lat="46.13558" lon="4.57185">
        <ele>428.8</ele>
        <time>2020-10-19T13:40:12Z</time>
      </trkpt>
      <trkpt lat="46.1356" lon="4.57186">
        <ele>428.8</ele>
        <time>2020-10-19T13:40:13Z</time>
      </trkpt>
      <trkpt lat="46.1356" lon="4.57186">
        <ele>428.6</ele>
        <time>2020-10-19T13:40:14Z</time>
      </trkpt>
      <trkpt lat="46.13562" lon="4.57186">
        <ele>428.4</ele>
        <time>2020-10-19T13:40:15Z</time>
      </trkpt>
      <trkpt lat="46.13562" lon="4.57186">
        <ele>428.6</ele>
        <time>2020-10-19T13:40:16Z</time>
      </trkpt>
      <trkpt lat="46.13565" lon="4.57186">
        <ele>428.4</ele>
        <time>2020-10-19T13:40:17Z</time>
      </trkpt>
      <trkpt lat="46.13565" lon="4.57186">
        <ele>428.2</ele>
        <time>2020-10-19T13:40:18Z</time>
      </trkpt>
      <trkpt lat="46.13567" lon="4.57186">
        <ele>428.2</ele>
        <time>2020-10-19T13:40:19Z</time>
      </trkpt>
      <trkpt lat="46.13567" lon="4.57186">
        <ele>428</ele>
        <time>2020-10-19T13:40:20Z</time>
      </trkpt>
      <trkpt lat="46.13571" lon="4.57186">
        <ele>427.8</ele>
        <time>2020-10-19T13:40:21Z</time>
      </trkpt>
      <trkpt lat="46.13572" lon="4.57185">
        <ele>427.6</ele>
        <time>2020-10-19T13:40:22Z</time>
      </trkpt>
      <trkpt lat="46.13575" lon="4.57185">
        <ele>427.8</ele>
        <time>2020-10-19T13:40:23Z</time>
      </trkpt>
      <trkpt lat="46.13577" lon="4.57185">
        <ele>427.6</ele>
        <time>2020-10-19T13:40:24Z</time>
      </trkpt>
      <trkpt lat="46.13577" lon="4.57185">
        <ele>427.6</ele>
        <time>2020-10-19T13:40:25Z</time>
      </trkpt>
      <trkpt lat="46.1358" lon="4.57186">
        <ele>427.6</ele>
        <time>2020-10-19T13:40:26Z</time>
      </trkpt>
      <trkpt lat="46.1358" lon="4.57186">
        <ele>427.4</ele>
        <time>2020-10-19T13:40:27Z</time>
      </trkpt>
      <trkpt lat="46.13583" lon="4.57185">
        <ele>427.4</ele>
        <time>2020-10-19T13:40:28Z</time>
      </trkpt>
      <trkpt lat="46.13583" lon="4.57185">
        <ele>427.2</ele>
        <time>2020-10-19T13:40:29Z</time>
      </trkpt>
      <trkpt lat="46.13586" lon="4.57185">
        <ele>427</ele>
        <time>2020-10-19T13:40:30Z</time>
      </trkpt>
      <trkpt lat="46.13586" lon="4.57185">
        <ele>427</ele>
        <time>2020-10-19T13:40:31Z</time>
      </trkpt>
      <trkpt lat="46.13588" lon="4.57185">
        <ele>426.8</ele>
        <time>2020-10-19T13:40:32Z</time>
      </trkpt>
      <trkpt lat="46.13588" lon="4.57185">
        <ele>426.6</ele>
        <time>2020-10-19T13:40:33Z</time>
      </trkpt>
      <trkpt lat="46.13591" lon="4.57184">
        <ele>426.6</ele>
        <time>2020-10-19T13:40:34Z</time>
      </trkpt>
      <trkpt lat="46.13591" lon="4.57184">
        <ele>426.6</ele>
        <time>2020-10-19T13:40:35Z</time>
      </trkpt>
      <trkpt lat="46.13594" lon="4.57183">
        <ele>426.4</ele>
        <time>2020-10-19T13:40:36Z</time>
      </trkpt>
      <trkpt lat="46.13594" lon="4.57183">
        <ele>426.2</ele>
        <time>2020-10-19T13:40:37Z</time>
      </trkpt>
      <trkpt lat="46.13597" lon="4.57182">
        <ele>426.2</ele>
        <time>2020-10-19T13:40:38Z</time>
      </trkpt>
      <trkpt lat="46.13597" lon="4.57182">
        <ele>426</ele>
        <time>2020-10-19T13:40:39Z</time>
      </trkpt>
      <trkpt lat="46.136" lon="4.57181">
        <ele>425.6</ele>
        <time>2020-10-19T13:40:40Z</time>
      </trkpt>
      <trkpt lat="46.136" lon="4.57181">
        <ele>425.8</ele>
        <time>2020-10-19T13:40:41Z</time>
      </trkpt>
      <trkpt lat="46.13603" lon="4.57181">
        <ele>425.6</ele>
        <time>2020-10-19T13:40:42Z</time>
      </trkpt>
      <trkpt lat="46.13603" lon="4.57181">
        <ele>425.4</ele>
        <time>2020-10-19T13:40:43Z</time>
      </trkpt>
      <trkpt lat="46.13606" lon="4.57179">
        <ele>425</ele>
        <time>2020-10-19T13:40:44Z</time>
      </trkpt>
      <trkpt lat="46.13606" lon="4.57179">
        <ele>424.8</ele>
        <time>2020-10-19T13:40:45Z</time>
      </trkpt>
      <trkpt lat="46.13609" lon="4.57179">
        <ele>424.6</ele>
        <time>2020-10-19T13:40:46Z</time>
      </trkpt>
      <trkpt lat="46.13609" lon="4.57179">
        <ele>424.6</ele>
        <time>2020-10-19T13:40:47Z</time>
      </trkpt>
      <trkpt lat="46.13612" lon="4.57177">
        <ele>424.4</ele>
        <time>2020-10-19T13:40:48Z</time>
      </trkpt>
      <trkpt lat="46.13612" lon="4.57177">
        <ele>424.4</ele>
        <time>2020-10-19T13:40:49Z</time>
      </trkpt>
      <trkpt lat="46.13614" lon="4.57176">
        <ele>424.6</ele>
        <time>2020-10-19T13:40:50Z</time>
      </trkpt>
      <trkpt lat="46.13614" lon="4.57176">
        <ele>424.6</ele>
        <time>2020-10-19T13:40:51Z</time>
      </trkpt>
      <trkpt lat="46.13617" lon="4.57175">
        <ele>424.6</ele>
        <time>2020-10-19T13:40:52Z</time>
      </trkpt>
      <trkpt lat="46.13617" lon="4.57175">
        <ele>424.6</ele>
        <time>2020-10-19T13:40:53Z</time>
      </trkpt>
      <trkpt lat="46.1362" lon="4.57173">
        <ele>424.6</ele>
        <time>2020-10-19T13:40:54Z</time>
      </trkpt>
      <trkpt lat="46.1362" lon="4.57173">
        <ele>424.6</ele>
        <time>2020-10-19T13:40:55Z</time>
      </trkpt>
      <trkpt lat="46.13623" lon="4.57172">
        <ele>424.4</ele>
        <time>2020-10-19T13:40:56Z</time>
      </trkpt>
      <trkpt lat="46.13623" lon="4.57172">
        <ele>424</ele>
        <time>2020-10-19T13:40:57Z</time>
      </trkpt>
      <trkpt lat="46.13625" lon="4.5717">
        <ele>423.8</ele>
        <time>2020-10-19T13:40:58Z</time>
      </trkpt>
      <trkpt lat="46.13625" lon="4.5717">
        <ele>423.8</ele>
        <time>2020-10-19T13:40:59Z</time>
      </trkpt>
      <trkpt lat="46.13628" lon="4.57169">
        <ele>423.8</ele>
        <time>2020-10-19T13:41:00Z</time>
      </trkpt>
      <trkpt lat="46.13628" lon="4.57169">
        <ele>423.8</ele>
        <time>2020-10-19T13:41:01Z</time>
      </trkpt>
      <trkpt lat="46.1363" lon="4.57167">
        <ele>423.8</ele>
        <time>2020-10-19T13:41:02Z</time>
      </trkpt>
      <trkpt lat="46.1363" lon="4.57167">
        <ele>423.8</ele>
        <time>2020-10-19T13:41:03Z</time>
      </trkpt>
      <trkpt lat="46.13633" lon="4.57166">
        <ele>423.8</ele>
        <time>2020-10-19T13:41:04Z</time>
      </trkpt>
      <trkpt lat="46.13633" lon="4.57166">
        <ele>423.8</ele>
        <time>2020-10-19T13:41:05Z</time>
      </trkpt>
      <trkpt lat="46.13636" lon="4.57165">
        <ele>423.6</ele>
        <time>2020-10-19T13:41:06Z</time>
      </trkpt>
      <trkpt lat="46.13636" lon="4.57165">
        <ele>423.4</ele>
        <time>2020-10-19T13:41:07Z</time>
      </trkpt>
      <trkpt lat="46.13638" lon="4.57164">
        <ele>423.2</ele>
        <time>2020-10-19T13:41:08Z</time>
      </trkpt>
      <trkpt lat="46.13638" lon="4.57164">
        <ele>423</ele>
        <time>2020-10-19T13:41:09Z</time>
      </trkpt>
      <trkpt lat="46.13641" lon="4.57162">
        <ele>422.8</ele>
        <time>2020-10-19T13:41:10Z</time>
      </trkpt>
      <trkpt lat="46.13641" lon="4.57162">
        <ele>423</ele>
        <time>2020-10-19T13:41:11Z</time>
      </trkpt>
      <trkpt lat="46.13644" lon="4.57161">
        <ele>422.8</ele>
        <time>2020-10-19T13:41:12Z</time>
      </trkpt>
      <trkpt lat="46.13644" lon="4.57161">
        <ele>422.8</ele>
        <time>2020-10-19T13:41:13Z</time>
      </trkpt>
      <trkpt lat="46.13646" lon="4.57159">
        <ele>422.8</ele>
        <time>2020-10-19T13:41:14Z</time>
      </trkpt>
      <trkpt lat="46.13646" lon="4.57159">
        <ele>422.6</ele>
        <time>2020-10-19T13:41:15Z</time>
      </trkpt>
      <trkpt lat="46.13649" lon="4.57158">
        <ele>422.6</ele>
        <time>2020-10-19T13:41:16Z</time>
      </trkpt>
      <trkpt lat="46.13649" lon="4.57158">
        <ele>422.6</ele>
        <time>2020-10-19T13:41:17Z</time>
      </trkpt>
      <trkpt lat="46.13652" lon="4.57158">
        <ele>422.6</ele>
        <time>2020-10-19T13:41:18Z</time>
      </trkpt>
      <trkpt lat="46.13652" lon="4.57158">
        <ele>422.6</ele>
        <time>2020-10-19T13:41:19Z</time>
      </trkpt>
      <trkpt lat="46.13654" lon="4.57158">
        <ele>422.6</ele>
        <time>2020-10-19T13:41:20Z</time>
      </trkpt>
      <trkpt lat="46.13654" lon="4.57158">
        <ele>422.6</ele>
        <time>2020-10-19T13:41:21Z</time>
      </trkpt>
      <trkpt lat="46.13657" lon="4.57162">
        <ele>422.6</ele>
        <time>2020-10-19T13:41:22Z</time>
      </trkpt>
      <trkpt lat="46.13658" lon="4.57164">
        <ele>422.6</ele>
        <time>2020-10-19T13:41:23Z</time>
      </trkpt>
      <trkpt lat="46.13659" lon="4.57167">
        <ele>422.8</ele>
        <time>2020-10-19T13:41:24Z</time>
      </trkpt>
      <trkpt lat="46.13659" lon="4.57167">
        <ele>422.6</ele>
        <time>2020-10-19T13:41:25Z</time>
      </trkpt>
      <trkpt lat="46.13661" lon="4.57171">
        <ele>422.6</ele>
        <time>2020-10-19T13:41:26Z</time>
      </trkpt>
      <trkpt lat="46.13661" lon="4.57171">
        <ele>422.8</ele>
        <time>2020-10-19T13:41:27Z</time>
      </trkpt>
      <trkpt lat="46.13661" lon="4.57171">
        <ele>422.6</ele>
        <time>2020-10-19T13:41:28Z</time>
      </trkpt>
      <trkpt lat="46.13661" lon="4.57171">
        <ele>422.4</ele>
        <time>2020-10-19T13:41:29Z</time>
      </trkpt>
      <trkpt lat="46.13661" lon="4.57171">
        <ele>422.4</ele>
        <time>2020-10-19T13:41:30Z</time>
      </trkpt>
      <trkpt lat="46.13661" lon="4.57171">
        <ele>422.4</ele>
        <time>2020-10-19T13:41:31Z</time>
      </trkpt>
      <trkpt lat="46.13661" lon="4.57171">
        <ele>422.4</ele>
        <time>2020-10-19T13:41:32Z</time>
      </trkpt>
      <trkpt lat="46.13661" lon="4.57171">
        <ele>422.4</ele>
        <time>2020-10-19T13:41:33Z</time>
      </trkpt>
      <trkpt lat="46.13661" lon="4.57171">
        <ele>422.2</ele>
        <time>2020-10-19T13:41:34Z</time>
      </trkpt>
      <trkpt lat="46.13661" lon="4.57171">
        <ele>422.2</ele>
        <time>2020-10-19T13:41:35Z</time>
      </trkpt>
      <trkpt lat="46.13661" lon="4.57171">
        <ele>422</ele>
        <time>2020-10-19T13:41:36Z</time>
      </trkpt>
      <trkpt lat="46.13661" lon="4.57171">
        <ele>422</ele>
        <time>2020-10-19T13:41:37Z</time>
      </trkpt>
      <trkpt lat="46.13661" lon="4.57171">
        <ele>421.8</ele>
        <time>2020-10-19T13:41:38Z</time>
      </trkpt>
      <trkpt lat="46.13661" lon="4.57171">
        <ele>422</ele>
        <time>2020-10-19T13:41:39Z</time>
      </trkpt>
      <trkpt lat="46.13661" lon="4.57171">
        <ele>421.8</ele>
        <time>2020-10-19T13:41:40Z</time>
      </trkpt>
      <trkpt lat="46.13661" lon="4.57171">
        <ele>421.8</ele>
        <time>2020-10-19T13:41:41Z</time>
      </trkpt>
      <trkpt lat="46.13661" lon="4.57171">
        <ele>421.8</ele>
        <time>2020-10-19T13:41:42Z</time>
      </trkpt>
      <trkpt lat="46.13661" lon="4.57171">
        <ele>421.6</ele>
        <time>2020-10-19T13:41:43Z</time>
      </trkpt>
      <trkpt lat="46.13663" lon="4.57172">
        <ele>421.6</ele>
        <time>2020-10-19T13:41:44Z</time>
      </trkpt>
      <trkpt lat="46.13663" lon="4.57172">
        <ele>421.4</ele>
        <time>2020-10-19T13:41:45Z</time>
      </trkpt>
      <trkpt lat="46.13663" lon="4.57172">
        <ele>421.2</ele>
        <time>2020-10-19T13:41:46Z</time>
      </trkpt>
      <trkpt lat="46.13663" lon="4.57172">
        <ele>421.2</ele>
        <time>2020-10-19T13:41:47Z</time>
      </trkpt>
      <trkpt lat="46.13663" lon="4.57172">
        <ele>421.2</ele>
        <time>2020-10-19T13:41:48Z</time>
      </trkpt>
      <trkpt lat="46.13663" lon="4.57172">
        <ele>421</ele>
        <time>2020-10-19T13:41:49Z</time>
      </trkpt>
      <trkpt lat="46.13663" lon="4.57172">
        <ele>421.2</ele>
        <time>2020-10-19T13:41:50Z</time>
      </trkpt>
      <trkpt lat="46.13663" lon="4.57175">
        <ele>420.8</ele>
        <time>2020-10-19T13:41:51Z</time>
      </trkpt>
      <trkpt lat="46.13663" lon="4.57175">
        <ele>420.8</ele>
        <time>2020-10-19T13:41:52Z</time>
      </trkpt>
      <trkpt lat="46.13663" lon="4.57178">
        <ele>420.6</ele>
        <time>2020-10-19T13:41:53Z</time>
      </trkpt>
      <trkpt lat="46.13663" lon="4.57178">
        <ele>420.6</ele>
        <time>2020-10-19T13:41:54Z</time>
      </trkpt>
      <trkpt lat="46.13663" lon="4.57178">
        <ele>420.8</ele>
        <time>2020-10-19T13:41:55Z</time>
      </trkpt>
      <trkpt lat="46.13663" lon="4.57178">
        <ele>420.8</ele>
        <time>2020-10-19T13:41:56Z</time>
      </trkpt>
      <trkpt lat="46.13662" lon="4.57181">
        <ele>421</ele>
        <time>2020-10-19T13:41:57Z</time>
      </trkpt>
      <trkpt lat="46.13662" lon="4.57181">
        <ele>421</ele>
        <time>2020-10-19T13:41:58Z</time>
      </trkpt>
      <trkpt lat="46.13662" lon="4.57181">
        <ele>420.8</ele>
        <time>2020-10-19T13:41:59Z</time>
      </trkpt>
      <trkpt lat="46.13662" lon="4.57181">
        <ele>421</ele>
        <time>2020-10-19T13:42:00Z</time>
      </trkpt>
      <trkpt lat="46.13662" lon="4.57181">
        <ele>421</ele>
        <time>2020-10-19T13:42:01Z</time>
      </trkpt>
      <trkpt lat="46.13662" lon="4.57181">
        <ele>421.2</ele>
        <time>2020-10-19T13:42:02Z</time>
      </trkpt>
      <trkpt lat="46.13662" lon="4.57181">
        <ele>421.2</ele>
        <time>2020-10-19T13:42:03Z</time>
      </trkpt>
      <trkpt lat="46.13662" lon="4.57181">
        <ele>421.2</ele>
        <time>2020-10-19T13:42:04Z</time>
      </trkpt>
      <trkpt lat="46.13662" lon="4.57181">
        <ele>421.2</ele>
        <time>2020-10-19T13:42:05Z</time>
      </trkpt>
      <trkpt lat="46.13662" lon="4.57181">
        <ele>421</ele>
        <time>2020-10-19T13:42:06Z</time>
      </trkpt>
      <trkpt lat="46.13662" lon="4.57181">
        <ele>420.8</ele>
        <time>2020-10-19T13:42:07Z</time>
      </trkpt>
      <trkpt lat="46.13664" lon="4.57184">
        <ele>421</ele>
        <time>2020-10-19T13:42:08Z</time>
      </trkpt>
      <trkpt lat="46.13664" lon="4.57184">
        <ele>420.6</ele>
        <time>2020-10-19T13:42:09Z</time>
      </trkpt>
      <trkpt lat="46.13664" lon="4.57184">
        <ele>420.6</ele>
        <time>2020-10-19T13:42:10Z</time>
      </trkpt>
      <trkpt lat="46.13664" lon="4.57184">
        <ele>420.2</ele>
        <time>2020-10-19T13:42:11Z</time>
      </trkpt>
      <trkpt lat="46.13664" lon="4.57184">
        <ele>420.2</ele>
        <time>2020-10-19T13:42:12Z</time>
      </trkpt>
      <trkpt lat="46.13664" lon="4.57184">
        <ele>420.2</ele>
        <time>2020-10-19T13:42:13Z</time>
      </trkpt>
      <trkpt lat="46.13664" lon="4.57188">
        <ele>420.2</ele>
        <time>2020-10-19T13:42:14Z</time>
      </trkpt>
      <trkpt lat="46.13664" lon="4.57188">
        <ele>420.4</ele>
        <time>2020-10-19T13:42:15Z</time>
      </trkpt>
      <trkpt lat="46.13664" lon="4.57192">
        <ele>420.2</ele>
        <time>2020-10-19T13:42:16Z</time>
      </trkpt>
      <trkpt lat="46.13664" lon="4.57192">
        <ele>420.4</ele>
        <time>2020-10-19T13:42:17Z</time>
      </trkpt>
      <trkpt lat="46.13665" lon="4.57196">
        <ele>420.2</ele>
        <time>2020-10-19T13:42:18Z</time>
      </trkpt>
      <trkpt lat="46.13665" lon="4.57196">
        <ele>420</ele>
        <time>2020-10-19T13:42:19Z</time>
      </trkpt>
      <trkpt lat="46.13665" lon="4.572">
        <ele>419.8</ele>
        <time>2020-10-19T13:42:20Z</time>
      </trkpt>
      <trkpt lat="46.13665" lon="4.572">
        <ele>419.6</ele>
        <time>2020-10-19T13:42:21Z</time>
      </trkpt>
      <trkpt lat="46.13666" lon="4.57204">
        <ele>419.4</ele>
        <time>2020-10-19T13:42:22Z</time>
      </trkpt>
      <trkpt lat="46.13666" lon="4.57204">
        <ele>419.4</ele>
        <time>2020-10-19T13:42:23Z</time>
      </trkpt>
      <trkpt lat="46.13666" lon="4.57209">
        <ele>419.2</ele>
        <time>2020-10-19T13:42:24Z</time>
      </trkpt>
      <trkpt lat="46.13666" lon="4.57209">
        <ele>419.4</ele>
        <time>2020-10-19T13:42:25Z</time>
      </trkpt>
      <trkpt lat="46.13666" lon="4.57213">
        <ele>419.4</ele>
        <time>2020-10-19T13:42:26Z</time>
      </trkpt>
      <trkpt lat="46.13666" lon="4.57213">
        <ele>419.2</ele>
        <time>2020-10-19T13:42:27Z</time>
      </trkpt>
      <trkpt lat="46.13666" lon="4.57218">
        <ele>419.2</ele>
        <time>2020-10-19T13:42:28Z</time>
      </trkpt>
      <trkpt lat="46.13666" lon="4.57218">
        <ele>419</ele>
        <time>2020-10-19T13:42:29Z</time>
      </trkpt>
      <trkpt lat="46.13666" lon="4.57222">
        <ele>418.8</ele>
        <time>2020-10-19T13:42:30Z</time>
      </trkpt>
      <trkpt lat="46.13666" lon="4.57222">
        <ele>418.6</ele>
        <time>2020-10-19T13:42:31Z</time>
      </trkpt>
      <trkpt lat="46.13666" lon="4.57226">
        <ele>418.4</ele>
        <time>2020-10-19T13:42:32Z</time>
      </trkpt>
      <trkpt lat="46.13666" lon="4.57226">
        <ele>418.4</ele>
        <time>2020-10-19T13:42:33Z</time>
      </trkpt>
      <trkpt lat="46.13667" lon="4.57231">
        <ele>418.2</ele>
        <time>2020-10-19T13:42:34Z</time>
      </trkpt>
      <trkpt lat="46.13667" lon="4.57231">
        <ele>418.4</ele>
        <time>2020-10-19T13:42:35Z</time>
      </trkpt>
      <trkpt lat="46.13667" lon="4.57235">
        <ele>418.4</ele>
        <time>2020-10-19T13:42:36Z</time>
      </trkpt>
      <trkpt lat="46.13667" lon="4.57235">
        <ele>418.4</ele>
        <time>2020-10-19T13:42:37Z</time>
      </trkpt>
      <trkpt lat="46.13667" lon="4.57239">
        <ele>418.2</ele>
        <time>2020-10-19T13:42:38Z</time>
      </trkpt>
      <trkpt lat="46.13667" lon="4.57239">
        <ele>418.4</ele>
        <time>2020-10-19T13:42:39Z</time>
      </trkpt>
      <trkpt lat="46.13667" lon="4.57244">
        <ele>418.4</ele>
        <time>2020-10-19T13:42:40Z</time>
      </trkpt>
      <trkpt lat="46.13667" lon="4.57244">
        <ele>418.4</ele>
        <time>2020-10-19T13:42:41Z</time>
      </trkpt>
      <trkpt lat="46.13667" lon="4.57248">
        <ele>418.6</ele>
        <time>2020-10-19T13:42:42Z</time>
      </trkpt>
      <trkpt lat="46.13667" lon="4.57248">
        <ele>418.8</ele>
        <time>2020-10-19T13:42:43Z</time>
      </trkpt>
      <trkpt lat="46.13667" lon="4.57253">
        <ele>419</ele>
        <time>2020-10-19T13:42:44Z</time>
      </trkpt>
      <trkpt lat="46.13667" lon="4.57253">
        <ele>419.2</ele>
        <time>2020-10-19T13:42:45Z</time>
      </trkpt>
      <trkpt lat="46.13667" lon="4.57257">
        <ele>419.4</ele>
        <time>2020-10-19T13:42:46Z</time>
      </trkpt>
      <trkpt lat="46.13667" lon="4.57257">
        <ele>419.4</ele>
        <time>2020-10-19T13:42:47Z</time>
      </trkpt>
      <trkpt lat="46.13667" lon="4.57262">
        <ele>419.4</ele>
        <time>2020-10-19T13:42:48Z</time>
      </trkpt>
      <trkpt lat="46.13667" lon="4.57262">
        <ele>419.2</ele>
        <time>2020-10-19T13:42:49Z</time>
      </trkpt>
      <trkpt lat="46.13667" lon="4.57266">
        <ele>419</ele>
        <time>2020-10-19T13:42:50Z</time>
      </trkpt>
      <trkpt lat="46.13667" lon="4.57266">
        <ele>419</ele>
        <time>2020-10-19T13:42:51Z</time>
      </trkpt>
      <trkpt lat="46.13667" lon="4.57271">
        <ele>419</ele>
        <time>2020-10-19T13:42:52Z</time>
      </trkpt>
      <trkpt lat="46.13667" lon="4.57271">
        <ele>419</ele>
        <time>2020-10-19T13:42:53Z</time>
      </trkpt>
      <trkpt lat="46.13668" lon="4.57276">
        <ele>419</ele>
        <time>2020-10-19T13:42:54Z</time>
      </trkpt>
      <trkpt lat="46.13668" lon="4.57276">
        <ele>419</ele>
        <time>2020-10-19T13:42:55Z</time>
      </trkpt>
      <trkpt lat="46.13668" lon="4.5728">
        <ele>419</ele>
        <time>2020-10-19T13:42:56Z</time>
      </trkpt>
      <trkpt lat="46.13668" lon="4.5728">
        <ele>419</ele>
        <time>2020-10-19T13:42:57Z</time>
      </trkpt>
      <trkpt lat="46.13669" lon="4.57284">
        <ele>419</ele>
        <time>2020-10-19T13:42:58Z</time>
      </trkpt>
      <trkpt lat="46.13669" lon="4.57284">
        <ele>419.2</ele>
        <time>2020-10-19T13:42:59Z</time>
      </trkpt>
      <trkpt lat="46.1367" lon="4.57288">
        <ele>419</ele>
        <time>2020-10-19T13:43:00Z</time>
      </trkpt>
      <trkpt lat="46.1367" lon="4.57288">
        <ele>419</ele>
        <time>2020-10-19T13:43:01Z</time>
      </trkpt>
      <trkpt lat="46.1367" lon="4.57291">
        <ele>419</ele>
        <time>2020-10-19T13:43:02Z</time>
      </trkpt>
      <trkpt lat="46.1367" lon="4.57291">
        <ele>419</ele>
        <time>2020-10-19T13:43:03Z</time>
      </trkpt>
      <trkpt lat="46.13671" lon="4.57295">
        <ele>419</ele>
        <time>2020-10-19T13:43:04Z</time>
      </trkpt>
      <trkpt lat="46.13671" lon="4.57295">
        <ele>419</ele>
        <time>2020-10-19T13:43:05Z</time>
      </trkpt>
      <trkpt lat="46.13672" lon="4.57299">
        <ele>418.8</ele>
        <time>2020-10-19T13:43:06Z</time>
      </trkpt>
      <trkpt lat="46.13672" lon="4.57299">
        <ele>418.8</ele>
        <time>2020-10-19T13:43:07Z</time>
      </trkpt>
      <trkpt lat="46.13673" lon="4.57304">
        <ele>419</ele>
        <time>2020-10-19T13:43:08Z</time>
      </trkpt>
      <trkpt lat="46.13673" lon="4.57304">
        <ele>419</ele>
        <time>2020-10-19T13:43:09Z</time>
      </trkpt>
      <trkpt lat="46.13673" lon="4.57308">
        <ele>419.2</ele>
        <time>2020-10-19T13:43:10Z</time>
      </trkpt>
      <trkpt lat="46.13673" lon="4.57308">
        <ele>419.2</ele>
        <time>2020-10-19T13:43:11Z</time>
      </trkpt>
      <trkpt lat="46.13674" lon="4.57313">
        <ele>419.4</ele>
        <time>2020-10-19T13:43:12Z</time>
      </trkpt>
      <trkpt lat="46.13674" lon="4.57313">
        <ele>419.2</ele>
        <time>2020-10-19T13:43:13Z</time>
      </trkpt>
      <trkpt lat="46.13675" lon="4.57317">
        <ele>419</ele>
        <time>2020-10-19T13:43:14Z</time>
      </trkpt>
      <trkpt lat="46.13675" lon="4.57319">
        <ele>419</ele>
        <time>2020-10-19T13:43:15Z</time>
      </trkpt>
      <trkpt lat="46.13675" lon="4.57319">
        <ele>419</ele>
        <time>2020-10-19T13:43:16Z</time>
      </trkpt>
      <trkpt lat="46.13676" lon="4.57324">
        <ele>419.2</ele>
        <time>2020-10-19T13:43:17Z</time>
      </trkpt>
      <trkpt lat="46.13676" lon="4.57324">
        <ele>418.8</ele>
        <time>2020-10-19T13:43:18Z</time>
      </trkpt>
      <trkpt lat="46.13677" lon="4.57328">
        <ele>418.6</ele>
        <time>2020-10-19T13:43:19Z</time>
      </trkpt>
      <trkpt lat="46.13677" lon="4.57328">
        <ele>418.8</ele>
        <time>2020-10-19T13:43:20Z</time>
      </trkpt>
      <trkpt lat="46.13678" lon="4.57332">
        <ele>418.6</ele>
        <time>2020-10-19T13:43:21Z</time>
      </trkpt>
      <trkpt lat="46.13678" lon="4.57332">
        <ele>418.6</ele>
        <time>2020-10-19T13:43:22Z</time>
      </trkpt>
      <trkpt lat="46.13678" lon="4.57337">
        <ele>418.8</ele>
        <time>2020-10-19T13:43:23Z</time>
      </trkpt>
      <trkpt lat="46.13678" lon="4.57337">
        <ele>418.8</ele>
        <time>2020-10-19T13:43:24Z</time>
      </trkpt>
      <trkpt lat="46.1368" lon="4.57341">
        <ele>418.6</ele>
        <time>2020-10-19T13:43:25Z</time>
      </trkpt>
      <trkpt lat="46.1368" lon="4.57341">
        <ele>418.8</ele>
        <time>2020-10-19T13:43:26Z</time>
      </trkpt>
      <trkpt lat="46.13681" lon="4.57345">
        <ele>418.6</ele>
        <time>2020-10-19T13:43:27Z</time>
      </trkpt>
      <trkpt lat="46.13681" lon="4.57345">
        <ele>418.6</ele>
        <time>2020-10-19T13:43:28Z</time>
      </trkpt>
      <trkpt lat="46.13682" lon="4.57349">
        <ele>418.6</ele>
        <time>2020-10-19T13:43:29Z</time>
      </trkpt>
      <trkpt lat="46.13682" lon="4.57349">
        <ele>418.4</ele>
        <time>2020-10-19T13:43:30Z</time>
      </trkpt>
      <trkpt lat="46.13683" lon="4.57353">
        <ele>418.2</ele>
        <time>2020-10-19T13:43:31Z</time>
      </trkpt>
      <trkpt lat="46.13683" lon="4.57353">
        <ele>418</ele>
        <time>2020-10-19T13:43:32Z</time>
      </trkpt>
      <trkpt lat="46.13684" lon="4.57357">
        <ele>418</ele>
        <time>2020-10-19T13:43:33Z</time>
      </trkpt>
      <trkpt lat="46.13684" lon="4.57357">
        <ele>418</ele>
        <time>2020-10-19T13:43:34Z</time>
      </trkpt>
      <trkpt lat="46.13685" lon="4.57361">
        <ele>418</ele>
        <time>2020-10-19T13:43:35Z</time>
      </trkpt>
      <trkpt lat="46.13685" lon="4.57361">
        <ele>418</ele>
        <time>2020-10-19T13:43:36Z</time>
      </trkpt>
      <trkpt lat="46.13687" lon="4.57365">
        <ele>418</ele>
        <time>2020-10-19T13:43:37Z</time>
      </trkpt>
      <trkpt lat="46.13687" lon="4.57365">
        <ele>417.8</ele>
        <time>2020-10-19T13:43:38Z</time>
      </trkpt>
      <trkpt lat="46.13689" lon="4.57369">
        <ele>418</ele>
        <time>2020-10-19T13:43:39Z</time>
      </trkpt>
      <trkpt lat="46.13689" lon="4.57369">
        <ele>418</ele>
        <time>2020-10-19T13:43:40Z</time>
      </trkpt>
      <trkpt lat="46.13691" lon="4.57373">
        <ele>418</ele>
        <time>2020-10-19T13:43:41Z</time>
      </trkpt>
      <trkpt lat="46.13691" lon="4.57373">
        <ele>417.8</ele>
        <time>2020-10-19T13:43:42Z</time>
      </trkpt>
      <trkpt lat="46.13692" lon="4.57375">
        <ele>417.8</ele>
        <time>2020-10-19T13:43:43Z</time>
      </trkpt>
      <trkpt lat="46.13692" lon="4.57375">
        <ele>417.6</ele>
        <time>2020-10-19T13:43:44Z</time>
      </trkpt>
      <trkpt lat="46.13694" lon="4.57378">
        <ele>417.8</ele>
        <time>2020-10-19T13:43:45Z</time>
      </trkpt>
      <trkpt lat="46.13694" lon="4.57378">
        <ele>418</ele>
        <time>2020-10-19T13:43:46Z</time>
      </trkpt>
      <trkpt lat="46.13695" lon="4.57381">
        <ele>417.8</ele>
        <time>2020-10-19T13:43:47Z</time>
      </trkpt>
      <trkpt lat="46.13695" lon="4.57381">
        <ele>417.8</ele>
        <time>2020-10-19T13:43:48Z</time>
      </trkpt>
      <trkpt lat="46.13696" lon="4.57384">
        <ele>417.8</ele>
        <time>2020-10-19T13:43:49Z</time>
      </trkpt>
      <trkpt lat="46.13696" lon="4.57384">
        <ele>417.6</ele>
        <time>2020-10-19T13:43:50Z</time>
      </trkpt>
      <trkpt lat="46.13698" lon="4.57387">
        <ele>417.6</ele>
        <time>2020-10-19T13:43:51Z</time>
      </trkpt>
      <trkpt lat="46.13698" lon="4.57387">
        <ele>417.8</ele>
        <time>2020-10-19T13:43:52Z</time>
      </trkpt>
      <trkpt lat="46.13699" lon="4.57389">
        <ele>418</ele>
        <time>2020-10-19T13:43:53Z</time>
      </trkpt>
      <trkpt lat="46.13699" lon="4.57389">
        <ele>418</ele>
        <time>2020-10-19T13:43:54Z</time>
      </trkpt>
      <trkpt lat="46.13701" lon="4.57392">
        <ele>418</ele>
        <time>2020-10-19T13:43:55Z</time>
      </trkpt>
      <trkpt lat="46.13701" lon="4.57392">
        <ele>418</ele>
        <time>2020-10-19T13:43:56Z</time>
      </trkpt>
      <trkpt lat="46.13703" lon="4.57395">
        <ele>417.6</ele>
        <time>2020-10-19T13:43:57Z</time>
      </trkpt>
      <trkpt lat="46.13703" lon="4.57395">
        <ele>417.6</ele>
        <time>2020-10-19T13:43:58Z</time>
      </trkpt>
      <trkpt lat="46.13705" lon="4.57398">
        <ele>417.6</ele>
        <time>2020-10-19T13:43:59Z</time>
      </trkpt>
      <trkpt lat="46.13705" lon="4.57398">
        <ele>417.6</ele>
        <time>2020-10-19T13:44:00Z</time>
      </trkpt>
      <trkpt lat="46.13706" lon="4.57401">
        <ele>417.4</ele>
        <time>2020-10-19T13:44:01Z</time>
      </trkpt>
      <trkpt lat="46.13706" lon="4.57401">
        <ele>417.4</ele>
        <time>2020-10-19T13:44:02Z</time>
      </trkpt>
      <trkpt lat="46.13709" lon="4.57404">
        <ele>417.4</ele>
        <time>2020-10-19T13:44:03Z</time>
      </trkpt>
      <trkpt lat="46.13709" lon="4.57404">
        <ele>417.4</ele>
        <time>2020-10-19T13:44:04Z</time>
      </trkpt>
      <trkpt lat="46.13711" lon="4.57407">
        <ele>417.4</ele>
        <time>2020-10-19T13:44:05Z</time>
      </trkpt>
      <trkpt lat="46.13711" lon="4.57407">
        <ele>417.4</ele>
        <time>2020-10-19T13:44:06Z</time>
      </trkpt>
      <trkpt lat="46.13713" lon="4.5741">
        <ele>417.4</ele>
        <time>2020-10-19T13:44:07Z</time>
      </trkpt>
      <trkpt lat="46.13715" lon="4.57411">
        <ele>417.4</ele>
        <time>2020-10-19T13:44:08Z</time>
      </trkpt>
      <trkpt lat="46.13716" lon="4.57413">
        <ele>417.6</ele>
        <time>2020-10-19T13:44:09Z</time>
      </trkpt>
      <trkpt lat="46.13716" lon="4.57413">
        <ele>417.6</ele>
        <time>2020-10-19T13:44:10Z</time>
      </trkpt>
      <trkpt lat="46.13719" lon="4.57415">
        <ele>417.8</ele>
        <time>2020-10-19T13:44:11Z</time>
      </trkpt>
      <trkpt lat="46.13719" lon="4.57415">
        <ele>417.8</ele>
        <time>2020-10-19T13:44:12Z</time>
      </trkpt>
      <trkpt lat="46.13721" lon="4.57418">
        <ele>418</ele>
        <time>2020-10-19T13:44:13Z</time>
      </trkpt>
      <trkpt lat="46.13721" lon="4.57418">
        <ele>418</ele>
        <time>2020-10-19T13:44:14Z</time>
      </trkpt>
      <trkpt lat="46.13723" lon="4.57421">
        <ele>417.8</ele>
        <time>2020-10-19T13:44:15Z</time>
      </trkpt>
      <trkpt lat="46.13723" lon="4.57421">
        <ele>417.8</ele>
        <time>2020-10-19T13:44:16Z</time>
      </trkpt>
      <trkpt lat="46.13726" lon="4.57425">
        <ele>417.6</ele>
        <time>2020-10-19T13:44:17Z</time>
      </trkpt>
      <trkpt lat="46.13726" lon="4.57425">
        <ele>417.4</ele>
        <time>2020-10-19T13:44:18Z</time>
      </trkpt>
      <trkpt lat="46.13728" lon="4.57427">
        <ele>417.4</ele>
        <time>2020-10-19T13:44:19Z</time>
      </trkpt>
      <trkpt lat="46.13728" lon="4.57427">
        <ele>417.2</ele>
        <time>2020-10-19T13:44:20Z</time>
      </trkpt>
      <trkpt lat="46.1373" lon="4.57431">
        <ele>417.2</ele>
        <time>2020-10-19T13:44:21Z</time>
      </trkpt>
      <trkpt lat="46.1373" lon="4.57431">
        <ele>417.2</ele>
        <time>2020-10-19T13:44:22Z</time>
      </trkpt>
      <trkpt lat="46.13732" lon="4.57435">
        <ele>417</ele>
        <time>2020-10-19T13:44:23Z</time>
      </trkpt>
      <trkpt lat="46.13732" lon="4.57435">
        <ele>417</ele>
        <time>2020-10-19T13:44:24Z</time>
      </trkpt>
      <trkpt lat="46.13735" lon="4.57438">
        <ele>417</ele>
        <time>2020-10-19T13:44:25Z</time>
      </trkpt>
      <trkpt lat="46.13735" lon="4.57438">
        <ele>416.8</ele>
        <time>2020-10-19T13:44:26Z</time>
      </trkpt>
      <trkpt lat="46.13737" lon="4.57441">
        <ele>417</ele>
        <time>2020-10-19T13:44:27Z</time>
      </trkpt>
      <trkpt lat="46.13737" lon="4.57441">
        <ele>416.8</ele>
        <time>2020-10-19T13:44:28Z</time>
      </trkpt>
      <trkpt lat="46.13739" lon="4.57443">
        <ele>416.8</ele>
        <time>2020-10-19T13:44:29Z</time>
      </trkpt>
      <trkpt lat="46.13739" lon="4.57443">
        <ele>416.8</ele>
        <time>2020-10-19T13:44:30Z</time>
      </trkpt>
      <trkpt lat="46.13742" lon="4.57445">
        <ele>416.6</ele>
        <time>2020-10-19T13:44:31Z</time>
      </trkpt>
      <trkpt lat="46.13742" lon="4.57445">
        <ele>416.6</ele>
        <time>2020-10-19T13:44:32Z</time>
      </trkpt>
      <trkpt lat="46.13743" lon="4.57448">
        <ele>416.6</ele>
        <time>2020-10-19T13:44:33Z</time>
      </trkpt>
      <trkpt lat="46.13743" lon="4.57448">
        <ele>416.4</ele>
        <time>2020-10-19T13:44:34Z</time>
      </trkpt>
      <trkpt lat="46.13746" lon="4.5745">
        <ele>416.2</ele>
        <time>2020-10-19T13:44:35Z</time>
      </trkpt>
      <trkpt lat="46.13746" lon="4.5745">
        <ele>416</ele>
        <time>2020-10-19T13:44:36Z</time>
      </trkpt>
      <trkpt lat="46.13749" lon="4.57453">
        <ele>416.2</ele>
        <time>2020-10-19T13:44:37Z</time>
      </trkpt>
      <trkpt lat="46.13751" lon="4.57455">
        <ele>416.2</ele>
        <time>2020-10-19T13:44:38Z</time>
      </trkpt>
      <trkpt lat="46.13753" lon="4.57456">
        <ele>416</ele>
        <time>2020-10-19T13:44:39Z</time>
      </trkpt>
      <trkpt lat="46.13753" lon="4.57456">
        <ele>416</ele>
        <time>2020-10-19T13:44:40Z</time>
      </trkpt>
      <trkpt lat="46.13756" lon="4.57459">
        <ele>415.8</ele>
        <time>2020-10-19T13:44:41Z</time>
      </trkpt>
      <trkpt lat="46.13756" lon="4.57459">
        <ele>415.8</ele>
        <time>2020-10-19T13:44:42Z</time>
      </trkpt>
      <trkpt lat="46.13758" lon="4.57461">
        <ele>415.6</ele>
        <time>2020-10-19T13:44:43Z</time>
      </trkpt>
      <trkpt lat="46.13758" lon="4.57461">
        <ele>415.6</ele>
        <time>2020-10-19T13:44:44Z</time>
      </trkpt>
      <trkpt lat="46.1376" lon="4.57463">
        <ele>415.6</ele>
        <time>2020-10-19T13:44:45Z</time>
      </trkpt>
      <trkpt lat="46.1376" lon="4.57463">
        <ele>415.4</ele>
        <time>2020-10-19T13:44:46Z</time>
      </trkpt>
      <trkpt lat="46.13763" lon="4.57464">
        <ele>415.4</ele>
        <time>2020-10-19T13:44:47Z</time>
      </trkpt>
      <trkpt lat="46.13763" lon="4.57464">
        <ele>415.6</ele>
        <time>2020-10-19T13:44:48Z</time>
      </trkpt>
      <trkpt lat="46.13766" lon="4.57465">
        <ele>415.4</ele>
        <time>2020-10-19T13:44:49Z</time>
      </trkpt>
      <trkpt lat="46.13766" lon="4.57465">
        <ele>415.4</ele>
        <time>2020-10-19T13:44:50Z</time>
      </trkpt>
      <trkpt lat="46.13768" lon="4.57466">
        <ele>415.4</ele>
        <time>2020-10-19T13:44:51Z</time>
      </trkpt>
      <trkpt lat="46.13768" lon="4.57466">
        <ele>415.2</ele>
        <time>2020-10-19T13:44:52Z</time>
      </trkpt>
      <trkpt lat="46.13771" lon="4.57468">
        <ele>414.8</ele>
        <time>2020-10-19T13:44:53Z</time>
      </trkpt>
      <trkpt lat="46.13771" lon="4.57468">
        <ele>415</ele>
        <time>2020-10-19T13:44:54Z</time>
      </trkpt>
      <trkpt lat="46.13774" lon="4.57469">
        <ele>415</ele>
        <time>2020-10-19T13:44:55Z</time>
      </trkpt>
      <trkpt lat="46.13774" lon="4.57469">
        <ele>414.8</ele>
        <time>2020-10-19T13:44:56Z</time>
      </trkpt>
      <trkpt lat="46.13776" lon="4.57471">
        <ele>414.8</ele>
        <time>2020-10-19T13:44:57Z</time>
      </trkpt>
      <trkpt lat="46.13776" lon="4.57471">
        <ele>414.8</ele>
        <time>2020-10-19T13:44:58Z</time>
      </trkpt>
      <trkpt lat="46.13779" lon="4.57471">
        <ele>414.6</ele>
        <time>2020-10-19T13:44:59Z</time>
      </trkpt>
      <trkpt lat="46.13779" lon="4.57471">
        <ele>414.4</ele>
        <time>2020-10-19T13:45:00Z</time>
      </trkpt>
      <trkpt lat="46.13782" lon="4.57473">
        <ele>414.4</ele>
        <time>2020-10-19T13:45:01Z</time>
      </trkpt>
      <trkpt lat="46.13782" lon="4.57473">
        <ele>414.4</ele>
        <time>2020-10-19T13:45:02Z</time>
      </trkpt>
      <trkpt lat="46.13785" lon="4.57474">
        <ele>414.4</ele>
        <time>2020-10-19T13:45:03Z</time>
      </trkpt>
      <trkpt lat="46.13785" lon="4.57474">
        <ele>414.2</ele>
        <time>2020-10-19T13:45:04Z</time>
      </trkpt>
      <trkpt lat="46.13788" lon="4.57475">
        <ele>414</ele>
        <time>2020-10-19T13:45:05Z</time>
      </trkpt>
      <trkpt lat="46.13788" lon="4.57475">
        <ele>414</ele>
        <time>2020-10-19T13:45:06Z</time>
      </trkpt>
      <trkpt lat="46.13791" lon="4.57476">
        <ele>413.8</ele>
        <time>2020-10-19T13:45:07Z</time>
      </trkpt>
      <trkpt lat="46.13791" lon="4.57476">
        <ele>413.8</ele>
        <time>2020-10-19T13:45:08Z</time>
      </trkpt>
      <trkpt lat="46.13793" lon="4.57478">
        <ele>413.8</ele>
        <time>2020-10-19T13:45:09Z</time>
      </trkpt>
      <trkpt lat="46.13793" lon="4.57478">
        <ele>413.8</ele>
        <time>2020-10-19T13:45:10Z</time>
      </trkpt>
      <trkpt lat="46.13796" lon="4.57479">
        <ele>413.6</ele>
        <time>2020-10-19T13:45:11Z</time>
      </trkpt>
      <trkpt lat="46.13796" lon="4.57479">
        <ele>413.6</ele>
        <time>2020-10-19T13:45:12Z</time>
      </trkpt>
      <trkpt lat="46.13798" lon="4.57481">
        <ele>413.6</ele>
        <time>2020-10-19T13:45:13Z</time>
      </trkpt>
      <trkpt lat="46.138" lon="4.57482">
        <ele>413.4</ele>
        <time>2020-10-19T13:45:14Z</time>
      </trkpt>
      <trkpt lat="46.138" lon="4.57482">
        <ele>413.4</ele>
        <time>2020-10-19T13:45:15Z</time>
      </trkpt>
      <trkpt lat="46.13803" lon="4.57484">
        <ele>413.4</ele>
        <time>2020-10-19T13:45:16Z</time>
      </trkpt>
      <trkpt lat="46.13803" lon="4.57484">
        <ele>413.2</ele>
        <time>2020-10-19T13:45:17Z</time>
      </trkpt>
      <trkpt lat="46.13806" lon="4.57486">
        <ele>413.2</ele>
        <time>2020-10-19T13:45:18Z</time>
      </trkpt>
      <trkpt lat="46.13806" lon="4.57486">
        <ele>413.4</ele>
        <time>2020-10-19T13:45:19Z</time>
      </trkpt>
      <trkpt lat="46.13809" lon="4.57487">
        <ele>413.2</ele>
        <time>2020-10-19T13:45:20Z</time>
      </trkpt>
      <trkpt lat="46.13809" lon="4.57487">
        <ele>413</ele>
        <time>2020-10-19T13:45:21Z</time>
      </trkpt>
      <trkpt lat="46.13811" lon="4.57488">
        <ele>413</ele>
        <time>2020-10-19T13:45:22Z</time>
      </trkpt>
      <trkpt lat="46.13811" lon="4.57488">
        <ele>413</ele>
        <time>2020-10-19T13:45:23Z</time>
      </trkpt>
      <trkpt lat="46.13814" lon="4.5749">
        <ele>412.8</ele>
        <time>2020-10-19T13:45:24Z</time>
      </trkpt>
      <trkpt lat="46.13814" lon="4.5749">
        <ele>412.6</ele>
        <time>2020-10-19T13:45:25Z</time>
      </trkpt>
      <trkpt lat="46.13817" lon="4.57491">
        <ele>412.6</ele>
        <time>2020-10-19T13:45:26Z</time>
      </trkpt>
      <trkpt lat="46.13817" lon="4.57491">
        <ele>412.4</ele>
        <time>2020-10-19T13:45:27Z</time>
      </trkpt>
      <trkpt lat="46.13819" lon="4.57493">
        <ele>412.2</ele>
        <time>2020-10-19T13:45:28Z</time>
      </trkpt>
      <trkpt lat="46.13819" lon="4.57493">
        <ele>412</ele>
        <time>2020-10-19T13:45:29Z</time>
      </trkpt>
      <trkpt lat="46.13822" lon="4.57495">
        <ele>412</ele>
        <time>2020-10-19T13:45:30Z</time>
      </trkpt>
      <trkpt lat="46.13822" lon="4.57495">
        <ele>411.8</ele>
        <time>2020-10-19T13:45:31Z</time>
      </trkpt>
      <trkpt lat="46.13825" lon="4.57496">
        <ele>411.6</ele>
        <time>2020-10-19T13:45:32Z</time>
      </trkpt>
      <trkpt lat="46.13825" lon="4.57496">
        <ele>411.4</ele>
        <time>2020-10-19T13:45:33Z</time>
      </trkpt>
      <trkpt lat="46.13828" lon="4.57498">
        <ele>411.4</ele>
        <time>2020-10-19T13:45:34Z</time>
      </trkpt>
      <trkpt lat="46.13828" lon="4.57498">
        <ele>411.2</ele>
        <time>2020-10-19T13:45:35Z</time>
      </trkpt>
      <trkpt lat="46.1383" lon="4.575">
        <ele>410.8</ele>
        <time>2020-10-19T13:45:36Z</time>
      </trkpt>
      <trkpt lat="46.1383" lon="4.575">
        <ele>410.8</ele>
        <time>2020-10-19T13:45:37Z</time>
      </trkpt>
      <trkpt lat="46.13833" lon="4.57502">
        <ele>411</ele>
        <time>2020-10-19T13:45:38Z</time>
      </trkpt>
      <trkpt lat="46.13833" lon="4.57502">
        <ele>411</ele>
        <time>2020-10-19T13:45:39Z</time>
      </trkpt>
      <trkpt lat="46.13836" lon="4.57503">
        <ele>410.8</ele>
        <time>2020-10-19T13:45:40Z</time>
      </trkpt>
      <trkpt lat="46.13836" lon="4.57503">
        <ele>410.6</ele>
        <time>2020-10-19T13:45:41Z</time>
      </trkpt>
      <trkpt lat="46.13838" lon="4.57505">
        <ele>410.8</ele>
        <time>2020-10-19T13:45:42Z</time>
      </trkpt>
      <trkpt lat="46.13838" lon="4.57505">
        <ele>410.8</ele>
        <time>2020-10-19T13:45:43Z</time>
      </trkpt>
      <trkpt lat="46.13841" lon="4.57507">
        <ele>410.6</ele>
        <time>2020-10-19T13:45:44Z</time>
      </trkpt>
      <trkpt lat="46.13841" lon="4.57507">
        <ele>410.4</ele>
        <time>2020-10-19T13:45:45Z</time>
      </trkpt>
      <trkpt lat="46.13843" lon="4.57509">
        <ele>410.2</ele>
        <time>2020-10-19T13:45:46Z</time>
      </trkpt>
      <trkpt lat="46.13843" lon="4.57509">
        <ele>409.8</ele>
        <time>2020-10-19T13:45:47Z</time>
      </trkpt>
      <trkpt lat="46.13845" lon="4.57511">
        <ele>409.8</ele>
        <time>2020-10-19T13:45:48Z</time>
      </trkpt>
      <trkpt lat="46.13845" lon="4.57511">
        <ele>409.6</ele>
        <time>2020-10-19T13:45:49Z</time>
      </trkpt>
      <trkpt lat="46.13847" lon="4.57513">
        <ele>409.6</ele>
        <time>2020-10-19T13:45:50Z</time>
      </trkpt>
      <trkpt lat="46.13847" lon="4.57513">
        <ele>409.4</ele>
        <time>2020-10-19T13:45:51Z</time>
      </trkpt>
      <trkpt lat="46.13849" lon="4.57515">
        <ele>409.4</ele>
        <time>2020-10-19T13:45:52Z</time>
      </trkpt>
      <trkpt lat="46.13849" lon="4.57515">
        <ele>409.2</ele>
        <time>2020-10-19T13:45:53Z</time>
      </trkpt>
      <trkpt lat="46.13852" lon="4.57519">
        <ele>409.4</ele>
        <time>2020-10-19T13:45:54Z</time>
      </trkpt>
      <trkpt lat="46.13853" lon="4.5752">
        <ele>409.2</ele>
        <time>2020-10-19T13:45:55Z</time>
      </trkpt>
      <trkpt lat="46.13853" lon="4.5752">
        <ele>409</ele>
        <time>2020-10-19T13:45:56Z</time>
      </trkpt>
      <trkpt lat="46.13855" lon="4.57523">
        <ele>409</ele>
        <time>2020-10-19T13:45:57Z</time>
      </trkpt>
      <trkpt lat="46.13855" lon="4.57523">
        <ele>409</ele>
        <time>2020-10-19T13:45:58Z</time>
      </trkpt>
      <trkpt lat="46.13857" lon="4.57526">
        <ele>409</ele>
        <time>2020-10-19T13:45:59Z</time>
      </trkpt>
      <trkpt lat="46.13857" lon="4.57526">
        <ele>409</ele>
        <time>2020-10-19T13:46:00Z</time>
      </trkpt>
      <trkpt lat="46.1386" lon="4.57528">
        <ele>409</ele>
        <time>2020-10-19T13:46:01Z</time>
      </trkpt>
      <trkpt lat="46.1386" lon="4.57528">
        <ele>408.8</ele>
        <time>2020-10-19T13:46:02Z</time>
      </trkpt>
      <trkpt lat="46.13862" lon="4.57528">
        <ele>409</ele>
        <time>2020-10-19T13:46:03Z</time>
      </trkpt>
      <trkpt lat="46.13862" lon="4.57528">
        <ele>408.6</ele>
        <time>2020-10-19T13:46:04Z</time>
      </trkpt>
      <trkpt lat="46.13864" lon="4.57529">
        <ele>408.4</ele>
        <time>2020-10-19T13:46:05Z</time>
      </trkpt>
      <trkpt lat="46.13864" lon="4.57529">
        <ele>408.2</ele>
        <time>2020-10-19T13:46:06Z</time>
      </trkpt>
      <trkpt lat="46.13866" lon="4.5753">
        <ele>408.2</ele>
        <time>2020-10-19T13:46:07Z</time>
      </trkpt>
      <trkpt lat="46.13866" lon="4.5753">
        <ele>408.4</ele>
        <time>2020-10-19T13:46:08Z</time>
      </trkpt>
      <trkpt lat="46.13866" lon="4.5753">
        <ele>408.2</ele>
        <time>2020-10-19T13:46:09Z</time>
      </trkpt>
      <trkpt lat="46.13866" lon="4.5753">
        <ele>407.8</ele>
        <time>2020-10-19T13:46:10Z</time>
      </trkpt>
      <trkpt lat="46.13868" lon="4.57529">
        <ele>408</ele>
        <time>2020-10-19T13:46:11Z</time>
      </trkpt>
      <trkpt lat="46.13868" lon="4.57529">
        <ele>408</ele>
        <time>2020-10-19T13:46:12Z</time>
      </trkpt>
      <trkpt lat="46.13871" lon="4.5753">
        <ele>408.2</ele>
        <time>2020-10-19T13:46:13Z</time>
      </trkpt>
      <trkpt lat="46.13871" lon="4.5753">
        <ele>408.2</ele>
        <time>2020-10-19T13:46:14Z</time>
      </trkpt>
      <trkpt lat="46.13874" lon="4.57533">
        <ele>408.2</ele>
        <time>2020-10-19T13:46:15Z</time>
      </trkpt>
      <trkpt lat="46.13874" lon="4.57533">
        <ele>408</ele>
        <time>2020-10-19T13:46:16Z</time>
      </trkpt>
      <trkpt lat="46.13877" lon="4.57535">
        <ele>408</ele>
        <time>2020-10-19T13:46:17Z</time>
      </trkpt>
      <trkpt lat="46.13877" lon="4.57535">
        <ele>408</ele>
        <time>2020-10-19T13:46:18Z</time>
      </trkpt>
      <trkpt lat="46.13879" lon="4.57537">
        <ele>408</ele>
        <time>2020-10-19T13:46:19Z</time>
      </trkpt>
      <trkpt lat="46.13879" lon="4.57537">
        <ele>408</ele>
        <time>2020-10-19T13:46:20Z</time>
      </trkpt>
      <trkpt lat="46.13882" lon="4.57538">
        <ele>408</ele>
        <time>2020-10-19T13:46:21Z</time>
      </trkpt>
      <trkpt lat="46.13882" lon="4.57538">
        <ele>408</ele>
        <time>2020-10-19T13:46:22Z</time>
      </trkpt>
      <trkpt lat="46.13884" lon="4.5754">
        <ele>408</ele>
        <time>2020-10-19T13:46:23Z</time>
      </trkpt>
      <trkpt lat="46.13884" lon="4.5754">
        <ele>408.2</ele>
        <time>2020-10-19T13:46:24Z</time>
      </trkpt>
      <trkpt lat="46.13886" lon="4.5754">
        <ele>408</ele>
        <time>2020-10-19T13:46:25Z</time>
      </trkpt>
      <trkpt lat="46.13886" lon="4.5754">
        <ele>407.8</ele>
        <time>2020-10-19T13:46:26Z</time>
      </trkpt>
      <trkpt lat="46.13889" lon="4.57542">
        <ele>408</ele>
        <time>2020-10-19T13:46:27Z</time>
      </trkpt>
      <trkpt lat="46.13889" lon="4.57542">
        <ele>408.2</ele>
        <time>2020-10-19T13:46:28Z</time>
      </trkpt>
      <trkpt lat="46.13891" lon="4.57543">
        <ele>408.4</ele>
        <time>2020-10-19T13:46:29Z</time>
      </trkpt>
      <trkpt lat="46.13891" lon="4.57543">
        <ele>408.6</ele>
        <time>2020-10-19T13:46:30Z</time>
      </trkpt>
      <trkpt lat="46.13894" lon="4.57544">
        <ele>408.4</ele>
        <time>2020-10-19T13:46:31Z</time>
      </trkpt>
      <trkpt lat="46.13894" lon="4.57544">
        <ele>408.4</ele>
        <time>2020-10-19T13:46:32Z</time>
      </trkpt>
      <trkpt lat="46.13897" lon="4.57544">
        <ele>408.2</ele>
        <time>2020-10-19T13:46:33Z</time>
      </trkpt>
      <trkpt lat="46.13897" lon="4.57544">
        <ele>408.4</ele>
        <time>2020-10-19T13:46:34Z</time>
      </trkpt>
      <trkpt lat="46.139" lon="4.57545">
        <ele>408.2</ele>
        <time>2020-10-19T13:46:35Z</time>
      </trkpt>
      <trkpt lat="46.139" lon="4.57545">
        <ele>408.4</ele>
        <time>2020-10-19T13:46:36Z</time>
      </trkpt>
      <trkpt lat="46.13903" lon="4.57546">
        <ele>408.6</ele>
        <time>2020-10-19T13:46:37Z</time>
      </trkpt>
      <trkpt lat="46.13903" lon="4.57546">
        <ele>408.6</ele>
        <time>2020-10-19T13:46:38Z</time>
      </trkpt>
      <trkpt lat="46.13905" lon="4.57546">
        <ele>408.6</ele>
        <time>2020-10-19T13:46:39Z</time>
      </trkpt>
      <trkpt lat="46.13905" lon="4.57546">
        <ele>408.8</ele>
        <time>2020-10-19T13:46:40Z</time>
      </trkpt>
      <trkpt lat="46.13907" lon="4.57545">
        <ele>408.8</ele>
        <time>2020-10-19T13:46:41Z</time>
      </trkpt>
      <trkpt lat="46.13907" lon="4.57545">
        <ele>408.8</ele>
        <time>2020-10-19T13:46:42Z</time>
      </trkpt>
      <trkpt lat="46.1391" lon="4.57544">
        <ele>409</ele>
        <time>2020-10-19T13:46:43Z</time>
      </trkpt>
      <trkpt lat="46.1391" lon="4.57544">
        <ele>409.2</ele>
        <time>2020-10-19T13:46:44Z</time>
      </trkpt>
      <trkpt lat="46.13913" lon="4.57543">
        <ele>409</ele>
        <time>2020-10-19T13:46:45Z</time>
      </trkpt>
      <trkpt lat="46.13913" lon="4.57543">
        <ele>409.2</ele>
        <time>2020-10-19T13:46:46Z</time>
      </trkpt>
      <trkpt lat="46.13915" lon="4.57541">
        <ele>409.2</ele>
        <time>2020-10-19T13:46:47Z</time>
      </trkpt>
      <trkpt lat="46.13915" lon="4.57541">
        <ele>409.4</ele>
        <time>2020-10-19T13:46:48Z</time>
      </trkpt>
      <trkpt lat="46.13918" lon="4.5754">
        <ele>409.4</ele>
        <time>2020-10-19T13:46:49Z</time>
      </trkpt>
      <trkpt lat="46.13918" lon="4.5754">
        <ele>409.2</ele>
        <time>2020-10-19T13:46:50Z</time>
      </trkpt>
      <trkpt lat="46.1392" lon="4.57538">
        <ele>409.4</ele>
        <time>2020-10-19T13:46:51Z</time>
      </trkpt>
      <trkpt lat="46.1392" lon="4.57538">
        <ele>409.6</ele>
        <time>2020-10-19T13:46:52Z</time>
      </trkpt>
      <trkpt lat="46.13923" lon="4.57536">
        <ele>409.8</ele>
        <time>2020-10-19T13:46:53Z</time>
      </trkpt>
      <trkpt lat="46.13923" lon="4.57536">
        <ele>409.6</ele>
        <time>2020-10-19T13:46:54Z</time>
      </trkpt>
      <trkpt lat="46.13925" lon="4.57534">
        <ele>409.6</ele>
        <time>2020-10-19T13:46:55Z</time>
      </trkpt>
      <trkpt lat="46.13925" lon="4.57534">
        <ele>409.8</ele>
        <time>2020-10-19T13:46:56Z</time>
      </trkpt>
      <trkpt lat="46.13928" lon="4.57531">
        <ele>409.6</ele>
        <time>2020-10-19T13:46:57Z</time>
      </trkpt>
      <trkpt lat="46.13928" lon="4.57531">
        <ele>410</ele>
        <time>2020-10-19T13:46:58Z</time>
      </trkpt>
      <trkpt lat="46.1393" lon="4.57528">
        <ele>410</ele>
        <time>2020-10-19T13:46:59Z</time>
      </trkpt>
      <trkpt lat="46.1393" lon="4.57528">
        <ele>409.8</ele>
        <time>2020-10-19T13:47:00Z</time>
      </trkpt>
      <trkpt lat="46.13932" lon="4.57525">
        <ele>410</ele>
        <time>2020-10-19T13:47:01Z</time>
      </trkpt>
      <trkpt lat="46.13932" lon="4.57525">
        <ele>410</ele>
        <time>2020-10-19T13:47:02Z</time>
      </trkpt>
      <trkpt lat="46.13934" lon="4.57523">
        <ele>409.8</ele>
        <time>2020-10-19T13:47:03Z</time>
      </trkpt>
      <trkpt lat="46.13934" lon="4.57523">
        <ele>409.8</ele>
        <time>2020-10-19T13:47:04Z</time>
      </trkpt>
      <trkpt lat="46.13936" lon="4.5752">
        <ele>410</ele>
        <time>2020-10-19T13:47:05Z</time>
      </trkpt>
      <trkpt lat="46.13936" lon="4.5752">
        <ele>410.2</ele>
        <time>2020-10-19T13:47:06Z</time>
      </trkpt>
      <trkpt lat="46.13938" lon="4.57517">
        <ele>410.4</ele>
        <time>2020-10-19T13:47:07Z</time>
      </trkpt>
      <trkpt lat="46.13938" lon="4.57517">
        <ele>410</ele>
        <time>2020-10-19T13:47:08Z</time>
      </trkpt>
      <trkpt lat="46.1394" lon="4.57515">
        <ele>410</ele>
        <time>2020-10-19T13:47:09Z</time>
      </trkpt>
      <trkpt lat="46.1394" lon="4.57515">
        <ele>410.2</ele>
        <time>2020-10-19T13:47:10Z</time>
      </trkpt>
      <trkpt lat="46.13942" lon="4.57512">
        <ele>410.4</ele>
        <time>2020-10-19T13:47:11Z</time>
      </trkpt>
      <trkpt lat="46.13942" lon="4.57512">
        <ele>410.6</ele>
        <time>2020-10-19T13:47:12Z</time>
      </trkpt>
      <trkpt lat="46.13944" lon="4.57509">
        <ele>410.6</ele>
        <time>2020-10-19T13:47:13Z</time>
      </trkpt>
      <trkpt lat="46.13944" lon="4.57509">
        <ele>410.8</ele>
        <time>2020-10-19T13:47:14Z</time>
      </trkpt>
      <trkpt lat="46.13946" lon="4.57506">
        <ele>410.8</ele>
        <time>2020-10-19T13:47:15Z</time>
      </trkpt>
      <trkpt lat="46.13946" lon="4.57506">
        <ele>410.8</ele>
        <time>2020-10-19T13:47:16Z</time>
      </trkpt>
      <trkpt lat="46.13948" lon="4.57503">
        <ele>411</ele>
        <time>2020-10-19T13:47:17Z</time>
      </trkpt>
      <trkpt lat="46.13948" lon="4.57503">
        <ele>410.8</ele>
        <time>2020-10-19T13:47:18Z</time>
      </trkpt>
      <trkpt lat="46.13949" lon="4.575">
        <ele>410.8</ele>
        <time>2020-10-19T13:47:19Z</time>
      </trkpt>
      <trkpt lat="46.13949" lon="4.575">
        <ele>410.8</ele>
        <time>2020-10-19T13:47:20Z</time>
      </trkpt>
      <trkpt lat="46.13951" lon="4.57498">
        <ele>410.8</ele>
        <time>2020-10-19T13:47:21Z</time>
      </trkpt>
      <trkpt lat="46.13951" lon="4.57498">
        <ele>411</ele>
        <time>2020-10-19T13:47:22Z</time>
      </trkpt>
      <trkpt lat="46.13953" lon="4.57495">
        <ele>411</ele>
        <time>2020-10-19T13:47:23Z</time>
      </trkpt>
      <trkpt lat="46.13953" lon="4.57495">
        <ele>411.2</ele>
        <time>2020-10-19T13:47:24Z</time>
      </trkpt>
      <trkpt lat="46.13956" lon="4.57493">
        <ele>411.2</ele>
        <time>2020-10-19T13:47:25Z</time>
      </trkpt>
      <trkpt lat="46.13956" lon="4.57493">
        <ele>411.4</ele>
        <time>2020-10-19T13:47:26Z</time>
      </trkpt>
      <trkpt lat="46.13957" lon="4.5749">
        <ele>411.6</ele>
        <time>2020-10-19T13:47:27Z</time>
      </trkpt>
      <trkpt lat="46.13957" lon="4.5749">
        <ele>411.6</ele>
        <time>2020-10-19T13:47:28Z</time>
      </trkpt>
      <trkpt lat="46.13959" lon="4.57487">
        <ele>411.8</ele>
        <time>2020-10-19T13:47:29Z</time>
      </trkpt>
      <trkpt lat="46.13959" lon="4.57487">
        <ele>412</ele>
        <time>2020-10-19T13:47:30Z</time>
      </trkpt>
      <trkpt lat="46.13961" lon="4.57485">
        <ele>412.4</ele>
        <time>2020-10-19T13:47:31Z</time>
      </trkpt>
      <trkpt lat="46.13961" lon="4.57485">
        <ele>412.6</ele>
        <time>2020-10-19T13:47:32Z</time>
      </trkpt>
      <trkpt lat="46.13963" lon="4.57482">
        <ele>412.8</ele>
        <time>2020-10-19T13:47:33Z</time>
      </trkpt>
      <trkpt lat="46.13963" lon="4.57482">
        <ele>413</ele>
        <time>2020-10-19T13:47:34Z</time>
      </trkpt>
      <trkpt lat="46.13965" lon="4.57479">
        <ele>413</ele>
        <time>2020-10-19T13:47:35Z</time>
      </trkpt>
      <trkpt lat="46.13965" lon="4.57479">
        <ele>413.4</ele>
        <time>2020-10-19T13:47:36Z</time>
      </trkpt>
      <trkpt lat="46.13967" lon="4.57476">
        <ele>413.4</ele>
        <time>2020-10-19T13:47:37Z</time>
      </trkpt>
      <trkpt lat="46.13967" lon="4.57476">
        <ele>413.4</ele>
        <time>2020-10-19T13:47:38Z</time>
      </trkpt>
      <trkpt lat="46.13969" lon="4.57474">
        <ele>413.6</ele>
        <time>2020-10-19T13:47:39Z</time>
      </trkpt>
      <trkpt lat="46.13969" lon="4.57474">
        <ele>413.6</ele>
        <time>2020-10-19T13:47:40Z</time>
      </trkpt>
      <trkpt lat="46.13971" lon="4.57471">
        <ele>413.4</ele>
        <time>2020-10-19T13:47:41Z</time>
      </trkpt>
      <trkpt lat="46.13971" lon="4.57471">
        <ele>413.6</ele>
        <time>2020-10-19T13:47:42Z</time>
      </trkpt>
      <trkpt lat="46.13973" lon="4.57468">
        <ele>413.8</ele>
        <time>2020-10-19T13:47:43Z</time>
      </trkpt>
      <trkpt lat="46.13973" lon="4.57468">
        <ele>413.8</ele>
        <time>2020-10-19T13:47:44Z</time>
      </trkpt>
      <trkpt lat="46.13976" lon="4.57465">
        <ele>414</ele>
        <time>2020-10-19T13:47:45Z</time>
      </trkpt>
      <trkpt lat="46.13976" lon="4.57465">
        <ele>414.2</ele>
        <time>2020-10-19T13:47:46Z</time>
      </trkpt>
      <trkpt lat="46.13978" lon="4.57462">
        <ele>414</ele>
        <time>2020-10-19T13:47:47Z</time>
      </trkpt>
      <trkpt lat="46.13978" lon="4.57462">
        <ele>414.2</ele>
        <time>2020-10-19T13:47:48Z</time>
      </trkpt>
      <trkpt lat="46.1398" lon="4.5746">
        <ele>414.4</ele>
        <time>2020-10-19T13:47:49Z</time>
      </trkpt>
      <trkpt lat="46.1398" lon="4.5746">
        <ele>414.4</ele>
        <time>2020-10-19T13:47:50Z</time>
      </trkpt>
      <trkpt lat="46.13982" lon="4.57458">
        <ele>414.6</ele>
        <time>2020-10-19T13:47:51Z</time>
      </trkpt>
      <trkpt lat="46.13982" lon="4.57458">
        <ele>414.6</ele>
        <time>2020-10-19T13:47:52Z</time>
      </trkpt>
      <trkpt lat="46.13984" lon="4.57455">
        <ele>414.8</ele>
        <time>2020-10-19T13:47:53Z</time>
      </trkpt>
      <trkpt lat="46.13984" lon="4.57455">
        <ele>415</ele>
        <time>2020-10-19T13:47:54Z</time>
      </trkpt>
      <trkpt lat="46.13986" lon="4.57454">
        <ele>415.2</ele>
        <time>2020-10-19T13:47:55Z</time>
      </trkpt>
      <trkpt lat="46.13986" lon="4.57454">
        <ele>415.4</ele>
        <time>2020-10-19T13:47:56Z</time>
      </trkpt>
      <trkpt lat="46.13989" lon="4.57451">
        <ele>415.4</ele>
        <time>2020-10-19T13:47:57Z</time>
      </trkpt>
      <trkpt lat="46.13989" lon="4.57451">
        <ele>415.4</ele>
        <time>2020-10-19T13:47:58Z</time>
      </trkpt>
      <trkpt lat="46.13991" lon="4.57449">
        <ele>415.6</ele>
        <time>2020-10-19T13:47:59Z</time>
      </trkpt>
      <trkpt lat="46.13991" lon="4.57449">
        <ele>415.6</ele>
        <time>2020-10-19T13:48:00Z</time>
      </trkpt>
      <trkpt lat="46.13993" lon="4.57447">
        <ele>415.8</ele>
        <time>2020-10-19T13:48:01Z</time>
      </trkpt>
      <trkpt lat="46.13993" lon="4.57447">
        <ele>415.8</ele>
        <time>2020-10-19T13:48:02Z</time>
      </trkpt>
      <trkpt lat="46.13995" lon="4.57445">
        <ele>416.2</ele>
        <time>2020-10-19T13:48:03Z</time>
      </trkpt>
      <trkpt lat="46.13995" lon="4.57445">
        <ele>416.4</ele>
        <time>2020-10-19T13:48:04Z</time>
      </trkpt>
      <trkpt lat="46.13997" lon="4.57442">
        <ele>416.4</ele>
        <time>2020-10-19T13:48:05Z</time>
      </trkpt>
      <trkpt lat="46.13997" lon="4.57442">
        <ele>416.6</ele>
        <time>2020-10-19T13:48:06Z</time>
      </trkpt>
      <trkpt lat="46.14" lon="4.57441">
        <ele>416.6</ele>
        <time>2020-10-19T13:48:07Z</time>
      </trkpt>
      <trkpt lat="46.14" lon="4.57441">
        <ele>417</ele>
        <time>2020-10-19T13:48:08Z</time>
      </trkpt>
      <trkpt lat="46.14001" lon="4.57438">
        <ele>417</ele>
        <time>2020-10-19T13:48:09Z</time>
      </trkpt>
      <trkpt lat="46.14001" lon="4.57438">
        <ele>417</ele>
        <time>2020-10-19T13:48:10Z</time>
      </trkpt>
      <trkpt lat="46.14004" lon="4.57437">
        <ele>417.4</ele>
        <time>2020-10-19T13:48:11Z</time>
      </trkpt>
      <trkpt lat="46.14004" lon="4.57437">
        <ele>417.4</ele>
        <time>2020-10-19T13:48:12Z</time>
      </trkpt>
      <trkpt lat="46.14007" lon="4.57437">
        <ele>417.6</ele>
        <time>2020-10-19T13:48:13Z</time>
      </trkpt>
      <trkpt lat="46.14007" lon="4.57437">
        <ele>417.8</ele>
        <time>2020-10-19T13:48:14Z</time>
      </trkpt>
      <trkpt lat="46.1401" lon="4.57437">
        <ele>417.8</ele>
        <time>2020-10-19T13:48:15Z</time>
      </trkpt>
      <trkpt lat="46.14012" lon="4.57438">
        <ele>417.8</ele>
        <time>2020-10-19T13:48:16Z</time>
      </trkpt>
      <trkpt lat="46.14012" lon="4.57438">
        <ele>418.2</ele>
        <time>2020-10-19T13:48:17Z</time>
      </trkpt>
      <trkpt lat="46.14015" lon="4.57441">
        <ele>418.4</ele>
        <time>2020-10-19T13:48:18Z</time>
      </trkpt>
      <trkpt lat="46.14015" lon="4.57441">
        <ele>418.4</ele>
        <time>2020-10-19T13:48:19Z</time>
      </trkpt>
      <trkpt lat="46.14017" lon="4.57445">
        <ele>418.6</ele>
        <time>2020-10-19T13:48:20Z</time>
      </trkpt>
      <trkpt lat="46.14018" lon="4.57447">
        <ele>418.4</ele>
        <time>2020-10-19T13:48:21Z</time>
      </trkpt>
      <trkpt lat="46.14018" lon="4.5745">
        <ele>418.6</ele>
        <time>2020-10-19T13:48:22Z</time>
      </trkpt>
      <trkpt lat="46.14019" lon="4.57452">
        <ele>418.8</ele>
        <time>2020-10-19T13:48:23Z</time>
      </trkpt>
      <trkpt lat="46.14019" lon="4.57452">
        <ele>419.2</ele>
        <time>2020-10-19T13:48:24Z</time>
      </trkpt>
      <trkpt lat="46.1402" lon="4.57457">
        <ele>419.4</ele>
        <time>2020-10-19T13:48:25Z</time>
      </trkpt>
      <trkpt lat="46.1402" lon="4.57457">
        <ele>419.4</ele>
        <time>2020-10-19T13:48:26Z</time>
      </trkpt>
      <trkpt lat="46.1402" lon="4.57462">
        <ele>419.6</ele>
        <time>2020-10-19T13:48:27Z</time>
      </trkpt>
      <trkpt lat="46.1402" lon="4.57462">
        <ele>419.8</ele>
        <time>2020-10-19T13:48:28Z</time>
      </trkpt>
      <trkpt lat="46.14019" lon="4.57465">
        <ele>419.8</ele>
        <time>2020-10-19T13:48:29Z</time>
      </trkpt>
      <trkpt lat="46.14019" lon="4.57465">
        <ele>420</ele>
        <time>2020-10-19T13:48:30Z</time>
      </trkpt>
      <trkpt lat="46.1402" lon="4.57469">
        <ele>420.2</ele>
        <time>2020-10-19T13:48:31Z</time>
      </trkpt>
      <trkpt lat="46.1402" lon="4.57469">
        <ele>420.2</ele>
        <time>2020-10-19T13:48:32Z</time>
      </trkpt>
      <trkpt lat="46.1402" lon="4.57474">
        <ele>420.2</ele>
        <time>2020-10-19T13:48:33Z</time>
      </trkpt>
      <trkpt lat="46.1402" lon="4.57474">
        <ele>420</ele>
        <time>2020-10-19T13:48:34Z</time>
      </trkpt>
      <trkpt lat="46.1402" lon="4.57478">
        <ele>420.2</ele>
        <time>2020-10-19T13:48:35Z</time>
      </trkpt>
      <trkpt lat="46.14019" lon="4.57481">
        <ele>420.4</ele>
        <time>2020-10-19T13:48:36Z</time>
      </trkpt>
      <trkpt lat="46.14019" lon="4.57481">
        <ele>420.6</ele>
        <time>2020-10-19T13:48:37Z</time>
      </trkpt>
      <trkpt lat="46.14018" lon="4.57485">
        <ele>421</ele>
        <time>2020-10-19T13:48:38Z</time>
      </trkpt>
      <trkpt lat="46.14018" lon="4.57485">
        <ele>421.4</ele>
        <time>2020-10-19T13:48:39Z</time>
      </trkpt>
      <trkpt lat="46.14018" lon="4.57489">
        <ele>421.8</ele>
        <time>2020-10-19T13:48:40Z</time>
      </trkpt>
      <trkpt lat="46.14018" lon="4.57489">
        <ele>421.6</ele>
        <time>2020-10-19T13:48:41Z</time>
      </trkpt>
      <trkpt lat="46.14018" lon="4.57494">
        <ele>421.6</ele>
        <time>2020-10-19T13:48:42Z</time>
      </trkpt>
      <trkpt lat="46.14018" lon="4.57494">
        <ele>421.6</ele>
        <time>2020-10-19T13:48:43Z</time>
      </trkpt>
      <trkpt lat="46.14018" lon="4.57498">
        <ele>421.4</ele>
        <time>2020-10-19T13:48:44Z</time>
      </trkpt>
      <trkpt lat="46.14018" lon="4.57498">
        <ele>421.4</ele>
        <time>2020-10-19T13:48:45Z</time>
      </trkpt>
      <trkpt lat="46.14018" lon="4.57502">
        <ele>421.4</ele>
        <time>2020-10-19T13:48:46Z</time>
      </trkpt>
      <trkpt lat="46.14018" lon="4.57502">
        <ele>421.4</ele>
        <time>2020-10-19T13:48:47Z</time>
      </trkpt>
      <trkpt lat="46.14018" lon="4.57506">
        <ele>421.4</ele>
        <time>2020-10-19T13:48:48Z</time>
      </trkpt>
      <trkpt lat="46.14018" lon="4.57506">
        <ele>421.6</ele>
        <time>2020-10-19T13:48:49Z</time>
      </trkpt>
      <trkpt lat="46.14018" lon="4.57511">
        <ele>421.6</ele>
        <time>2020-10-19T13:48:50Z</time>
      </trkpt>
      <trkpt lat="46.14018" lon="4.57511">
        <ele>421.8</ele>
        <time>2020-10-19T13:48:51Z</time>
      </trkpt>
      <trkpt lat="46.14017" lon="4.57515">
        <ele>422</ele>
        <time>2020-10-19T13:48:52Z</time>
      </trkpt>
      <trkpt lat="46.14017" lon="4.57515">
        <ele>422</ele>
        <time>2020-10-19T13:48:53Z</time>
      </trkpt>
      <trkpt lat="46.14017" lon="4.57519">
        <ele>422</ele>
        <time>2020-10-19T13:48:54Z</time>
      </trkpt>
      <trkpt lat="46.14017" lon="4.57519">
        <ele>422.2</ele>
        <time>2020-10-19T13:48:55Z</time>
      </trkpt>
      <trkpt lat="46.14015" lon="4.57524">
        <ele>422.2</ele>
        <time>2020-10-19T13:48:56Z</time>
      </trkpt>
      <trkpt lat="46.14015" lon="4.57526">
        <ele>422.6</ele>
        <time>2020-10-19T13:48:57Z</time>
      </trkpt>
      <trkpt lat="46.14015" lon="4.57526">
        <ele>422.6</ele>
        <time>2020-10-19T13:48:58Z</time>
      </trkpt>
      <trkpt lat="46.14014" lon="4.5753">
        <ele>422.8</ele>
        <time>2020-10-19T13:48:59Z</time>
      </trkpt>
      <trkpt lat="46.14014" lon="4.5753">
        <ele>422.8</ele>
        <time>2020-10-19T13:49:00Z</time>
      </trkpt>
      <trkpt lat="46.14013" lon="4.57534">
        <ele>422.8</ele>
        <time>2020-10-19T13:49:01Z</time>
      </trkpt>
      <trkpt lat="46.14013" lon="4.57534">
        <ele>422.8</ele>
        <time>2020-10-19T13:49:02Z</time>
      </trkpt>
      <trkpt lat="46.14011" lon="4.57538">
        <ele>423.2</ele>
        <time>2020-10-19T13:49:03Z</time>
      </trkpt>
      <trkpt lat="46.14011" lon="4.57538">
        <ele>423</ele>
        <time>2020-10-19T13:49:04Z</time>
      </trkpt>
      <trkpt lat="46.1401" lon="4.57542">
        <ele>423</ele>
        <time>2020-10-19T13:49:05Z</time>
      </trkpt>
      <trkpt lat="46.1401" lon="4.57542">
        <ele>423</ele>
        <time>2020-10-19T13:49:06Z</time>
      </trkpt>
      <trkpt lat="46.14009" lon="4.57546">
        <ele>423.4</ele>
        <time>2020-10-19T13:49:07Z</time>
      </trkpt>
      <trkpt lat="46.14009" lon="4.57546">
        <ele>423.4</ele>
        <time>2020-10-19T13:49:08Z</time>
      </trkpt>
      <trkpt lat="46.14009" lon="4.5755">
        <ele>423.2</ele>
        <time>2020-10-19T13:49:09Z</time>
      </trkpt>
      <trkpt lat="46.14009" lon="4.5755">
        <ele>423.2</ele>
        <time>2020-10-19T13:49:10Z</time>
      </trkpt>
      <trkpt lat="46.14008" lon="4.57555">
        <ele>423.2</ele>
        <time>2020-10-19T13:49:11Z</time>
      </trkpt>
      <trkpt lat="46.14008" lon="4.57555">
        <ele>423.2</ele>
        <time>2020-10-19T13:49:12Z</time>
      </trkpt>
      <trkpt lat="46.14007" lon="4.5756">
        <ele>423.4</ele>
        <time>2020-10-19T13:49:13Z</time>
      </trkpt>
      <trkpt lat="46.14007" lon="4.5756">
        <ele>423.4</ele>
        <time>2020-10-19T13:49:14Z</time>
      </trkpt>
      <trkpt lat="46.14006" lon="4.57564">
        <ele>423.4</ele>
        <time>2020-10-19T13:49:15Z</time>
      </trkpt>
      <trkpt lat="46.14006" lon="4.57564">
        <ele>423.2</ele>
        <time>2020-10-19T13:49:16Z</time>
      </trkpt>
      <trkpt lat="46.14006" lon="4.57569">
        <ele>423.2</ele>
        <time>2020-10-19T13:49:17Z</time>
      </trkpt>
      <trkpt lat="46.14006" lon="4.57569">
        <ele>423.2</ele>
        <time>2020-10-19T13:49:18Z</time>
      </trkpt>
      <trkpt lat="46.14005" lon="4.57573">
        <ele>423.2</ele>
        <time>2020-10-19T13:49:19Z</time>
      </trkpt>
      <trkpt lat="46.14005" lon="4.57573">
        <ele>423.4</ele>
        <time>2020-10-19T13:49:20Z</time>
      </trkpt>
      <trkpt lat="46.14005" lon="4.57576">
        <ele>423.4</ele>
        <time>2020-10-19T13:49:21Z</time>
      </trkpt>
      <trkpt lat="46.14005" lon="4.57576">
        <ele>423.2</ele>
        <time>2020-10-19T13:49:22Z</time>
      </trkpt>
      <trkpt lat="46.14005" lon="4.57579">
        <ele>423.6</ele>
        <time>2020-10-19T13:49:23Z</time>
      </trkpt>
      <trkpt lat="46.14005" lon="4.57579">
        <ele>423.8</ele>
        <time>2020-10-19T13:49:24Z</time>
      </trkpt>
      <trkpt lat="46.14006" lon="4.57583">
        <ele>424.2</ele>
        <time>2020-10-19T13:49:25Z</time>
      </trkpt>
      <trkpt lat="46.14006" lon="4.57583">
        <ele>424.2</ele>
        <time>2020-10-19T13:49:26Z</time>
      </trkpt>
      <trkpt lat="46.14006" lon="4.57588">
        <ele>424.2</ele>
        <time>2020-10-19T13:49:27Z</time>
      </trkpt>
      <trkpt lat="46.14006" lon="4.57588">
        <ele>424.2</ele>
        <time>2020-10-19T13:49:28Z</time>
      </trkpt>
      <trkpt lat="46.14007" lon="4.57591">
        <ele>424.2</ele>
        <time>2020-10-19T13:49:29Z</time>
      </trkpt>
      <trkpt lat="46.14007" lon="4.57591">
        <ele>424.4</ele>
        <time>2020-10-19T13:49:30Z</time>
      </trkpt>
      <trkpt lat="46.14008" lon="4.57593">
        <ele>424.2</ele>
        <time>2020-10-19T13:49:31Z</time>
      </trkpt>
      <trkpt lat="46.14008" lon="4.57593">
        <ele>424.4</ele>
        <time>2020-10-19T13:49:32Z</time>
      </trkpt>
      <trkpt lat="46.1401" lon="4.57595">
        <ele>424.6</ele>
        <time>2020-10-19T13:49:33Z</time>
      </trkpt>
      <trkpt lat="46.1401" lon="4.57595">
        <ele>425</ele>
        <time>2020-10-19T13:49:34Z</time>
      </trkpt>
      <trkpt lat="46.14011" lon="4.57597">
        <ele>425.2</ele>
        <time>2020-10-19T13:49:35Z</time>
      </trkpt>
      <trkpt lat="46.14011" lon="4.57597">
        <ele>425.6</ele>
        <time>2020-10-19T13:49:36Z</time>
      </trkpt>
      <trkpt lat="46.14011" lon="4.57597">
        <ele>425.6</ele>
        <time>2020-10-19T13:49:37Z</time>
      </trkpt>
      <trkpt lat="46.14011" lon="4.57597">
        <ele>425.8</ele>
        <time>2020-10-19T13:49:38Z</time>
      </trkpt>
      <trkpt lat="46.14011" lon="4.57597">
        <ele>426.2</ele>
        <time>2020-10-19T13:49:39Z</time>
      </trkpt>
      <trkpt lat="46.14011" lon="4.57597">
        <ele>426.2</ele>
        <time>2020-10-19T13:49:40Z</time>
      </trkpt>
      <trkpt lat="46.14013" lon="4.57599">
        <ele>426.6</ele>
        <time>2020-10-19T13:49:41Z</time>
      </trkpt>
      <trkpt lat="46.14013" lon="4.57599">
        <ele>426.4</ele>
        <time>2020-10-19T13:49:42Z</time>
      </trkpt>
      <trkpt lat="46.14013" lon="4.57599">
        <ele>426.4</ele>
        <time>2020-10-19T13:49:43Z</time>
      </trkpt>
      <trkpt lat="46.14014" lon="4.57602">
        <ele>426.4</ele>
        <time>2020-10-19T13:49:44Z</time>
      </trkpt>
      <trkpt lat="46.14014" lon="4.57602">
        <ele>426.4</ele>
        <time>2020-10-19T13:49:45Z</time>
      </trkpt>
      <trkpt lat="46.14015" lon="4.57605">
        <ele>426.6</ele>
        <time>2020-10-19T13:49:46Z</time>
      </trkpt>
      <trkpt lat="46.14015" lon="4.57605">
        <ele>426.6</ele>
        <time>2020-10-19T13:49:47Z</time>
      </trkpt>
      <trkpt lat="46.14016" lon="4.57608">
        <ele>426.6</ele>
        <time>2020-10-19T13:49:48Z</time>
      </trkpt>
      <trkpt lat="46.14016" lon="4.57608">
        <ele>426.8</ele>
        <time>2020-10-19T13:49:49Z</time>
      </trkpt>
      <trkpt lat="46.14018" lon="4.5761">
        <ele>426.8</ele>
        <time>2020-10-19T13:49:50Z</time>
      </trkpt>
      <trkpt lat="46.14018" lon="4.5761">
        <ele>427.2</ele>
        <time>2020-10-19T13:49:51Z</time>
      </trkpt>
      <trkpt lat="46.14019" lon="4.57613">
        <ele>427.2</ele>
        <time>2020-10-19T13:49:52Z</time>
      </trkpt>
      <trkpt lat="46.14019" lon="4.57613">
        <ele>427.4</ele>
        <time>2020-10-19T13:49:53Z</time>
      </trkpt>
      <trkpt lat="46.1402" lon="4.57615">
        <ele>427.6</ele>
        <time>2020-10-19T13:49:54Z</time>
      </trkpt>
      <trkpt lat="46.1402" lon="4.57615">
        <ele>427.8</ele>
        <time>2020-10-19T13:49:55Z</time>
      </trkpt>
      <trkpt lat="46.14022" lon="4.57618">
        <ele>427.8</ele>
        <time>2020-10-19T13:49:56Z</time>
      </trkpt>
      <trkpt lat="46.14022" lon="4.57618">
        <ele>428</ele>
        <time>2020-10-19T13:49:57Z</time>
      </trkpt>
      <trkpt lat="46.14024" lon="4.57621">
        <ele>428</ele>
        <time>2020-10-19T13:49:58Z</time>
      </trkpt>
      <trkpt lat="46.14024" lon="4.57621">
        <ele>428.2</ele>
        <time>2020-10-19T13:49:59Z</time>
      </trkpt>
      <trkpt lat="46.14026" lon="4.57625">
        <ele>428.2</ele>
        <time>2020-10-19T13:50:00Z</time>
      </trkpt>
      <trkpt lat="46.14026" lon="4.57625">
        <ele>428.8</ele>
        <time>2020-10-19T13:50:01Z</time>
      </trkpt>
      <trkpt lat="46.14027" lon="4.57628">
        <ele>428.6</ele>
        <time>2020-10-19T13:50:02Z</time>
      </trkpt>
      <trkpt lat="46.14027" lon="4.57628">
        <ele>428.8</ele>
        <time>2020-10-19T13:50:03Z</time>
      </trkpt>
      <trkpt lat="46.14029" lon="4.57631">
        <ele>429.2</ele>
        <time>2020-10-19T13:50:04Z</time>
      </trkpt>
      <trkpt lat="46.14029" lon="4.57631">
        <ele>429.6</ele>
        <time>2020-10-19T13:50:05Z</time>
      </trkpt>
      <trkpt lat="46.14031" lon="4.57633">
        <ele>429.6</ele>
        <time>2020-10-19T13:50:06Z</time>
      </trkpt>
      <trkpt lat="46.14031" lon="4.57633">
        <ele>429.6</ele>
        <time>2020-10-19T13:50:07Z</time>
      </trkpt>
      <trkpt lat="46.14032" lon="4.57636">
        <ele>430</ele>
        <time>2020-10-19T13:50:08Z</time>
      </trkpt>
      <trkpt lat="46.14032" lon="4.57636">
        <ele>430.2</ele>
        <time>2020-10-19T13:50:09Z</time>
      </trkpt>
      <trkpt lat="46.14034" lon="4.57638">
        <ele>430.4</ele>
        <time>2020-10-19T13:50:10Z</time>
      </trkpt>
      <trkpt lat="46.14034" lon="4.57638">
        <ele>430.8</ele>
        <time>2020-10-19T13:50:11Z</time>
      </trkpt>
      <trkpt lat="46.14035" lon="4.57641">
        <ele>430.8</ele>
        <time>2020-10-19T13:50:12Z</time>
      </trkpt>
      <trkpt lat="46.14035" lon="4.57641">
        <ele>431</ele>
        <time>2020-10-19T13:50:13Z</time>
      </trkpt>
      <trkpt lat="46.14037" lon="4.57644">
        <ele>431</ele>
        <time>2020-10-19T13:50:14Z</time>
      </trkpt>
      <trkpt lat="46.14037" lon="4.57644">
        <ele>431</ele>
        <time>2020-10-19T13:50:15Z</time>
      </trkpt>
      <trkpt lat="46.14039" lon="4.57647">
        <ele>431</ele>
        <time>2020-10-19T13:50:16Z</time>
      </trkpt>
      <trkpt lat="46.14039" lon="4.57647">
        <ele>431.4</ele>
        <time>2020-10-19T13:50:17Z</time>
      </trkpt>
      <trkpt lat="46.1404" lon="4.57649">
        <ele>431.6</ele>
        <time>2020-10-19T13:50:18Z</time>
      </trkpt>
      <trkpt lat="46.1404" lon="4.57649">
        <ele>431.6</ele>
        <time>2020-10-19T13:50:19Z</time>
      </trkpt>
      <trkpt lat="46.14042" lon="4.57651">
        <ele>431.8</ele>
        <time>2020-10-19T13:50:20Z</time>
      </trkpt>
      <trkpt lat="46.14042" lon="4.57651">
        <ele>432</ele>
        <time>2020-10-19T13:50:21Z</time>
      </trkpt>
      <trkpt lat="46.14044" lon="4.57653">
        <ele>432.2</ele>
        <time>2020-10-19T13:50:22Z</time>
      </trkpt>
      <trkpt lat="46.14044" lon="4.57653">
        <ele>432.2</ele>
        <time>2020-10-19T13:50:23Z</time>
      </trkpt>
      <trkpt lat="46.14045" lon="4.57655">
        <ele>432.6</ele>
        <time>2020-10-19T13:50:24Z</time>
      </trkpt>
      <trkpt lat="46.14045" lon="4.57655">
        <ele>432.6</ele>
        <time>2020-10-19T13:50:25Z</time>
      </trkpt>
      <trkpt lat="46.14047" lon="4.57656">
        <ele>432.8</ele>
        <time>2020-10-19T13:50:26Z</time>
      </trkpt>
      <trkpt lat="46.14047" lon="4.57656">
        <ele>433</ele>
        <time>2020-10-19T13:50:27Z</time>
      </trkpt>
      <trkpt lat="46.14049" lon="4.57658">
        <ele>433.4</ele>
        <time>2020-10-19T13:50:28Z</time>
      </trkpt>
      <trkpt lat="46.14049" lon="4.57658">
        <ele>433.6</ele>
        <time>2020-10-19T13:50:29Z</time>
      </trkpt>
      <trkpt lat="46.14051" lon="4.57661">
        <ele>433.6</ele>
        <time>2020-10-19T13:50:30Z</time>
      </trkpt>
      <trkpt lat="46.14051" lon="4.57661">
        <ele>433.6</ele>
        <time>2020-10-19T13:50:31Z</time>
      </trkpt>
      <trkpt lat="46.14052" lon="4.57663">
        <ele>433.8</ele>
        <time>2020-10-19T13:50:32Z</time>
      </trkpt>
      <trkpt lat="46.14052" lon="4.57663">
        <ele>434.2</ele>
        <time>2020-10-19T13:50:33Z</time>
      </trkpt>
      <trkpt lat="46.14054" lon="4.57665">
        <ele>434.6</ele>
        <time>2020-10-19T13:50:34Z</time>
      </trkpt>
      <trkpt lat="46.14054" lon="4.57665">
        <ele>434.8</ele>
        <time>2020-10-19T13:50:35Z</time>
      </trkpt>
      <trkpt lat="46.14055" lon="4.57667">
        <ele>435</ele>
        <time>2020-10-19T13:50:36Z</time>
      </trkpt>
      <trkpt lat="46.14055" lon="4.57667">
        <ele>435.2</ele>
        <time>2020-10-19T13:50:37Z</time>
      </trkpt>
      <trkpt lat="46.14057" lon="4.57669">
        <ele>435.2</ele>
        <time>2020-10-19T13:50:38Z</time>
      </trkpt>
      <trkpt lat="46.14057" lon="4.57669">
        <ele>435.4</ele>
        <time>2020-10-19T13:50:39Z</time>
      </trkpt>
      <trkpt lat="46.1406" lon="4.57671">
        <ele>435.6</ele>
        <time>2020-10-19T13:50:40Z</time>
      </trkpt>
      <trkpt lat="46.1406" lon="4.57671">
        <ele>435.6</ele>
        <time>2020-10-19T13:50:41Z</time>
      </trkpt>
      <trkpt lat="46.14062" lon="4.57673">
        <ele>436</ele>
        <time>2020-10-19T13:50:42Z</time>
      </trkpt>
      <trkpt lat="46.14062" lon="4.57673">
        <ele>436.2</ele>
        <time>2020-10-19T13:50:43Z</time>
      </trkpt>
      <trkpt lat="46.14064" lon="4.57674">
        <ele>436.4</ele>
        <time>2020-10-19T13:50:44Z</time>
      </trkpt>
      <trkpt lat="46.14064" lon="4.57674">
        <ele>436.4</ele>
        <time>2020-10-19T13:50:45Z</time>
      </trkpt>
      <trkpt lat="46.14066" lon="4.57676">
        <ele>436.4</ele>
        <time>2020-10-19T13:50:46Z</time>
      </trkpt>
      <trkpt lat="46.14066" lon="4.57676">
        <ele>436.6</ele>
        <time>2020-10-19T13:50:47Z</time>
      </trkpt>
      <trkpt lat="46.14068" lon="4.57678">
        <ele>436.8</ele>
        <time>2020-10-19T13:50:48Z</time>
      </trkpt>
      <trkpt lat="46.14068" lon="4.57678">
        <ele>437</ele>
        <time>2020-10-19T13:50:49Z</time>
      </trkpt>
      <trkpt lat="46.1407" lon="4.5768">
        <ele>437.2</ele>
        <time>2020-10-19T13:50:50Z</time>
      </trkpt>
      <trkpt lat="46.1407" lon="4.5768">
        <ele>437.4</ele>
        <time>2020-10-19T13:50:51Z</time>
      </trkpt>
      <trkpt lat="46.14072" lon="4.57683">
        <ele>437.4</ele>
        <time>2020-10-19T13:50:52Z</time>
      </trkpt>
      <trkpt lat="46.14072" lon="4.57683">
        <ele>437.2</ele>
        <time>2020-10-19T13:50:53Z</time>
      </trkpt>
      <trkpt lat="46.14073" lon="4.57686">
        <ele>437.2</ele>
        <time>2020-10-19T13:50:54Z</time>
      </trkpt>
      <trkpt lat="46.14073" lon="4.57686">
        <ele>437.4</ele>
        <time>2020-10-19T13:50:55Z</time>
      </trkpt>
      <trkpt lat="46.14073" lon="4.57686">
        <ele>437.4</ele>
        <time>2020-10-19T13:50:56Z</time>
      </trkpt>
      <trkpt lat="46.14073" lon="4.57686">
        <ele>437.6</ele>
        <time>2020-10-19T13:50:57Z</time>
      </trkpt>
      <trkpt lat="46.14073" lon="4.57686">
        <ele>437.8</ele>
        <time>2020-10-19T13:50:58Z</time>
      </trkpt>
      <trkpt lat="46.14073" lon="4.57686">
        <ele>437.8</ele>
        <time>2020-10-19T13:50:59Z</time>
      </trkpt>
      <trkpt lat="46.14073" lon="4.57686">
        <ele>437.8</ele>
        <time>2020-10-19T13:51:00Z</time>
      </trkpt>
      <trkpt lat="46.14073" lon="4.57686">
        <ele>438</ele>
        <time>2020-10-19T13:51:01Z</time>
      </trkpt>
      <trkpt lat="46.14075" lon="4.57687">
        <ele>438.4</ele>
        <time>2020-10-19T13:51:02Z</time>
      </trkpt>
      <trkpt lat="46.14075" lon="4.57687">
        <ele>438.6</ele>
        <time>2020-10-19T13:51:03Z</time>
      </trkpt>
      <trkpt lat="46.14075" lon="4.57687">
        <ele>439</ele>
        <time>2020-10-19T13:51:04Z</time>
      </trkpt>
      <trkpt lat="46.14075" lon="4.57687">
        <ele>439.2</ele>
        <time>2020-10-19T13:51:05Z</time>
      </trkpt>
      <trkpt lat="46.14075" lon="4.57687">
        <ele>439.6</ele>
        <time>2020-10-19T13:51:06Z</time>
      </trkpt>
      <trkpt lat="46.14075" lon="4.57687">
        <ele>439.6</ele>
        <time>2020-10-19T13:51:07Z</time>
      </trkpt>
      <trkpt lat="46.14077" lon="4.57688">
        <ele>439.6</ele>
        <time>2020-10-19T13:51:08Z</time>
      </trkpt>
      <trkpt lat="46.14077" lon="4.57688">
        <ele>439.4</ele>
        <time>2020-10-19T13:51:09Z</time>
      </trkpt>
      <trkpt lat="46.14079" lon="4.5769">
        <ele>439.4</ele>
        <time>2020-10-19T13:51:10Z</time>
      </trkpt>
      <trkpt lat="46.14079" lon="4.5769">
        <ele>439</ele>
        <time>2020-10-19T13:51:11Z</time>
      </trkpt>
      <trkpt lat="46.14081" lon="4.57693">
        <ele>438.8</ele>
        <time>2020-10-19T13:51:12Z</time>
      </trkpt>
      <trkpt lat="46.14081" lon="4.57693">
        <ele>438.8</ele>
        <time>2020-10-19T13:51:13Z</time>
      </trkpt>
      <trkpt lat="46.14083" lon="4.57695">
        <ele>438.8</ele>
        <time>2020-10-19T13:51:14Z</time>
      </trkpt>
      <trkpt lat="46.14083" lon="4.57695">
        <ele>438.6</ele>
        <time>2020-10-19T13:51:15Z</time>
      </trkpt>
      <trkpt lat="46.14085" lon="4.57698">
        <ele>438.6</ele>
        <time>2020-10-19T13:51:16Z</time>
      </trkpt>
      <trkpt lat="46.14085" lon="4.57698">
        <ele>438.8</ele>
        <time>2020-10-19T13:51:17Z</time>
      </trkpt>
      <trkpt lat="46.14087" lon="4.577">
        <ele>439</ele>
        <time>2020-10-19T13:51:18Z</time>
      </trkpt>
      <trkpt lat="46.14087" lon="4.577">
        <ele>439</ele>
        <time>2020-10-19T13:51:19Z</time>
      </trkpt>
      <trkpt lat="46.14089" lon="4.57702">
        <ele>439.2</ele>
        <time>2020-10-19T13:51:20Z</time>
      </trkpt>
      <trkpt lat="46.14089" lon="4.57702">
        <ele>439.4</ele>
        <time>2020-10-19T13:51:21Z</time>
      </trkpt>
      <trkpt lat="46.14091" lon="4.57704">
        <ele>439.6</ele>
        <time>2020-10-19T13:51:22Z</time>
      </trkpt>
      <trkpt lat="46.14091" lon="4.57704">
        <ele>439.6</ele>
        <time>2020-10-19T13:51:23Z</time>
      </trkpt>
      <trkpt lat="46.14091" lon="4.57704">
        <ele>439.8</ele>
        <time>2020-10-19T13:51:24Z</time>
      </trkpt>
      <trkpt lat="46.14091" lon="4.57704">
        <ele>439.6</ele>
        <time>2020-10-19T13:51:25Z</time>
      </trkpt>
      <trkpt lat="46.14091" lon="4.57704">
        <ele>439.6</ele>
        <time>2020-10-19T13:51:26Z</time>
      </trkpt>
      <trkpt lat="46.14091" lon="4.57704">
        <ele>439.4</ele>
        <time>2020-10-19T13:51:27Z</time>
      </trkpt>
      <trkpt lat="46.14093" lon="4.57706">
        <ele>439.4</ele>
        <time>2020-10-19T13:51:28Z</time>
      </trkpt>
      <trkpt lat="46.14093" lon="4.57706">
        <ele>439.4</ele>
        <time>2020-10-19T13:51:29Z</time>
      </trkpt>
      <trkpt lat="46.14095" lon="4.57707">
        <ele>439.4</ele>
        <time>2020-10-19T13:51:30Z</time>
      </trkpt>
      <trkpt lat="46.14095" lon="4.57707">
        <ele>439.6</ele>
        <time>2020-10-19T13:51:31Z</time>
      </trkpt>
      <trkpt lat="46.14097" lon="4.5771">
        <ele>439.8</ele>
        <time>2020-10-19T13:51:32Z</time>
      </trkpt>
      <trkpt lat="46.14097" lon="4.5771">
        <ele>439.8</ele>
        <time>2020-10-19T13:51:33Z</time>
      </trkpt>
      <trkpt lat="46.141" lon="4.57712">
        <ele>439.8</ele>
        <time>2020-10-19T13:51:34Z</time>
      </trkpt>
      <trkpt lat="46.141" lon="4.57712">
        <ele>440</ele>
        <time>2020-10-19T13:51:35Z</time>
      </trkpt>
      <trkpt lat="46.14102" lon="4.57715">
        <ele>440</ele>
        <time>2020-10-19T13:51:36Z</time>
      </trkpt>
      <trkpt lat="46.14102" lon="4.57715">
        <ele>440</ele>
        <time>2020-10-19T13:51:37Z</time>
      </trkpt>
      <trkpt lat="46.14103" lon="4.57717">
        <ele>440</ele>
        <time>2020-10-19T13:51:38Z</time>
      </trkpt>
      <trkpt lat="46.14103" lon="4.57717">
        <ele>440</ele>
        <time>2020-10-19T13:51:39Z</time>
      </trkpt>
      <trkpt lat="46.14105" lon="4.57718">
        <ele>440</ele>
        <time>2020-10-19T13:51:40Z</time>
      </trkpt>
      <trkpt lat="46.14105" lon="4.57718">
        <ele>440.2</ele>
        <time>2020-10-19T13:51:41Z</time>
      </trkpt>
      <trkpt lat="46.14108" lon="4.57721">
        <ele>440</ele>
        <time>2020-10-19T13:51:42Z</time>
      </trkpt>
      <trkpt lat="46.14108" lon="4.57721">
        <ele>440.2</ele>
        <time>2020-10-19T13:51:43Z</time>
      </trkpt>
      <trkpt lat="46.1411" lon="4.57723">
        <ele>440</ele>
        <time>2020-10-19T13:51:44Z</time>
      </trkpt>
      <trkpt lat="46.1411" lon="4.57723">
        <ele>440</ele>
        <time>2020-10-19T13:51:45Z</time>
      </trkpt>
      <trkpt lat="46.14112" lon="4.57724">
        <ele>439.8</ele>
        <time>2020-10-19T13:51:46Z</time>
      </trkpt>
      <trkpt lat="46.14112" lon="4.57724">
        <ele>439.8</ele>
        <time>2020-10-19T13:51:47Z</time>
      </trkpt>
      <trkpt lat="46.14115" lon="4.57726">
        <ele>439.8</ele>
        <time>2020-10-19T13:51:48Z</time>
      </trkpt>
      <trkpt lat="46.14115" lon="4.57726">
        <ele>439.8</ele>
        <time>2020-10-19T13:51:49Z</time>
      </trkpt>
      <trkpt lat="46.14117" lon="4.57727">
        <ele>439.6</ele>
        <time>2020-10-19T13:51:50Z</time>
      </trkpt>
      <trkpt lat="46.14117" lon="4.57727">
        <ele>439.6</ele>
        <time>2020-10-19T13:51:51Z</time>
      </trkpt>
      <trkpt lat="46.1412" lon="4.57728">
        <ele>440</ele>
        <time>2020-10-19T13:51:52Z</time>
      </trkpt>
      <trkpt lat="46.1412" lon="4.57728">
        <ele>439.8</ele>
        <time>2020-10-19T13:51:53Z</time>
      </trkpt>
      <trkpt lat="46.14122" lon="4.57729">
        <ele>439.8</ele>
        <time>2020-10-19T13:51:54Z</time>
      </trkpt>
      <trkpt lat="46.14122" lon="4.57729">
        <ele>439.8</ele>
        <time>2020-10-19T13:51:55Z</time>
      </trkpt>
      <trkpt lat="46.14122" lon="4.57729">
        <ele>439.8</ele>
        <time>2020-10-19T13:51:56Z</time>
      </trkpt>
      <trkpt lat="46.14122" lon="4.57729">
        <ele>439.6</ele>
        <time>2020-10-19T13:51:57Z</time>
      </trkpt>
      <trkpt lat="46.14122" lon="4.57729">
        <ele>439.8</ele>
        <time>2020-10-19T13:51:58Z</time>
      </trkpt>
      <trkpt lat="46.14122" lon="4.57729">
        <ele>439.8</ele>
        <time>2020-10-19T13:51:59Z</time>
      </trkpt>
      <trkpt lat="46.14124" lon="4.57731">
        <ele>440</ele>
        <time>2020-10-19T13:52:00Z</time>
      </trkpt>
      <trkpt lat="46.14124" lon="4.57731">
        <ele>440.2</ele>
        <time>2020-10-19T13:52:01Z</time>
      </trkpt>
      <trkpt lat="46.14126" lon="4.57731">
        <ele>440.4</ele>
        <time>2020-10-19T13:52:02Z</time>
      </trkpt>
      <trkpt lat="46.14126" lon="4.57731">
        <ele>440.4</ele>
        <time>2020-10-19T13:52:03Z</time>
      </trkpt>
      <trkpt lat="46.14129" lon="4.57731">
        <ele>440.4</ele>
        <time>2020-10-19T13:52:04Z</time>
      </trkpt>
      <trkpt lat="46.14129" lon="4.57731">
        <ele>440.2</ele>
        <time>2020-10-19T13:52:05Z</time>
      </trkpt>
      <trkpt lat="46.14131" lon="4.57732">
        <ele>440.2</ele>
        <time>2020-10-19T13:52:06Z</time>
      </trkpt>
      <trkpt lat="46.14131" lon="4.57732">
        <ele>440.4</ele>
        <time>2020-10-19T13:52:07Z</time>
      </trkpt>
      <trkpt lat="46.14134" lon="4.57733">
        <ele>440.4</ele>
        <time>2020-10-19T13:52:08Z</time>
      </trkpt>
      <trkpt lat="46.14134" lon="4.57733">
        <ele>440.4</ele>
        <time>2020-10-19T13:52:09Z</time>
      </trkpt>
      <trkpt lat="46.14136" lon="4.57734">
        <ele>440.4</ele>
        <time>2020-10-19T13:52:10Z</time>
      </trkpt>
      <trkpt lat="46.14136" lon="4.57734">
        <ele>440.4</ele>
        <time>2020-10-19T13:52:11Z</time>
      </trkpt>
      <trkpt lat="46.14139" lon="4.57735">
        <ele>440.8</ele>
        <time>2020-10-19T13:52:12Z</time>
      </trkpt>
      <trkpt lat="46.14139" lon="4.57735">
        <ele>441</ele>
        <time>2020-10-19T13:52:13Z</time>
      </trkpt>
      <trkpt lat="46.14142" lon="4.57735">
        <ele>441.2</ele>
        <time>2020-10-19T13:52:14Z</time>
      </trkpt>
      <trkpt lat="46.14142" lon="4.57735">
        <ele>441.2</ele>
        <time>2020-10-19T13:52:15Z</time>
      </trkpt>
      <trkpt lat="46.14144" lon="4.57735">
        <ele>441.4</ele>
        <time>2020-10-19T13:52:16Z</time>
      </trkpt>
      <trkpt lat="46.14144" lon="4.57735">
        <ele>441.4</ele>
        <time>2020-10-19T13:52:17Z</time>
      </trkpt>
      <trkpt lat="46.14147" lon="4.57736">
        <ele>441.8</ele>
        <time>2020-10-19T13:52:18Z</time>
      </trkpt>
      <trkpt lat="46.14147" lon="4.57736">
        <ele>441.8</ele>
        <time>2020-10-19T13:52:19Z</time>
      </trkpt>
      <trkpt lat="46.1415" lon="4.57736">
        <ele>441.8</ele>
        <time>2020-10-19T13:52:20Z</time>
      </trkpt>
      <trkpt lat="46.1415" lon="4.57736">
        <ele>442</ele>
        <time>2020-10-19T13:52:21Z</time>
      </trkpt>
      <trkpt lat="46.14152" lon="4.57737">
        <ele>442.2</ele>
        <time>2020-10-19T13:52:22Z</time>
      </trkpt>
      <trkpt lat="46.14152" lon="4.57737">
        <ele>442.2</ele>
        <time>2020-10-19T13:52:23Z</time>
      </trkpt>
      <trkpt lat="46.14154" lon="4.57737">
        <ele>442</ele>
        <time>2020-10-19T13:52:24Z</time>
      </trkpt>
      <trkpt lat="46.14154" lon="4.57737">
        <ele>442.2</ele>
        <time>2020-10-19T13:52:25Z</time>
      </trkpt>
      <trkpt lat="46.14157" lon="4.57738">
        <ele>442.4</ele>
        <time>2020-10-19T13:52:26Z</time>
      </trkpt>
      <trkpt lat="46.14157" lon="4.57738">
        <ele>442.2</ele>
        <time>2020-10-19T13:52:27Z</time>
      </trkpt>
      <trkpt lat="46.14159" lon="4.57738">
        <ele>442.2</ele>
        <time>2020-10-19T13:52:28Z</time>
      </trkpt>
      <trkpt lat="46.14159" lon="4.57738">
        <ele>442</ele>
        <time>2020-10-19T13:52:29Z</time>
      </trkpt>
      <trkpt lat="46.14162" lon="4.57738">
        <ele>442</ele>
        <time>2020-10-19T13:52:30Z</time>
      </trkpt>
      <trkpt lat="46.14162" lon="4.57738">
        <ele>442</ele>
        <time>2020-10-19T13:52:31Z</time>
      </trkpt>
      <trkpt lat="46.14164" lon="4.57738">
        <ele>442.2</ele>
        <time>2020-10-19T13:52:32Z</time>
      </trkpt>
      <trkpt lat="46.14164" lon="4.57738">
        <ele>442.4</ele>
        <time>2020-10-19T13:52:33Z</time>
      </trkpt>
      <trkpt lat="46.14167" lon="4.57738">
        <ele>442.4</ele>
        <time>2020-10-19T13:52:34Z</time>
      </trkpt>
      <trkpt lat="46.14167" lon="4.57738">
        <ele>442.4</ele>
        <time>2020-10-19T13:52:35Z</time>
      </trkpt>
      <trkpt lat="46.1417" lon="4.57739">
        <ele>442.6</ele>
        <time>2020-10-19T13:52:36Z</time>
      </trkpt>
      <trkpt lat="46.14171" lon="4.5774">
        <ele>442.8</ele>
        <time>2020-10-19T13:52:37Z</time>
      </trkpt>
      <trkpt lat="46.14173" lon="4.57741">
        <ele>442.8</ele>
        <time>2020-10-19T13:52:38Z</time>
      </trkpt>
      <trkpt lat="46.14173" lon="4.57741">
        <ele>443</ele>
        <time>2020-10-19T13:52:39Z</time>
      </trkpt>
      <trkpt lat="46.14176" lon="4.57742">
        <ele>443.2</ele>
        <time>2020-10-19T13:52:40Z</time>
      </trkpt>
      <trkpt lat="46.14176" lon="4.57742">
        <ele>443.6</ele>
        <time>2020-10-19T13:52:41Z</time>
      </trkpt>
      <trkpt lat="46.14179" lon="4.57744">
        <ele>443.8</ele>
        <time>2020-10-19T13:52:42Z</time>
      </trkpt>
      <trkpt lat="46.14179" lon="4.57744">
        <ele>444</ele>
        <time>2020-10-19T13:52:43Z</time>
      </trkpt>
      <trkpt lat="46.14181" lon="4.57746">
        <ele>444.2</ele>
        <time>2020-10-19T13:52:44Z</time>
      </trkpt>
      <trkpt lat="46.14181" lon="4.57746">
        <ele>444.2</ele>
        <time>2020-10-19T13:52:45Z</time>
      </trkpt>
      <trkpt lat="46.14184" lon="4.57748">
        <ele>444.4</ele>
        <time>2020-10-19T13:52:46Z</time>
      </trkpt>
      <trkpt lat="46.14184" lon="4.57748">
        <ele>444.4</ele>
        <time>2020-10-19T13:52:47Z</time>
      </trkpt>
      <trkpt lat="46.14187" lon="4.5775">
        <ele>444.6</ele>
        <time>2020-10-19T13:52:48Z</time>
      </trkpt>
      <trkpt lat="46.14187" lon="4.5775">
        <ele>444.6</ele>
        <time>2020-10-19T13:52:49Z</time>
      </trkpt>
      <trkpt lat="46.14189" lon="4.57753">
        <ele>444.6</ele>
        <time>2020-10-19T13:52:50Z</time>
      </trkpt>
      <trkpt lat="46.14189" lon="4.57753">
        <ele>444.6</ele>
        <time>2020-10-19T13:52:51Z</time>
      </trkpt>
      <trkpt lat="46.14191" lon="4.57755">
        <ele>444.8</ele>
        <time>2020-10-19T13:52:52Z</time>
      </trkpt>
      <trkpt lat="46.14191" lon="4.57755">
        <ele>444.8</ele>
        <time>2020-10-19T13:52:53Z</time>
      </trkpt>
      <trkpt lat="46.14193" lon="4.57758">
        <ele>444.8</ele>
        <time>2020-10-19T13:52:54Z</time>
      </trkpt>
      <trkpt lat="46.14193" lon="4.57758">
        <ele>444.6</ele>
        <time>2020-10-19T13:52:55Z</time>
      </trkpt>
      <trkpt lat="46.14195" lon="4.57761">
        <ele>444.6</ele>
        <time>2020-10-19T13:52:56Z</time>
      </trkpt>
      <trkpt lat="46.14195" lon="4.57761">
        <ele>444.6</ele>
        <time>2020-10-19T13:52:57Z</time>
      </trkpt>
      <trkpt lat="46.14197" lon="4.57764">
        <ele>444.6</ele>
        <time>2020-10-19T13:52:58Z</time>
      </trkpt>
      <trkpt lat="46.14197" lon="4.57764">
        <ele>444.6</ele>
        <time>2020-10-19T13:52:59Z</time>
      </trkpt>
      <trkpt lat="46.14199" lon="4.57767">
        <ele>444.4</ele>
        <time>2020-10-19T13:53:00Z</time>
      </trkpt>
      <trkpt lat="46.14199" lon="4.57767">
        <ele>444.2</ele>
        <time>2020-10-19T13:53:01Z</time>
      </trkpt>
      <trkpt lat="46.14202" lon="4.5777">
        <ele>444.2</ele>
        <time>2020-10-19T13:53:02Z</time>
      </trkpt>
      <trkpt lat="46.14202" lon="4.5777">
        <ele>444.2</ele>
        <time>2020-10-19T13:53:03Z</time>
      </trkpt>
      <trkpt lat="46.14204" lon="4.57772">
        <ele>444</ele>
        <time>2020-10-19T13:53:04Z</time>
      </trkpt>
      <trkpt lat="46.14204" lon="4.57772">
        <ele>444</ele>
        <time>2020-10-19T13:53:05Z</time>
      </trkpt>
      <trkpt lat="46.14206" lon="4.57774">
        <ele>443.8</ele>
        <time>2020-10-19T13:53:06Z</time>
      </trkpt>
      <trkpt lat="46.14206" lon="4.57774">
        <ele>443.6</ele>
        <time>2020-10-19T13:53:07Z</time>
      </trkpt>
      <trkpt lat="46.14208" lon="4.57777">
        <ele>443.6</ele>
        <time>2020-10-19T13:53:08Z</time>
      </trkpt>
      <trkpt lat="46.14208" lon="4.57777">
        <ele>443.4</ele>
        <time>2020-10-19T13:53:09Z</time>
      </trkpt>
      <trkpt lat="46.1421" lon="4.57781">
        <ele>443.4</ele>
        <time>2020-10-19T13:53:10Z</time>
      </trkpt>
      <trkpt lat="46.14211" lon="4.57784">
        <ele>443.2</ele>
        <time>2020-10-19T13:53:11Z</time>
      </trkpt>
      <trkpt lat="46.14211" lon="4.57784">
        <ele>443.2</ele>
        <time>2020-10-19T13:53:12Z</time>
      </trkpt>
      <trkpt lat="46.14212" lon="4.57788">
        <ele>442.6</ele>
        <time>2020-10-19T13:53:13Z</time>
      </trkpt>
      <trkpt lat="46.14212" lon="4.57788">
        <ele>442.6</ele>
        <time>2020-10-19T13:53:14Z</time>
      </trkpt>
      <trkpt lat="46.14212" lon="4.57792">
        <ele>442.4</ele>
        <time>2020-10-19T13:53:15Z</time>
      </trkpt>
      <trkpt lat="46.14212" lon="4.57792">
        <ele>442.2</ele>
        <time>2020-10-19T13:53:16Z</time>
      </trkpt>
      <trkpt lat="46.14212" lon="4.57792">
        <ele>442.2</ele>
        <time>2020-10-19T13:53:17Z</time>
      </trkpt>
      <trkpt lat="46.14212" lon="4.57792">
        <ele>442.2</ele>
        <time>2020-10-19T13:53:18Z</time>
      </trkpt>
      <trkpt lat="46.14212" lon="4.57792">
        <ele>442.2</ele>
        <time>2020-10-19T13:53:19Z</time>
      </trkpt>
      <trkpt lat="46.14212" lon="4.57792">
        <ele>442.2</ele>
        <time>2020-10-19T13:53:20Z</time>
      </trkpt>
      <trkpt lat="46.14212" lon="4.57792">
        <ele>441.8</ele>
        <time>2020-10-19T13:53:21Z</time>
      </trkpt>
      <trkpt lat="46.14214" lon="4.57795">
        <ele>442</ele>
        <time>2020-10-19T13:53:22Z</time>
      </trkpt>
      <trkpt lat="46.14214" lon="4.57795">
        <ele>442</ele>
        <time>2020-10-19T13:53:23Z</time>
      </trkpt>
      <trkpt lat="46.14215" lon="4.57799">
        <ele>442.2</ele>
        <time>2020-10-19T13:53:24Z</time>
      </trkpt>
      <trkpt lat="46.14215" lon="4.57799">
        <ele>442</ele>
        <time>2020-10-19T13:53:25Z</time>
      </trkpt>
      <trkpt lat="46.14216" lon="4.57803">
        <ele>442</ele>
        <time>2020-10-19T13:53:26Z</time>
      </trkpt>
      <trkpt lat="46.14216" lon="4.57803">
        <ele>441.8</ele>
        <time>2020-10-19T13:53:27Z</time>
      </trkpt>
      <trkpt lat="46.14217" lon="4.57808">
        <ele>441.6</ele>
        <time>2020-10-19T13:53:28Z</time>
      </trkpt>
      <trkpt lat="46.14217" lon="4.57808">
        <ele>441.6</ele>
        <time>2020-10-19T13:53:29Z</time>
      </trkpt>
      <trkpt lat="46.14218" lon="4.57812">
        <ele>441.4</ele>
        <time>2020-10-19T13:53:30Z</time>
      </trkpt>
      <trkpt lat="46.14218" lon="4.57812">
        <ele>441.6</ele>
        <time>2020-10-19T13:53:31Z</time>
      </trkpt>
      <trkpt lat="46.1422" lon="4.57816">
        <ele>441.6</ele>
        <time>2020-10-19T13:53:32Z</time>
      </trkpt>
      <trkpt lat="46.1422" lon="4.57816">
        <ele>441.4</ele>
        <time>2020-10-19T13:53:33Z</time>
      </trkpt>
      <trkpt lat="46.14221" lon="4.5782">
        <ele>441.2</ele>
        <time>2020-10-19T13:53:34Z</time>
      </trkpt>
      <trkpt lat="46.14221" lon="4.5782">
        <ele>441.2</ele>
        <time>2020-10-19T13:53:35Z</time>
      </trkpt>
      <trkpt lat="46.14222" lon="4.57824">
        <ele>441</ele>
        <time>2020-10-19T13:53:36Z</time>
      </trkpt>
      <trkpt lat="46.14222" lon="4.57824">
        <ele>441</ele>
        <time>2020-10-19T13:53:37Z</time>
      </trkpt>
      <trkpt lat="46.14223" lon="4.57828">
        <ele>441</ele>
        <time>2020-10-19T13:53:38Z</time>
      </trkpt>
      <trkpt lat="46.14223" lon="4.57828">
        <ele>440.6</ele>
        <time>2020-10-19T13:53:39Z</time>
      </trkpt>
      <trkpt lat="46.14224" lon="4.57832">
        <ele>440.4</ele>
        <time>2020-10-19T13:53:40Z</time>
      </trkpt>
      <trkpt lat="46.14224" lon="4.57832">
        <ele>440.2</ele>
        <time>2020-10-19T13:53:41Z</time>
      </trkpt>
      <trkpt lat="46.14226" lon="4.57836">
        <ele>440</ele>
        <time>2020-10-19T13:53:42Z</time>
      </trkpt>
      <trkpt lat="46.14226" lon="4.57836">
        <ele>440</ele>
        <time>2020-10-19T13:53:43Z</time>
      </trkpt>
      <trkpt lat="46.14227" lon="4.5784">
        <ele>439.8</ele>
        <time>2020-10-19T13:53:44Z</time>
      </trkpt>
      <trkpt lat="46.14227" lon="4.5784">
        <ele>439.6</ele>
        <time>2020-10-19T13:53:45Z</time>
      </trkpt>
      <trkpt lat="46.14228" lon="4.57843">
        <ele>439.6</ele>
        <time>2020-10-19T13:53:46Z</time>
      </trkpt>
      <trkpt lat="46.14228" lon="4.57843">
        <ele>439.4</ele>
        <time>2020-10-19T13:53:47Z</time>
      </trkpt>
      <trkpt lat="46.14229" lon="4.57847">
        <ele>439</ele>
        <time>2020-10-19T13:53:48Z</time>
      </trkpt>
      <trkpt lat="46.14229" lon="4.57847">
        <ele>438.8</ele>
        <time>2020-10-19T13:53:49Z</time>
      </trkpt>
      <trkpt lat="46.1423" lon="4.57851">
        <ele>438.6</ele>
        <time>2020-10-19T13:53:50Z</time>
      </trkpt>
      <trkpt lat="46.1423" lon="4.57851">
        <ele>438.4</ele>
        <time>2020-10-19T13:53:51Z</time>
      </trkpt>
      <trkpt lat="46.14231" lon="4.57856">
        <ele>438.2</ele>
        <time>2020-10-19T13:53:52Z</time>
      </trkpt>
      <trkpt lat="46.14231" lon="4.57856">
        <ele>438.2</ele>
        <time>2020-10-19T13:53:53Z</time>
      </trkpt>
      <trkpt lat="46.14231" lon="4.5786">
        <ele>438</ele>
        <time>2020-10-19T13:53:54Z</time>
      </trkpt>
      <trkpt lat="46.14231" lon="4.5786">
        <ele>438</ele>
        <time>2020-10-19T13:53:55Z</time>
      </trkpt>
      <trkpt lat="46.14231" lon="4.57864">
        <ele>438</ele>
        <time>2020-10-19T13:53:56Z</time>
      </trkpt>
      <trkpt lat="46.14231" lon="4.57864">
        <ele>437.8</ele>
        <time>2020-10-19T13:53:57Z</time>
      </trkpt>
      <trkpt lat="46.14232" lon="4.57868">
        <ele>437.8</ele>
        <time>2020-10-19T13:53:58Z</time>
      </trkpt>
      <trkpt lat="46.14232" lon="4.57868">
        <ele>437.6</ele>
        <time>2020-10-19T13:53:59Z</time>
      </trkpt>
      <trkpt lat="46.14233" lon="4.57873">
        <ele>437.4</ele>
        <time>2020-10-19T13:54:00Z</time>
      </trkpt>
      <trkpt lat="46.14233" lon="4.57873">
        <ele>437.4</ele>
        <time>2020-10-19T13:54:01Z</time>
      </trkpt>
      <trkpt lat="46.14233" lon="4.57877">
        <ele>437.2</ele>
        <time>2020-10-19T13:54:02Z</time>
      </trkpt>
      <trkpt lat="46.14233" lon="4.57877">
        <ele>437.2</ele>
        <time>2020-10-19T13:54:03Z</time>
      </trkpt>
      <trkpt lat="46.14234" lon="4.57881">
        <ele>437.2</ele>
        <time>2020-10-19T13:54:04Z</time>
      </trkpt>
      <trkpt lat="46.14234" lon="4.57881">
        <ele>437.2</ele>
        <time>2020-10-19T13:54:05Z</time>
      </trkpt>
      <trkpt lat="46.14235" lon="4.57885">
        <ele>437.2</ele>
        <time>2020-10-19T13:54:06Z</time>
      </trkpt>
      <trkpt lat="46.14235" lon="4.57885">
        <ele>437</ele>
        <time>2020-10-19T13:54:07Z</time>
      </trkpt>
      <trkpt lat="46.14236" lon="4.57889">
        <ele>437.2</ele>
        <time>2020-10-19T13:54:08Z</time>
      </trkpt>
      <trkpt lat="46.14236" lon="4.57889">
        <ele>437.2</ele>
        <time>2020-10-19T13:54:09Z</time>
      </trkpt>
      <trkpt lat="46.14237" lon="4.57893">
        <ele>437.2</ele>
        <time>2020-10-19T13:54:10Z</time>
      </trkpt>
      <trkpt lat="46.14237" lon="4.57893">
        <ele>437</ele>
        <time>2020-10-19T13:54:11Z</time>
      </trkpt>
      <trkpt lat="46.14239" lon="4.57897">
        <ele>437</ele>
        <time>2020-10-19T13:54:12Z</time>
      </trkpt>
      <trkpt lat="46.14239" lon="4.57897">
        <ele>436.8</ele>
        <time>2020-10-19T13:54:13Z</time>
      </trkpt>
      <trkpt lat="46.14241" lon="4.57901">
        <ele>436.8</ele>
        <time>2020-10-19T13:54:14Z</time>
      </trkpt>
      <trkpt lat="46.14241" lon="4.57901">
        <ele>436.8</ele>
        <time>2020-10-19T13:54:15Z</time>
      </trkpt>
      <trkpt lat="46.14242" lon="4.57904">
        <ele>436.8</ele>
        <time>2020-10-19T13:54:16Z</time>
      </trkpt>
      <trkpt lat="46.14242" lon="4.57904">
        <ele>437</ele>
        <time>2020-10-19T13:54:17Z</time>
      </trkpt>
      <trkpt lat="46.14243" lon="4.57908">
        <ele>437.2</ele>
        <time>2020-10-19T13:54:18Z</time>
      </trkpt>
      <trkpt lat="46.14243" lon="4.57908">
        <ele>437.4</ele>
        <time>2020-10-19T13:54:19Z</time>
      </trkpt>
      <trkpt lat="46.14244" lon="4.57911">
        <ele>437.2</ele>
        <time>2020-10-19T13:54:20Z</time>
      </trkpt>
      <trkpt lat="46.14244" lon="4.57911">
        <ele>437.2</ele>
        <time>2020-10-19T13:54:21Z</time>
      </trkpt>
      <trkpt lat="46.14245" lon="4.57915">
        <ele>437.2</ele>
        <time>2020-10-19T13:54:22Z</time>
      </trkpt>
      <trkpt lat="46.14245" lon="4.57915">
        <ele>437.2</ele>
        <time>2020-10-19T13:54:23Z</time>
      </trkpt>
      <trkpt lat="46.14247" lon="4.57919">
        <ele>437.4</ele>
        <time>2020-10-19T13:54:24Z</time>
      </trkpt>
      <trkpt lat="46.14247" lon="4.57919">
        <ele>437.2</ele>
        <time>2020-10-19T13:54:25Z</time>
      </trkpt>
      <trkpt lat="46.14248" lon="4.57922">
        <ele>437</ele>
        <time>2020-10-19T13:54:26Z</time>
      </trkpt>
      <trkpt lat="46.14248" lon="4.57922">
        <ele>437</ele>
        <time>2020-10-19T13:54:27Z</time>
      </trkpt>
      <trkpt lat="46.1425" lon="4.57926">
        <ele>437</ele>
        <time>2020-10-19T13:54:28Z</time>
      </trkpt>
      <trkpt lat="46.1425" lon="4.57926">
        <ele>437</ele>
        <time>2020-10-19T13:54:29Z</time>
      </trkpt>
      <trkpt lat="46.14251" lon="4.57929">
        <ele>437.2</ele>
        <time>2020-10-19T13:54:30Z</time>
      </trkpt>
      <trkpt lat="46.14251" lon="4.57929">
        <ele>437.2</ele>
        <time>2020-10-19T13:54:31Z</time>
      </trkpt>
      <trkpt lat="46.14252" lon="4.57932">
        <ele>437.2</ele>
        <time>2020-10-19T13:54:32Z</time>
      </trkpt>
      <trkpt lat="46.14252" lon="4.57932">
        <ele>437.6</ele>
        <time>2020-10-19T13:54:33Z</time>
      </trkpt>
      <trkpt lat="46.14253" lon="4.57934">
        <ele>437.8</ele>
        <time>2020-10-19T13:54:34Z</time>
      </trkpt>
      <trkpt lat="46.14253" lon="4.57934">
        <ele>437.8</ele>
        <time>2020-10-19T13:54:35Z</time>
      </trkpt>
      <trkpt lat="46.14255" lon="4.57938">
        <ele>437.8</ele>
        <time>2020-10-19T13:54:36Z</time>
      </trkpt>
      <trkpt lat="46.14255" lon="4.57938">
        <ele>437.8</ele>
        <time>2020-10-19T13:54:37Z</time>
      </trkpt>
      <trkpt lat="46.14257" lon="4.57941">
        <ele>437.6</ele>
        <time>2020-10-19T13:54:38Z</time>
      </trkpt>
      <trkpt lat="46.14257" lon="4.57941">
        <ele>437.8</ele>
        <time>2020-10-19T13:54:39Z</time>
      </trkpt>
      <trkpt lat="46.14259" lon="4.57945">
        <ele>437.6</ele>
        <time>2020-10-19T13:54:40Z</time>
      </trkpt>
      <trkpt lat="46.14259" lon="4.57945">
        <ele>437.8</ele>
        <time>2020-10-19T13:54:41Z</time>
      </trkpt>
      <trkpt lat="46.1426" lon="4.57948">
        <ele>438</ele>
        <time>2020-10-19T13:54:42Z</time>
      </trkpt>
      <trkpt lat="46.1426" lon="4.57948">
        <ele>438</ele>
        <time>2020-10-19T13:54:43Z</time>
      </trkpt>
      <trkpt lat="46.14262" lon="4.57951">
        <ele>437.8</ele>
        <time>2020-10-19T13:54:44Z</time>
      </trkpt>
      <trkpt lat="46.14262" lon="4.57951">
        <ele>437.8</ele>
        <time>2020-10-19T13:54:45Z</time>
      </trkpt>
      <trkpt lat="46.14264" lon="4.57954">
        <ele>438</ele>
        <time>2020-10-19T13:54:46Z</time>
      </trkpt>
      <trkpt lat="46.14264" lon="4.57954">
        <ele>438.4</ele>
        <time>2020-10-19T13:54:47Z</time>
      </trkpt>
      <trkpt lat="46.14265" lon="4.57958">
        <ele>438.4</ele>
        <time>2020-10-19T13:54:48Z</time>
      </trkpt>
      <trkpt lat="46.14265" lon="4.57958">
        <ele>438.6</ele>
        <time>2020-10-19T13:54:49Z</time>
      </trkpt>
      <trkpt lat="46.14267" lon="4.57961">
        <ele>438.6</ele>
        <time>2020-10-19T13:54:50Z</time>
      </trkpt>
      <trkpt lat="46.14267" lon="4.57961">
        <ele>438.8</ele>
        <time>2020-10-19T13:54:51Z</time>
      </trkpt>
      <trkpt lat="46.14268" lon="4.57964">
        <ele>439.2</ele>
        <time>2020-10-19T13:54:52Z</time>
      </trkpt>
      <trkpt lat="46.14268" lon="4.57964">
        <ele>439.4</ele>
        <time>2020-10-19T13:54:53Z</time>
      </trkpt>
      <trkpt lat="46.14269" lon="4.57967">
        <ele>439.6</ele>
        <time>2020-10-19T13:54:54Z</time>
      </trkpt>
      <trkpt lat="46.14269" lon="4.57967">
        <ele>439.8</ele>
        <time>2020-10-19T13:54:55Z</time>
      </trkpt>
      <trkpt lat="46.14271" lon="4.57969">
        <ele>440</ele>
        <time>2020-10-19T13:54:56Z</time>
      </trkpt>
      <trkpt lat="46.14271" lon="4.57969">
        <ele>440.4</ele>
        <time>2020-10-19T13:54:57Z</time>
      </trkpt>
      <trkpt lat="46.14273" lon="4.57972">
        <ele>440.4</ele>
        <time>2020-10-19T13:54:58Z</time>
      </trkpt>
      <trkpt lat="46.14273" lon="4.57972">
        <ele>440.4</ele>
        <time>2020-10-19T13:54:59Z</time>
      </trkpt>
      <trkpt lat="46.14275" lon="4.57974">
        <ele>440</ele>
        <time>2020-10-19T13:55:00Z</time>
      </trkpt>
      <trkpt lat="46.14275" lon="4.57974">
        <ele>439.8</ele>
        <time>2020-10-19T13:55:01Z</time>
      </trkpt>
      <trkpt lat="46.14277" lon="4.57976">
        <ele>439.6</ele>
        <time>2020-10-19T13:55:02Z</time>
      </trkpt>
      <trkpt lat="46.14277" lon="4.57976">
        <ele>439.4</ele>
        <time>2020-10-19T13:55:03Z</time>
      </trkpt>
      <trkpt lat="46.1428" lon="4.57978">
        <ele>439.4</ele>
        <time>2020-10-19T13:55:04Z</time>
      </trkpt>
      <trkpt lat="46.1428" lon="4.57978">
        <ele>439.2</ele>
        <time>2020-10-19T13:55:05Z</time>
      </trkpt>
      <trkpt lat="46.14282" lon="4.57981">
        <ele>439.4</ele>
        <time>2020-10-19T13:55:06Z</time>
      </trkpt>
      <trkpt lat="46.14282" lon="4.57981">
        <ele>439.4</ele>
        <time>2020-10-19T13:55:07Z</time>
      </trkpt>
      <trkpt lat="46.14284" lon="4.57983">
        <ele>439.4</ele>
        <time>2020-10-19T13:55:08Z</time>
      </trkpt>
      <trkpt lat="46.14284" lon="4.57983">
        <ele>439.4</ele>
        <time>2020-10-19T13:55:09Z</time>
      </trkpt>
      <trkpt lat="46.14286" lon="4.57986">
        <ele>439.4</ele>
        <time>2020-10-19T13:55:10Z</time>
      </trkpt>
      <trkpt lat="46.14286" lon="4.57986">
        <ele>439.4</ele>
        <time>2020-10-19T13:55:11Z</time>
      </trkpt>
      <trkpt lat="46.14288" lon="4.57988">
        <ele>439.4</ele>
        <time>2020-10-19T13:55:12Z</time>
      </trkpt>
      <trkpt lat="46.14288" lon="4.57988">
        <ele>439.4</ele>
        <time>2020-10-19T13:55:13Z</time>
      </trkpt>
      <trkpt lat="46.14289" lon="4.57991">
        <ele>439.6</ele>
        <time>2020-10-19T13:55:14Z</time>
      </trkpt>
      <trkpt lat="46.14289" lon="4.57991">
        <ele>439.8</ele>
        <time>2020-10-19T13:55:15Z</time>
      </trkpt>
      <trkpt lat="46.14292" lon="4.57993">
        <ele>439.8</ele>
        <time>2020-10-19T13:55:16Z</time>
      </trkpt>
      <trkpt lat="46.14292" lon="4.57993">
        <ele>440.2</ele>
        <time>2020-10-19T13:55:17Z</time>
      </trkpt>
      <trkpt lat="46.14294" lon="4.57996">
        <ele>440.2</ele>
        <time>2020-10-19T13:55:18Z</time>
      </trkpt>
      <trkpt lat="46.14294" lon="4.57996">
        <ele>440.2</ele>
        <time>2020-10-19T13:55:19Z</time>
      </trkpt>
      <trkpt lat="46.14296" lon="4.57998">
        <ele>440.4</ele>
        <time>2020-10-19T13:55:20Z</time>
      </trkpt>
      <trkpt lat="46.14296" lon="4.57998">
        <ele>440.8</ele>
        <time>2020-10-19T13:55:21Z</time>
      </trkpt>
      <trkpt lat="46.14298" lon="4.58001">
        <ele>441</ele>
        <time>2020-10-19T13:55:22Z</time>
      </trkpt>
      <trkpt lat="46.14298" lon="4.58001">
        <ele>441</ele>
        <time>2020-10-19T13:55:23Z</time>
      </trkpt>
      <trkpt lat="46.143" lon="4.58003">
        <ele>441.2</ele>
        <time>2020-10-19T13:55:24Z</time>
      </trkpt>
      <trkpt lat="46.143" lon="4.58003">
        <ele>441.6</ele>
        <time>2020-10-19T13:55:25Z</time>
      </trkpt>
      <trkpt lat="46.14302" lon="4.58005">
        <ele>442</ele>
        <time>2020-10-19T13:55:26Z</time>
      </trkpt>
      <trkpt lat="46.14302" lon="4.58005">
        <ele>442.2</ele>
        <time>2020-10-19T13:55:27Z</time>
      </trkpt>
      <trkpt lat="46.14304" lon="4.58006">
        <ele>442.6</ele>
        <time>2020-10-19T13:55:28Z</time>
      </trkpt>
      <trkpt lat="46.14304" lon="4.58006">
        <ele>442.8</ele>
        <time>2020-10-19T13:55:29Z</time>
      </trkpt>
      <trkpt lat="46.14307" lon="4.58007">
        <ele>443</ele>
        <time>2020-10-19T13:55:30Z</time>
      </trkpt>
      <trkpt lat="46.14307" lon="4.58007">
        <ele>443.2</ele>
        <time>2020-10-19T13:55:31Z</time>
      </trkpt>
      <trkpt lat="46.14309" lon="4.58008">
        <ele>443.2</ele>
        <time>2020-10-19T13:55:32Z</time>
      </trkpt>
      <trkpt lat="46.14309" lon="4.58008">
        <ele>443.4</ele>
        <time>2020-10-19T13:55:33Z</time>
      </trkpt>
      <trkpt lat="46.14311" lon="4.58007">
        <ele>443.6</ele>
        <time>2020-10-19T13:55:34Z</time>
      </trkpt>
      <trkpt lat="46.14311" lon="4.58007">
        <ele>443.8</ele>
        <time>2020-10-19T13:55:35Z</time>
      </trkpt>
      <trkpt lat="46.14313" lon="4.58007">
        <ele>444</ele>
        <time>2020-10-19T13:55:36Z</time>
      </trkpt>
      <trkpt lat="46.14313" lon="4.58007">
        <ele>444.2</ele>
        <time>2020-10-19T13:55:37Z</time>
      </trkpt>
      <trkpt lat="46.14316" lon="4.58008">
        <ele>444.4</ele>
        <time>2020-10-19T13:55:38Z</time>
      </trkpt>
      <trkpt lat="46.14316" lon="4.58008">
        <ele>444.6</ele>
        <time>2020-10-19T13:55:39Z</time>
      </trkpt>
      <trkpt lat="46.14319" lon="4.58009">
        <ele>444.6</ele>
        <time>2020-10-19T13:55:40Z</time>
      </trkpt>
      <trkpt lat="46.14319" lon="4.58009">
        <ele>444.6</ele>
        <time>2020-10-19T13:55:41Z</time>
      </trkpt>
      <trkpt lat="46.14321" lon="4.5801">
        <ele>444.2</ele>
        <time>2020-10-19T13:55:42Z</time>
      </trkpt>
      <trkpt lat="46.14321" lon="4.5801">
        <ele>444</ele>
        <time>2020-10-19T13:55:43Z</time>
      </trkpt>
      <trkpt lat="46.14324" lon="4.58011">
        <ele>443.8</ele>
        <time>2020-10-19T13:55:44Z</time>
      </trkpt>
      <trkpt lat="46.14324" lon="4.58011">
        <ele>443.6</ele>
        <time>2020-10-19T13:55:45Z</time>
      </trkpt>
      <trkpt lat="46.14327" lon="4.58011">
        <ele>443.6</ele>
        <time>2020-10-19T13:55:46Z</time>
      </trkpt>
      <trkpt lat="46.14327" lon="4.58011">
        <ele>443.4</ele>
        <time>2020-10-19T13:55:47Z</time>
      </trkpt>
      <trkpt lat="46.1433" lon="4.58011">
        <ele>443.2</ele>
        <time>2020-10-19T13:55:48Z</time>
      </trkpt>
      <trkpt lat="46.1433" lon="4.58011">
        <ele>443</ele>
        <time>2020-10-19T13:55:49Z</time>
      </trkpt>
      <trkpt lat="46.14332" lon="4.58011">
        <ele>443</ele>
        <time>2020-10-19T13:55:50Z</time>
      </trkpt>
      <trkpt lat="46.14332" lon="4.58011">
        <ele>443</ele>
        <time>2020-10-19T13:55:51Z</time>
      </trkpt>
      <trkpt lat="46.14335" lon="4.5801">
        <ele>442.8</ele>
        <time>2020-10-19T13:55:52Z</time>
      </trkpt>
      <trkpt lat="46.14335" lon="4.5801">
        <ele>442.6</ele>
        <time>2020-10-19T13:55:53Z</time>
      </trkpt>
      <trkpt lat="46.14337" lon="4.58009">
        <ele>442.4</ele>
        <time>2020-10-19T13:55:54Z</time>
      </trkpt>
      <trkpt lat="46.14337" lon="4.58009">
        <ele>442.2</ele>
        <time>2020-10-19T13:55:55Z</time>
      </trkpt>
      <trkpt lat="46.1434" lon="4.58008">
        <ele>441.8</ele>
        <time>2020-10-19T13:55:56Z</time>
      </trkpt>
      <trkpt lat="46.1434" lon="4.58008">
        <ele>441.4</ele>
        <time>2020-10-19T13:55:57Z</time>
      </trkpt>
      <trkpt lat="46.14343" lon="4.58006">
        <ele>441.2</ele>
        <time>2020-10-19T13:55:58Z</time>
      </trkpt>
      <trkpt lat="46.14343" lon="4.58006">
        <ele>441</ele>
        <time>2020-10-19T13:55:59Z</time>
      </trkpt>
      <trkpt lat="46.14346" lon="4.58004">
        <ele>440.8</ele>
        <time>2020-10-19T13:56:00Z</time>
      </trkpt>
      <trkpt lat="46.14346" lon="4.58004">
        <ele>440.6</ele>
        <time>2020-10-19T13:56:01Z</time>
      </trkpt>
      <trkpt lat="46.14348" lon="4.58002">
        <ele>440.4</ele>
        <time>2020-10-19T13:56:02Z</time>
      </trkpt>
      <trkpt lat="46.14348" lon="4.58002">
        <ele>440.2</ele>
        <time>2020-10-19T13:56:03Z</time>
      </trkpt>
      <trkpt lat="46.1435" lon="4.57999">
        <ele>440.2</ele>
        <time>2020-10-19T13:56:04Z</time>
      </trkpt>
      <trkpt lat="46.1435" lon="4.57999">
        <ele>440</ele>
        <time>2020-10-19T13:56:05Z</time>
      </trkpt>
      <trkpt lat="46.14352" lon="4.57995">
        <ele>440</ele>
        <time>2020-10-19T13:56:06Z</time>
      </trkpt>
      <trkpt lat="46.14352" lon="4.57995">
        <ele>440</ele>
        <time>2020-10-19T13:56:07Z</time>
      </trkpt>
      <trkpt lat="46.14353" lon="4.57992">
        <ele>440</ele>
        <time>2020-10-19T13:56:08Z</time>
      </trkpt>
      <trkpt lat="46.14353" lon="4.57992">
        <ele>439.8</ele>
        <time>2020-10-19T13:56:09Z</time>
      </trkpt>
      <trkpt lat="46.14355" lon="4.57988">
        <ele>440.2</ele>
        <time>2020-10-19T13:56:10Z</time>
      </trkpt>
      <trkpt lat="46.14355" lon="4.57988">
        <ele>440</ele>
        <time>2020-10-19T13:56:11Z</time>
      </trkpt>
      <trkpt lat="46.14357" lon="4.57985">
        <ele>439.8</ele>
        <time>2020-10-19T13:56:12Z</time>
      </trkpt>
      <trkpt lat="46.14357" lon="4.57985">
        <ele>439.8</ele>
        <time>2020-10-19T13:56:13Z</time>
      </trkpt>
      <trkpt lat="46.14357" lon="4.57985">
        <ele>439.6</ele>
        <time>2020-10-19T13:56:14Z</time>
      </trkpt>
      <trkpt lat="46.14357" lon="4.57985">
        <ele>439.6</ele>
        <time>2020-10-19T13:56:15Z</time>
      </trkpt>
      <trkpt lat="46.14357" lon="4.57985">
        <ele>439.6</ele>
        <time>2020-10-19T13:56:16Z</time>
      </trkpt>
      <trkpt lat="46.14357" lon="4.57985">
        <ele>439.6</ele>
        <time>2020-10-19T13:56:17Z</time>
      </trkpt>
      <trkpt lat="46.14357" lon="4.57985">
        <ele>439.8</ele>
        <time>2020-10-19T13:56:18Z</time>
      </trkpt>
      <trkpt lat="46.14357" lon="4.57985">
        <ele>440.2</ele>
        <time>2020-10-19T13:56:19Z</time>
      </trkpt>
      <trkpt lat="46.14357" lon="4.57985">
        <ele>440.4</ele>
        <time>2020-10-19T13:56:20Z</time>
      </trkpt>
      <trkpt lat="46.14357" lon="4.57985">
        <ele>440.4</ele>
        <time>2020-10-19T13:56:21Z</time>
      </trkpt>
      <trkpt lat="46.14357" lon="4.57985">
        <ele>440.6</ele>
        <time>2020-10-19T13:56:22Z</time>
      </trkpt>
      <trkpt lat="46.14357" lon="4.57985">
        <ele>440.8</ele>
        <time>2020-10-19T13:56:23Z</time>
      </trkpt>
      <trkpt lat="46.14357" lon="4.57985">
        <ele>441</ele>
        <time>2020-10-19T13:56:24Z</time>
      </trkpt>
      <trkpt lat="46.14357" lon="4.57985">
        <ele>441.2</ele>
        <time>2020-10-19T13:56:25Z</time>
      </trkpt>
      <trkpt lat="46.14357" lon="4.57985">
        <ele>441.2</ele>
        <time>2020-10-19T13:56:26Z</time>
      </trkpt>
      <trkpt lat="46.14357" lon="4.57985">
        <ele>441.4</ele>
        <time>2020-10-19T13:56:27Z</time>
      </trkpt>
      <trkpt lat="46.14357" lon="4.57985">
        <ele>441.6</ele>
        <time>2020-10-19T13:56:28Z</time>
      </trkpt>
      <trkpt lat="46.14359" lon="4.57985">
        <ele>441.4</ele>
        <time>2020-10-19T13:56:29Z</time>
      </trkpt>
      <trkpt lat="46.14359" lon="4.57985">
        <ele>441.2</ele>
        <time>2020-10-19T13:56:30Z</time>
      </trkpt>
      <trkpt lat="46.14359" lon="4.57985">
        <ele>440.8</ele>
        <time>2020-10-19T13:56:31Z</time>
      </trkpt>
      <trkpt lat="46.1436" lon="4.57981">
        <ele>440.4</ele>
        <time>2020-10-19T13:56:32Z</time>
      </trkpt>
      <trkpt lat="46.1436" lon="4.57981">
        <ele>440.2</ele>
        <time>2020-10-19T13:56:33Z</time>
      </trkpt>
      <trkpt lat="46.14362" lon="4.57978">
        <ele>439.8</ele>
        <time>2020-10-19T13:56:34Z</time>
      </trkpt>
      <trkpt lat="46.14362" lon="4.57978">
        <ele>439.8</ele>
        <time>2020-10-19T13:56:35Z</time>
      </trkpt>
      <trkpt lat="46.14364" lon="4.57974">
        <ele>439.6</ele>
        <time>2020-10-19T13:56:36Z</time>
      </trkpt>
      <trkpt lat="46.14364" lon="4.57974">
        <ele>439.6</ele>
        <time>2020-10-19T13:56:37Z</time>
      </trkpt>
      <trkpt lat="46.14364" lon="4.57974">
        <ele>440</ele>
        <time>2020-10-19T13:56:38Z</time>
      </trkpt>
      <trkpt lat="46.14364" lon="4.57974">
        <ele>440.2</ele>
        <time>2020-10-19T13:56:39Z</time>
      </trkpt>
      <trkpt lat="46.14364" lon="4.57974">
        <ele>440.4</ele>
        <time>2020-10-19T13:56:40Z</time>
      </trkpt>
      <trkpt lat="46.14365" lon="4.57972">
        <ele>440.6</ele>
        <time>2020-10-19T13:56:41Z</time>
      </trkpt>
      <trkpt lat="46.14365" lon="4.57972">
        <ele>440.4</ele>
        <time>2020-10-19T13:56:42Z</time>
      </trkpt>
      <trkpt lat="46.14367" lon="4.5797">
        <ele>440.2</ele>
        <time>2020-10-19T13:56:43Z</time>
      </trkpt>
      <trkpt lat="46.14367" lon="4.5797">
        <ele>440</ele>
        <time>2020-10-19T13:56:44Z</time>
      </trkpt>
      <trkpt lat="46.14369" lon="4.57968">
        <ele>440</ele>
        <time>2020-10-19T13:56:45Z</time>
      </trkpt>
      <trkpt lat="46.14369" lon="4.57968">
        <ele>440.4</ele>
        <time>2020-10-19T13:56:46Z</time>
      </trkpt>
      <trkpt lat="46.14369" lon="4.57968">
        <ele>440.4</ele>
        <time>2020-10-19T13:56:47Z</time>
      </trkpt>
      <trkpt lat="46.14369" lon="4.57968">
        <ele>440.6</ele>
        <time>2020-10-19T13:56:48Z</time>
      </trkpt>
      <trkpt lat="46.14369" lon="4.57968">
        <ele>440.6</ele>
        <time>2020-10-19T13:56:49Z</time>
      </trkpt>
      <trkpt lat="46.14369" lon="4.57968">
        <ele>440.6</ele>
        <time>2020-10-19T13:56:50Z</time>
      </trkpt>
      <trkpt lat="46.14369" lon="4.57968">
        <ele>440.6</ele>
        <time>2020-10-19T13:56:51Z</time>
      </trkpt>
      <trkpt lat="46.14369" lon="4.57968">
        <ele>440.8</ele>
        <time>2020-10-19T13:56:52Z</time>
      </trkpt>
      <trkpt lat="46.1437" lon="4.57966">
        <ele>440.2</ele>
        <time>2020-10-19T13:56:53Z</time>
      </trkpt>
      <trkpt lat="46.1437" lon="4.57966">
        <ele>439.8</ele>
        <time>2020-10-19T13:56:54Z</time>
      </trkpt>
      <trkpt lat="46.14372" lon="4.57963">
        <ele>439.6</ele>
        <time>2020-10-19T13:56:55Z</time>
      </trkpt>
      <trkpt lat="46.14372" lon="4.57963">
        <ele>439.6</ele>
        <time>2020-10-19T13:56:56Z</time>
      </trkpt>
      <trkpt lat="46.14374" lon="4.5796">
        <ele>439.4</ele>
        <time>2020-10-19T13:56:57Z</time>
      </trkpt>
      <trkpt lat="46.14374" lon="4.5796">
        <ele>439</ele>
        <time>2020-10-19T13:56:58Z</time>
      </trkpt>
      <trkpt lat="46.14376" lon="4.57956">
        <ele>439.2</ele>
        <time>2020-10-19T13:56:59Z</time>
      </trkpt>
      <trkpt lat="46.14376" lon="4.57956">
        <ele>439.2</ele>
        <time>2020-10-19T13:57:00Z</time>
      </trkpt>
      <trkpt lat="46.14378" lon="4.57953">
        <ele>439.4</ele>
        <time>2020-10-19T13:57:01Z</time>
      </trkpt>
      <trkpt lat="46.14378" lon="4.57953">
        <ele>439.4</ele>
        <time>2020-10-19T13:57:02Z</time>
      </trkpt>
      <trkpt lat="46.14379" lon="4.5795">
        <ele>439.4</ele>
        <time>2020-10-19T13:57:03Z</time>
      </trkpt>
      <trkpt lat="46.14379" lon="4.5795">
        <ele>439.4</ele>
        <time>2020-10-19T13:57:04Z</time>
      </trkpt>
      <trkpt lat="46.14381" lon="4.57947">
        <ele>439.4</ele>
        <time>2020-10-19T13:57:05Z</time>
      </trkpt>
      <trkpt lat="46.14381" lon="4.57947">
        <ele>439.2</ele>
        <time>2020-10-19T13:57:06Z</time>
      </trkpt>
      <trkpt lat="46.14382" lon="4.57944">
        <ele>439</ele>
        <time>2020-10-19T13:57:07Z</time>
      </trkpt>
      <trkpt lat="46.14382" lon="4.57944">
        <ele>439</ele>
        <time>2020-10-19T13:57:08Z</time>
      </trkpt>
      <trkpt lat="46.14384" lon="4.5794">
        <ele>439</ele>
        <time>2020-10-19T13:57:09Z</time>
      </trkpt>
      <trkpt lat="46.14384" lon="4.5794">
        <ele>439</ele>
        <time>2020-10-19T13:57:10Z</time>
      </trkpt>
      <trkpt lat="46.14385" lon="4.57936">
        <ele>439</ele>
        <time>2020-10-19T13:57:11Z</time>
      </trkpt>
      <trkpt lat="46.14385" lon="4.57936">
        <ele>439.4</ele>
        <time>2020-10-19T13:57:12Z</time>
      </trkpt>
      <trkpt lat="46.14387" lon="4.57932">
        <ele>439.2</ele>
        <time>2020-10-19T13:57:13Z</time>
      </trkpt>
      <trkpt lat="46.14387" lon="4.57932">
        <ele>439.2</ele>
        <time>2020-10-19T13:57:14Z</time>
      </trkpt>
      <trkpt lat="46.14389" lon="4.57928">
        <ele>439.4</ele>
        <time>2020-10-19T13:57:15Z</time>
      </trkpt>
      <trkpt lat="46.14389" lon="4.57928">
        <ele>439.4</ele>
        <time>2020-10-19T13:57:16Z</time>
      </trkpt>
      <trkpt lat="46.1439" lon="4.57925">
        <ele>439.6</ele>
        <time>2020-10-19T13:57:17Z</time>
      </trkpt>
      <trkpt lat="46.1439" lon="4.57925">
        <ele>439.6</ele>
        <time>2020-10-19T13:57:18Z</time>
      </trkpt>
      <trkpt lat="46.14392" lon="4.57922">
        <ele>439.4</ele>
        <time>2020-10-19T13:57:19Z</time>
      </trkpt>
      <trkpt lat="46.14392" lon="4.57922">
        <ele>439.8</ele>
        <time>2020-10-19T13:57:20Z</time>
      </trkpt>
      <trkpt lat="46.14393" lon="4.57919">
        <ele>440.2</ele>
        <time>2020-10-19T13:57:21Z</time>
      </trkpt>
      <trkpt lat="46.14393" lon="4.57919">
        <ele>440</ele>
        <time>2020-10-19T13:57:22Z</time>
      </trkpt>
      <trkpt lat="46.14395" lon="4.57915">
        <ele>440.4</ele>
        <time>2020-10-19T13:57:23Z</time>
      </trkpt>
      <trkpt lat="46.14395" lon="4.57915">
        <ele>440.4</ele>
        <time>2020-10-19T13:57:24Z</time>
      </trkpt>
      <trkpt lat="46.14396" lon="4.57912">
        <ele>440.4</ele>
        <time>2020-10-19T13:57:25Z</time>
      </trkpt>
      <trkpt lat="46.14396" lon="4.57912">
        <ele>440.4</ele>
        <time>2020-10-19T13:57:26Z</time>
      </trkpt>
      <trkpt lat="46.14398" lon="4.57909">
        <ele>440.6</ele>
        <time>2020-10-19T13:57:27Z</time>
      </trkpt>
      <trkpt lat="46.14398" lon="4.57909">
        <ele>440.6</ele>
        <time>2020-10-19T13:57:28Z</time>
      </trkpt>
      <trkpt lat="46.144" lon="4.57906">
        <ele>441</ele>
        <time>2020-10-19T13:57:29Z</time>
      </trkpt>
      <trkpt lat="46.144" lon="4.57906">
        <ele>441.2</ele>
        <time>2020-10-19T13:57:30Z</time>
      </trkpt>
      <trkpt lat="46.14402" lon="4.57903">
        <ele>441.4</ele>
        <time>2020-10-19T13:57:31Z</time>
      </trkpt>
      <trkpt lat="46.14402" lon="4.57903">
        <ele>441.6</ele>
        <time>2020-10-19T13:57:32Z</time>
      </trkpt>
      <trkpt lat="46.14404" lon="4.57901">
        <ele>441.8</ele>
        <time>2020-10-19T13:57:33Z</time>
      </trkpt>
      <trkpt lat="46.14404" lon="4.57901">
        <ele>442</ele>
        <time>2020-10-19T13:57:34Z</time>
      </trkpt>
      <trkpt lat="46.14406" lon="4.57898">
        <ele>442.2</ele>
        <time>2020-10-19T13:57:35Z</time>
      </trkpt>
      <trkpt lat="46.14406" lon="4.57898">
        <ele>442.4</ele>
        <time>2020-10-19T13:57:36Z</time>
      </trkpt>
      <trkpt lat="46.14408" lon="4.57895">
        <ele>442.4</ele>
        <time>2020-10-19T13:57:37Z</time>
      </trkpt>
      <trkpt lat="46.14408" lon="4.57895">
        <ele>442.6</ele>
        <time>2020-10-19T13:57:38Z</time>
      </trkpt>
      <trkpt lat="46.14409" lon="4.57892">
        <ele>442.8</ele>
        <time>2020-10-19T13:57:39Z</time>
      </trkpt>
      <trkpt lat="46.14409" lon="4.57892">
        <ele>443</ele>
        <time>2020-10-19T13:57:40Z</time>
      </trkpt>
      <trkpt lat="46.14412" lon="4.5789">
        <ele>443</ele>
        <time>2020-10-19T13:57:41Z</time>
      </trkpt>
      <trkpt lat="46.14412" lon="4.5789">
        <ele>443</ele>
        <time>2020-10-19T13:57:42Z</time>
      </trkpt>
      <trkpt lat="46.14414" lon="4.57887">
        <ele>443.4</ele>
        <time>2020-10-19T13:57:43Z</time>
      </trkpt>
      <trkpt lat="46.14414" lon="4.57887">
        <ele>443.6</ele>
        <time>2020-10-19T13:57:44Z</time>
      </trkpt>
      <trkpt lat="46.14416" lon="4.57885">
        <ele>443.6</ele>
        <time>2020-10-19T13:57:45Z</time>
      </trkpt>
      <trkpt lat="46.14416" lon="4.57885">
        <ele>443.6</ele>
        <time>2020-10-19T13:57:46Z</time>
      </trkpt>
      <trkpt lat="46.14418" lon="4.57883">
        <ele>443.6</ele>
        <time>2020-10-19T13:57:47Z</time>
      </trkpt>
      <trkpt lat="46.14418" lon="4.57883">
        <ele>443.8</ele>
        <time>2020-10-19T13:57:48Z</time>
      </trkpt>
      <trkpt lat="46.1442" lon="4.5788">
        <ele>444</ele>
        <time>2020-10-19T13:57:49Z</time>
      </trkpt>
      <trkpt lat="46.1442" lon="4.5788">
        <ele>444</ele>
        <time>2020-10-19T13:57:50Z</time>
      </trkpt>
      <trkpt lat="46.14422" lon="4.57877">
        <ele>444</ele>
        <time>2020-10-19T13:57:51Z</time>
      </trkpt>
      <trkpt lat="46.14422" lon="4.57877">
        <ele>444.2</ele>
        <time>2020-10-19T13:57:52Z</time>
      </trkpt>
      <trkpt lat="46.14425" lon="4.57875">
        <ele>444.2</ele>
        <time>2020-10-19T13:57:53Z</time>
      </trkpt>
      <trkpt lat="46.14425" lon="4.57875">
        <ele>444.2</ele>
        <time>2020-10-19T13:57:54Z</time>
      </trkpt>
      <trkpt lat="46.14427" lon="4.57874">
        <ele>444.4</ele>
        <time>2020-10-19T13:57:55Z</time>
      </trkpt>
      <trkpt lat="46.14427" lon="4.57874">
        <ele>444.4</ele>
        <time>2020-10-19T13:57:56Z</time>
      </trkpt>
      <trkpt lat="46.14429" lon="4.57872">
        <ele>444.6</ele>
        <time>2020-10-19T13:57:57Z</time>
      </trkpt>
      <trkpt lat="46.14429" lon="4.57872">
        <ele>444.6</ele>
        <time>2020-10-19T13:57:58Z</time>
      </trkpt>
      <trkpt lat="46.14432" lon="4.57871">
        <ele>444.8</ele>
        <time>2020-10-19T13:57:59Z</time>
      </trkpt>
      <trkpt lat="46.14432" lon="4.57871">
        <ele>444.6</ele>
        <time>2020-10-19T13:58:00Z</time>
      </trkpt>
      <trkpt lat="46.14435" lon="4.5787">
        <ele>444.6</ele>
        <time>2020-10-19T13:58:01Z</time>
      </trkpt>
      <trkpt lat="46.14435" lon="4.5787">
        <ele>444.6</ele>
        <time>2020-10-19T13:58:02Z</time>
      </trkpt>
      <trkpt lat="46.14437" lon="4.5787">
        <ele>444.8</ele>
        <time>2020-10-19T13:58:03Z</time>
      </trkpt>
      <trkpt lat="46.14437" lon="4.5787">
        <ele>445</ele>
        <time>2020-10-19T13:58:04Z</time>
      </trkpt>
      <trkpt lat="46.14437" lon="4.5787">
        <ele>445</ele>
        <time>2020-10-19T13:58:05Z</time>
      </trkpt>
      <trkpt lat="46.14437" lon="4.5787">
        <ele>445.4</ele>
        <time>2020-10-19T13:58:06Z</time>
      </trkpt>
      <trkpt lat="46.14437" lon="4.5787">
        <ele>445.6</ele>
        <time>2020-10-19T13:58:07Z</time>
      </trkpt>
      <trkpt lat="46.14437" lon="4.5787">
        <ele>445.6</ele>
        <time>2020-10-19T13:58:08Z</time>
      </trkpt>
      <trkpt lat="46.14437" lon="4.5787">
        <ele>445.8</ele>
        <time>2020-10-19T13:58:09Z</time>
      </trkpt>
      <trkpt lat="46.14437" lon="4.5787">
        <ele>446</ele>
        <time>2020-10-19T13:58:10Z</time>
      </trkpt>
      <trkpt lat="46.14437" lon="4.5787">
        <ele>446.2</ele>
        <time>2020-10-19T13:58:11Z</time>
      </trkpt>
      <trkpt lat="46.14437" lon="4.5787">
        <ele>446.2</ele>
        <time>2020-10-19T13:58:12Z</time>
      </trkpt>
      <trkpt lat="46.14437" lon="4.5787">
        <ele>446.4</ele>
        <time>2020-10-19T13:58:13Z</time>
      </trkpt>
      <trkpt lat="46.14437" lon="4.5787">
        <ele>446.6</ele>
        <time>2020-10-19T13:58:14Z</time>
      </trkpt>
      <trkpt lat="46.14437" lon="4.5787">
        <ele>446.8</ele>
        <time>2020-10-19T13:58:15Z</time>
      </trkpt>
      <trkpt lat="46.14437" lon="4.5787">
        <ele>447</ele>
        <time>2020-10-19T13:58:16Z</time>
      </trkpt>
      <trkpt lat="46.14437" lon="4.5787">
        <ele>446.8</ele>
        <time>2020-10-19T13:58:17Z</time>
      </trkpt>
      <trkpt lat="46.14437" lon="4.5787">
        <ele>447</ele>
        <time>2020-10-19T13:58:18Z</time>
      </trkpt>
      <trkpt lat="46.14437" lon="4.5787">
        <ele>447</ele>
        <time>2020-10-19T13:58:19Z</time>
      </trkpt>
      <trkpt lat="46.14437" lon="4.5787">
        <ele>447</ele>
        <time>2020-10-19T13:58:20Z</time>
      </trkpt>
      <trkpt lat="46.14438" lon="4.57873">
        <ele>447</ele>
        <time>2020-10-19T13:58:21Z</time>
      </trkpt>
      <trkpt lat="46.14438" lon="4.57873">
        <ele>447</ele>
        <time>2020-10-19T13:58:22Z</time>
      </trkpt>
      <trkpt lat="46.14438" lon="4.57873">
        <ele>446.8</ele>
        <time>2020-10-19T13:58:23Z</time>
      </trkpt>
      <trkpt lat="46.14438" lon="4.57873">
        <ele>447</ele>
        <time>2020-10-19T13:58:24Z</time>
      </trkpt>
      <trkpt lat="46.14438" lon="4.57873">
        <ele>447.2</ele>
        <time>2020-10-19T13:58:25Z</time>
      </trkpt>
      <trkpt lat="46.14438" lon="4.57873">
        <ele>447.2</ele>
        <time>2020-10-19T13:58:26Z</time>
      </trkpt>
      <trkpt lat="46.14438" lon="4.57873">
        <ele>447.2</ele>
        <time>2020-10-19T13:58:27Z</time>
      </trkpt>
      <trkpt lat="46.14438" lon="4.57873">
        <ele>447.2</ele>
        <time>2020-10-19T13:58:28Z</time>
      </trkpt>
      <trkpt lat="46.14438" lon="4.57873">
        <ele>447.2</ele>
        <time>2020-10-19T13:58:29Z</time>
      </trkpt>
      <trkpt lat="46.14438" lon="4.57873">
        <ele>447</ele>
        <time>2020-10-19T13:58:30Z</time>
      </trkpt>
      <trkpt lat="46.14438" lon="4.57873">
        <ele>447</ele>
        <time>2020-10-19T13:58:31Z</time>
      </trkpt>
      <trkpt lat="46.14438" lon="4.57873">
        <ele>447</ele>
        <time>2020-10-19T13:58:32Z</time>
      </trkpt>
      <trkpt lat="46.14438" lon="4.57873">
        <ele>447</ele>
        <time>2020-10-19T13:58:33Z</time>
      </trkpt>
      <trkpt lat="46.14438" lon="4.57873">
        <ele>447</ele>
        <time>2020-10-19T13:58:34Z</time>
      </trkpt>
      <trkpt lat="46.14438" lon="4.57873">
        <ele>446.8</ele>
        <time>2020-10-19T13:58:35Z</time>
      </trkpt>
      <trkpt lat="46.14438" lon="4.57873">
        <ele>446.8</ele>
        <time>2020-10-19T13:58:36Z</time>
      </trkpt>
      <trkpt lat="46.14438" lon="4.57873">
        <ele>446.8</ele>
        <time>2020-10-19T13:58:37Z</time>
      </trkpt>
      <trkpt lat="46.14438" lon="4.57873">
        <ele>446.8</ele>
        <time>2020-10-19T13:58:38Z</time>
      </trkpt>
      <trkpt lat="46.14438" lon="4.57873">
        <ele>446.8</ele>
        <time>2020-10-19T13:58:39Z</time>
      </trkpt>
      <trkpt lat="46.14438" lon="4.57873">
        <ele>446.8</ele>
        <time>2020-10-19T13:58:40Z</time>
      </trkpt>
      <trkpt lat="46.1444" lon="4.57873">
        <ele>446.8</ele>
        <time>2020-10-19T13:58:41Z</time>
      </trkpt>
      <trkpt lat="46.1444" lon="4.57873">
        <ele>446.8</ele>
        <time>2020-10-19T13:58:42Z</time>
      </trkpt>
      <trkpt lat="46.14442" lon="4.57874">
        <ele>446.8</ele>
        <time>2020-10-19T13:58:43Z</time>
      </trkpt>
      <trkpt lat="46.14442" lon="4.57874">
        <ele>447</ele>
        <time>2020-10-19T13:58:44Z</time>
      </trkpt>
      <trkpt lat="46.14445" lon="4.57874">
        <ele>447</ele>
        <time>2020-10-19T13:58:45Z</time>
      </trkpt>
      <trkpt lat="46.14445" lon="4.57874">
        <ele>447.2</ele>
        <time>2020-10-19T13:58:46Z</time>
      </trkpt>
      <trkpt lat="46.14448" lon="4.57875">
        <ele>447</ele>
        <time>2020-10-19T13:58:47Z</time>
      </trkpt>
      <trkpt lat="46.14448" lon="4.57875">
        <ele>447</ele>
        <time>2020-10-19T13:58:48Z</time>
      </trkpt>
      <trkpt lat="46.14451" lon="4.57876">
        <ele>446.6</ele>
        <time>2020-10-19T13:58:49Z</time>
      </trkpt>
      <trkpt lat="46.14451" lon="4.57876">
        <ele>446.6</ele>
        <time>2020-10-19T13:58:50Z</time>
      </trkpt>
      <trkpt lat="46.14454" lon="4.57877">
        <ele>446.6</ele>
        <time>2020-10-19T13:58:51Z</time>
      </trkpt>
      <trkpt lat="46.14454" lon="4.57877">
        <ele>446.6</ele>
        <time>2020-10-19T13:58:52Z</time>
      </trkpt>
      <trkpt lat="46.14456" lon="4.57878">
        <ele>446.6</ele>
        <time>2020-10-19T13:58:53Z</time>
      </trkpt>
      <trkpt lat="46.14456" lon="4.57878">
        <ele>446.8</ele>
        <time>2020-10-19T13:58:54Z</time>
      </trkpt>
      <trkpt lat="46.14459" lon="4.57879">
        <ele>446.8</ele>
        <time>2020-10-19T13:58:55Z</time>
      </trkpt>
      <trkpt lat="46.14459" lon="4.57879">
        <ele>446.8</ele>
        <time>2020-10-19T13:58:56Z</time>
      </trkpt>
      <trkpt lat="46.14462" lon="4.5788">
        <ele>447</ele>
        <time>2020-10-19T13:58:57Z</time>
      </trkpt>
      <trkpt lat="46.14462" lon="4.5788">
        <ele>447</ele>
        <time>2020-10-19T13:58:58Z</time>
      </trkpt>
      <trkpt lat="46.14464" lon="4.57882">
        <ele>446.8</ele>
        <time>2020-10-19T13:58:59Z</time>
      </trkpt>
      <trkpt lat="46.14464" lon="4.57882">
        <ele>447</ele>
        <time>2020-10-19T13:59:00Z</time>
      </trkpt>
      <trkpt lat="46.14467" lon="4.57883">
        <ele>446.8</ele>
        <time>2020-10-19T13:59:01Z</time>
      </trkpt>
      <trkpt lat="46.14467" lon="4.57883">
        <ele>447</ele>
        <time>2020-10-19T13:59:02Z</time>
      </trkpt>
      <trkpt lat="46.1447" lon="4.57886">
        <ele>446.8</ele>
        <time>2020-10-19T13:59:03Z</time>
      </trkpt>
      <trkpt lat="46.1447" lon="4.57886">
        <ele>447</ele>
        <time>2020-10-19T13:59:04Z</time>
      </trkpt>
      <trkpt lat="46.14472" lon="4.57888">
        <ele>447</ele>
        <time>2020-10-19T13:59:05Z</time>
      </trkpt>
      <trkpt lat="46.14472" lon="4.57888">
        <ele>447</ele>
        <time>2020-10-19T13:59:06Z</time>
      </trkpt>
      <trkpt lat="46.14475" lon="4.57891">
        <ele>447</ele>
        <time>2020-10-19T13:59:07Z</time>
      </trkpt>
      <trkpt lat="46.14475" lon="4.57891">
        <ele>447</ele>
        <time>2020-10-19T13:59:08Z</time>
      </trkpt>
      <trkpt lat="46.14477" lon="4.57893">
        <ele>447.2</ele>
        <time>2020-10-19T13:59:09Z</time>
      </trkpt>
      <trkpt lat="46.14477" lon="4.57893">
        <ele>447.2</ele>
        <time>2020-10-19T13:59:10Z</time>
      </trkpt>
      <trkpt lat="46.14479" lon="4.57897">
        <ele>447.4</ele>
        <time>2020-10-19T13:59:11Z</time>
      </trkpt>
      <trkpt lat="46.14479" lon="4.57897">
        <ele>447.6</ele>
        <time>2020-10-19T13:59:12Z</time>
      </trkpt>
      <trkpt lat="46.14481" lon="4.57901">
        <ele>447.6</ele>
        <time>2020-10-19T13:59:13Z</time>
      </trkpt>
      <trkpt lat="46.14481" lon="4.57901">
        <ele>447.6</ele>
        <time>2020-10-19T13:59:14Z</time>
      </trkpt>
      <trkpt lat="46.14483" lon="4.57905">
        <ele>447.6</ele>
        <time>2020-10-19T13:59:15Z</time>
      </trkpt>
      <trkpt lat="46.14483" lon="4.57905">
        <ele>447.6</ele>
        <time>2020-10-19T13:59:16Z</time>
      </trkpt>
      <trkpt lat="46.14485" lon="4.57908">
        <ele>447.8</ele>
        <time>2020-10-19T13:59:17Z</time>
      </trkpt>
      <trkpt lat="46.14485" lon="4.57908">
        <ele>447.8</ele>
        <time>2020-10-19T13:59:18Z</time>
      </trkpt>
      <trkpt lat="46.14487" lon="4.57911">
        <ele>447.8</ele>
        <time>2020-10-19T13:59:19Z</time>
      </trkpt>
      <trkpt lat="46.14487" lon="4.57911">
        <ele>447.6</ele>
        <time>2020-10-19T13:59:20Z</time>
      </trkpt>
      <trkpt lat="46.14489" lon="4.57915">
        <ele>447.6</ele>
        <time>2020-10-19T13:59:21Z</time>
      </trkpt>
      <trkpt lat="46.14489" lon="4.57915">
        <ele>447.6</ele>
        <time>2020-10-19T13:59:22Z</time>
      </trkpt>
      <trkpt lat="46.14491" lon="4.57918">
        <ele>447.4</ele>
        <time>2020-10-19T13:59:23Z</time>
      </trkpt>
      <trkpt lat="46.14491" lon="4.57918">
        <ele>447.2</ele>
        <time>2020-10-19T13:59:24Z</time>
      </trkpt>
      <trkpt lat="46.14492" lon="4.57922">
        <ele>447.2</ele>
        <time>2020-10-19T13:59:25Z</time>
      </trkpt>
      <trkpt lat="46.14492" lon="4.57922">
        <ele>447.4</ele>
        <time>2020-10-19T13:59:26Z</time>
      </trkpt>
      <trkpt lat="46.14494" lon="4.57926">
        <ele>447.8</ele>
        <time>2020-10-19T13:59:27Z</time>
      </trkpt>
      <trkpt lat="46.14494" lon="4.57926">
        <ele>447.8</ele>
        <time>2020-10-19T13:59:28Z</time>
      </trkpt>
      <trkpt lat="46.14496" lon="4.57929">
        <ele>447.8</ele>
        <time>2020-10-19T13:59:29Z</time>
      </trkpt>
      <trkpt lat="46.14496" lon="4.57929">
        <ele>447.8</ele>
        <time>2020-10-19T13:59:30Z</time>
      </trkpt>
      <trkpt lat="46.14498" lon="4.57933">
        <ele>448</ele>
        <time>2020-10-19T13:59:31Z</time>
      </trkpt>
      <trkpt lat="46.14498" lon="4.57933">
        <ele>448</ele>
        <time>2020-10-19T13:59:32Z</time>
      </trkpt>
      <trkpt lat="46.14499" lon="4.57936">
        <ele>447.8</ele>
        <time>2020-10-19T13:59:33Z</time>
      </trkpt>
      <trkpt lat="46.14499" lon="4.57936">
        <ele>448</ele>
        <time>2020-10-19T13:59:34Z</time>
      </trkpt>
      <trkpt lat="46.14501" lon="4.57939">
        <ele>448</ele>
        <time>2020-10-19T13:59:35Z</time>
      </trkpt>
      <trkpt lat="46.14501" lon="4.57939">
        <ele>448.2</ele>
        <time>2020-10-19T13:59:36Z</time>
      </trkpt>
      <trkpt lat="46.14502" lon="4.57943">
        <ele>448.2</ele>
        <time>2020-10-19T13:59:37Z</time>
      </trkpt>
      <trkpt lat="46.14502" lon="4.57943">
        <ele>448.2</ele>
        <time>2020-10-19T13:59:38Z</time>
      </trkpt>
      <trkpt lat="46.14504" lon="4.57946">
        <ele>448.2</ele>
        <time>2020-10-19T13:59:39Z</time>
      </trkpt>
      <trkpt lat="46.14504" lon="4.57946">
        <ele>448.4</ele>
        <time>2020-10-19T13:59:40Z</time>
      </trkpt>
      <trkpt lat="46.14505" lon="4.5795">
        <ele>448.6</ele>
        <time>2020-10-19T13:59:41Z</time>
      </trkpt>
      <trkpt lat="46.14505" lon="4.5795">
        <ele>448.4</ele>
        <time>2020-10-19T13:59:42Z</time>
      </trkpt>
      <trkpt lat="46.14506" lon="4.57953">
        <ele>448.6</ele>
        <time>2020-10-19T13:59:43Z</time>
      </trkpt>
      <trkpt lat="46.14506" lon="4.57953">
        <ele>448.6</ele>
        <time>2020-10-19T13:59:44Z</time>
      </trkpt>
      <trkpt lat="46.14508" lon="4.57956">
        <ele>448.8</ele>
        <time>2020-10-19T13:59:45Z</time>
      </trkpt>
      <trkpt lat="46.14508" lon="4.57956">
        <ele>448.8</ele>
        <time>2020-10-19T13:59:46Z</time>
      </trkpt>
      <trkpt lat="46.14509" lon="4.57959">
        <ele>449</ele>
        <time>2020-10-19T13:59:47Z</time>
      </trkpt>
      <trkpt lat="46.14509" lon="4.57959">
        <ele>449.2</ele>
        <time>2020-10-19T13:59:48Z</time>
      </trkpt>
      <trkpt lat="46.14511" lon="4.57962">
        <ele>449.4</ele>
        <time>2020-10-19T13:59:49Z</time>
      </trkpt>
      <trkpt lat="46.14511" lon="4.57962">
        <ele>449.4</ele>
        <time>2020-10-19T13:59:50Z</time>
      </trkpt>
      <trkpt lat="46.14513" lon="4.57966">
        <ele>449.6</ele>
        <time>2020-10-19T13:59:51Z</time>
      </trkpt>
      <trkpt lat="46.14513" lon="4.57966">
        <ele>449.6</ele>
        <time>2020-10-19T13:59:52Z</time>
      </trkpt>
      <trkpt lat="46.14515" lon="4.57969">
        <ele>449.8</ele>
        <time>2020-10-19T13:59:53Z</time>
      </trkpt>
      <trkpt lat="46.14515" lon="4.57969">
        <ele>449.6</ele>
        <time>2020-10-19T13:59:54Z</time>
      </trkpt>
      <trkpt lat="46.14516" lon="4.57973">
        <ele>449.8</ele>
        <time>2020-10-19T13:59:55Z</time>
      </trkpt>
      <trkpt lat="46.14516" lon="4.57973">
        <ele>449.8</ele>
        <time>2020-10-19T13:59:56Z</time>
      </trkpt>
      <trkpt lat="46.14518" lon="4.57976">
        <ele>449.8</ele>
        <time>2020-10-19T13:59:57Z</time>
      </trkpt>
      <trkpt lat="46.14518" lon="4.57976">
        <ele>450</ele>
        <time>2020-10-19T13:59:58Z</time>
      </trkpt>
      <trkpt lat="46.14519" lon="4.5798">
        <ele>450</ele>
        <time>2020-10-19T13:59:59Z</time>
      </trkpt>
      <trkpt lat="46.14521" lon="4.57983">
        <ele>450.2</ele>
        <time>2020-10-19T14:00:01Z</time>
      </trkpt>
      <trkpt lat="46.14521" lon="4.57983">
        <ele>450.2</ele>
        <time>2020-10-19T14:00:02Z</time>
      </trkpt>
      <trkpt lat="46.14522" lon="4.57987">
        <ele>450.2</ele>
        <time>2020-10-19T14:00:03Z</time>
      </trkpt>
      <trkpt lat="46.14522" lon="4.57987">
        <ele>450.4</ele>
        <time>2020-10-19T14:00:04Z</time>
      </trkpt>
      <trkpt lat="46.14524" lon="4.5799">
        <ele>450.6</ele>
        <time>2020-10-19T14:00:05Z</time>
      </trkpt>
      <trkpt lat="46.14524" lon="4.5799">
        <ele>450.8</ele>
        <time>2020-10-19T14:00:06Z</time>
      </trkpt>
      <trkpt lat="46.14525" lon="4.57993">
        <ele>450.8</ele>
        <time>2020-10-19T14:00:07Z</time>
      </trkpt>
      <trkpt lat="46.14525" lon="4.57993">
        <ele>450.8</ele>
        <time>2020-10-19T14:00:08Z</time>
      </trkpt>
      <trkpt lat="46.14527" lon="4.57996">
        <ele>450.8</ele>
        <time>2020-10-19T14:00:09Z</time>
      </trkpt>
      <trkpt lat="46.14527" lon="4.57996">
        <ele>450.8</ele>
        <time>2020-10-19T14:00:10Z</time>
      </trkpt>
      <trkpt lat="46.14528" lon="4.58">
        <ele>450.8</ele>
        <time>2020-10-19T14:00:11Z</time>
      </trkpt>
      <trkpt lat="46.14528" lon="4.58">
        <ele>451.2</ele>
        <time>2020-10-19T14:00:12Z</time>
      </trkpt>
      <trkpt lat="46.14529" lon="4.58003">
        <ele>451.2</ele>
        <time>2020-10-19T14:00:13Z</time>
      </trkpt>
      <trkpt lat="46.14529" lon="4.58003">
        <ele>451.4</ele>
        <time>2020-10-19T14:00:14Z</time>
      </trkpt>
      <trkpt lat="46.14531" lon="4.58007">
        <ele>451.6</ele>
        <time>2020-10-19T14:00:15Z</time>
      </trkpt>
      <trkpt lat="46.14531" lon="4.58007">
        <ele>451.8</ele>
        <time>2020-10-19T14:00:16Z</time>
      </trkpt>
      <trkpt lat="46.14532" lon="4.5801">
        <ele>452</ele>
        <time>2020-10-19T14:00:17Z</time>
      </trkpt>
      <trkpt lat="46.14532" lon="4.5801">
        <ele>452</ele>
        <time>2020-10-19T14:00:18Z</time>
      </trkpt>
      <trkpt lat="46.14534" lon="4.58014">
        <ele>452</ele>
        <time>2020-10-19T14:00:19Z</time>
      </trkpt>
      <trkpt lat="46.14534" lon="4.58014">
        <ele>452</ele>
        <time>2020-10-19T14:00:20Z</time>
      </trkpt>
      <trkpt lat="46.14535" lon="4.58017">
        <ele>452.2</ele>
        <time>2020-10-19T14:00:21Z</time>
      </trkpt>
      <trkpt lat="46.14535" lon="4.58017">
        <ele>452.4</ele>
        <time>2020-10-19T14:00:22Z</time>
      </trkpt>
      <trkpt lat="46.14537" lon="4.5802">
        <ele>452.6</ele>
        <time>2020-10-19T14:00:23Z</time>
      </trkpt>
      <trkpt lat="46.14537" lon="4.5802">
        <ele>452.6</ele>
        <time>2020-10-19T14:00:24Z</time>
      </trkpt>
      <trkpt lat="46.1454" lon="4.58022">
        <ele>452.8</ele>
        <time>2020-10-19T14:00:25Z</time>
      </trkpt>
      <trkpt lat="46.1454" lon="4.58022">
        <ele>452.6</ele>
        <time>2020-10-19T14:00:26Z</time>
      </trkpt>
      <trkpt lat="46.14542" lon="4.58024">
        <ele>452.6</ele>
        <time>2020-10-19T14:00:27Z</time>
      </trkpt>
      <trkpt lat="46.14542" lon="4.58024">
        <ele>452.6</ele>
        <time>2020-10-19T14:00:28Z</time>
      </trkpt>
      <trkpt lat="46.14544" lon="4.58026">
        <ele>452.4</ele>
        <time>2020-10-19T14:00:29Z</time>
      </trkpt>
      <trkpt lat="46.14546" lon="4.58028">
        <ele>452.2</ele>
        <time>2020-10-19T14:00:31Z</time>
      </trkpt>
      <trkpt lat="46.14546" lon="4.58028">
        <ele>452.2</ele>
        <time>2020-10-19T14:00:32Z</time>
      </trkpt>
      <trkpt lat="46.14549" lon="4.58029">
        <ele>452.2</ele>
        <time>2020-10-19T14:00:33Z</time>
      </trkpt>
      <trkpt lat="46.14549" lon="4.58029">
        <ele>451.8</ele>
        <time>2020-10-19T14:00:34Z</time>
      </trkpt>
      <trkpt lat="46.14552" lon="4.58031">
        <ele>451.8</ele>
        <time>2020-10-19T14:00:35Z</time>
      </trkpt>
      <trkpt lat="46.14552" lon="4.58031">
        <ele>452</ele>
        <time>2020-10-19T14:00:36Z</time>
      </trkpt>
      <trkpt lat="46.14555" lon="4.58033">
        <ele>452</ele>
        <time>2020-10-19T14:00:37Z</time>
      </trkpt>
      <trkpt lat="46.14555" lon="4.58033">
        <ele>452</ele>
        <time>2020-10-19T14:00:38Z</time>
      </trkpt>
      <trkpt lat="46.14558" lon="4.58035">
        <ele>452</ele>
        <time>2020-10-19T14:00:39Z</time>
      </trkpt>
      <trkpt lat="46.14558" lon="4.58035">
        <ele>452.2</ele>
        <time>2020-10-19T14:00:40Z</time>
      </trkpt>
      <trkpt lat="46.1456" lon="4.58037">
        <ele>452.2</ele>
        <time>2020-10-19T14:00:41Z</time>
      </trkpt>
      <trkpt lat="46.1456" lon="4.58037">
        <ele>452.4</ele>
        <time>2020-10-19T14:00:42Z</time>
      </trkpt>
      <trkpt lat="46.14562" lon="4.58039">
        <ele>452.4</ele>
        <time>2020-10-19T14:00:43Z</time>
      </trkpt>
      <trkpt lat="46.14562" lon="4.58039">
        <ele>452.4</ele>
        <time>2020-10-19T14:00:44Z</time>
      </trkpt>
      <trkpt lat="46.14564" lon="4.58041">
        <ele>452.2</ele>
        <time>2020-10-19T14:00:45Z</time>
      </trkpt>
      <trkpt lat="46.14564" lon="4.58041">
        <ele>452.4</ele>
        <time>2020-10-19T14:00:46Z</time>
      </trkpt>
      <trkpt lat="46.14567" lon="4.58043">
        <ele>452.4</ele>
        <time>2020-10-19T14:00:47Z</time>
      </trkpt>
      <trkpt lat="46.14567" lon="4.58043">
        <ele>452.4</ele>
        <time>2020-10-19T14:00:48Z</time>
      </trkpt>
      <trkpt lat="46.14569" lon="4.58046">
        <ele>452.4</ele>
        <time>2020-10-19T14:00:49Z</time>
      </trkpt>
      <trkpt lat="46.14569" lon="4.58046">
        <ele>452.6</ele>
        <time>2020-10-19T14:00:50Z</time>
      </trkpt>
      <trkpt lat="46.14571" lon="4.58048">
        <ele>452.4</ele>
        <time>2020-10-19T14:00:51Z</time>
      </trkpt>
      <trkpt lat="46.14571" lon="4.58048">
        <ele>452.4</ele>
        <time>2020-10-19T14:00:52Z</time>
      </trkpt>
      <trkpt lat="46.14573" lon="4.58051">
        <ele>452.6</ele>
        <time>2020-10-19T14:00:53Z</time>
      </trkpt>
      <trkpt lat="46.14573" lon="4.58051">
        <ele>453</ele>
        <time>2020-10-19T14:00:54Z</time>
      </trkpt>
      <trkpt lat="46.14575" lon="4.58054">
        <ele>453.2</ele>
        <time>2020-10-19T14:00:55Z</time>
      </trkpt>
      <trkpt lat="46.14575" lon="4.58054">
        <ele>453.4</ele>
        <time>2020-10-19T14:00:56Z</time>
      </trkpt>
      <trkpt lat="46.14577" lon="4.58058">
        <ele>453.4</ele>
        <time>2020-10-19T14:00:57Z</time>
      </trkpt>
      <trkpt lat="46.14577" lon="4.58058">
        <ele>453.4</ele>
        <time>2020-10-19T14:00:58Z</time>
      </trkpt>
      <trkpt lat="46.14577" lon="4.58063">
        <ele>453.4</ele>
        <time>2020-10-19T14:00:59Z</time>
      </trkpt>
      <trkpt lat="46.14577" lon="4.58063">
        <ele>453.4</ele>
        <time>2020-10-19T14:01:00Z</time>
      </trkpt>
      <trkpt lat="46.14578" lon="4.58067">
        <ele>453.8</ele>
        <time>2020-10-19T14:01:01Z</time>
      </trkpt>
      <trkpt lat="46.14578" lon="4.58067">
        <ele>454</ele>
        <time>2020-10-19T14:01:02Z</time>
      </trkpt>
      <trkpt lat="46.14579" lon="4.5807">
        <ele>454.2</ele>
        <time>2020-10-19T14:01:03Z</time>
      </trkpt>
      <trkpt lat="46.14579" lon="4.5807">
        <ele>454.4</ele>
        <time>2020-10-19T14:01:04Z</time>
      </trkpt>
      <trkpt lat="46.1458" lon="4.58073">
        <ele>454.6</ele>
        <time>2020-10-19T14:01:05Z</time>
      </trkpt>
      <trkpt lat="46.1458" lon="4.58073">
        <ele>454.6</ele>
        <time>2020-10-19T14:01:06Z</time>
      </trkpt>
      <trkpt lat="46.14581" lon="4.58076">
        <ele>454.8</ele>
        <time>2020-10-19T14:01:07Z</time>
      </trkpt>
      <trkpt lat="46.14581" lon="4.58076">
        <ele>454.8</ele>
        <time>2020-10-19T14:01:08Z</time>
      </trkpt>
      <trkpt lat="46.14582" lon="4.58079">
        <ele>454.8</ele>
        <time>2020-10-19T14:01:09Z</time>
      </trkpt>
      <trkpt lat="46.14582" lon="4.58079">
        <ele>455</ele>
        <time>2020-10-19T14:01:10Z</time>
      </trkpt>
      <trkpt lat="46.14583" lon="4.58082">
        <ele>454.8</ele>
        <time>2020-10-19T14:01:11Z</time>
      </trkpt>
      <trkpt lat="46.14583" lon="4.58082">
        <ele>455</ele>
        <time>2020-10-19T14:01:12Z</time>
      </trkpt>
      <trkpt lat="46.14584" lon="4.58085">
        <ele>455.2</ele>
        <time>2020-10-19T14:01:13Z</time>
      </trkpt>
      <trkpt lat="46.14584" lon="4.58085">
        <ele>455.2</ele>
        <time>2020-10-19T14:01:14Z</time>
      </trkpt>
      <trkpt lat="46.14585" lon="4.58088">
        <ele>455.2</ele>
        <time>2020-10-19T14:01:15Z</time>
      </trkpt>
      <trkpt lat="46.14585" lon="4.58088">
        <ele>455.4</ele>
        <time>2020-10-19T14:01:16Z</time>
      </trkpt>
      <trkpt lat="46.14586" lon="4.5809">
        <ele>455.6</ele>
        <time>2020-10-19T14:01:17Z</time>
      </trkpt>
      <trkpt lat="46.14586" lon="4.5809">
        <ele>455.6</ele>
        <time>2020-10-19T14:01:18Z</time>
      </trkpt>
      <trkpt lat="46.14587" lon="4.58093">
        <ele>455.4</ele>
        <time>2020-10-19T14:01:19Z</time>
      </trkpt>
      <trkpt lat="46.14587" lon="4.58093">
        <ele>455.4</ele>
        <time>2020-10-19T14:01:20Z</time>
      </trkpt>
      <trkpt lat="46.14587" lon="4.58096">
        <ele>455.4</ele>
        <time>2020-10-19T14:01:21Z</time>
      </trkpt>
      <trkpt lat="46.14587" lon="4.58096">
        <ele>455.6</ele>
        <time>2020-10-19T14:01:22Z</time>
      </trkpt>
      <trkpt lat="46.14587" lon="4.58096">
        <ele>455.4</ele>
        <time>2020-10-19T14:01:23Z</time>
      </trkpt>
      <trkpt lat="46.14587" lon="4.58096">
        <ele>455.6</ele>
        <time>2020-10-19T14:01:24Z</time>
      </trkpt>
      <trkpt lat="46.14587" lon="4.58096">
        <ele>455.6</ele>
        <time>2020-10-19T14:01:25Z</time>
      </trkpt>
      <trkpt lat="46.14587" lon="4.58096">
        <ele>455.4</ele>
        <time>2020-10-19T14:01:26Z</time>
      </trkpt>
      <trkpt lat="46.14587" lon="4.58096">
        <ele>455.4</ele>
        <time>2020-10-19T14:01:27Z</time>
      </trkpt>
      <trkpt lat="46.14589" lon="4.58097">
        <ele>455.4</ele>
        <time>2020-10-19T14:01:28Z</time>
      </trkpt>
      <trkpt lat="46.14589" lon="4.58097">
        <ele>455.4</ele>
        <time>2020-10-19T14:01:29Z</time>
      </trkpt>
      <trkpt lat="46.14591" lon="4.58097">
        <ele>455.4</ele>
        <time>2020-10-19T14:01:30Z</time>
      </trkpt>
      <trkpt lat="46.14591" lon="4.58097">
        <ele>455.6</ele>
        <time>2020-10-19T14:01:31Z</time>
      </trkpt>
      <trkpt lat="46.14593" lon="4.58098">
        <ele>455.4</ele>
        <time>2020-10-19T14:01:32Z</time>
      </trkpt>
      <trkpt lat="46.14593" lon="4.58098">
        <ele>455.6</ele>
        <time>2020-10-19T14:01:33Z</time>
      </trkpt>
      <trkpt lat="46.14593" lon="4.58098">
        <ele>456</ele>
        <time>2020-10-19T14:01:34Z</time>
      </trkpt>
      <trkpt lat="46.14593" lon="4.58098">
        <ele>456</ele>
        <time>2020-10-19T14:01:35Z</time>
      </trkpt>
      <trkpt lat="46.14595" lon="4.58098">
        <ele>456.2</ele>
        <time>2020-10-19T14:01:36Z</time>
      </trkpt>
      <trkpt lat="46.14595" lon="4.58098">
        <ele>456</ele>
        <time>2020-10-19T14:01:37Z</time>
      </trkpt>
      <trkpt lat="46.14597" lon="4.581">
        <ele>456</ele>
        <time>2020-10-19T14:01:38Z</time>
      </trkpt>
      <trkpt lat="46.14597" lon="4.581">
        <ele>456</ele>
        <time>2020-10-19T14:01:39Z</time>
      </trkpt>
      <trkpt lat="46.14599" lon="4.58102">
        <ele>455.8</ele>
        <time>2020-10-19T14:01:40Z</time>
      </trkpt>
      <trkpt lat="46.14599" lon="4.58102">
        <ele>456</ele>
        <time>2020-10-19T14:01:41Z</time>
      </trkpt>
      <trkpt lat="46.14601" lon="4.58104">
        <ele>456.2</ele>
        <time>2020-10-19T14:01:42Z</time>
      </trkpt>
      <trkpt lat="46.14601" lon="4.58104">
        <ele>456.4</ele>
        <time>2020-10-19T14:01:43Z</time>
      </trkpt>
      <trkpt lat="46.14603" lon="4.58105">
        <ele>456.4</ele>
        <time>2020-10-19T14:01:44Z</time>
      </trkpt>
      <trkpt lat="46.14603" lon="4.58105">
        <ele>456.6</ele>
        <time>2020-10-19T14:01:45Z</time>
      </trkpt>
      <trkpt lat="46.14603" lon="4.58105">
        <ele>456.8</ele>
        <time>2020-10-19T14:01:46Z</time>
      </trkpt>
      <trkpt lat="46.14603" lon="4.58105">
        <ele>457</ele>
        <time>2020-10-19T14:01:47Z</time>
      </trkpt>
      <trkpt lat="46.14603" lon="4.58105">
        <ele>457</ele>
        <time>2020-10-19T14:01:48Z</time>
      </trkpt>
      <trkpt lat="46.14603" lon="4.58105">
        <ele>457.2</ele>
        <time>2020-10-19T14:01:49Z</time>
      </trkpt>
      <trkpt lat="46.14605" lon="4.58107">
        <ele>457.6</ele>
        <time>2020-10-19T14:01:50Z</time>
      </trkpt>
      <trkpt lat="46.14605" lon="4.58107">
        <ele>457.6</ele>
        <time>2020-10-19T14:01:51Z</time>
      </trkpt>
      <trkpt lat="46.14605" lon="4.58107">
        <ele>457.8</ele>
        <time>2020-10-19T14:01:52Z</time>
      </trkpt>
      <trkpt lat="46.14605" lon="4.58107">
        <ele>457.8</ele>
        <time>2020-10-19T14:01:53Z</time>
      </trkpt>
      <trkpt lat="46.14605" lon="4.58107">
        <ele>458</ele>
        <time>2020-10-19T14:01:54Z</time>
      </trkpt>
      <trkpt lat="46.14605" lon="4.58107">
        <ele>458.2</ele>
        <time>2020-10-19T14:01:55Z</time>
      </trkpt>
      <trkpt lat="46.14605" lon="4.58107">
        <ele>458.2</ele>
        <time>2020-10-19T14:01:56Z</time>
      </trkpt>
      <trkpt lat="46.14605" lon="4.58107">
        <ele>458.2</ele>
        <time>2020-10-19T14:01:57Z</time>
      </trkpt>
      <trkpt lat="46.14605" lon="4.58107">
        <ele>458.2</ele>
        <time>2020-10-19T14:01:58Z</time>
      </trkpt>
      <trkpt lat="46.14605" lon="4.58107">
        <ele>458.2</ele>
        <time>2020-10-19T14:01:59Z</time>
      </trkpt>
      <trkpt lat="46.14605" lon="4.58107">
        <ele>458</ele>
        <time>2020-10-19T14:02:00Z</time>
      </trkpt>
      <trkpt lat="46.14605" lon="4.58107">
        <ele>457.8</ele>
        <time>2020-10-19T14:02:01Z</time>
      </trkpt>
      <trkpt lat="46.14605" lon="4.58107">
        <ele>457.8</ele>
        <time>2020-10-19T14:02:02Z</time>
      </trkpt>
      <trkpt lat="46.14605" lon="4.58107">
        <ele>458.2</ele>
        <time>2020-10-19T14:02:03Z</time>
      </trkpt>
      <trkpt lat="46.14605" lon="4.58107">
        <ele>458.6</ele>
        <time>2020-10-19T14:02:04Z</time>
      </trkpt>
      <trkpt lat="46.14605" lon="4.58107">
        <ele>458</ele>
        <time>2020-10-19T14:02:05Z</time>
      </trkpt>
      <trkpt lat="46.14605" lon="4.58107">
        <ele>458.4</ele>
        <time>2020-10-19T14:02:06Z</time>
      </trkpt>
      <trkpt lat="46.14606" lon="4.58108">
        <ele>458.4</ele>
        <time>2020-10-19T14:02:07Z</time>
      </trkpt>
      <trkpt lat="46.14606" lon="4.58108">
        <ele>458.4</ele>
        <time>2020-10-19T14:02:08Z</time>
      </trkpt>
      <trkpt lat="46.14608" lon="4.58108">
        <ele>458</ele>
        <time>2020-10-19T14:02:09Z</time>
      </trkpt>
      <trkpt lat="46.14608" lon="4.58108">
        <ele>458</ele>
        <time>2020-10-19T14:02:10Z</time>
      </trkpt>
      <trkpt lat="46.14611" lon="4.58108">
        <ele>457.6</ele>
        <time>2020-10-19T14:02:11Z</time>
      </trkpt>
      <trkpt lat="46.14611" lon="4.58108">
        <ele>457.4</ele>
        <time>2020-10-19T14:02:12Z</time>
      </trkpt>
      <trkpt lat="46.14614" lon="4.58108">
        <ele>457.4</ele>
        <time>2020-10-19T14:02:13Z</time>
      </trkpt>
      <trkpt lat="46.14616" lon="4.58107">
        <ele>457.4</ele>
        <time>2020-10-19T14:02:14Z</time>
      </trkpt>
      <trkpt lat="46.14616" lon="4.58107">
        <ele>457.4</ele>
        <time>2020-10-19T14:02:15Z</time>
      </trkpt>
      <trkpt lat="46.14619" lon="4.58106">
        <ele>457.8</ele>
        <time>2020-10-19T14:02:16Z</time>
      </trkpt>
      <trkpt lat="46.14621" lon="4.58106">
        <ele>458</ele>
        <time>2020-10-19T14:02:17Z</time>
      </trkpt>
      <trkpt lat="46.14621" lon="4.58106">
        <ele>458.2</ele>
        <time>2020-10-19T14:02:18Z</time>
      </trkpt>
      <trkpt lat="46.14624" lon="4.58106">
        <ele>458.2</ele>
        <time>2020-10-19T14:02:19Z</time>
      </trkpt>
      <trkpt lat="46.14624" lon="4.58106">
        <ele>458.4</ele>
        <time>2020-10-19T14:02:20Z</time>
      </trkpt>
      <trkpt lat="46.14627" lon="4.58105">
        <ele>458.6</ele>
        <time>2020-10-19T14:02:21Z</time>
      </trkpt>
      <trkpt lat="46.14627" lon="4.58105">
        <ele>458.6</ele>
        <time>2020-10-19T14:02:22Z</time>
      </trkpt>
      <trkpt lat="46.14629" lon="4.58104">
        <ele>458.8</ele>
        <time>2020-10-19T14:02:23Z</time>
      </trkpt>
      <trkpt lat="46.14629" lon="4.58104">
        <ele>458.6</ele>
        <time>2020-10-19T14:02:24Z</time>
      </trkpt>
      <trkpt lat="46.14632" lon="4.58103">
        <ele>458.6</ele>
        <time>2020-10-19T14:02:25Z</time>
      </trkpt>
      <trkpt lat="46.14632" lon="4.58103">
        <ele>458.6</ele>
        <time>2020-10-19T14:02:26Z</time>
      </trkpt>
      <trkpt lat="46.14634" lon="4.58101">
        <ele>458.6</ele>
        <time>2020-10-19T14:02:27Z</time>
      </trkpt>
      <trkpt lat="46.14634" lon="4.58101">
        <ele>458.6</ele>
        <time>2020-10-19T14:02:28Z</time>
      </trkpt>
      <trkpt lat="46.14636" lon="4.581">
        <ele>458.8</ele>
        <time>2020-10-19T14:02:29Z</time>
      </trkpt>
      <trkpt lat="46.14636" lon="4.581">
        <ele>458.8</ele>
        <time>2020-10-19T14:02:30Z</time>
      </trkpt>
      <trkpt lat="46.14639" lon="4.58099">
        <ele>458.6</ele>
        <time>2020-10-19T14:02:31Z</time>
      </trkpt>
      <trkpt lat="46.14639" lon="4.58099">
        <ele>458.8</ele>
        <time>2020-10-19T14:02:32Z</time>
      </trkpt>
      <trkpt lat="46.14642" lon="4.58097">
        <ele>459</ele>
        <time>2020-10-19T14:02:33Z</time>
      </trkpt>
      <trkpt lat="46.14642" lon="4.58097">
        <ele>459</ele>
        <time>2020-10-19T14:02:34Z</time>
      </trkpt>
      <trkpt lat="46.14644" lon="4.58096">
        <ele>459</ele>
        <time>2020-10-19T14:02:35Z</time>
      </trkpt>
      <trkpt lat="46.14644" lon="4.58096">
        <ele>459.2</ele>
        <time>2020-10-19T14:02:36Z</time>
      </trkpt>
      <trkpt lat="46.14646" lon="4.58096">
        <ele>459.2</ele>
        <time>2020-10-19T14:02:37Z</time>
      </trkpt>
      <trkpt lat="46.14646" lon="4.58096">
        <ele>459.4</ele>
        <time>2020-10-19T14:02:38Z</time>
      </trkpt>
      <trkpt lat="46.14646" lon="4.58096">
        <ele>459.6</ele>
        <time>2020-10-19T14:02:39Z</time>
      </trkpt>
      <trkpt lat="46.14646" lon="4.58096">
        <ele>459.6</ele>
        <time>2020-10-19T14:02:40Z</time>
      </trkpt>
      <trkpt lat="46.14646" lon="4.58096">
        <ele>459.6</ele>
        <time>2020-10-19T14:02:41Z</time>
      </trkpt>
      <trkpt lat="46.14646" lon="4.58096">
        <ele>459.6</ele>
        <time>2020-10-19T14:02:42Z</time>
      </trkpt>
      <trkpt lat="46.14646" lon="4.58096">
        <ele>459.6</ele>
        <time>2020-10-19T14:02:43Z</time>
      </trkpt>
      <trkpt lat="46.14648" lon="4.58096">
        <ele>459.4</ele>
        <time>2020-10-19T14:02:44Z</time>
      </trkpt>
      <trkpt lat="46.14648" lon="4.58096">
        <ele>459.2</ele>
        <time>2020-10-19T14:02:45Z</time>
      </trkpt>
      <trkpt lat="46.14651" lon="4.58095">
        <ele>459.6</ele>
        <time>2020-10-19T14:02:46Z</time>
      </trkpt>
      <trkpt lat="46.14651" lon="4.58095">
        <ele>459.4</ele>
        <time>2020-10-19T14:02:47Z</time>
      </trkpt>
      <trkpt lat="46.14654" lon="4.58094">
        <ele>460</ele>
        <time>2020-10-19T14:02:48Z</time>
      </trkpt>
      <trkpt lat="46.14654" lon="4.58094">
        <ele>460</ele>
        <time>2020-10-19T14:02:49Z</time>
      </trkpt>
      <trkpt lat="46.14657" lon="4.58093">
        <ele>460</ele>
        <time>2020-10-19T14:02:50Z</time>
      </trkpt>
      <trkpt lat="46.14657" lon="4.58093">
        <ele>460.4</ele>
        <time>2020-10-19T14:02:51Z</time>
      </trkpt>
      <trkpt lat="46.1466" lon="4.58093">
        <ele>460.6</ele>
        <time>2020-10-19T14:02:52Z</time>
      </trkpt>
      <trkpt lat="46.1466" lon="4.58093">
        <ele>460.8</ele>
        <time>2020-10-19T14:02:53Z</time>
      </trkpt>
      <trkpt lat="46.14662" lon="4.58093">
        <ele>460.8</ele>
        <time>2020-10-19T14:02:54Z</time>
      </trkpt>
      <trkpt lat="46.14662" lon="4.58093">
        <ele>460.8</ele>
        <time>2020-10-19T14:02:55Z</time>
      </trkpt>
      <trkpt lat="46.14665" lon="4.58094">
        <ele>461</ele>
        <time>2020-10-19T14:02:56Z</time>
      </trkpt>
      <trkpt lat="46.14665" lon="4.58094">
        <ele>461</ele>
        <time>2020-10-19T14:02:57Z</time>
      </trkpt>
      <trkpt lat="46.14668" lon="4.58094">
        <ele>461.2</ele>
        <time>2020-10-19T14:02:58Z</time>
      </trkpt>
      <trkpt lat="46.14668" lon="4.58094">
        <ele>461.2</ele>
        <time>2020-10-19T14:02:59Z</time>
      </trkpt>
      <trkpt lat="46.1467" lon="4.58095">
        <ele>461.4</ele>
        <time>2020-10-19T14:03:00Z</time>
      </trkpt>
      <trkpt lat="46.1467" lon="4.58095">
        <ele>461.8</ele>
        <time>2020-10-19T14:03:01Z</time>
      </trkpt>
      <trkpt lat="46.1467" lon="4.58095">
        <ele>462.2</ele>
        <time>2020-10-19T14:03:02Z</time>
      </trkpt>
      <trkpt lat="46.1467" lon="4.58095">
        <ele>462.2</ele>
        <time>2020-10-19T14:03:03Z</time>
      </trkpt>
      <trkpt lat="46.1467" lon="4.58095">
        <ele>462.2</ele>
        <time>2020-10-19T14:03:04Z</time>
      </trkpt>
      <trkpt lat="46.14672" lon="4.58095">
        <ele>462.4</ele>
        <time>2020-10-19T14:03:05Z</time>
      </trkpt>
      <trkpt lat="46.14672" lon="4.58095">
        <ele>462.4</ele>
        <time>2020-10-19T14:03:06Z</time>
      </trkpt>
      <trkpt lat="46.14675" lon="4.58094">
        <ele>462.4</ele>
        <time>2020-10-19T14:03:07Z</time>
      </trkpt>
      <trkpt lat="46.14675" lon="4.58094">
        <ele>462.6</ele>
        <time>2020-10-19T14:03:08Z</time>
      </trkpt>
      <trkpt lat="46.14677" lon="4.58094">
        <ele>462.8</ele>
        <time>2020-10-19T14:03:09Z</time>
      </trkpt>
      <trkpt lat="46.14677" lon="4.58094">
        <ele>462.8</ele>
        <time>2020-10-19T14:03:10Z</time>
      </trkpt>
      <trkpt lat="46.1468" lon="4.58094">
        <ele>463</ele>
        <time>2020-10-19T14:03:11Z</time>
      </trkpt>
      <trkpt lat="46.1468" lon="4.58094">
        <ele>463</ele>
        <time>2020-10-19T14:03:12Z</time>
      </trkpt>
      <trkpt lat="46.14683" lon="4.58093">
        <ele>463</ele>
        <time>2020-10-19T14:03:13Z</time>
      </trkpt>
      <trkpt lat="46.14683" lon="4.58093">
        <ele>463.6</ele>
        <time>2020-10-19T14:03:14Z</time>
      </trkpt>
      <trkpt lat="46.14685" lon="4.58094">
        <ele>463.8</ele>
        <time>2020-10-19T14:03:15Z</time>
      </trkpt>
      <trkpt lat="46.14685" lon="4.58094">
        <ele>463.8</ele>
        <time>2020-10-19T14:03:16Z</time>
      </trkpt>
      <trkpt lat="46.14688" lon="4.58095">
        <ele>464</ele>
        <time>2020-10-19T14:03:17Z</time>
      </trkpt>
      <trkpt lat="46.14688" lon="4.58095">
        <ele>464</ele>
        <time>2020-10-19T14:03:18Z</time>
      </trkpt>
      <trkpt lat="46.14691" lon="4.58095">
        <ele>464.2</ele>
        <time>2020-10-19T14:03:19Z</time>
      </trkpt>
      <trkpt lat="46.14691" lon="4.58095">
        <ele>464.2</ele>
        <time>2020-10-19T14:03:20Z</time>
      </trkpt>
      <trkpt lat="46.14694" lon="4.58095">
        <ele>464.4</ele>
        <time>2020-10-19T14:03:21Z</time>
      </trkpt>
      <trkpt lat="46.14694" lon="4.58095">
        <ele>464.8</ele>
        <time>2020-10-19T14:03:22Z</time>
      </trkpt>
      <trkpt lat="46.14697" lon="4.58095">
        <ele>464.8</ele>
        <time>2020-10-19T14:03:23Z</time>
      </trkpt>
      <trkpt lat="46.14697" lon="4.58095">
        <ele>465</ele>
        <time>2020-10-19T14:03:24Z</time>
      </trkpt>
      <trkpt lat="46.147" lon="4.58095">
        <ele>464.8</ele>
        <time>2020-10-19T14:03:25Z</time>
      </trkpt>
      <trkpt lat="46.147" lon="4.58095">
        <ele>465.2</ele>
        <time>2020-10-19T14:03:26Z</time>
      </trkpt>
      <trkpt lat="46.14703" lon="4.58095">
        <ele>465</ele>
        <time>2020-10-19T14:03:27Z</time>
      </trkpt>
      <trkpt lat="46.14703" lon="4.58095">
        <ele>465.4</ele>
        <time>2020-10-19T14:03:28Z</time>
      </trkpt>
      <trkpt lat="46.14706" lon="4.58095">
        <ele>465.4</ele>
        <time>2020-10-19T14:03:29Z</time>
      </trkpt>
      <trkpt lat="46.14706" lon="4.58095">
        <ele>465.6</ele>
        <time>2020-10-19T14:03:30Z</time>
      </trkpt>
      <trkpt lat="46.14709" lon="4.58095">
        <ele>465.6</ele>
        <time>2020-10-19T14:03:31Z</time>
      </trkpt>
      <trkpt lat="46.14709" lon="4.58095">
        <ele>465.4</ele>
        <time>2020-10-19T14:03:32Z</time>
      </trkpt>
      <trkpt lat="46.14712" lon="4.58095">
        <ele>465.4</ele>
        <time>2020-10-19T14:03:33Z</time>
      </trkpt>
      <trkpt lat="46.14712" lon="4.58095">
        <ele>465.4</ele>
        <time>2020-10-19T14:03:34Z</time>
      </trkpt>
      <trkpt lat="46.14715" lon="4.58095">
        <ele>465.6</ele>
        <time>2020-10-19T14:03:35Z</time>
      </trkpt>
      <trkpt lat="46.14715" lon="4.58095">
        <ele>466</ele>
        <time>2020-10-19T14:03:36Z</time>
      </trkpt>
      <trkpt lat="46.14718" lon="4.58095">
        <ele>465.8</ele>
        <time>2020-10-19T14:03:37Z</time>
      </trkpt>
      <trkpt lat="46.14718" lon="4.58095">
        <ele>466</ele>
        <time>2020-10-19T14:03:38Z</time>
      </trkpt>
      <trkpt lat="46.14721" lon="4.58095">
        <ele>465.8</ele>
        <time>2020-10-19T14:03:39Z</time>
      </trkpt>
      <trkpt lat="46.14721" lon="4.58095">
        <ele>465.8</ele>
        <time>2020-10-19T14:03:40Z</time>
      </trkpt>
      <trkpt lat="46.14724" lon="4.58096">
        <ele>465.8</ele>
        <time>2020-10-19T14:03:41Z</time>
      </trkpt>
      <trkpt lat="46.14724" lon="4.58096">
        <ele>466</ele>
        <time>2020-10-19T14:03:42Z</time>
      </trkpt>
      <trkpt lat="46.14724" lon="4.58096">
        <ele>466.2</ele>
        <time>2020-10-19T14:03:43Z</time>
      </trkpt>
      <trkpt lat="46.14724" lon="4.58096">
        <ele>466.8</ele>
        <time>2020-10-19T14:03:44Z</time>
      </trkpt>
      <trkpt lat="46.14724" lon="4.58096">
        <ele>467</ele>
        <time>2020-10-19T14:03:45Z</time>
      </trkpt>
      <trkpt lat="46.14724" lon="4.58096">
        <ele>466.8</ele>
        <time>2020-10-19T14:03:46Z</time>
      </trkpt>
      <trkpt lat="46.14726" lon="4.58096">
        <ele>466.6</ele>
        <time>2020-10-19T14:03:47Z</time>
      </trkpt>
      <trkpt lat="46.14726" lon="4.58096">
        <ele>466.4</ele>
        <time>2020-10-19T14:03:48Z</time>
      </trkpt>
      <trkpt lat="46.14728" lon="4.58096">
        <ele>466.4</ele>
        <time>2020-10-19T14:03:49Z</time>
      </trkpt>
      <trkpt lat="46.14728" lon="4.58096">
        <ele>466.4</ele>
        <time>2020-10-19T14:03:50Z</time>
      </trkpt>
      <trkpt lat="46.14731" lon="4.58095">
        <ele>466.4</ele>
        <time>2020-10-19T14:03:51Z</time>
      </trkpt>
      <trkpt lat="46.14731" lon="4.58095">
        <ele>466.6</ele>
        <time>2020-10-19T14:03:52Z</time>
      </trkpt>
      <trkpt lat="46.14734" lon="4.58094">
        <ele>466.6</ele>
        <time>2020-10-19T14:03:53Z</time>
      </trkpt>
      <trkpt lat="46.14734" lon="4.58094">
        <ele>466.6</ele>
        <time>2020-10-19T14:03:54Z</time>
      </trkpt>
      <trkpt lat="46.14736" lon="4.58094">
        <ele>466.6</ele>
        <time>2020-10-19T14:03:55Z</time>
      </trkpt>
      <trkpt lat="46.14736" lon="4.58094">
        <ele>466.6</ele>
        <time>2020-10-19T14:03:56Z</time>
      </trkpt>
      <trkpt lat="46.14739" lon="4.58094">
        <ele>466.6</ele>
        <time>2020-10-19T14:03:57Z</time>
      </trkpt>
      <trkpt lat="46.14739" lon="4.58094">
        <ele>466.8</ele>
        <time>2020-10-19T14:03:58Z</time>
      </trkpt>
      <trkpt lat="46.14742" lon="4.58093">
        <ele>466.8</ele>
        <time>2020-10-19T14:03:59Z</time>
      </trkpt>
      <trkpt lat="46.14742" lon="4.58093">
        <ele>466.8</ele>
        <time>2020-10-19T14:04:00Z</time>
      </trkpt>
      <trkpt lat="46.14745" lon="4.58093">
        <ele>467</ele>
        <time>2020-10-19T14:04:01Z</time>
      </trkpt>
      <trkpt lat="46.14745" lon="4.58093">
        <ele>467</ele>
        <time>2020-10-19T14:04:02Z</time>
      </trkpt>
      <trkpt lat="46.14748" lon="4.58093">
        <ele>467.2</ele>
        <time>2020-10-19T14:04:03Z</time>
      </trkpt>
      <trkpt lat="46.14748" lon="4.58093">
        <ele>467.2</ele>
        <time>2020-10-19T14:04:04Z</time>
      </trkpt>
      <trkpt lat="46.1475" lon="4.58093">
        <ele>467.6</ele>
        <time>2020-10-19T14:04:05Z</time>
      </trkpt>
      <trkpt lat="46.1475" lon="4.58093">
        <ele>467.6</ele>
        <time>2020-10-19T14:04:06Z</time>
      </trkpt>
      <trkpt lat="46.14753" lon="4.58093">
        <ele>467.8</ele>
        <time>2020-10-19T14:04:07Z</time>
      </trkpt>
      <trkpt lat="46.14753" lon="4.58093">
        <ele>467.8</ele>
        <time>2020-10-19T14:04:08Z</time>
      </trkpt>
      <trkpt lat="46.14756" lon="4.58094">
        <ele>467.8</ele>
        <time>2020-10-19T14:04:09Z</time>
      </trkpt>
      <trkpt lat="46.14756" lon="4.58094">
        <ele>468.2</ele>
        <time>2020-10-19T14:04:10Z</time>
      </trkpt>
      <trkpt lat="46.14759" lon="4.58094">
        <ele>468.4</ele>
        <time>2020-10-19T14:04:11Z</time>
      </trkpt>
      <trkpt lat="46.14759" lon="4.58094">
        <ele>468.8</ele>
        <time>2020-10-19T14:04:12Z</time>
      </trkpt>
      <trkpt lat="46.14762" lon="4.58093">
        <ele>468.8</ele>
        <time>2020-10-19T14:04:13Z</time>
      </trkpt>
      <trkpt lat="46.14762" lon="4.58093">
        <ele>468.8</ele>
        <time>2020-10-19T14:04:14Z</time>
      </trkpt>
      <trkpt lat="46.14765" lon="4.58093">
        <ele>468.8</ele>
        <time>2020-10-19T14:04:15Z</time>
      </trkpt>
      <trkpt lat="46.14765" lon="4.58093">
        <ele>468.8</ele>
        <time>2020-10-19T14:04:16Z</time>
      </trkpt>
      <trkpt lat="46.14767" lon="4.58091">
        <ele>469</ele>
        <time>2020-10-19T14:04:17Z</time>
      </trkpt>
      <trkpt lat="46.14767" lon="4.58091">
        <ele>469.2</ele>
        <time>2020-10-19T14:04:18Z</time>
      </trkpt>
      <trkpt lat="46.1477" lon="4.5809">
        <ele>469.4</ele>
        <time>2020-10-19T14:04:19Z</time>
      </trkpt>
      <trkpt lat="46.1477" lon="4.5809">
        <ele>469.2</ele>
        <time>2020-10-19T14:04:20Z</time>
      </trkpt>
      <trkpt lat="46.14773" lon="4.5809">
        <ele>469.4</ele>
        <time>2020-10-19T14:04:21Z</time>
      </trkpt>
      <trkpt lat="46.14773" lon="4.5809">
        <ele>469.4</ele>
        <time>2020-10-19T14:04:22Z</time>
      </trkpt>
      <trkpt lat="46.14775" lon="4.58089">
        <ele>469.4</ele>
        <time>2020-10-19T14:04:23Z</time>
      </trkpt>
      <trkpt lat="46.14775" lon="4.58089">
        <ele>469.4</ele>
        <time>2020-10-19T14:04:24Z</time>
      </trkpt>
      <trkpt lat="46.14778" lon="4.5809">
        <ele>469.4</ele>
        <time>2020-10-19T14:04:25Z</time>
      </trkpt>
      <trkpt lat="46.14778" lon="4.5809">
        <ele>469.8</ele>
        <time>2020-10-19T14:04:26Z</time>
      </trkpt>
      <trkpt lat="46.14778" lon="4.5809">
        <ele>470.2</ele>
        <time>2020-10-19T14:04:27Z</time>
      </trkpt>
      <trkpt lat="46.14778" lon="4.5809">
        <ele>470.4</ele>
        <time>2020-10-19T14:04:28Z</time>
      </trkpt>
      <trkpt lat="46.14778" lon="4.5809">
        <ele>470.8</ele>
        <time>2020-10-19T14:04:29Z</time>
      </trkpt>
      <trkpt lat="46.14778" lon="4.5809">
        <ele>470.6</ele>
        <time>2020-10-19T14:04:30Z</time>
      </trkpt>
      <trkpt lat="46.14778" lon="4.5809">
        <ele>470.8</ele>
        <time>2020-10-19T14:04:31Z</time>
      </trkpt>
      <trkpt lat="46.14778" lon="4.5809">
        <ele>470.6</ele>
        <time>2020-10-19T14:04:32Z</time>
      </trkpt>
      <trkpt lat="46.14778" lon="4.5809">
        <ele>470.6</ele>
        <time>2020-10-19T14:04:33Z</time>
      </trkpt>
      <trkpt lat="46.14778" lon="4.5809">
        <ele>470.6</ele>
        <time>2020-10-19T14:04:34Z</time>
      </trkpt>
      <trkpt lat="46.14778" lon="4.5809">
        <ele>470.6</ele>
        <time>2020-10-19T14:04:35Z</time>
      </trkpt>
      <trkpt lat="46.14778" lon="4.5809">
        <ele>470.8</ele>
        <time>2020-10-19T14:04:36Z</time>
      </trkpt>
      <trkpt lat="46.14778" lon="4.5809">
        <ele>470.8</ele>
        <time>2020-10-19T14:04:37Z</time>
      </trkpt>
      <trkpt lat="46.14778" lon="4.5809">
        <ele>471</ele>
        <time>2020-10-19T14:04:38Z</time>
      </trkpt>
      <trkpt lat="46.14778" lon="4.5809">
        <ele>471</ele>
        <time>2020-10-19T14:04:39Z</time>
      </trkpt>
      <trkpt lat="46.14778" lon="4.5809">
        <ele>471</ele>
        <time>2020-10-19T14:04:40Z</time>
      </trkpt>
      <trkpt lat="46.14778" lon="4.5809">
        <ele>471</ele>
        <time>2020-10-19T14:04:41Z</time>
      </trkpt>
      <trkpt lat="46.14778" lon="4.5809">
        <ele>471</ele>
        <time>2020-10-19T14:04:42Z</time>
      </trkpt>
      <trkpt lat="46.14778" lon="4.5809">
        <ele>470.8</ele>
        <time>2020-10-19T14:04:43Z</time>
      </trkpt>
      <trkpt lat="46.14778" lon="4.5809">
        <ele>470.6</ele>
        <time>2020-10-19T14:04:44Z</time>
      </trkpt>
      <trkpt lat="46.1478" lon="4.58087">
        <ele>470.6</ele>
        <time>2020-10-19T14:04:45Z</time>
      </trkpt>
      <trkpt lat="46.1478" lon="4.58087">
        <ele>470.4</ele>
        <time>2020-10-19T14:04:46Z</time>
      </trkpt>
      <trkpt lat="46.14782" lon="4.58084">
        <ele>470</ele>
        <time>2020-10-19T14:04:47Z</time>
      </trkpt>
      <trkpt lat="46.14782" lon="4.58084">
        <ele>470</ele>
        <time>2020-10-19T14:04:48Z</time>
      </trkpt>
      <trkpt lat="46.14785" lon="4.58082">
        <ele>470</ele>
        <time>2020-10-19T14:04:49Z</time>
      </trkpt>
      <trkpt lat="46.14785" lon="4.58082">
        <ele>470</ele>
        <time>2020-10-19T14:04:50Z</time>
      </trkpt>
      <trkpt lat="46.14787" lon="4.58081">
        <ele>469.8</ele>
        <time>2020-10-19T14:04:51Z</time>
      </trkpt>
      <trkpt lat="46.14787" lon="4.58081">
        <ele>470</ele>
        <time>2020-10-19T14:04:52Z</time>
      </trkpt>
      <trkpt lat="46.14789" lon="4.58079">
        <ele>470</ele>
        <time>2020-10-19T14:04:53Z</time>
      </trkpt>
      <trkpt lat="46.14789" lon="4.58079">
        <ele>470</ele>
        <time>2020-10-19T14:04:54Z</time>
      </trkpt>
      <trkpt lat="46.14791" lon="4.58076">
        <ele>470.2</ele>
        <time>2020-10-19T14:04:55Z</time>
      </trkpt>
      <trkpt lat="46.14791" lon="4.58076">
        <ele>470.4</ele>
        <time>2020-10-19T14:04:56Z</time>
      </trkpt>
      <trkpt lat="46.14793" lon="4.58073">
        <ele>470.4</ele>
        <time>2020-10-19T14:04:57Z</time>
      </trkpt>
      <trkpt lat="46.14793" lon="4.58073">
        <ele>470.4</ele>
        <time>2020-10-19T14:04:58Z</time>
      </trkpt>
      <trkpt lat="46.14793" lon="4.5807">
        <ele>470.6</ele>
        <time>2020-10-19T14:04:59Z</time>
      </trkpt>
      <trkpt lat="46.14793" lon="4.5807">
        <ele>470.6</ele>
        <time>2020-10-19T14:05:00Z</time>
      </trkpt>
      <trkpt lat="46.14793" lon="4.5807">
        <ele>470.8</ele>
        <time>2020-10-19T14:05:01Z</time>
      </trkpt>
      <trkpt lat="46.14793" lon="4.5807">
        <ele>470.8</ele>
        <time>2020-10-19T14:05:02Z</time>
      </trkpt>
      <trkpt lat="46.14793" lon="4.5807">
        <ele>471</ele>
        <time>2020-10-19T14:05:03Z</time>
      </trkpt>
      <trkpt lat="46.14793" lon="4.5807">
        <ele>471</ele>
        <time>2020-10-19T14:05:04Z</time>
      </trkpt>
      <trkpt lat="46.14793" lon="4.5807">
        <ele>471.4</ele>
        <time>2020-10-19T14:05:05Z</time>
      </trkpt>
      <trkpt lat="46.14793" lon="4.5807">
        <ele>471.4</ele>
        <time>2020-10-19T14:05:06Z</time>
      </trkpt>
      <trkpt lat="46.14793" lon="4.5807">
        <ele>471.4</ele>
        <time>2020-10-19T14:05:07Z</time>
      </trkpt>
      <trkpt lat="46.14793" lon="4.58066">
        <ele>471.4</ele>
        <time>2020-10-19T14:05:08Z</time>
      </trkpt>
      <trkpt lat="46.14793" lon="4.58066">
        <ele>471.2</ele>
        <time>2020-10-19T14:05:09Z</time>
      </trkpt>
      <trkpt lat="46.14792" lon="4.58063">
        <ele>471.4</ele>
        <time>2020-10-19T14:05:10Z</time>
      </trkpt>
      <trkpt lat="46.14792" lon="4.58063">
        <ele>471.6</ele>
        <time>2020-10-19T14:05:11Z</time>
      </trkpt>
      <trkpt lat="46.14791" lon="4.5806">
        <ele>471.6</ele>
        <time>2020-10-19T14:05:12Z</time>
      </trkpt>
      <trkpt lat="46.14791" lon="4.5806">
        <ele>471.8</ele>
        <time>2020-10-19T14:05:13Z</time>
      </trkpt>
      <trkpt lat="46.14791" lon="4.58056">
        <ele>471.8</ele>
        <time>2020-10-19T14:05:14Z</time>
      </trkpt>
      <trkpt lat="46.14791" lon="4.58056">
        <ele>471.8</ele>
        <time>2020-10-19T14:05:15Z</time>
      </trkpt>
      <trkpt lat="46.1479" lon="4.58052">
        <ele>472.2</ele>
        <time>2020-10-19T14:05:16Z</time>
      </trkpt>
      <trkpt lat="46.1479" lon="4.58052">
        <ele>472.4</ele>
        <time>2020-10-19T14:05:17Z</time>
      </trkpt>
      <trkpt lat="46.14789" lon="4.58049">
        <ele>472.4</ele>
        <time>2020-10-19T14:05:18Z</time>
      </trkpt>
      <trkpt lat="46.14789" lon="4.58049">
        <ele>472.4</ele>
        <time>2020-10-19T14:05:19Z</time>
      </trkpt>
      <trkpt lat="46.14788" lon="4.58045">
        <ele>472.4</ele>
        <time>2020-10-19T14:05:20Z</time>
      </trkpt>
      <trkpt lat="46.14788" lon="4.58045">
        <ele>472.6</ele>
        <time>2020-10-19T14:05:21Z</time>
      </trkpt>
      <trkpt lat="46.14787" lon="4.58041">
        <ele>472.6</ele>
        <time>2020-10-19T14:05:22Z</time>
      </trkpt>
      <trkpt lat="46.14787" lon="4.58041">
        <ele>472.8</ele>
        <time>2020-10-19T14:05:23Z</time>
      </trkpt>
      <trkpt lat="46.14785" lon="4.58038">
        <ele>472.8</ele>
        <time>2020-10-19T14:05:24Z</time>
      </trkpt>
      <trkpt lat="46.14785" lon="4.58038">
        <ele>473</ele>
        <time>2020-10-19T14:05:25Z</time>
      </trkpt>
      <trkpt lat="46.14783" lon="4.58035">
        <ele>473</ele>
        <time>2020-10-19T14:05:26Z</time>
      </trkpt>
      <trkpt lat="46.14783" lon="4.58035">
        <ele>473.2</ele>
        <time>2020-10-19T14:05:27Z</time>
      </trkpt>
      <trkpt lat="46.14783" lon="4.58035">
        <ele>473.2</ele>
        <time>2020-10-19T14:05:28Z</time>
      </trkpt>
      <trkpt lat="46.14783" lon="4.58035">
        <ele>473.4</ele>
        <time>2020-10-19T14:05:29Z</time>
      </trkpt>
      <trkpt lat="46.14783" lon="4.58035">
        <ele>473.6</ele>
        <time>2020-10-19T14:05:30Z</time>
      </trkpt>
      <trkpt lat="46.14783" lon="4.58035">
        <ele>473.6</ele>
        <time>2020-10-19T14:05:31Z</time>
      </trkpt>
      <trkpt lat="46.14783" lon="4.58035">
        <ele>473.6</ele>
        <time>2020-10-19T14:05:32Z</time>
      </trkpt>
      <trkpt lat="46.14782" lon="4.58033">
        <ele>473.6</ele>
        <time>2020-10-19T14:05:33Z</time>
      </trkpt>
      <trkpt lat="46.14782" lon="4.58033">
        <ele>473.6</ele>
        <time>2020-10-19T14:05:34Z</time>
      </trkpt>
      <trkpt lat="46.14782" lon="4.58033">
        <ele>473.4</ele>
        <time>2020-10-19T14:05:35Z</time>
      </trkpt>
      <trkpt lat="46.14781" lon="4.5803">
        <ele>473.6</ele>
        <time>2020-10-19T14:05:36Z</time>
      </trkpt>
      <trkpt lat="46.14781" lon="4.5803">
        <ele>473.4</ele>
        <time>2020-10-19T14:05:37Z</time>
      </trkpt>
      <trkpt lat="46.14781" lon="4.58026">
        <ele>473.6</ele>
        <time>2020-10-19T14:05:38Z</time>
      </trkpt>
      <trkpt lat="46.14781" lon="4.58026">
        <ele>473.8</ele>
        <time>2020-10-19T14:05:39Z</time>
      </trkpt>
      <trkpt lat="46.14781" lon="4.58023">
        <ele>473.8</ele>
        <time>2020-10-19T14:05:40Z</time>
      </trkpt>
      <trkpt lat="46.14781" lon="4.58023">
        <ele>473.6</ele>
        <time>2020-10-19T14:05:41Z</time>
      </trkpt>
      <trkpt lat="46.14781" lon="4.5802">
        <ele>473.6</ele>
        <time>2020-10-19T14:05:42Z</time>
      </trkpt>
      <trkpt lat="46.14781" lon="4.5802">
        <ele>473.6</ele>
        <time>2020-10-19T14:05:43Z</time>
      </trkpt>
      <trkpt lat="46.14781" lon="4.58016">
        <ele>474</ele>
        <time>2020-10-19T14:05:44Z</time>
      </trkpt>
      <trkpt lat="46.14781" lon="4.58016">
        <ele>474</ele>
        <time>2020-10-19T14:05:45Z</time>
      </trkpt>
      <trkpt lat="46.14781" lon="4.58013">
        <ele>474.2</ele>
        <time>2020-10-19T14:05:46Z</time>
      </trkpt>
      <trkpt lat="46.14781" lon="4.58013">
        <ele>474.4</ele>
        <time>2020-10-19T14:05:47Z</time>
      </trkpt>
      <trkpt lat="46.14782" lon="4.58009">
        <ele>474.6</ele>
        <time>2020-10-19T14:05:48Z</time>
      </trkpt>
      <trkpt lat="46.14782" lon="4.58009">
        <ele>474.8</ele>
        <time>2020-10-19T14:05:49Z</time>
      </trkpt>
      <trkpt lat="46.14784" lon="4.58006">
        <ele>474.8</ele>
        <time>2020-10-19T14:05:50Z</time>
      </trkpt>
      <trkpt lat="46.14784" lon="4.58006">
        <ele>475</ele>
        <time>2020-10-19T14:05:51Z</time>
      </trkpt>
      <trkpt lat="46.14786" lon="4.58002">
        <ele>475.2</ele>
        <time>2020-10-19T14:05:52Z</time>
      </trkpt>
      <trkpt lat="46.14786" lon="4.58002">
        <ele>475.2</ele>
        <time>2020-10-19T14:05:53Z</time>
      </trkpt>
      <trkpt lat="46.14788" lon="4.57998">
        <ele>475.2</ele>
        <time>2020-10-19T14:05:54Z</time>
      </trkpt>
      <trkpt lat="46.14788" lon="4.57998">
        <ele>475.6</ele>
        <time>2020-10-19T14:05:55Z</time>
      </trkpt>
      <trkpt lat="46.1479" lon="4.57994">
        <ele>476</ele>
        <time>2020-10-19T14:05:56Z</time>
      </trkpt>
      <trkpt lat="46.1479" lon="4.57994">
        <ele>476</ele>
        <time>2020-10-19T14:05:57Z</time>
      </trkpt>
      <trkpt lat="46.14791" lon="4.57991">
        <ele>476.4</ele>
        <time>2020-10-19T14:05:58Z</time>
      </trkpt>
      <trkpt lat="46.14791" lon="4.57991">
        <ele>476.6</ele>
        <time>2020-10-19T14:05:59Z</time>
      </trkpt>
      <trkpt lat="46.14792" lon="4.57988">
        <ele>477</ele>
        <time>2020-10-19T14:06:00Z</time>
      </trkpt>
      <trkpt lat="46.14792" lon="4.57988">
        <ele>477</ele>
        <time>2020-10-19T14:06:01Z</time>
      </trkpt>
      <trkpt lat="46.14794" lon="4.57984">
        <ele>477.2</ele>
        <time>2020-10-19T14:06:02Z</time>
      </trkpt>
      <trkpt lat="46.14794" lon="4.57984">
        <ele>477.2</ele>
        <time>2020-10-19T14:06:03Z</time>
      </trkpt>
      <trkpt lat="46.14795" lon="4.57981">
        <ele>477.2</ele>
        <time>2020-10-19T14:06:04Z</time>
      </trkpt>
      <trkpt lat="46.14796" lon="4.57979">
        <ele>477.6</ele>
        <time>2020-10-19T14:06:05Z</time>
      </trkpt>
      <trkpt lat="46.14796" lon="4.57979">
        <ele>477.4</ele>
        <time>2020-10-19T14:06:06Z</time>
      </trkpt>
      <trkpt lat="46.14797" lon="4.57974">
        <ele>477.6</ele>
        <time>2020-10-19T14:06:07Z</time>
      </trkpt>
      <trkpt lat="46.14797" lon="4.57974">
        <ele>477.4</ele>
        <time>2020-10-19T14:06:08Z</time>
      </trkpt>
      <trkpt lat="46.14799" lon="4.5797">
        <ele>477.6</ele>
        <time>2020-10-19T14:06:09Z</time>
      </trkpt>
      <trkpt lat="46.14799" lon="4.5797">
        <ele>477.6</ele>
        <time>2020-10-19T14:06:10Z</time>
      </trkpt>
      <trkpt lat="46.14801" lon="4.57967">
        <ele>477.6</ele>
        <time>2020-10-19T14:06:11Z</time>
      </trkpt>
      <trkpt lat="46.14801" lon="4.57967">
        <ele>477.8</ele>
        <time>2020-10-19T14:06:12Z</time>
      </trkpt>
      <trkpt lat="46.14802" lon="4.57963">
        <ele>477.8</ele>
        <time>2020-10-19T14:06:13Z</time>
      </trkpt>
      <trkpt lat="46.14802" lon="4.57963">
        <ele>478.2</ele>
        <time>2020-10-19T14:06:14Z</time>
      </trkpt>
      <trkpt lat="46.14804" lon="4.57959">
        <ele>478.6</ele>
        <time>2020-10-19T14:06:15Z</time>
      </trkpt>
      <trkpt lat="46.14804" lon="4.57959">
        <ele>478.2</ele>
        <time>2020-10-19T14:06:16Z</time>
      </trkpt>
      <trkpt lat="46.14806" lon="4.57956">
        <ele>478.4</ele>
        <time>2020-10-19T14:06:17Z</time>
      </trkpt>
      <trkpt lat="46.14806" lon="4.57956">
        <ele>478.4</ele>
        <time>2020-10-19T14:06:18Z</time>
      </trkpt>
      <trkpt lat="46.14807" lon="4.57952">
        <ele>478.6</ele>
        <time>2020-10-19T14:06:19Z</time>
      </trkpt>
      <trkpt lat="46.14807" lon="4.57952">
        <ele>478.6</ele>
        <time>2020-10-19T14:06:20Z</time>
      </trkpt>
      <trkpt lat="46.14809" lon="4.57949">
        <ele>478.6</ele>
        <time>2020-10-19T14:06:21Z</time>
      </trkpt>
      <trkpt lat="46.14809" lon="4.57949">
        <ele>478.6</ele>
        <time>2020-10-19T14:06:22Z</time>
      </trkpt>
      <trkpt lat="46.14811" lon="4.57945">
        <ele>478.8</ele>
        <time>2020-10-19T14:06:23Z</time>
      </trkpt>
      <trkpt lat="46.14811" lon="4.57945">
        <ele>478.6</ele>
        <time>2020-10-19T14:06:24Z</time>
      </trkpt>
      <trkpt lat="46.14812" lon="4.57941">
        <ele>478.8</ele>
        <time>2020-10-19T14:06:25Z</time>
      </trkpt>
      <trkpt lat="46.14812" lon="4.57941">
        <ele>479</ele>
        <time>2020-10-19T14:06:26Z</time>
      </trkpt>
      <trkpt lat="46.14814" lon="4.57938">
        <ele>479</ele>
        <time>2020-10-19T14:06:27Z</time>
      </trkpt>
      <trkpt lat="46.14814" lon="4.57938">
        <ele>479</ele>
        <time>2020-10-19T14:06:28Z</time>
      </trkpt>
      <trkpt lat="46.14815" lon="4.57933">
        <ele>479</ele>
        <time>2020-10-19T14:06:29Z</time>
      </trkpt>
      <trkpt lat="46.14815" lon="4.57933">
        <ele>479</ele>
        <time>2020-10-19T14:06:30Z</time>
      </trkpt>
      <trkpt lat="46.14816" lon="4.5793">
        <ele>479.2</ele>
        <time>2020-10-19T14:06:31Z</time>
      </trkpt>
      <trkpt lat="46.14816" lon="4.5793">
        <ele>479.2</ele>
        <time>2020-10-19T14:06:32Z</time>
      </trkpt>
      <trkpt lat="46.14818" lon="4.57926">
        <ele>479</ele>
        <time>2020-10-19T14:06:33Z</time>
      </trkpt>
      <trkpt lat="46.14818" lon="4.57926">
        <ele>479</ele>
        <time>2020-10-19T14:06:34Z</time>
      </trkpt>
      <trkpt lat="46.14819" lon="4.57922">
        <ele>479</ele>
        <time>2020-10-19T14:06:35Z</time>
      </trkpt>
      <trkpt lat="46.14819" lon="4.57922">
        <ele>479</ele>
        <time>2020-10-19T14:06:36Z</time>
      </trkpt>
      <trkpt lat="46.14821" lon="4.57919">
        <ele>479</ele>
        <time>2020-10-19T14:06:37Z</time>
      </trkpt>
      <trkpt lat="46.14821" lon="4.57919">
        <ele>479.2</ele>
        <time>2020-10-19T14:06:38Z</time>
      </trkpt>
      <trkpt lat="46.14822" lon="4.57914">
        <ele>479.4</ele>
        <time>2020-10-19T14:06:39Z</time>
      </trkpt>
      <trkpt lat="46.14822" lon="4.57914">
        <ele>479.4</ele>
        <time>2020-10-19T14:06:40Z</time>
      </trkpt>
      <trkpt lat="46.14823" lon="4.5791">
        <ele>479.8</ele>
        <time>2020-10-19T14:06:41Z</time>
      </trkpt>
      <trkpt lat="46.14823" lon="4.5791">
        <ele>479.6</ele>
        <time>2020-10-19T14:06:42Z</time>
      </trkpt>
      <trkpt lat="46.14825" lon="4.57906">
        <ele>479.4</ele>
        <time>2020-10-19T14:06:43Z</time>
      </trkpt>
      <trkpt lat="46.14825" lon="4.57906">
        <ele>479.2</ele>
        <time>2020-10-19T14:06:44Z</time>
      </trkpt>
      <trkpt lat="46.14825" lon="4.57902">
        <ele>479.2</ele>
        <time>2020-10-19T14:06:45Z</time>
      </trkpt>
      <trkpt lat="46.14825" lon="4.57902">
        <ele>479.4</ele>
        <time>2020-10-19T14:06:46Z</time>
      </trkpt>
      <trkpt lat="46.14826" lon="4.57897">
        <ele>479.6</ele>
        <time>2020-10-19T14:06:47Z</time>
      </trkpt>
      <trkpt lat="46.14826" lon="4.57897">
        <ele>479.4</ele>
        <time>2020-10-19T14:06:48Z</time>
      </trkpt>
      <trkpt lat="46.14828" lon="4.57894">
        <ele>479.6</ele>
        <time>2020-10-19T14:06:49Z</time>
      </trkpt>
      <trkpt lat="46.14828" lon="4.57894">
        <ele>479.4</ele>
        <time>2020-10-19T14:06:50Z</time>
      </trkpt>
      <trkpt lat="46.14829" lon="4.5789">
        <ele>479.6</ele>
        <time>2020-10-19T14:06:51Z</time>
      </trkpt>
      <trkpt lat="46.14829" lon="4.5789">
        <ele>479.6</ele>
        <time>2020-10-19T14:06:52Z</time>
      </trkpt>
      <trkpt lat="46.1483" lon="4.57885">
        <ele>479.4</ele>
        <time>2020-10-19T14:06:53Z</time>
      </trkpt>
      <trkpt lat="46.1483" lon="4.57885">
        <ele>479</ele>
        <time>2020-10-19T14:06:54Z</time>
      </trkpt>
      <trkpt lat="46.14832" lon="4.57881">
        <ele>479.2</ele>
        <time>2020-10-19T14:06:55Z</time>
      </trkpt>
      <trkpt lat="46.14832" lon="4.57881">
        <ele>479.6</ele>
        <time>2020-10-19T14:06:56Z</time>
      </trkpt>
      <trkpt lat="46.14833" lon="4.57877">
        <ele>479.6</ele>
        <time>2020-10-19T14:06:57Z</time>
      </trkpt>
      <trkpt lat="46.14833" lon="4.57877">
        <ele>479.4</ele>
        <time>2020-10-19T14:06:58Z</time>
      </trkpt>
      <trkpt lat="46.14834" lon="4.57873">
        <ele>479.6</ele>
        <time>2020-10-19T14:06:59Z</time>
      </trkpt>
      <trkpt lat="46.14834" lon="4.57873">
        <ele>479.2</ele>
        <time>2020-10-19T14:07:00Z</time>
      </trkpt>
      <trkpt lat="46.14834" lon="4.57868">
        <ele>479.4</ele>
        <time>2020-10-19T14:07:01Z</time>
      </trkpt>
      <trkpt lat="46.14834" lon="4.57868">
        <ele>479.4</ele>
        <time>2020-10-19T14:07:02Z</time>
      </trkpt>
      <trkpt lat="46.14835" lon="4.57863">
        <ele>479.2</ele>
        <time>2020-10-19T14:07:03Z</time>
      </trkpt>
      <trkpt lat="46.14835" lon="4.57863">
        <ele>479.2</ele>
        <time>2020-10-19T14:07:04Z</time>
      </trkpt>
      <trkpt lat="46.14836" lon="4.57859">
        <ele>479.2</ele>
        <time>2020-10-19T14:07:05Z</time>
      </trkpt>
      <trkpt lat="46.14836" lon="4.57859">
        <ele>479.2</ele>
        <time>2020-10-19T14:07:06Z</time>
      </trkpt>
      <trkpt lat="46.14837" lon="4.57855">
        <ele>479.4</ele>
        <time>2020-10-19T14:07:07Z</time>
      </trkpt>
      <trkpt lat="46.14837" lon="4.57855">
        <ele>479.6</ele>
        <time>2020-10-19T14:07:08Z</time>
      </trkpt>
      <trkpt lat="46.14839" lon="4.57851">
        <ele>479.8</ele>
        <time>2020-10-19T14:07:09Z</time>
      </trkpt>
      <trkpt lat="46.14839" lon="4.57851">
        <ele>480</ele>
        <time>2020-10-19T14:07:10Z</time>
      </trkpt>
      <trkpt lat="46.1484" lon="4.57847">
        <ele>480.2</ele>
        <time>2020-10-19T14:07:11Z</time>
      </trkpt>
      <trkpt lat="46.1484" lon="4.57847">
        <ele>480.2</ele>
        <time>2020-10-19T14:07:12Z</time>
      </trkpt>
      <trkpt lat="46.14841" lon="4.57842">
        <ele>480</ele>
        <time>2020-10-19T14:07:13Z</time>
      </trkpt>
      <trkpt lat="46.14841" lon="4.57842">
        <ele>479.6</ele>
        <time>2020-10-19T14:07:14Z</time>
      </trkpt>
      <trkpt lat="46.14842" lon="4.57838">
        <ele>479.4</ele>
        <time>2020-10-19T14:07:15Z</time>
      </trkpt>
      <trkpt lat="46.14842" lon="4.57838">
        <ele>479.2</ele>
        <time>2020-10-19T14:07:16Z</time>
      </trkpt>
      <trkpt lat="46.14843" lon="4.57834">
        <ele>479</ele>
        <time>2020-10-19T14:07:17Z</time>
      </trkpt>
      <trkpt lat="46.14843" lon="4.57834">
        <ele>479.2</ele>
        <time>2020-10-19T14:07:18Z</time>
      </trkpt>
      <trkpt lat="46.14844" lon="4.57831">
        <ele>479.4</ele>
        <time>2020-10-19T14:07:19Z</time>
      </trkpt>
      <trkpt lat="46.14844" lon="4.57831">
        <ele>479.2</ele>
        <time>2020-10-19T14:07:20Z</time>
      </trkpt>
      <trkpt lat="46.14845" lon="4.57827">
        <ele>479.2</ele>
        <time>2020-10-19T14:07:21Z</time>
      </trkpt>
      <trkpt lat="46.14845" lon="4.57827">
        <ele>479</ele>
        <time>2020-10-19T14:07:22Z</time>
      </trkpt>
      <trkpt lat="46.14846" lon="4.57823">
        <ele>479.2</ele>
        <time>2020-10-19T14:07:23Z</time>
      </trkpt>
      <trkpt lat="46.14846" lon="4.57823">
        <ele>479.2</ele>
        <time>2020-10-19T14:07:24Z</time>
      </trkpt>
      <trkpt lat="46.14847" lon="4.57819">
        <ele>479</ele>
        <time>2020-10-19T14:07:25Z</time>
      </trkpt>
      <trkpt lat="46.14847" lon="4.57819">
        <ele>479</ele>
        <time>2020-10-19T14:07:26Z</time>
      </trkpt>
      <trkpt lat="46.14847" lon="4.57814">
        <ele>479.2</ele>
        <time>2020-10-19T14:07:27Z</time>
      </trkpt>
      <trkpt lat="46.14847" lon="4.57814">
        <ele>479</ele>
        <time>2020-10-19T14:07:28Z</time>
      </trkpt>
      <trkpt lat="46.14848" lon="4.57811">
        <ele>479.2</ele>
        <time>2020-10-19T14:07:29Z</time>
      </trkpt>
      <trkpt lat="46.14848" lon="4.57811">
        <ele>479.2</ele>
        <time>2020-10-19T14:07:30Z</time>
      </trkpt>
      <trkpt lat="46.14849" lon="4.57807">
        <ele>479.4</ele>
        <time>2020-10-19T14:07:31Z</time>
      </trkpt>
      <trkpt lat="46.14849" lon="4.57807">
        <ele>479.6</ele>
        <time>2020-10-19T14:07:32Z</time>
      </trkpt>
      <trkpt lat="46.14851" lon="4.57803">
        <ele>479.6</ele>
        <time>2020-10-19T14:07:33Z</time>
      </trkpt>
      <trkpt lat="46.14851" lon="4.57803">
        <ele>479.8</ele>
        <time>2020-10-19T14:07:34Z</time>
      </trkpt>
      <trkpt lat="46.14852" lon="4.57798">
        <ele>479.8</ele>
        <time>2020-10-19T14:07:35Z</time>
      </trkpt>
      <trkpt lat="46.14852" lon="4.57798">
        <ele>479.8</ele>
        <time>2020-10-19T14:07:36Z</time>
      </trkpt>
      <trkpt lat="46.14853" lon="4.57794">
        <ele>479.8</ele>
        <time>2020-10-19T14:07:37Z</time>
      </trkpt>
      <trkpt lat="46.14853" lon="4.57794">
        <ele>479.8</ele>
        <time>2020-10-19T14:07:38Z</time>
      </trkpt>
      <trkpt lat="46.14854" lon="4.5779">
        <ele>480.2</ele>
        <time>2020-10-19T14:07:39Z</time>
      </trkpt>
      <trkpt lat="46.14854" lon="4.5779">
        <ele>480.6</ele>
        <time>2020-10-19T14:07:40Z</time>
      </trkpt>
      <trkpt lat="46.14856" lon="4.57785">
        <ele>480.4</ele>
        <time>2020-10-19T14:07:41Z</time>
      </trkpt>
      <trkpt lat="46.14856" lon="4.57785">
        <ele>480.6</ele>
        <time>2020-10-19T14:07:42Z</time>
      </trkpt>
      <trkpt lat="46.14857" lon="4.57781">
        <ele>480.4</ele>
        <time>2020-10-19T14:07:43Z</time>
      </trkpt>
      <trkpt lat="46.14857" lon="4.57781">
        <ele>480.6</ele>
        <time>2020-10-19T14:07:44Z</time>
      </trkpt>
      <trkpt lat="46.14858" lon="4.57776">
        <ele>480.8</ele>
        <time>2020-10-19T14:07:45Z</time>
      </trkpt>
      <trkpt lat="46.14858" lon="4.57776">
        <ele>480.8</ele>
        <time>2020-10-19T14:07:46Z</time>
      </trkpt>
      <trkpt lat="46.14859" lon="4.57772">
        <ele>480.8</ele>
        <time>2020-10-19T14:07:47Z</time>
      </trkpt>
      <trkpt lat="46.14859" lon="4.57772">
        <ele>481</ele>
        <time>2020-10-19T14:07:48Z</time>
      </trkpt>
      <trkpt lat="46.14861" lon="4.57768">
        <ele>480.8</ele>
        <time>2020-10-19T14:07:49Z</time>
      </trkpt>
      <trkpt lat="46.14861" lon="4.57768">
        <ele>480.8</ele>
        <time>2020-10-19T14:07:50Z</time>
      </trkpt>
      <trkpt lat="46.14862" lon="4.57764">
        <ele>480.8</ele>
        <time>2020-10-19T14:07:51Z</time>
      </trkpt>
      <trkpt lat="46.14862" lon="4.57764">
        <ele>481</ele>
        <time>2020-10-19T14:07:52Z</time>
      </trkpt>
      <trkpt lat="46.14863" lon="4.5776">
        <ele>481</ele>
        <time>2020-10-19T14:07:53Z</time>
      </trkpt>
      <trkpt lat="46.14863" lon="4.5776">
        <ele>481.2</ele>
        <time>2020-10-19T14:07:54Z</time>
      </trkpt>
      <trkpt lat="46.14864" lon="4.57756">
        <ele>481.2</ele>
        <time>2020-10-19T14:07:55Z</time>
      </trkpt>
      <trkpt lat="46.14864" lon="4.57756">
        <ele>481.2</ele>
        <time>2020-10-19T14:07:56Z</time>
      </trkpt>
      <trkpt lat="46.14865" lon="4.57752">
        <ele>481.2</ele>
        <time>2020-10-19T14:07:57Z</time>
      </trkpt>
      <trkpt lat="46.14865" lon="4.57752">
        <ele>481.2</ele>
        <time>2020-10-19T14:07:58Z</time>
      </trkpt>
      <trkpt lat="46.14866" lon="4.57748">
        <ele>481.4</ele>
        <time>2020-10-19T14:07:59Z</time>
      </trkpt>
      <trkpt lat="46.14866" lon="4.57748">
        <ele>481.4</ele>
        <time>2020-10-19T14:08:00Z</time>
      </trkpt>
      <trkpt lat="46.14867" lon="4.57744">
        <ele>481.4</ele>
        <time>2020-10-19T14:08:01Z</time>
      </trkpt>
      <trkpt lat="46.14867" lon="4.57744">
        <ele>481.4</ele>
        <time>2020-10-19T14:08:02Z</time>
      </trkpt>
      <trkpt lat="46.14869" lon="4.5774">
        <ele>481.4</ele>
        <time>2020-10-19T14:08:03Z</time>
      </trkpt>
      <trkpt lat="46.14869" lon="4.5774">
        <ele>481.2</ele>
        <time>2020-10-19T14:08:04Z</time>
      </trkpt>
      <trkpt lat="46.14869" lon="4.57735">
        <ele>481.6</ele>
        <time>2020-10-19T14:08:05Z</time>
      </trkpt>
      <trkpt lat="46.14869" lon="4.57735">
        <ele>481.2</ele>
        <time>2020-10-19T14:08:06Z</time>
      </trkpt>
      <trkpt lat="46.1487" lon="4.57732">
        <ele>481.6</ele>
        <time>2020-10-19T14:08:07Z</time>
      </trkpt>
      <trkpt lat="46.1487" lon="4.57732">
        <ele>481.6</ele>
        <time>2020-10-19T14:08:08Z</time>
      </trkpt>
      <trkpt lat="46.14872" lon="4.57728">
        <ele>481.8</ele>
        <time>2020-10-19T14:08:09Z</time>
      </trkpt>
      <trkpt lat="46.14872" lon="4.57728">
        <ele>481.8</ele>
        <time>2020-10-19T14:08:10Z</time>
      </trkpt>
      <trkpt lat="46.14873" lon="4.57725">
        <ele>481.8</ele>
        <time>2020-10-19T14:08:11Z</time>
      </trkpt>
      <trkpt lat="46.14873" lon="4.57725">
        <ele>482</ele>
        <time>2020-10-19T14:08:12Z</time>
      </trkpt>
      <trkpt lat="46.14874" lon="4.57721">
        <ele>482.2</ele>
        <time>2020-10-19T14:08:13Z</time>
      </trkpt>
      <trkpt lat="46.14874" lon="4.57721">
        <ele>482.2</ele>
        <time>2020-10-19T14:08:14Z</time>
      </trkpt>
      <trkpt lat="46.14875" lon="4.57718">
        <ele>482.4</ele>
        <time>2020-10-19T14:08:15Z</time>
      </trkpt>
      <trkpt lat="46.14875" lon="4.57718">
        <ele>482.4</ele>
        <time>2020-10-19T14:08:16Z</time>
      </trkpt>
      <trkpt lat="46.14876" lon="4.57715">
        <ele>482.4</ele>
        <time>2020-10-19T14:08:17Z</time>
      </trkpt>
      <trkpt lat="46.14876" lon="4.57715">
        <ele>482.8</ele>
        <time>2020-10-19T14:08:18Z</time>
      </trkpt>
      <trkpt lat="46.14877" lon="4.57712">
        <ele>482.6</ele>
        <time>2020-10-19T14:08:19Z</time>
      </trkpt>
      <trkpt lat="46.14877" lon="4.57712">
        <ele>482.8</ele>
        <time>2020-10-19T14:08:20Z</time>
      </trkpt>
      <trkpt lat="46.14878" lon="4.57708">
        <ele>483</ele>
        <time>2020-10-19T14:08:21Z</time>
      </trkpt>
      <trkpt lat="46.14878" lon="4.57708">
        <ele>483</ele>
        <time>2020-10-19T14:08:22Z</time>
      </trkpt>
      <trkpt lat="46.14879" lon="4.57704">
        <ele>483</ele>
        <time>2020-10-19T14:08:23Z</time>
      </trkpt>
      <trkpt lat="46.14879" lon="4.57704">
        <ele>483</ele>
        <time>2020-10-19T14:08:24Z</time>
      </trkpt>
      <trkpt lat="46.1488" lon="4.577">
        <ele>483.4</ele>
        <time>2020-10-19T14:08:25Z</time>
      </trkpt>
      <trkpt lat="46.1488" lon="4.577">
        <ele>483.2</ele>
        <time>2020-10-19T14:08:26Z</time>
      </trkpt>
      <trkpt lat="46.14882" lon="4.57696">
        <ele>483.6</ele>
        <time>2020-10-19T14:08:27Z</time>
      </trkpt>
      <trkpt lat="46.14882" lon="4.57696">
        <ele>483.4</ele>
        <time>2020-10-19T14:08:28Z</time>
      </trkpt>
      <trkpt lat="46.14883" lon="4.57692">
        <ele>483.6</ele>
        <time>2020-10-19T14:08:29Z</time>
      </trkpt>
      <trkpt lat="46.14883" lon="4.57692">
        <ele>483.6</ele>
        <time>2020-10-19T14:08:30Z</time>
      </trkpt>
      <trkpt lat="46.14884" lon="4.57689">
        <ele>483.8</ele>
        <time>2020-10-19T14:08:31Z</time>
      </trkpt>
      <trkpt lat="46.14884" lon="4.57689">
        <ele>483.8</ele>
        <time>2020-10-19T14:08:32Z</time>
      </trkpt>
      <trkpt lat="46.14885" lon="4.57685">
        <ele>484.2</ele>
        <time>2020-10-19T14:08:33Z</time>
      </trkpt>
      <trkpt lat="46.14885" lon="4.57685">
        <ele>484.4</ele>
        <time>2020-10-19T14:08:34Z</time>
      </trkpt>
      <trkpt lat="46.14887" lon="4.57681">
        <ele>484.4</ele>
        <time>2020-10-19T14:08:35Z</time>
      </trkpt>
      <trkpt lat="46.14887" lon="4.57681">
        <ele>484.6</ele>
        <time>2020-10-19T14:08:36Z</time>
      </trkpt>
      <trkpt lat="46.14888" lon="4.57677">
        <ele>484.8</ele>
        <time>2020-10-19T14:08:37Z</time>
      </trkpt>
      <trkpt lat="46.14888" lon="4.57677">
        <ele>485</ele>
        <time>2020-10-19T14:08:38Z</time>
      </trkpt>
      <trkpt lat="46.14889" lon="4.57674">
        <ele>485</ele>
        <time>2020-10-19T14:08:39Z</time>
      </trkpt>
      <trkpt lat="46.14889" lon="4.57674">
        <ele>485.2</ele>
        <time>2020-10-19T14:08:40Z</time>
      </trkpt>
      <trkpt lat="46.1489" lon="4.57671">
        <ele>485.4</ele>
        <time>2020-10-19T14:08:41Z</time>
      </trkpt>
      <trkpt lat="46.1489" lon="4.57671">
        <ele>485.6</ele>
        <time>2020-10-19T14:08:42Z</time>
      </trkpt>
      <trkpt lat="46.14891" lon="4.57668">
        <ele>485.6</ele>
        <time>2020-10-19T14:08:43Z</time>
      </trkpt>
      <trkpt lat="46.14891" lon="4.57668">
        <ele>485.6</ele>
        <time>2020-10-19T14:08:44Z</time>
      </trkpt>
      <trkpt lat="46.14891" lon="4.57664">
        <ele>486</ele>
        <time>2020-10-19T14:08:45Z</time>
      </trkpt>
      <trkpt lat="46.14891" lon="4.57664">
        <ele>486.2</ele>
        <time>2020-10-19T14:08:46Z</time>
      </trkpt>
      <trkpt lat="46.14893" lon="4.5766">
        <ele>486.2</ele>
        <time>2020-10-19T14:08:47Z</time>
      </trkpt>
      <trkpt lat="46.14893" lon="4.5766">
        <ele>486.2</ele>
        <time>2020-10-19T14:08:48Z</time>
      </trkpt>
      <trkpt lat="46.14893" lon="4.57657">
        <ele>486.4</ele>
        <time>2020-10-19T14:08:49Z</time>
      </trkpt>
      <trkpt lat="46.14893" lon="4.57657">
        <ele>486.6</ele>
        <time>2020-10-19T14:08:50Z</time>
      </trkpt>
      <trkpt lat="46.14894" lon="4.57653">
        <ele>487</ele>
        <time>2020-10-19T14:08:51Z</time>
      </trkpt>
      <trkpt lat="46.14894" lon="4.57653">
        <ele>487</ele>
        <time>2020-10-19T14:08:52Z</time>
      </trkpt>
      <trkpt lat="46.14895" lon="4.5765">
        <ele>487.4</ele>
        <time>2020-10-19T14:08:53Z</time>
      </trkpt>
      <trkpt lat="46.14895" lon="4.5765">
        <ele>487.6</ele>
        <time>2020-10-19T14:08:54Z</time>
      </trkpt>
      <trkpt lat="46.14896" lon="4.57645">
        <ele>487.8</ele>
        <time>2020-10-19T14:08:55Z</time>
      </trkpt>
      <trkpt lat="46.14896" lon="4.57645">
        <ele>488</ele>
        <time>2020-10-19T14:08:56Z</time>
      </trkpt>
      <trkpt lat="46.14898" lon="4.57642">
        <ele>488.2</ele>
        <time>2020-10-19T14:08:57Z</time>
      </trkpt>
      <trkpt lat="46.14898" lon="4.57642">
        <ele>488.2</ele>
        <time>2020-10-19T14:08:58Z</time>
      </trkpt>
      <trkpt lat="46.14898" lon="4.57638">
        <ele>488.6</ele>
        <time>2020-10-19T14:08:59Z</time>
      </trkpt>
      <trkpt lat="46.14898" lon="4.57638">
        <ele>488.6</ele>
        <time>2020-10-19T14:09:00Z</time>
      </trkpt>
      <trkpt lat="46.14899" lon="4.57634">
        <ele>488.8</ele>
        <time>2020-10-19T14:09:01Z</time>
      </trkpt>
      <trkpt lat="46.14899" lon="4.57634">
        <ele>488.8</ele>
        <time>2020-10-19T14:09:02Z</time>
      </trkpt>
      <trkpt lat="46.149" lon="4.5763">
        <ele>488.8</ele>
        <time>2020-10-19T14:09:03Z</time>
      </trkpt>
      <trkpt lat="46.149" lon="4.5763">
        <ele>488.8</ele>
        <time>2020-10-19T14:09:04Z</time>
      </trkpt>
      <trkpt lat="46.149" lon="4.57626">
        <ele>489</ele>
        <time>2020-10-19T14:09:05Z</time>
      </trkpt>
      <trkpt lat="46.149" lon="4.57626">
        <ele>489</ele>
        <time>2020-10-19T14:09:06Z</time>
      </trkpt>
      <trkpt lat="46.149" lon="4.57622">
        <ele>489.2</ele>
        <time>2020-10-19T14:09:07Z</time>
      </trkpt>
      <trkpt lat="46.149" lon="4.57622">
        <ele>489.4</ele>
        <time>2020-10-19T14:09:08Z</time>
      </trkpt>
      <trkpt lat="46.14901" lon="4.57618">
        <ele>489.4</ele>
        <time>2020-10-19T14:09:09Z</time>
      </trkpt>
      <trkpt lat="46.14901" lon="4.57618">
        <ele>489.2</ele>
        <time>2020-10-19T14:09:10Z</time>
      </trkpt>
      <trkpt lat="46.14902" lon="4.57614">
        <ele>489.4</ele>
        <time>2020-10-19T14:09:11Z</time>
      </trkpt>
      <trkpt lat="46.14902" lon="4.57614">
        <ele>489.6</ele>
        <time>2020-10-19T14:09:12Z</time>
      </trkpt>
      <trkpt lat="46.14902" lon="4.57609">
        <ele>489.6</ele>
        <time>2020-10-19T14:09:13Z</time>
      </trkpt>
      <trkpt lat="46.14902" lon="4.57609">
        <ele>489.8</ele>
        <time>2020-10-19T14:09:14Z</time>
      </trkpt>
      <trkpt lat="46.14902" lon="4.57605">
        <ele>490</ele>
        <time>2020-10-19T14:09:15Z</time>
      </trkpt>
      <trkpt lat="46.14902" lon="4.57605">
        <ele>489.8</ele>
        <time>2020-10-19T14:09:16Z</time>
      </trkpt>
      <trkpt lat="46.14903" lon="4.57601">
        <ele>490.2</ele>
        <time>2020-10-19T14:09:17Z</time>
      </trkpt>
      <trkpt lat="46.14903" lon="4.57601">
        <ele>490.2</ele>
        <time>2020-10-19T14:09:18Z</time>
      </trkpt>
      <trkpt lat="46.14903" lon="4.57596">
        <ele>490.2</ele>
        <time>2020-10-19T14:09:19Z</time>
      </trkpt>
      <trkpt lat="46.14903" lon="4.57596">
        <ele>490.4</ele>
        <time>2020-10-19T14:09:20Z</time>
      </trkpt>
      <trkpt lat="46.14903" lon="4.57592">
        <ele>490.4</ele>
        <time>2020-10-19T14:09:21Z</time>
      </trkpt>
      <trkpt lat="46.14903" lon="4.57592">
        <ele>490.4</ele>
        <time>2020-10-19T14:09:22Z</time>
      </trkpt>
      <trkpt lat="46.14904" lon="4.57588">
        <ele>490.4</ele>
        <time>2020-10-19T14:09:23Z</time>
      </trkpt>
      <trkpt lat="46.14904" lon="4.57588">
        <ele>490.6</ele>
        <time>2020-10-19T14:09:24Z</time>
      </trkpt>
      <trkpt lat="46.14904" lon="4.57584">
        <ele>490.6</ele>
        <time>2020-10-19T14:09:25Z</time>
      </trkpt>
      <trkpt lat="46.14904" lon="4.57584">
        <ele>490.8</ele>
        <time>2020-10-19T14:09:26Z</time>
      </trkpt>
      <trkpt lat="46.14904" lon="4.57579">
        <ele>490.6</ele>
        <time>2020-10-19T14:09:27Z</time>
      </trkpt>
      <trkpt lat="46.14904" lon="4.57579">
        <ele>490.8</ele>
        <time>2020-10-19T14:09:28Z</time>
      </trkpt>
      <trkpt lat="46.14904" lon="4.57575">
        <ele>491.2</ele>
        <time>2020-10-19T14:09:29Z</time>
      </trkpt>
      <trkpt lat="46.14904" lon="4.57575">
        <ele>491</ele>
        <time>2020-10-19T14:09:30Z</time>
      </trkpt>
      <trkpt lat="46.14904" lon="4.5757">
        <ele>491.2</ele>
        <time>2020-10-19T14:09:31Z</time>
      </trkpt>
      <trkpt lat="46.14904" lon="4.5757">
        <ele>491.2</ele>
        <time>2020-10-19T14:09:32Z</time>
      </trkpt>
      <trkpt lat="46.14904" lon="4.57567">
        <ele>491</ele>
        <time>2020-10-19T14:09:33Z</time>
      </trkpt>
      <trkpt lat="46.14904" lon="4.57567">
        <ele>491</ele>
        <time>2020-10-19T14:09:34Z</time>
      </trkpt>
      <trkpt lat="46.14904" lon="4.57562">
        <ele>490.8</ele>
        <time>2020-10-19T14:09:35Z</time>
      </trkpt>
      <trkpt lat="46.14904" lon="4.57562">
        <ele>490.6</ele>
        <time>2020-10-19T14:09:36Z</time>
      </trkpt>
      <trkpt lat="46.14903" lon="4.57558">
        <ele>490.6</ele>
        <time>2020-10-19T14:09:37Z</time>
      </trkpt>
      <trkpt lat="46.14903" lon="4.57558">
        <ele>490.4</ele>
        <time>2020-10-19T14:09:38Z</time>
      </trkpt>
      <trkpt lat="46.14903" lon="4.57554">
        <ele>490.4</ele>
        <time>2020-10-19T14:09:39Z</time>
      </trkpt>
      <trkpt lat="46.14903" lon="4.57554">
        <ele>490.4</ele>
        <time>2020-10-19T14:09:40Z</time>
      </trkpt>
      <trkpt lat="46.14903" lon="4.5755">
        <ele>490.2</ele>
        <time>2020-10-19T14:09:41Z</time>
      </trkpt>
      <trkpt lat="46.14903" lon="4.5755">
        <ele>490</ele>
        <time>2020-10-19T14:09:42Z</time>
      </trkpt>
      <trkpt lat="46.14903" lon="4.57547">
        <ele>490</ele>
        <time>2020-10-19T14:09:43Z</time>
      </trkpt>
      <trkpt lat="46.14903" lon="4.57547">
        <ele>489.8</ele>
        <time>2020-10-19T14:09:44Z</time>
      </trkpt>
      <trkpt lat="46.14903" lon="4.57542">
        <ele>489.8</ele>
        <time>2020-10-19T14:09:45Z</time>
      </trkpt>
      <trkpt lat="46.14903" lon="4.57542">
        <ele>489.8</ele>
        <time>2020-10-19T14:09:46Z</time>
      </trkpt>
      <trkpt lat="46.14903" lon="4.57537">
        <ele>489.8</ele>
        <time>2020-10-19T14:09:47Z</time>
      </trkpt>
      <trkpt lat="46.14903" lon="4.57537">
        <ele>489.6</ele>
        <time>2020-10-19T14:09:48Z</time>
      </trkpt>
      <trkpt lat="46.14903" lon="4.57533">
        <ele>489.4</ele>
        <time>2020-10-19T14:09:49Z</time>
      </trkpt>
      <trkpt lat="46.14903" lon="4.57533">
        <ele>489</ele>
        <time>2020-10-19T14:09:50Z</time>
      </trkpt>
      <trkpt lat="46.14902" lon="4.5753">
        <ele>489</ele>
        <time>2020-10-19T14:09:51Z</time>
      </trkpt>
      <trkpt lat="46.14902" lon="4.5753">
        <ele>489</ele>
        <time>2020-10-19T14:09:52Z</time>
      </trkpt>
      <trkpt lat="46.14902" lon="4.57526">
        <ele>489.2</ele>
        <time>2020-10-19T14:09:53Z</time>
      </trkpt>
      <trkpt lat="46.14902" lon="4.57523">
        <ele>488.8</ele>
        <time>2020-10-19T14:09:54Z</time>
      </trkpt>
      <trkpt lat="46.14902" lon="4.57523">
        <ele>488.6</ele>
        <time>2020-10-19T14:09:55Z</time>
      </trkpt>
      <trkpt lat="46.14903" lon="4.57518">
        <ele>488.2</ele>
        <time>2020-10-19T14:09:56Z</time>
      </trkpt>
      <trkpt lat="46.14903" lon="4.57518">
        <ele>488.4</ele>
        <time>2020-10-19T14:09:57Z</time>
      </trkpt>
      <trkpt lat="46.14903" lon="4.57515">
        <ele>488</ele>
        <time>2020-10-19T14:09:58Z</time>
      </trkpt>
      <trkpt lat="46.14903" lon="4.57515">
        <ele>487.6</ele>
        <time>2020-10-19T14:09:59Z</time>
      </trkpt>
      <trkpt lat="46.14903" lon="4.57511">
        <ele>487.6</ele>
        <time>2020-10-19T14:10:00Z</time>
      </trkpt>
      <trkpt lat="46.14903" lon="4.57511">
        <ele>487.4</ele>
        <time>2020-10-19T14:10:01Z</time>
      </trkpt>
      <trkpt lat="46.14903" lon="4.57507">
        <ele>487</ele>
        <time>2020-10-19T14:10:02Z</time>
      </trkpt>
      <trkpt lat="46.14903" lon="4.57507">
        <ele>487</ele>
        <time>2020-10-19T14:10:03Z</time>
      </trkpt>
      <trkpt lat="46.14903" lon="4.57503">
        <ele>486.6</ele>
        <time>2020-10-19T14:10:04Z</time>
      </trkpt>
      <trkpt lat="46.14903" lon="4.57503">
        <ele>486.4</ele>
        <time>2020-10-19T14:10:05Z</time>
      </trkpt>
      <trkpt lat="46.14903" lon="4.57498">
        <ele>486.2</ele>
        <time>2020-10-19T14:10:06Z</time>
      </trkpt>
      <trkpt lat="46.14903" lon="4.57498">
        <ele>486.2</ele>
        <time>2020-10-19T14:10:07Z</time>
      </trkpt>
      <trkpt lat="46.14904" lon="4.57494">
        <ele>485.8</ele>
        <time>2020-10-19T14:10:08Z</time>
      </trkpt>
      <trkpt lat="46.14904" lon="4.57494">
        <ele>485.6</ele>
        <time>2020-10-19T14:10:09Z</time>
      </trkpt>
      <trkpt lat="46.14904" lon="4.5749">
        <ele>485.6</ele>
        <time>2020-10-19T14:10:10Z</time>
      </trkpt>
      <trkpt lat="46.14904" lon="4.5749">
        <ele>485.8</ele>
        <time>2020-10-19T14:10:11Z</time>
      </trkpt>
      <trkpt lat="46.14904" lon="4.57486">
        <ele>485.8</ele>
        <time>2020-10-19T14:10:12Z</time>
      </trkpt>
      <trkpt lat="46.14904" lon="4.57486">
        <ele>485.6</ele>
        <time>2020-10-19T14:10:13Z</time>
      </trkpt>
      <trkpt lat="46.14904" lon="4.57483">
        <ele>485.4</ele>
        <time>2020-10-19T14:10:14Z</time>
      </trkpt>
      <trkpt lat="46.14904" lon="4.57483">
        <ele>485.4</ele>
        <time>2020-10-19T14:10:15Z</time>
      </trkpt>
      <trkpt lat="46.14903" lon="4.57479">
        <ele>485.2</ele>
        <time>2020-10-19T14:10:16Z</time>
      </trkpt>
      <trkpt lat="46.14903" lon="4.57479">
        <ele>485.2</ele>
        <time>2020-10-19T14:10:17Z</time>
      </trkpt>
      <trkpt lat="46.14903" lon="4.57475">
        <ele>484.4</ele>
        <time>2020-10-19T14:10:18Z</time>
      </trkpt>
      <trkpt lat="46.14903" lon="4.57475">
        <ele>484</ele>
        <time>2020-10-19T14:10:19Z</time>
      </trkpt>
      <trkpt lat="46.14903" lon="4.57471">
        <ele>483.4</ele>
        <time>2020-10-19T14:10:20Z</time>
      </trkpt>
      <trkpt lat="46.14903" lon="4.57471">
        <ele>483</ele>
        <time>2020-10-19T14:10:21Z</time>
      </trkpt>
      <trkpt lat="46.14904" lon="4.57467">
        <ele>483</ele>
        <time>2020-10-19T14:10:22Z</time>
      </trkpt>
      <trkpt lat="46.14904" lon="4.57464">
        <ele>483</ele>
        <time>2020-10-19T14:10:23Z</time>
      </trkpt>
      <trkpt lat="46.14904" lon="4.57464">
        <ele>483</ele>
        <time>2020-10-19T14:10:24Z</time>
      </trkpt>
      <trkpt lat="46.14904" lon="4.57459">
        <ele>482.6</ele>
        <time>2020-10-19T14:10:25Z</time>
      </trkpt>
      <trkpt lat="46.14904" lon="4.57459">
        <ele>482.6</ele>
        <time>2020-10-19T14:10:26Z</time>
      </trkpt>
      <trkpt lat="46.14904" lon="4.57454">
        <ele>482.8</ele>
        <time>2020-10-19T14:10:27Z</time>
      </trkpt>
      <trkpt lat="46.14904" lon="4.57454">
        <ele>482.6</ele>
        <time>2020-10-19T14:10:28Z</time>
      </trkpt>
      <trkpt lat="46.14904" lon="4.57449">
        <ele>482.6</ele>
        <time>2020-10-19T14:10:29Z</time>
      </trkpt>
      <trkpt lat="46.14904" lon="4.57449">
        <ele>482.6</ele>
        <time>2020-10-19T14:10:30Z</time>
      </trkpt>
      <trkpt lat="46.14904" lon="4.57445">
        <ele>482.4</ele>
        <time>2020-10-19T14:10:31Z</time>
      </trkpt>
      <trkpt lat="46.14904" lon="4.57445">
        <ele>482.2</ele>
        <time>2020-10-19T14:10:32Z</time>
      </trkpt>
      <trkpt lat="46.14905" lon="4.57441">
        <ele>482</ele>
        <time>2020-10-19T14:10:33Z</time>
      </trkpt>
      <trkpt lat="46.14905" lon="4.57441">
        <ele>482</ele>
        <time>2020-10-19T14:10:34Z</time>
      </trkpt>
      <trkpt lat="46.14905" lon="4.57437">
        <ele>482</ele>
        <time>2020-10-19T14:10:35Z</time>
      </trkpt>
      <trkpt lat="46.14905" lon="4.57437">
        <ele>481.8</ele>
        <time>2020-10-19T14:10:36Z</time>
      </trkpt>
      <trkpt lat="46.14906" lon="4.57433">
        <ele>482</ele>
        <time>2020-10-19T14:10:37Z</time>
      </trkpt>
      <trkpt lat="46.14906" lon="4.57433">
        <ele>481.8</ele>
        <time>2020-10-19T14:10:38Z</time>
      </trkpt>
      <trkpt lat="46.14907" lon="4.5743">
        <ele>481.6</ele>
        <time>2020-10-19T14:10:39Z</time>
      </trkpt>
      <trkpt lat="46.14907" lon="4.5743">
        <ele>481.8</ele>
        <time>2020-10-19T14:10:40Z</time>
      </trkpt>
      <trkpt lat="46.14908" lon="4.57426">
        <ele>481.6</ele>
        <time>2020-10-19T14:10:41Z</time>
      </trkpt>
      <trkpt lat="46.14908" lon="4.57426">
        <ele>481.6</ele>
        <time>2020-10-19T14:10:42Z</time>
      </trkpt>
      <trkpt lat="46.14908" lon="4.57422">
        <ele>481.6</ele>
        <time>2020-10-19T14:10:43Z</time>
      </trkpt>
      <trkpt lat="46.14908" lon="4.57422">
        <ele>481.6</ele>
        <time>2020-10-19T14:10:44Z</time>
      </trkpt>
      <trkpt lat="46.14909" lon="4.57418">
        <ele>481.6</ele>
        <time>2020-10-19T14:10:45Z</time>
      </trkpt>
      <trkpt lat="46.14909" lon="4.57418">
        <ele>481.6</ele>
        <time>2020-10-19T14:10:46Z</time>
      </trkpt>
      <trkpt lat="46.14909" lon="4.57418">
        <ele>481.6</ele>
        <time>2020-10-19T14:10:47Z</time>
      </trkpt>
      <trkpt lat="46.14909" lon="4.57418">
        <ele>481.6</ele>
        <time>2020-10-19T14:10:48Z</time>
      </trkpt>
      <trkpt lat="46.14909" lon="4.57418">
        <ele>481.6</ele>
        <time>2020-10-19T14:10:49Z</time>
      </trkpt>
      <trkpt lat="46.14909" lon="4.57418">
        <ele>481.6</ele>
        <time>2020-10-19T14:10:50Z</time>
      </trkpt>
      <trkpt lat="46.14909" lon="4.57418">
        <ele>481.6</ele>
        <time>2020-10-19T14:10:51Z</time>
      </trkpt>
      <trkpt lat="46.14909" lon="4.57418">
        <ele>481.6</ele>
        <time>2020-10-19T14:10:52Z</time>
      </trkpt>
      <trkpt lat="46.14909" lon="4.57418">
        <ele>481.6</ele>
        <time>2020-10-19T14:10:53Z</time>
      </trkpt>
      <trkpt lat="46.14909" lon="4.57418">
        <ele>481.6</ele>
        <time>2020-10-19T14:10:54Z</time>
      </trkpt>
      <trkpt lat="46.14909" lon="4.57418">
        <ele>481.6</ele>
        <time>2020-10-19T14:10:55Z</time>
      </trkpt>
      <trkpt lat="46.14909" lon="4.57418">
        <ele>481.8</ele>
        <time>2020-10-19T14:10:56Z</time>
      </trkpt>
      <trkpt lat="46.14909" lon="4.57416">
        <ele>481.8</ele>
        <time>2020-10-19T14:10:57Z</time>
      </trkpt>
      <trkpt lat="46.14909" lon="4.57416">
        <ele>481.8</ele>
        <time>2020-10-19T14:10:58Z</time>
      </trkpt>
      <trkpt lat="46.14909" lon="4.57416">
        <ele>481.6</ele>
        <time>2020-10-19T14:10:59Z</time>
      </trkpt>
      <trkpt lat="46.14909" lon="4.57416">
        <ele>481.6</ele>
        <time>2020-10-19T14:11:00Z</time>
      </trkpt>
      <trkpt lat="46.14909" lon="4.57416">
        <ele>481.6</ele>
        <time>2020-10-19T14:11:01Z</time>
      </trkpt>
      <trkpt lat="46.14909" lon="4.57416">
        <ele>481.6</ele>
        <time>2020-10-19T14:11:02Z</time>
      </trkpt>
      <trkpt lat="46.14909" lon="4.57416">
        <ele>481.8</ele>
        <time>2020-10-19T14:11:03Z</time>
      </trkpt>
      <trkpt lat="46.14908" lon="4.57413">
        <ele>481.8</ele>
        <time>2020-10-19T14:11:04Z</time>
      </trkpt>
      <trkpt lat="46.14908" lon="4.57413">
        <ele>482</ele>
        <time>2020-10-19T14:11:05Z</time>
      </trkpt>
      <trkpt lat="46.14907" lon="4.5741">
        <ele>482.2</ele>
        <time>2020-10-19T14:11:06Z</time>
      </trkpt>
      <trkpt lat="46.14907" lon="4.5741">
        <ele>482</ele>
        <time>2020-10-19T14:11:07Z</time>
      </trkpt>
      <trkpt lat="46.14906" lon="4.57407">
        <ele>482.2</ele>
        <time>2020-10-19T14:11:08Z</time>
      </trkpt>
      <trkpt lat="46.14906" lon="4.57407">
        <ele>482.2</ele>
        <time>2020-10-19T14:11:09Z</time>
      </trkpt>
      <trkpt lat="46.14906" lon="4.57402">
        <ele>482.4</ele>
        <time>2020-10-19T14:11:10Z</time>
      </trkpt>
      <trkpt lat="46.14906" lon="4.57402">
        <ele>482.6</ele>
        <time>2020-10-19T14:11:11Z</time>
      </trkpt>
      <trkpt lat="46.14907" lon="4.57398">
        <ele>482.6</ele>
        <time>2020-10-19T14:11:12Z</time>
      </trkpt>
      <trkpt lat="46.14907" lon="4.57398">
        <ele>482.8</ele>
        <time>2020-10-19T14:11:13Z</time>
      </trkpt>
      <trkpt lat="46.14906" lon="4.57395">
        <ele>482.6</ele>
        <time>2020-10-19T14:11:14Z</time>
      </trkpt>
      <trkpt lat="46.14906" lon="4.57395">
        <ele>482.6</ele>
        <time>2020-10-19T14:11:15Z</time>
      </trkpt>
      <trkpt lat="46.14906" lon="4.57391">
        <ele>482.8</ele>
        <time>2020-10-19T14:11:16Z</time>
      </trkpt>
      <trkpt lat="46.14906" lon="4.57391">
        <ele>483</ele>
        <time>2020-10-19T14:11:17Z</time>
      </trkpt>
      <trkpt lat="46.14906" lon="4.57387">
        <ele>483.2</ele>
        <time>2020-10-19T14:11:18Z</time>
      </trkpt>
      <trkpt lat="46.14906" lon="4.57387">
        <ele>483.2</ele>
        <time>2020-10-19T14:11:19Z</time>
      </trkpt>
      <trkpt lat="46.14906" lon="4.57382">
        <ele>483.4</ele>
        <time>2020-10-19T14:11:20Z</time>
      </trkpt>
      <trkpt lat="46.14906" lon="4.57379">
        <ele>483.6</ele>
        <time>2020-10-19T14:11:21Z</time>
      </trkpt>
      <trkpt lat="46.14906" lon="4.57379">
        <ele>483.6</ele>
        <time>2020-10-19T14:11:22Z</time>
      </trkpt>
      <trkpt lat="46.14906" lon="4.57374">
        <ele>483.6</ele>
        <time>2020-10-19T14:11:23Z</time>
      </trkpt>
      <trkpt lat="46.14906" lon="4.57374">
        <ele>483.6</ele>
        <time>2020-10-19T14:11:24Z</time>
      </trkpt>
      <trkpt lat="46.14907" lon="4.5737">
        <ele>483.6</ele>
        <time>2020-10-19T14:11:25Z</time>
      </trkpt>
      <trkpt lat="46.14907" lon="4.5737">
        <ele>483.8</ele>
        <time>2020-10-19T14:11:26Z</time>
      </trkpt>
      <trkpt lat="46.14907" lon="4.57366">
        <ele>483.8</ele>
        <time>2020-10-19T14:11:27Z</time>
      </trkpt>
      <trkpt lat="46.14907" lon="4.57366">
        <ele>484</ele>
        <time>2020-10-19T14:11:28Z</time>
      </trkpt>
      <trkpt lat="46.14908" lon="4.57362">
        <ele>484</ele>
        <time>2020-10-19T14:11:29Z</time>
      </trkpt>
      <trkpt lat="46.14908" lon="4.57362">
        <ele>483.8</ele>
        <time>2020-10-19T14:11:30Z</time>
      </trkpt>
      <trkpt lat="46.14908" lon="4.57358">
        <ele>484</ele>
        <time>2020-10-19T14:11:31Z</time>
      </trkpt>
      <trkpt lat="46.14908" lon="4.57358">
        <ele>484.2</ele>
        <time>2020-10-19T14:11:32Z</time>
      </trkpt>
      <trkpt lat="46.14909" lon="4.57353">
        <ele>484.2</ele>
        <time>2020-10-19T14:11:33Z</time>
      </trkpt>
      <trkpt lat="46.14909" lon="4.57353">
        <ele>484.2</ele>
        <time>2020-10-19T14:11:34Z</time>
      </trkpt>
      <trkpt lat="46.1491" lon="4.57349">
        <ele>484.2</ele>
        <time>2020-10-19T14:11:35Z</time>
      </trkpt>
      <trkpt lat="46.1491" lon="4.57349">
        <ele>484.2</ele>
        <time>2020-10-19T14:11:36Z</time>
      </trkpt>
      <trkpt lat="46.14911" lon="4.57345">
        <ele>484.4</ele>
        <time>2020-10-19T14:11:37Z</time>
      </trkpt>
      <trkpt lat="46.14911" lon="4.57345">
        <ele>484.4</ele>
        <time>2020-10-19T14:11:38Z</time>
      </trkpt>
      <trkpt lat="46.14911" lon="4.57342">
        <ele>484.4</ele>
        <time>2020-10-19T14:11:39Z</time>
      </trkpt>
      <trkpt lat="46.14911" lon="4.57342">
        <ele>484.6</ele>
        <time>2020-10-19T14:11:40Z</time>
      </trkpt>
      <trkpt lat="46.14912" lon="4.57338">
        <ele>484.6</ele>
        <time>2020-10-19T14:11:41Z</time>
      </trkpt>
      <trkpt lat="46.14912" lon="4.57338">
        <ele>484.8</ele>
        <time>2020-10-19T14:11:42Z</time>
      </trkpt>
      <trkpt lat="46.14912" lon="4.57334">
        <ele>484.8</ele>
        <time>2020-10-19T14:11:43Z</time>
      </trkpt>
      <trkpt lat="46.14912" lon="4.57334">
        <ele>485</ele>
        <time>2020-10-19T14:11:44Z</time>
      </trkpt>
      <trkpt lat="46.14912" lon="4.57329">
        <ele>484.8</ele>
        <time>2020-10-19T14:11:45Z</time>
      </trkpt>
      <trkpt lat="46.14912" lon="4.57329">
        <ele>484.8</ele>
        <time>2020-10-19T14:11:46Z</time>
      </trkpt>
      <trkpt lat="46.14913" lon="4.57325">
        <ele>485.2</ele>
        <time>2020-10-19T14:11:47Z</time>
      </trkpt>
      <trkpt lat="46.14913" lon="4.57325">
        <ele>485.4</ele>
        <time>2020-10-19T14:11:48Z</time>
      </trkpt>
      <trkpt lat="46.14913" lon="4.57321">
        <ele>485.4</ele>
        <time>2020-10-19T14:11:49Z</time>
      </trkpt>
      <trkpt lat="46.14913" lon="4.57321">
        <ele>485.6</ele>
        <time>2020-10-19T14:11:50Z</time>
      </trkpt>
      <trkpt lat="46.14914" lon="4.57316">
        <ele>485.6</ele>
        <time>2020-10-19T14:11:51Z</time>
      </trkpt>
      <trkpt lat="46.14914" lon="4.57316">
        <ele>485.6</ele>
        <time>2020-10-19T14:11:52Z</time>
      </trkpt>
      <trkpt lat="46.14915" lon="4.57312">
        <ele>485.6</ele>
        <time>2020-10-19T14:11:53Z</time>
      </trkpt>
      <trkpt lat="46.14915" lon="4.57312">
        <ele>485.6</ele>
        <time>2020-10-19T14:11:54Z</time>
      </trkpt>
      <trkpt lat="46.14915" lon="4.57307">
        <ele>485.6</ele>
        <time>2020-10-19T14:11:55Z</time>
      </trkpt>
      <trkpt lat="46.14915" lon="4.57307">
        <ele>485.6</ele>
        <time>2020-10-19T14:11:56Z</time>
      </trkpt>
      <trkpt lat="46.14915" lon="4.57303">
        <ele>485.8</ele>
        <time>2020-10-19T14:11:57Z</time>
      </trkpt>
      <trkpt lat="46.14915" lon="4.57303">
        <ele>486</ele>
        <time>2020-10-19T14:11:58Z</time>
      </trkpt>
      <trkpt lat="46.14916" lon="4.57299">
        <ele>486</ele>
        <time>2020-10-19T14:11:59Z</time>
      </trkpt>
      <trkpt lat="46.14916" lon="4.57299">
        <ele>486.4</ele>
        <time>2020-10-19T14:12:00Z</time>
      </trkpt>
      <trkpt lat="46.14916" lon="4.57295">
        <ele>486.4</ele>
        <time>2020-10-19T14:12:01Z</time>
      </trkpt>
      <trkpt lat="46.14916" lon="4.57295">
        <ele>486.6</ele>
        <time>2020-10-19T14:12:02Z</time>
      </trkpt>
      <trkpt lat="46.14917" lon="4.57291">
        <ele>486.6</ele>
        <time>2020-10-19T14:12:03Z</time>
      </trkpt>
      <trkpt lat="46.14917" lon="4.57291">
        <ele>486.6</ele>
        <time>2020-10-19T14:12:04Z</time>
      </trkpt>
      <trkpt lat="46.14917" lon="4.57287">
        <ele>486.6</ele>
        <time>2020-10-19T14:12:05Z</time>
      </trkpt>
      <trkpt lat="46.14917" lon="4.57287">
        <ele>486.8</ele>
        <time>2020-10-19T14:12:06Z</time>
      </trkpt>
      <trkpt lat="46.14918" lon="4.57284">
        <ele>486.6</ele>
        <time>2020-10-19T14:12:07Z</time>
      </trkpt>
      <trkpt lat="46.14918" lon="4.57284">
        <ele>486.6</ele>
        <time>2020-10-19T14:12:08Z</time>
      </trkpt>
      <trkpt lat="46.14919" lon="4.5728">
        <ele>486.6</ele>
        <time>2020-10-19T14:12:09Z</time>
      </trkpt>
      <trkpt lat="46.14919" lon="4.5728">
        <ele>486.8</ele>
        <time>2020-10-19T14:12:10Z</time>
      </trkpt>
      <trkpt lat="46.14919" lon="4.57276">
        <ele>487</ele>
        <time>2020-10-19T14:12:11Z</time>
      </trkpt>
      <trkpt lat="46.14919" lon="4.57276">
        <ele>487</ele>
        <time>2020-10-19T14:12:12Z</time>
      </trkpt>
      <trkpt lat="46.1492" lon="4.57271">
        <ele>487</ele>
        <time>2020-10-19T14:12:13Z</time>
      </trkpt>
      <trkpt lat="46.1492" lon="4.57271">
        <ele>487.2</ele>
        <time>2020-10-19T14:12:14Z</time>
      </trkpt>
      <trkpt lat="46.1492" lon="4.57268">
        <ele>487.4</ele>
        <time>2020-10-19T14:12:15Z</time>
      </trkpt>
      <trkpt lat="46.1492" lon="4.57268">
        <ele>487.4</ele>
        <time>2020-10-19T14:12:16Z</time>
      </trkpt>
      <trkpt lat="46.1492" lon="4.57264">
        <ele>487.6</ele>
        <time>2020-10-19T14:12:17Z</time>
      </trkpt>
      <trkpt lat="46.1492" lon="4.57264">
        <ele>487.6</ele>
        <time>2020-10-19T14:12:18Z</time>
      </trkpt>
      <trkpt lat="46.1492" lon="4.5726">
        <ele>487.4</ele>
        <time>2020-10-19T14:12:19Z</time>
      </trkpt>
      <trkpt lat="46.1492" lon="4.5726">
        <ele>487.6</ele>
        <time>2020-10-19T14:12:20Z</time>
      </trkpt>
      <trkpt lat="46.1492" lon="4.57256">
        <ele>487.4</ele>
        <time>2020-10-19T14:12:21Z</time>
      </trkpt>
      <trkpt lat="46.1492" lon="4.57256">
        <ele>487.4</ele>
        <time>2020-10-19T14:12:22Z</time>
      </trkpt>
      <trkpt lat="46.14921" lon="4.57252">
        <ele>487.6</ele>
        <time>2020-10-19T14:12:23Z</time>
      </trkpt>
      <trkpt lat="46.14921" lon="4.57252">
        <ele>487.8</ele>
        <time>2020-10-19T14:12:24Z</time>
      </trkpt>
      <trkpt lat="46.1492" lon="4.57248">
        <ele>488.2</ele>
        <time>2020-10-19T14:12:25Z</time>
      </trkpt>
      <trkpt lat="46.1492" lon="4.57248">
        <ele>488.2</ele>
        <time>2020-10-19T14:12:26Z</time>
      </trkpt>
      <trkpt lat="46.1492" lon="4.57245">
        <ele>488.4</ele>
        <time>2020-10-19T14:12:27Z</time>
      </trkpt>
      <trkpt lat="46.1492" lon="4.57245">
        <ele>488.4</ele>
        <time>2020-10-19T14:12:28Z</time>
      </trkpt>
      <trkpt lat="46.14921" lon="4.5724">
        <ele>488.4</ele>
        <time>2020-10-19T14:12:29Z</time>
      </trkpt>
      <trkpt lat="46.14921" lon="4.5724">
        <ele>488.8</ele>
        <time>2020-10-19T14:12:30Z</time>
      </trkpt>
      <trkpt lat="46.1492" lon="4.57236">
        <ele>488.8</ele>
        <time>2020-10-19T14:12:31Z</time>
      </trkpt>
      <trkpt lat="46.1492" lon="4.57236">
        <ele>488.8</ele>
        <time>2020-10-19T14:12:32Z</time>
      </trkpt>
      <trkpt lat="46.14921" lon="4.57232">
        <ele>489</ele>
        <time>2020-10-19T14:12:33Z</time>
      </trkpt>
      <trkpt lat="46.14921" lon="4.57232">
        <ele>489.2</ele>
        <time>2020-10-19T14:12:34Z</time>
      </trkpt>
      <trkpt lat="46.14921" lon="4.57228">
        <ele>489.2</ele>
        <time>2020-10-19T14:12:35Z</time>
      </trkpt>
      <trkpt lat="46.14921" lon="4.57228">
        <ele>489.4</ele>
        <time>2020-10-19T14:12:36Z</time>
      </trkpt>
      <trkpt lat="46.1492" lon="4.57225">
        <ele>489.4</ele>
        <time>2020-10-19T14:12:37Z</time>
      </trkpt>
      <trkpt lat="46.1492" lon="4.57225">
        <ele>489.6</ele>
        <time>2020-10-19T14:12:38Z</time>
      </trkpt>
      <trkpt lat="46.1492" lon="4.57221">
        <ele>489.8</ele>
        <time>2020-10-19T14:12:39Z</time>
      </trkpt>
      <trkpt lat="46.1492" lon="4.57221">
        <ele>489.8</ele>
        <time>2020-10-19T14:12:40Z</time>
      </trkpt>
      <trkpt lat="46.1492" lon="4.57217">
        <ele>490</ele>
        <time>2020-10-19T14:12:41Z</time>
      </trkpt>
      <trkpt lat="46.1492" lon="4.57217">
        <ele>490.2</ele>
        <time>2020-10-19T14:12:42Z</time>
      </trkpt>
      <trkpt lat="46.1492" lon="4.57214">
        <ele>490.2</ele>
        <time>2020-10-19T14:12:43Z</time>
      </trkpt>
      <trkpt lat="46.1492" lon="4.57214">
        <ele>490.4</ele>
        <time>2020-10-19T14:12:44Z</time>
      </trkpt>
      <trkpt lat="46.1492" lon="4.5721">
        <ele>490.4</ele>
        <time>2020-10-19T14:12:45Z</time>
      </trkpt>
      <trkpt lat="46.1492" lon="4.5721">
        <ele>490.6</ele>
        <time>2020-10-19T14:12:46Z</time>
      </trkpt>
      <trkpt lat="46.14921" lon="4.57206">
        <ele>491</ele>
        <time>2020-10-19T14:12:47Z</time>
      </trkpt>
      <trkpt lat="46.14921" lon="4.57206">
        <ele>491.2</ele>
        <time>2020-10-19T14:12:48Z</time>
      </trkpt>
      <trkpt lat="46.14921" lon="4.57202">
        <ele>491.4</ele>
        <time>2020-10-19T14:12:49Z</time>
      </trkpt>
      <trkpt lat="46.14921" lon="4.57202">
        <ele>491.4</ele>
        <time>2020-10-19T14:12:50Z</time>
      </trkpt>
      <trkpt lat="46.14921" lon="4.57197">
        <ele>491.4</ele>
        <time>2020-10-19T14:12:51Z</time>
      </trkpt>
      <trkpt lat="46.14921" lon="4.57197">
        <ele>491.2</ele>
        <time>2020-10-19T14:12:52Z</time>
      </trkpt>
      <trkpt lat="46.14921" lon="4.57193">
        <ele>491.2</ele>
        <time>2020-10-19T14:12:53Z</time>
      </trkpt>
      <trkpt lat="46.14921" lon="4.57193">
        <ele>491.2</ele>
        <time>2020-10-19T14:12:54Z</time>
      </trkpt>
      <trkpt lat="46.14922" lon="4.57189">
        <ele>491.4</ele>
        <time>2020-10-19T14:12:55Z</time>
      </trkpt>
      <trkpt lat="46.14922" lon="4.57189">
        <ele>491.4</ele>
        <time>2020-10-19T14:12:56Z</time>
      </trkpt>
      <trkpt lat="46.14922" lon="4.57185">
        <ele>491.4</ele>
        <time>2020-10-19T14:12:57Z</time>
      </trkpt>
      <trkpt lat="46.14922" lon="4.57185">
        <ele>491.4</ele>
        <time>2020-10-19T14:12:58Z</time>
      </trkpt>
      <trkpt lat="46.14922" lon="4.57181">
        <ele>491.4</ele>
        <time>2020-10-19T14:12:59Z</time>
      </trkpt>
      <trkpt lat="46.14922" lon="4.57181">
        <ele>491.6</ele>
        <time>2020-10-19T14:13:00Z</time>
      </trkpt>
      <trkpt lat="46.14922" lon="4.57177">
        <ele>491.8</ele>
        <time>2020-10-19T14:13:01Z</time>
      </trkpt>
      <trkpt lat="46.14922" lon="4.57177">
        <ele>492</ele>
        <time>2020-10-19T14:13:02Z</time>
      </trkpt>
      <trkpt lat="46.14923" lon="4.57173">
        <ele>492</ele>
        <time>2020-10-19T14:13:03Z</time>
      </trkpt>
      <trkpt lat="46.14923" lon="4.57173">
        <ele>492.2</ele>
        <time>2020-10-19T14:13:04Z</time>
      </trkpt>
      <trkpt lat="46.14923" lon="4.5717">
        <ele>492.4</ele>
        <time>2020-10-19T14:13:05Z</time>
      </trkpt>
      <trkpt lat="46.14923" lon="4.5717">
        <ele>492.4</ele>
        <time>2020-10-19T14:13:06Z</time>
      </trkpt>
      <trkpt lat="46.14923" lon="4.57166">
        <ele>492.6</ele>
        <time>2020-10-19T14:13:07Z</time>
      </trkpt>
      <trkpt lat="46.14923" lon="4.57166">
        <ele>492.6</ele>
        <time>2020-10-19T14:13:08Z</time>
      </trkpt>
      <trkpt lat="46.14924" lon="4.57163">
        <ele>492.6</ele>
        <time>2020-10-19T14:13:09Z</time>
      </trkpt>
      <trkpt lat="46.14924" lon="4.57163">
        <ele>492.8</ele>
        <time>2020-10-19T14:13:10Z</time>
      </trkpt>
      <trkpt lat="46.14924" lon="4.57159">
        <ele>493</ele>
        <time>2020-10-19T14:13:11Z</time>
      </trkpt>
      <trkpt lat="46.14924" lon="4.57159">
        <ele>493</ele>
        <time>2020-10-19T14:13:12Z</time>
      </trkpt>
      <trkpt lat="46.14924" lon="4.57155">
        <ele>493.4</ele>
        <time>2020-10-19T14:13:13Z</time>
      </trkpt>
      <trkpt lat="46.14924" lon="4.57155">
        <ele>493.8</ele>
        <time>2020-10-19T14:13:14Z</time>
      </trkpt>
      <trkpt lat="46.14924" lon="4.57152">
        <ele>494.4</ele>
        <time>2020-10-19T14:13:15Z</time>
      </trkpt>
      <trkpt lat="46.14924" lon="4.57152">
        <ele>494.6</ele>
        <time>2020-10-19T14:13:16Z</time>
      </trkpt>
      <trkpt lat="46.14924" lon="4.57149">
        <ele>494.8</ele>
        <time>2020-10-19T14:13:17Z</time>
      </trkpt>
      <trkpt lat="46.14924" lon="4.57149">
        <ele>494.8</ele>
        <time>2020-10-19T14:13:18Z</time>
      </trkpt>
      <trkpt lat="46.14924" lon="4.57145">
        <ele>494.6</ele>
        <time>2020-10-19T14:13:19Z</time>
      </trkpt>
      <trkpt lat="46.14924" lon="4.57145">
        <ele>495</ele>
        <time>2020-10-19T14:13:20Z</time>
      </trkpt>
      <trkpt lat="46.14924" lon="4.57141">
        <ele>495.2</ele>
        <time>2020-10-19T14:13:21Z</time>
      </trkpt>
      <trkpt lat="46.14924" lon="4.57141">
        <ele>495.4</ele>
        <time>2020-10-19T14:13:22Z</time>
      </trkpt>
      <trkpt lat="46.14925" lon="4.57138">
        <ele>495.6</ele>
        <time>2020-10-19T14:13:23Z</time>
      </trkpt>
      <trkpt lat="46.14925" lon="4.57138">
        <ele>496</ele>
        <time>2020-10-19T14:13:24Z</time>
      </trkpt>
      <trkpt lat="46.14925" lon="4.57134">
        <ele>496.4</ele>
        <time>2020-10-19T14:13:25Z</time>
      </trkpt>
      <trkpt lat="46.14925" lon="4.57134">
        <ele>496.8</ele>
        <time>2020-10-19T14:13:26Z</time>
      </trkpt>
      <trkpt lat="46.14926" lon="4.5713">
        <ele>496.8</ele>
        <time>2020-10-19T14:13:27Z</time>
      </trkpt>
      <trkpt lat="46.14926" lon="4.5713">
        <ele>496.8</ele>
        <time>2020-10-19T14:13:28Z</time>
      </trkpt>
      <trkpt lat="46.14925" lon="4.57126">
        <ele>496.2</ele>
        <time>2020-10-19T14:13:29Z</time>
      </trkpt>
      <trkpt lat="46.14925" lon="4.57126">
        <ele>496</ele>
        <time>2020-10-19T14:13:30Z</time>
      </trkpt>
      <trkpt lat="46.14925" lon="4.57122">
        <ele>496</ele>
        <time>2020-10-19T14:13:31Z</time>
      </trkpt>
      <trkpt lat="46.14925" lon="4.57122">
        <ele>496.2</ele>
        <time>2020-10-19T14:13:32Z</time>
      </trkpt>
      <trkpt lat="46.14925" lon="4.57119">
        <ele>496</ele>
        <time>2020-10-19T14:13:33Z</time>
      </trkpt>
      <trkpt lat="46.14925" lon="4.57119">
        <ele>495.8</ele>
        <time>2020-10-19T14:13:34Z</time>
      </trkpt>
      <trkpt lat="46.14925" lon="4.57114">
        <ele>496</ele>
        <time>2020-10-19T14:13:35Z</time>
      </trkpt>
      <trkpt lat="46.14925" lon="4.57114">
        <ele>496</ele>
        <time>2020-10-19T14:13:36Z</time>
      </trkpt>
      <trkpt lat="46.14925" lon="4.5711">
        <ele>495.8</ele>
        <time>2020-10-19T14:13:37Z</time>
      </trkpt>
      <trkpt lat="46.14925" lon="4.5711">
        <ele>495.8</ele>
        <time>2020-10-19T14:13:38Z</time>
      </trkpt>
      <trkpt lat="46.14925" lon="4.57105">
        <ele>495.8</ele>
        <time>2020-10-19T14:13:39Z</time>
      </trkpt>
      <trkpt lat="46.14925" lon="4.57105">
        <ele>495.6</ele>
        <time>2020-10-19T14:13:40Z</time>
      </trkpt>
      <trkpt lat="46.14925" lon="4.571">
        <ele>495.6</ele>
        <time>2020-10-19T14:13:41Z</time>
      </trkpt>
      <trkpt lat="46.14925" lon="4.571">
        <ele>495.6</ele>
        <time>2020-10-19T14:13:42Z</time>
      </trkpt>
      <trkpt lat="46.14926" lon="4.57095">
        <ele>495.8</ele>
        <time>2020-10-19T14:13:43Z</time>
      </trkpt>
      <trkpt lat="46.14926" lon="4.57095">
        <ele>496</ele>
        <time>2020-10-19T14:13:44Z</time>
      </trkpt>
      <trkpt lat="46.14927" lon="4.5709">
        <ele>496.2</ele>
        <time>2020-10-19T14:13:45Z</time>
      </trkpt>
      <trkpt lat="46.14927" lon="4.5709">
        <ele>496.2</ele>
        <time>2020-10-19T14:13:46Z</time>
      </trkpt>
      <trkpt lat="46.14929" lon="4.57086">
        <ele>496.2</ele>
        <time>2020-10-19T14:13:47Z</time>
      </trkpt>
      <trkpt lat="46.14929" lon="4.57086">
        <ele>496.2</ele>
        <time>2020-10-19T14:13:48Z</time>
      </trkpt>
      <trkpt lat="46.1493" lon="4.57083">
        <ele>496.2</ele>
        <time>2020-10-19T14:13:49Z</time>
      </trkpt>
      <trkpt lat="46.1493" lon="4.57083">
        <ele>496</ele>
        <time>2020-10-19T14:13:50Z</time>
      </trkpt>
      <trkpt lat="46.14932" lon="4.57079">
        <ele>496</ele>
        <time>2020-10-19T14:13:51Z</time>
      </trkpt>
      <trkpt lat="46.14932" lon="4.57079">
        <ele>496</ele>
        <time>2020-10-19T14:13:52Z</time>
      </trkpt>
      <trkpt lat="46.14935" lon="4.57076">
        <ele>496.2</ele>
        <time>2020-10-19T14:13:53Z</time>
      </trkpt>
      <trkpt lat="46.14935" lon="4.57076">
        <ele>496.2</ele>
        <time>2020-10-19T14:13:54Z</time>
      </trkpt>
      <trkpt lat="46.14937" lon="4.57073">
        <ele>496.4</ele>
        <time>2020-10-19T14:13:55Z</time>
      </trkpt>
      <trkpt lat="46.14937" lon="4.57073">
        <ele>496.4</ele>
        <time>2020-10-19T14:13:56Z</time>
      </trkpt>
      <trkpt lat="46.14939" lon="4.57071">
        <ele>496.6</ele>
        <time>2020-10-19T14:13:57Z</time>
      </trkpt>
      <trkpt lat="46.14939" lon="4.57071">
        <ele>497</ele>
        <time>2020-10-19T14:13:58Z</time>
      </trkpt>
      <trkpt lat="46.14942" lon="4.5707">
        <ele>497.2</ele>
        <time>2020-10-19T14:13:59Z</time>
      </trkpt>
      <trkpt lat="46.14942" lon="4.5707">
        <ele>497.6</ele>
        <time>2020-10-19T14:14:00Z</time>
      </trkpt>
      <trkpt lat="46.14943" lon="4.57068">
        <ele>497.2</ele>
        <time>2020-10-19T14:14:01Z</time>
      </trkpt>
      <trkpt lat="46.14943" lon="4.57068">
        <ele>497.2</ele>
        <time>2020-10-19T14:14:02Z</time>
      </trkpt>
      <trkpt lat="46.14945" lon="4.57068">
        <ele>497.2</ele>
        <time>2020-10-19T14:14:03Z</time>
      </trkpt>
      <trkpt lat="46.14945" lon="4.57068">
        <ele>497.2</ele>
        <time>2020-10-19T14:14:04Z</time>
      </trkpt>
      <trkpt lat="46.14948" lon="4.57069">
        <ele>497</ele>
        <time>2020-10-19T14:14:05Z</time>
      </trkpt>
      <trkpt lat="46.1495" lon="4.5707">
        <ele>497</ele>
        <time>2020-10-19T14:14:06Z</time>
      </trkpt>
      <trkpt lat="46.14951" lon="4.57071">
        <ele>496.8</ele>
        <time>2020-10-19T14:14:07Z</time>
      </trkpt>
      <trkpt lat="46.14953" lon="4.57072">
        <ele>496.6</ele>
        <time>2020-10-19T14:14:08Z</time>
      </trkpt>
      <trkpt lat="46.14955" lon="4.57074">
        <ele>496.4</ele>
        <time>2020-10-19T14:14:09Z</time>
      </trkpt>
      <trkpt lat="46.14957" lon="4.57075">
        <ele>496.4</ele>
        <time>2020-10-19T14:14:10Z</time>
      </trkpt>
      <trkpt lat="46.14959" lon="4.57077">
        <ele>496.2</ele>
        <time>2020-10-19T14:14:11Z</time>
      </trkpt>
      <trkpt lat="46.14961" lon="4.57079">
        <ele>495.8</ele>
        <time>2020-10-19T14:14:12Z</time>
      </trkpt>
      <trkpt lat="46.14964" lon="4.57081">
        <ele>495.8</ele>
        <time>2020-10-19T14:14:13Z</time>
      </trkpt>
      <trkpt lat="46.14965" lon="4.57084">
        <ele>495.4</ele>
        <time>2020-10-19T14:14:14Z</time>
      </trkpt>
      <trkpt lat="46.14967" lon="4.57086">
        <ele>495.2</ele>
        <time>2020-10-19T14:14:15Z</time>
      </trkpt>
      <trkpt lat="46.14968" lon="4.57088">
        <ele>495.2</ele>
        <time>2020-10-19T14:14:16Z</time>
      </trkpt>
      <trkpt lat="46.1497" lon="4.5709">
        <ele>494.8</ele>
        <time>2020-10-19T14:14:17Z</time>
      </trkpt>
      <trkpt lat="46.14971" lon="4.57092">
        <ele>494.2</ele>
        <time>2020-10-19T14:14:18Z</time>
      </trkpt>
      <trkpt lat="46.14973" lon="4.57095">
        <ele>494.4</ele>
        <time>2020-10-19T14:14:19Z</time>
      </trkpt>
      <trkpt lat="46.14975" lon="4.57096">
        <ele>494</ele>
        <time>2020-10-19T14:14:20Z</time>
      </trkpt>
      <trkpt lat="46.14978" lon="4.57098">
        <ele>493.6</ele>
        <time>2020-10-19T14:14:21Z</time>
      </trkpt>
      <trkpt lat="46.14979" lon="4.571">
        <ele>493.6</ele>
        <time>2020-10-19T14:14:22Z</time>
      </trkpt>
      <trkpt lat="46.14981" lon="4.57103">
        <ele>493.4</ele>
        <time>2020-10-19T14:14:23Z</time>
      </trkpt>
      <trkpt lat="46.14983" lon="4.57105">
        <ele>493</ele>
        <time>2020-10-19T14:14:24Z</time>
      </trkpt>
      <trkpt lat="46.14984" lon="4.57107">
        <ele>492.8</ele>
        <time>2020-10-19T14:14:25Z</time>
      </trkpt>
      <trkpt lat="46.14985" lon="4.57108">
        <ele>492.6</ele>
        <time>2020-10-19T14:14:26Z</time>
      </trkpt>
      <trkpt lat="46.14985" lon="4.57108">
        <ele>492.2</ele>
        <time>2020-10-19T14:14:27Z</time>
      </trkpt>
      <trkpt lat="46.14988" lon="4.57112">
        <ele>492</ele>
        <time>2020-10-19T14:14:28Z</time>
      </trkpt>
      <trkpt lat="46.14989" lon="4.57114">
        <ele>491.8</ele>
        <time>2020-10-19T14:14:29Z</time>
      </trkpt>
      <trkpt lat="46.14989" lon="4.57114">
        <ele>491.6</ele>
        <time>2020-10-19T14:14:30Z</time>
      </trkpt>
      <trkpt lat="46.14992" lon="4.57117">
        <ele>491.2</ele>
        <time>2020-10-19T14:14:31Z</time>
      </trkpt>
      <trkpt lat="46.14992" lon="4.57117">
        <ele>491.2</ele>
        <time>2020-10-19T14:14:32Z</time>
      </trkpt>
      <trkpt lat="46.14994" lon="4.57121">
        <ele>490.8</ele>
        <time>2020-10-19T14:14:33Z</time>
      </trkpt>
      <trkpt lat="46.14994" lon="4.57121">
        <ele>490.4</ele>
        <time>2020-10-19T14:14:34Z</time>
      </trkpt>
      <trkpt lat="46.14995" lon="4.57125">
        <ele>490.2</ele>
        <time>2020-10-19T14:14:35Z</time>
      </trkpt>
      <trkpt lat="46.14995" lon="4.57125">
        <ele>490</ele>
        <time>2020-10-19T14:14:36Z</time>
      </trkpt>
      <trkpt lat="46.14998" lon="4.57128">
        <ele>489.8</ele>
        <time>2020-10-19T14:14:37Z</time>
      </trkpt>
      <trkpt lat="46.14998" lon="4.57128">
        <ele>489.4</ele>
        <time>2020-10-19T14:14:38Z</time>
      </trkpt>
      <trkpt lat="46.15" lon="4.57131">
        <ele>489.2</ele>
        <time>2020-10-19T14:14:39Z</time>
      </trkpt>
      <trkpt lat="46.15" lon="4.57131">
        <ele>489</ele>
        <time>2020-10-19T14:14:40Z</time>
      </trkpt>
      <trkpt lat="46.15003" lon="4.57135">
        <ele>489</ele>
        <time>2020-10-19T14:14:41Z</time>
      </trkpt>
      <trkpt lat="46.15003" lon="4.57135">
        <ele>488.8</ele>
        <time>2020-10-19T14:14:42Z</time>
      </trkpt>
      <trkpt lat="46.15005" lon="4.57137">
        <ele>488.6</ele>
        <time>2020-10-19T14:14:43Z</time>
      </trkpt>
      <trkpt lat="46.15005" lon="4.57137">
        <ele>488.4</ele>
        <time>2020-10-19T14:14:44Z</time>
      </trkpt>
      <trkpt lat="46.15007" lon="4.5714">
        <ele>488.2</ele>
        <time>2020-10-19T14:14:45Z</time>
      </trkpt>
      <trkpt lat="46.15007" lon="4.5714">
        <ele>488</ele>
        <time>2020-10-19T14:14:46Z</time>
      </trkpt>
      <trkpt lat="46.15009" lon="4.57142">
        <ele>487.8</ele>
        <time>2020-10-19T14:14:47Z</time>
      </trkpt>
      <trkpt lat="46.15009" lon="4.57142">
        <ele>487.4</ele>
        <time>2020-10-19T14:14:48Z</time>
      </trkpt>
      <trkpt lat="46.1501" lon="4.57145">
        <ele>487.2</ele>
        <time>2020-10-19T14:14:49Z</time>
      </trkpt>
      <trkpt lat="46.1501" lon="4.57145">
        <ele>487.2</ele>
        <time>2020-10-19T14:14:50Z</time>
      </trkpt>
      <trkpt lat="46.15012" lon="4.57148">
        <ele>487.2</ele>
        <time>2020-10-19T14:14:51Z</time>
      </trkpt>
      <trkpt lat="46.15012" lon="4.57148">
        <ele>487.2</ele>
        <time>2020-10-19T14:14:52Z</time>
      </trkpt>
      <trkpt lat="46.15014" lon="4.57151">
        <ele>487.2</ele>
        <time>2020-10-19T14:14:53Z</time>
      </trkpt>
      <trkpt lat="46.15014" lon="4.57151">
        <ele>487.4</ele>
        <time>2020-10-19T14:14:54Z</time>
      </trkpt>
      <trkpt lat="46.15016" lon="4.57153">
        <ele>487</ele>
        <time>2020-10-19T14:14:55Z</time>
      </trkpt>
      <trkpt lat="46.15016" lon="4.57153">
        <ele>486.8</ele>
        <time>2020-10-19T14:14:56Z</time>
      </trkpt>
      <trkpt lat="46.15018" lon="4.57155">
        <ele>486.6</ele>
        <time>2020-10-19T14:14:57Z</time>
      </trkpt>
      <trkpt lat="46.15018" lon="4.57155">
        <ele>486.6</ele>
        <time>2020-10-19T14:14:58Z</time>
      </trkpt>
      <trkpt lat="46.1502" lon="4.57158">
        <ele>486.6</ele>
        <time>2020-10-19T14:14:59Z</time>
      </trkpt>
      <trkpt lat="46.1502" lon="4.57158">
        <ele>486.6</ele>
        <time>2020-10-19T14:15:00Z</time>
      </trkpt>
      <trkpt lat="46.15023" lon="4.57159">
        <ele>486.8</ele>
        <time>2020-10-19T14:15:01Z</time>
      </trkpt>
      <trkpt lat="46.15023" lon="4.57159">
        <ele>487</ele>
        <time>2020-10-19T14:15:02Z</time>
      </trkpt>
      <trkpt lat="46.15024" lon="4.57162">
        <ele>487</ele>
        <time>2020-10-19T14:15:03Z</time>
      </trkpt>
      <trkpt lat="46.15024" lon="4.57162">
        <ele>487</ele>
        <time>2020-10-19T14:15:04Z</time>
      </trkpt>
      <trkpt lat="46.15026" lon="4.57165">
        <ele>487.2</ele>
        <time>2020-10-19T14:15:05Z</time>
      </trkpt>
      <trkpt lat="46.15026" lon="4.57165">
        <ele>487.2</ele>
        <time>2020-10-19T14:15:06Z</time>
      </trkpt>
      <trkpt lat="46.15028" lon="4.57167">
        <ele>487.2</ele>
        <time>2020-10-19T14:15:07Z</time>
      </trkpt>
      <trkpt lat="46.15028" lon="4.57167">
        <ele>487.2</ele>
        <time>2020-10-19T14:15:08Z</time>
      </trkpt>
      <trkpt lat="46.15031" lon="4.57169">
        <ele>487.2</ele>
        <time>2020-10-19T14:15:09Z</time>
      </trkpt>
      <trkpt lat="46.15031" lon="4.57169">
        <ele>487</ele>
        <time>2020-10-19T14:15:10Z</time>
      </trkpt>
      <trkpt lat="46.15033" lon="4.5717">
        <ele>487</ele>
        <time>2020-10-19T14:15:11Z</time>
      </trkpt>
      <trkpt lat="46.15033" lon="4.5717">
        <ele>487.2</ele>
        <time>2020-10-19T14:15:12Z</time>
      </trkpt>
      <trkpt lat="46.15035" lon="4.57171">
        <ele>487.4</ele>
        <time>2020-10-19T14:15:13Z</time>
      </trkpt>
      <trkpt lat="46.15035" lon="4.57171">
        <ele>487.2</ele>
        <time>2020-10-19T14:15:14Z</time>
      </trkpt>
      <trkpt lat="46.15035" lon="4.57171">
        <ele>487.2</ele>
        <time>2020-10-19T14:15:15Z</time>
      </trkpt>
      <trkpt lat="46.15037" lon="4.57171">
        <ele>487.2</ele>
        <time>2020-10-19T14:15:16Z</time>
      </trkpt>
      <trkpt lat="46.15037" lon="4.57171">
        <ele>487.2</ele>
        <time>2020-10-19T14:15:17Z</time>
      </trkpt>
      <trkpt lat="46.15039" lon="4.57174">
        <ele>487.2</ele>
        <time>2020-10-19T14:15:18Z</time>
      </trkpt>
      <trkpt lat="46.15039" lon="4.57174">
        <ele>487.4</ele>
        <time>2020-10-19T14:15:19Z</time>
      </trkpt>
      <trkpt lat="46.15039" lon="4.57174">
        <ele>487.4</ele>
        <time>2020-10-19T14:15:20Z</time>
      </trkpt>
      <trkpt lat="46.15039" lon="4.57177">
        <ele>487.2</ele>
        <time>2020-10-19T14:15:21Z</time>
      </trkpt>
      <trkpt lat="46.15039" lon="4.57177">
        <ele>487.4</ele>
        <time>2020-10-19T14:15:22Z</time>
      </trkpt>
      <trkpt lat="46.15039" lon="4.57177">
        <ele>487.4</ele>
        <time>2020-10-19T14:15:23Z</time>
      </trkpt>
      <trkpt lat="46.15039" lon="4.57177">
        <ele>487.6</ele>
        <time>2020-10-19T14:15:24Z</time>
      </trkpt>
      <trkpt lat="46.15041" lon="4.57182">
        <ele>487.4</ele>
        <time>2020-10-19T14:15:25Z</time>
      </trkpt>
      <trkpt lat="46.15043" lon="4.57183">
        <ele>487.4</ele>
        <time>2020-10-19T14:15:26Z</time>
      </trkpt>
      <trkpt lat="46.15045" lon="4.57186">
        <ele>487.2</ele>
        <time>2020-10-19T14:15:27Z</time>
      </trkpt>
      <trkpt lat="46.15047" lon="4.57188">
        <ele>487</ele>
        <time>2020-10-19T14:15:28Z</time>
      </trkpt>
      <trkpt lat="46.15049" lon="4.57191">
        <ele>487</ele>
        <time>2020-10-19T14:15:29Z</time>
      </trkpt>
      <trkpt lat="46.15051" lon="4.57194">
        <ele>486.8</ele>
        <time>2020-10-19T14:15:30Z</time>
      </trkpt>
      <trkpt lat="46.15053" lon="4.57196">
        <ele>486.8</ele>
        <time>2020-10-19T14:15:31Z</time>
      </trkpt>
      <trkpt lat="46.15054" lon="4.57198">
        <ele>486.6</ele>
        <time>2020-10-19T14:15:32Z</time>
      </trkpt>
      <trkpt lat="46.15056" lon="4.57201">
        <ele>486.4</ele>
        <time>2020-10-19T14:15:33Z</time>
      </trkpt>
      <trkpt lat="46.15057" lon="4.57203">
        <ele>486.4</ele>
        <time>2020-10-19T14:15:34Z</time>
      </trkpt>
      <trkpt lat="46.15059" lon="4.57205">
        <ele>486.6</ele>
        <time>2020-10-19T14:15:35Z</time>
      </trkpt>
      <trkpt lat="46.1506" lon="4.57206">
        <ele>486.4</ele>
        <time>2020-10-19T14:15:36Z</time>
      </trkpt>
      <trkpt lat="46.15062" lon="4.57208">
        <ele>486.6</ele>
        <time>2020-10-19T14:15:37Z</time>
      </trkpt>
      <trkpt lat="46.15062" lon="4.57208">
        <ele>486.4</ele>
        <time>2020-10-19T14:15:38Z</time>
      </trkpt>
      <trkpt lat="46.15064" lon="4.57211">
        <ele>486.2</ele>
        <time>2020-10-19T14:15:39Z</time>
      </trkpt>
      <trkpt lat="46.15064" lon="4.57211">
        <ele>486.2</ele>
        <time>2020-10-19T14:15:40Z</time>
      </trkpt>
      <trkpt lat="46.15066" lon="4.57214">
        <ele>486.2</ele>
        <time>2020-10-19T14:15:41Z</time>
      </trkpt>
      <trkpt lat="46.15066" lon="4.57214">
        <ele>486.2</ele>
        <time>2020-10-19T14:15:42Z</time>
      </trkpt>
      <trkpt lat="46.15069" lon="4.57218">
        <ele>486.2</ele>
        <time>2020-10-19T14:15:43Z</time>
      </trkpt>
      <trkpt lat="46.15069" lon="4.57218">
        <ele>486.4</ele>
        <time>2020-10-19T14:15:44Z</time>
      </trkpt>
      <trkpt lat="46.15071" lon="4.57221">
        <ele>486.4</ele>
        <time>2020-10-19T14:15:45Z</time>
      </trkpt>
      <trkpt lat="46.15071" lon="4.57221">
        <ele>486.2</ele>
        <time>2020-10-19T14:15:46Z</time>
      </trkpt>
      <trkpt lat="46.15073" lon="4.57224">
        <ele>486</ele>
        <time>2020-10-19T14:15:47Z</time>
      </trkpt>
      <trkpt lat="46.15073" lon="4.57224">
        <ele>485.8</ele>
        <time>2020-10-19T14:15:48Z</time>
      </trkpt>
      <trkpt lat="46.15075" lon="4.57227">
        <ele>485.6</ele>
        <time>2020-10-19T14:15:49Z</time>
      </trkpt>
      <trkpt lat="46.15075" lon="4.57227">
        <ele>485.4</ele>
        <time>2020-10-19T14:15:50Z</time>
      </trkpt>
      <trkpt lat="46.15077" lon="4.57229">
        <ele>485.4</ele>
        <time>2020-10-19T14:15:51Z</time>
      </trkpt>
      <trkpt lat="46.15077" lon="4.57229">
        <ele>485.4</ele>
        <time>2020-10-19T14:15:52Z</time>
      </trkpt>
      <trkpt lat="46.1508" lon="4.57232">
        <ele>485.2</ele>
        <time>2020-10-19T14:15:53Z</time>
      </trkpt>
      <trkpt lat="46.1508" lon="4.57232">
        <ele>485</ele>
        <time>2020-10-19T14:15:54Z</time>
      </trkpt>
      <trkpt lat="46.15082" lon="4.57235">
        <ele>485</ele>
        <time>2020-10-19T14:15:55Z</time>
      </trkpt>
      <trkpt lat="46.15082" lon="4.57235">
        <ele>485</ele>
        <time>2020-10-19T14:15:56Z</time>
      </trkpt>
      <trkpt lat="46.15085" lon="4.57238">
        <ele>485</ele>
        <time>2020-10-19T14:15:57Z</time>
      </trkpt>
      <trkpt lat="46.15085" lon="4.57238">
        <ele>485</ele>
        <time>2020-10-19T14:15:58Z</time>
      </trkpt>
      <trkpt lat="46.15087" lon="4.57241">
        <ele>485.2</ele>
        <time>2020-10-19T14:15:59Z</time>
      </trkpt>
      <trkpt lat="46.15087" lon="4.57241">
        <ele>485.2</ele>
        <time>2020-10-19T14:16:00Z</time>
      </trkpt>
      <trkpt lat="46.15089" lon="4.57244">
        <ele>485.2</ele>
        <time>2020-10-19T14:16:01Z</time>
      </trkpt>
      <trkpt lat="46.15089" lon="4.57244">
        <ele>485.4</ele>
        <time>2020-10-19T14:16:02Z</time>
      </trkpt>
      <trkpt lat="46.15091" lon="4.57247">
        <ele>485.4</ele>
        <time>2020-10-19T14:16:03Z</time>
      </trkpt>
      <trkpt lat="46.15091" lon="4.57247">
        <ele>485.4</ele>
        <time>2020-10-19T14:16:04Z</time>
      </trkpt>
      <trkpt lat="46.15093" lon="4.5725">
        <ele>485.4</ele>
        <time>2020-10-19T14:16:05Z</time>
      </trkpt>
      <trkpt lat="46.15093" lon="4.5725">
        <ele>485.4</ele>
        <time>2020-10-19T14:16:06Z</time>
      </trkpt>
      <trkpt lat="46.15096" lon="4.57253">
        <ele>485.4</ele>
        <time>2020-10-19T14:16:07Z</time>
      </trkpt>
      <trkpt lat="46.15096" lon="4.57253">
        <ele>485.2</ele>
        <time>2020-10-19T14:16:08Z</time>
      </trkpt>
      <trkpt lat="46.15097" lon="4.57256">
        <ele>485.2</ele>
        <time>2020-10-19T14:16:09Z</time>
      </trkpt>
      <trkpt lat="46.15097" lon="4.57256">
        <ele>485.2</ele>
        <time>2020-10-19T14:16:10Z</time>
      </trkpt>
      <trkpt lat="46.151" lon="4.57259">
        <ele>485.2</ele>
        <time>2020-10-19T14:16:11Z</time>
      </trkpt>
      <trkpt lat="46.151" lon="4.57259">
        <ele>485.2</ele>
        <time>2020-10-19T14:16:12Z</time>
      </trkpt>
      <trkpt lat="46.15102" lon="4.57262">
        <ele>485.2</ele>
        <time>2020-10-19T14:16:13Z</time>
      </trkpt>
      <trkpt lat="46.15102" lon="4.57262">
        <ele>485</ele>
        <time>2020-10-19T14:16:14Z</time>
      </trkpt>
      <trkpt lat="46.15103" lon="4.57265">
        <ele>485</ele>
        <time>2020-10-19T14:16:15Z</time>
      </trkpt>
      <trkpt lat="46.15103" lon="4.57265">
        <ele>484.8</ele>
        <time>2020-10-19T14:16:16Z</time>
      </trkpt>
      <trkpt lat="46.15106" lon="4.57266">
        <ele>484.8</ele>
        <time>2020-10-19T14:16:17Z</time>
      </trkpt>
      <trkpt lat="46.15106" lon="4.57266">
        <ele>484.8</ele>
        <time>2020-10-19T14:16:18Z</time>
      </trkpt>
      <trkpt lat="46.15108" lon="4.57269">
        <ele>484.8</ele>
        <time>2020-10-19T14:16:19Z</time>
      </trkpt>
      <trkpt lat="46.15108" lon="4.57269">
        <ele>485</ele>
        <time>2020-10-19T14:16:20Z</time>
      </trkpt>
      <trkpt lat="46.1511" lon="4.57272">
        <ele>484.8</ele>
        <time>2020-10-19T14:16:21Z</time>
      </trkpt>
      <trkpt lat="46.1511" lon="4.57272">
        <ele>485</ele>
        <time>2020-10-19T14:16:22Z</time>
      </trkpt>
      <trkpt lat="46.15112" lon="4.57276">
        <ele>485</ele>
        <time>2020-10-19T14:16:23Z</time>
      </trkpt>
      <trkpt lat="46.15112" lon="4.57276">
        <ele>485</ele>
        <time>2020-10-19T14:16:24Z</time>
      </trkpt>
      <trkpt lat="46.15114" lon="4.57279">
        <ele>485.2</ele>
        <time>2020-10-19T14:16:25Z</time>
      </trkpt>
      <trkpt lat="46.15114" lon="4.57279">
        <ele>485.4</ele>
        <time>2020-10-19T14:16:26Z</time>
      </trkpt>
      <trkpt lat="46.15116" lon="4.57282">
        <ele>485.4</ele>
        <time>2020-10-19T14:16:27Z</time>
      </trkpt>
      <trkpt lat="46.15116" lon="4.57282">
        <ele>485.6</ele>
        <time>2020-10-19T14:16:28Z</time>
      </trkpt>
      <trkpt lat="46.15118" lon="4.57284">
        <ele>485.4</ele>
        <time>2020-10-19T14:16:29Z</time>
      </trkpt>
      <trkpt lat="46.15118" lon="4.57284">
        <ele>485.6</ele>
        <time>2020-10-19T14:16:30Z</time>
      </trkpt>
      <trkpt lat="46.1512" lon="4.57287">
        <ele>485.4</ele>
        <time>2020-10-19T14:16:31Z</time>
      </trkpt>
      <trkpt lat="46.1512" lon="4.57287">
        <ele>485.4</ele>
        <time>2020-10-19T14:16:32Z</time>
      </trkpt>
      <trkpt lat="46.15121" lon="4.57291">
        <ele>485.2</ele>
        <time>2020-10-19T14:16:33Z</time>
      </trkpt>
      <trkpt lat="46.15121" lon="4.57291">
        <ele>485.2</ele>
        <time>2020-10-19T14:16:34Z</time>
      </trkpt>
      <trkpt lat="46.15123" lon="4.57294">
        <ele>485.2</ele>
        <time>2020-10-19T14:16:35Z</time>
      </trkpt>
      <trkpt lat="46.15123" lon="4.57294">
        <ele>485.4</ele>
        <time>2020-10-19T14:16:36Z</time>
      </trkpt>
      <trkpt lat="46.15125" lon="4.57296">
        <ele>485.4</ele>
        <time>2020-10-19T14:16:37Z</time>
      </trkpt>
      <trkpt lat="46.15125" lon="4.57296">
        <ele>485.4</ele>
        <time>2020-10-19T14:16:38Z</time>
      </trkpt>
      <trkpt lat="46.15127" lon="4.57299">
        <ele>485.4</ele>
        <time>2020-10-19T14:16:39Z</time>
      </trkpt>
      <trkpt lat="46.15127" lon="4.57299">
        <ele>485.6</ele>
        <time>2020-10-19T14:16:40Z</time>
      </trkpt>
      <trkpt lat="46.15129" lon="4.57302">
        <ele>485.6</ele>
        <time>2020-10-19T14:16:41Z</time>
      </trkpt>
      <trkpt lat="46.15129" lon="4.57302">
        <ele>485.6</ele>
        <time>2020-10-19T14:16:42Z</time>
      </trkpt>
      <trkpt lat="46.15131" lon="4.57304">
        <ele>485.6</ele>
        <time>2020-10-19T14:16:43Z</time>
      </trkpt>
      <trkpt lat="46.15131" lon="4.57304">
        <ele>485.6</ele>
        <time>2020-10-19T14:16:44Z</time>
      </trkpt>
      <trkpt lat="46.15133" lon="4.57307">
        <ele>485.6</ele>
        <time>2020-10-19T14:16:45Z</time>
      </trkpt>
      <trkpt lat="46.15133" lon="4.57307">
        <ele>485.8</ele>
        <time>2020-10-19T14:16:46Z</time>
      </trkpt>
      <trkpt lat="46.15135" lon="4.5731">
        <ele>485.6</ele>
        <time>2020-10-19T14:16:47Z</time>
      </trkpt>
      <trkpt lat="46.15135" lon="4.5731">
        <ele>485.6</ele>
        <time>2020-10-19T14:16:48Z</time>
      </trkpt>
      <trkpt lat="46.15137" lon="4.57312">
        <ele>485.6</ele>
        <time>2020-10-19T14:16:49Z</time>
      </trkpt>
      <trkpt lat="46.15137" lon="4.57312">
        <ele>485.6</ele>
        <time>2020-10-19T14:16:50Z</time>
      </trkpt>
      <trkpt lat="46.15138" lon="4.57315">
        <ele>485.6</ele>
        <time>2020-10-19T14:16:51Z</time>
      </trkpt>
      <trkpt lat="46.15138" lon="4.57315">
        <ele>485.6</ele>
        <time>2020-10-19T14:16:52Z</time>
      </trkpt>
      <trkpt lat="46.1514" lon="4.57317">
        <ele>485.6</ele>
        <time>2020-10-19T14:16:53Z</time>
      </trkpt>
      <trkpt lat="46.1514" lon="4.57317">
        <ele>485.6</ele>
        <time>2020-10-19T14:16:54Z</time>
      </trkpt>
      <trkpt lat="46.15142" lon="4.5732">
        <ele>485.6</ele>
        <time>2020-10-19T14:16:55Z</time>
      </trkpt>
      <trkpt lat="46.15142" lon="4.5732">
        <ele>485.8</ele>
        <time>2020-10-19T14:16:56Z</time>
      </trkpt>
      <trkpt lat="46.15144" lon="4.57322">
        <ele>486</ele>
        <time>2020-10-19T14:16:57Z</time>
      </trkpt>
      <trkpt lat="46.15144" lon="4.57322">
        <ele>486.2</ele>
        <time>2020-10-19T14:16:58Z</time>
      </trkpt>
      <trkpt lat="46.15146" lon="4.57325">
        <ele>486</ele>
        <time>2020-10-19T14:16:59Z</time>
      </trkpt>
      <trkpt lat="46.15146" lon="4.57325">
        <ele>486</ele>
        <time>2020-10-19T14:17:00Z</time>
      </trkpt>
      <trkpt lat="46.15148" lon="4.57328">
        <ele>485.8</ele>
        <time>2020-10-19T14:17:01Z</time>
      </trkpt>
      <trkpt lat="46.15148" lon="4.57328">
        <ele>485.8</ele>
        <time>2020-10-19T14:17:02Z</time>
      </trkpt>
      <trkpt lat="46.1515" lon="4.5733">
        <ele>485.8</ele>
        <time>2020-10-19T14:17:03Z</time>
      </trkpt>
      <trkpt lat="46.1515" lon="4.5733">
        <ele>486</ele>
        <time>2020-10-19T14:17:04Z</time>
      </trkpt>
      <trkpt lat="46.15152" lon="4.57332">
        <ele>486</ele>
        <time>2020-10-19T14:17:05Z</time>
      </trkpt>
      <trkpt lat="46.15152" lon="4.57332">
        <ele>486</ele>
        <time>2020-10-19T14:17:06Z</time>
      </trkpt>
      <trkpt lat="46.15155" lon="4.57335">
        <ele>486.2</ele>
        <time>2020-10-19T14:17:07Z</time>
      </trkpt>
      <trkpt lat="46.15156" lon="4.57336">
        <ele>486.2</ele>
        <time>2020-10-19T14:17:08Z</time>
      </trkpt>
      <trkpt lat="46.15157" lon="4.57338">
        <ele>486.2</ele>
        <time>2020-10-19T14:17:09Z</time>
      </trkpt>
      <trkpt lat="46.15157" lon="4.57338">
        <ele>486.2</ele>
        <time>2020-10-19T14:17:10Z</time>
      </trkpt>
      <trkpt lat="46.1516" lon="4.57342">
        <ele>486.4</ele>
        <time>2020-10-19T14:17:11Z</time>
      </trkpt>
      <trkpt lat="46.1516" lon="4.57342">
        <ele>486.6</ele>
        <time>2020-10-19T14:17:12Z</time>
      </trkpt>
      <trkpt lat="46.15162" lon="4.57344">
        <ele>486.8</ele>
        <time>2020-10-19T14:17:13Z</time>
      </trkpt>
      <trkpt lat="46.15162" lon="4.57344">
        <ele>486.8</ele>
        <time>2020-10-19T14:17:14Z</time>
      </trkpt>
      <trkpt lat="46.15165" lon="4.57346">
        <ele>487</ele>
        <time>2020-10-19T14:17:15Z</time>
      </trkpt>
      <trkpt lat="46.15165" lon="4.57346">
        <ele>487.2</ele>
        <time>2020-10-19T14:17:16Z</time>
      </trkpt>
      <trkpt lat="46.15167" lon="4.57349">
        <ele>487.2</ele>
        <time>2020-10-19T14:17:17Z</time>
      </trkpt>
      <trkpt lat="46.15167" lon="4.57349">
        <ele>487.4</ele>
        <time>2020-10-19T14:17:18Z</time>
      </trkpt>
      <trkpt lat="46.15169" lon="4.57351">
        <ele>487.6</ele>
        <time>2020-10-19T14:17:19Z</time>
      </trkpt>
      <trkpt lat="46.15169" lon="4.57351">
        <ele>487.8</ele>
        <time>2020-10-19T14:17:20Z</time>
      </trkpt>
      <trkpt lat="46.15172" lon="4.57353">
        <ele>487.8</ele>
        <time>2020-10-19T14:17:21Z</time>
      </trkpt>
      <trkpt lat="46.15172" lon="4.57353">
        <ele>487.6</ele>
        <time>2020-10-19T14:17:22Z</time>
      </trkpt>
      <trkpt lat="46.15174" lon="4.57355">
        <ele>487.4</ele>
        <time>2020-10-19T14:17:23Z</time>
      </trkpt>
      <trkpt lat="46.15174" lon="4.57355">
        <ele>487.4</ele>
        <time>2020-10-19T14:17:24Z</time>
      </trkpt>
      <trkpt lat="46.15176" lon="4.57357">
        <ele>487.4</ele>
        <time>2020-10-19T14:17:25Z</time>
      </trkpt>
      <trkpt lat="46.15176" lon="4.57357">
        <ele>487.4</ele>
        <time>2020-10-19T14:17:26Z</time>
      </trkpt>
      <trkpt lat="46.15178" lon="4.5736">
        <ele>487.2</ele>
        <time>2020-10-19T14:17:27Z</time>
      </trkpt>
      <trkpt lat="46.15178" lon="4.5736">
        <ele>487.2</ele>
        <time>2020-10-19T14:17:28Z</time>
      </trkpt>
      <trkpt lat="46.15178" lon="4.5736">
        <ele>487.2</ele>
        <time>2020-10-19T14:17:29Z</time>
      </trkpt>
      <trkpt lat="46.15178" lon="4.5736">
        <ele>487.2</ele>
        <time>2020-10-19T14:17:30Z</time>
      </trkpt>
      <trkpt lat="46.15178" lon="4.5736">
        <ele>487.2</ele>
        <time>2020-10-19T14:17:31Z</time>
      </trkpt>
      <trkpt lat="46.15178" lon="4.5736">
        <ele>487.2</ele>
        <time>2020-10-19T14:17:32Z</time>
      </trkpt>
      <trkpt lat="46.15178" lon="4.5736">
        <ele>487.2</ele>
        <time>2020-10-19T14:17:33Z</time>
      </trkpt>
      <trkpt lat="46.15178" lon="4.5736">
        <ele>487.2</ele>
        <time>2020-10-19T14:17:34Z</time>
      </trkpt>
      <trkpt lat="46.15178" lon="4.5736">
        <ele>487.4</ele>
        <time>2020-10-19T14:17:35Z</time>
      </trkpt>
      <trkpt lat="46.15178" lon="4.5736">
        <ele>487.4</ele>
        <time>2020-10-19T14:17:36Z</time>
      </trkpt>
      <trkpt lat="46.15178" lon="4.5736">
        <ele>487.4</ele>
        <time>2020-10-19T14:17:37Z</time>
      </trkpt>
      <trkpt lat="46.15178" lon="4.5736">
        <ele>487.2</ele>
        <time>2020-10-19T14:17:38Z</time>
      </trkpt>
      <trkpt lat="46.15178" lon="4.5736">
        <ele>487</ele>
        <time>2020-10-19T14:17:39Z</time>
      </trkpt>
      <trkpt lat="46.15178" lon="4.5736">
        <ele>487</ele>
        <time>2020-10-19T14:17:40Z</time>
      </trkpt>
      <trkpt lat="46.15178" lon="4.5736">
        <ele>486.8</ele>
        <time>2020-10-19T14:17:41Z</time>
      </trkpt>
      <trkpt lat="46.15178" lon="4.5736">
        <ele>487</ele>
        <time>2020-10-19T14:17:42Z</time>
      </trkpt>
      <trkpt lat="46.15178" lon="4.5736">
        <ele>487</ele>
        <time>2020-10-19T14:17:43Z</time>
      </trkpt>
      <trkpt lat="46.1518" lon="4.57362">
        <ele>487</ele>
        <time>2020-10-19T14:17:44Z</time>
      </trkpt>
      <trkpt lat="46.1518" lon="4.57362">
        <ele>487</ele>
        <time>2020-10-19T14:17:45Z</time>
      </trkpt>
      <trkpt lat="46.15182" lon="4.57364">
        <ele>486.8</ele>
        <time>2020-10-19T14:17:46Z</time>
      </trkpt>
      <trkpt lat="46.15182" lon="4.57364">
        <ele>486.8</ele>
        <time>2020-10-19T14:17:47Z</time>
      </trkpt>
      <trkpt lat="46.15184" lon="4.57366">
        <ele>486.6</ele>
        <time>2020-10-19T14:17:48Z</time>
      </trkpt>
      <trkpt lat="46.15184" lon="4.57366">
        <ele>486.4</ele>
        <time>2020-10-19T14:17:49Z</time>
      </trkpt>
      <trkpt lat="46.15186" lon="4.57369">
        <ele>486.2</ele>
        <time>2020-10-19T14:17:50Z</time>
      </trkpt>
      <trkpt lat="46.15186" lon="4.57369">
        <ele>486</ele>
        <time>2020-10-19T14:17:51Z</time>
      </trkpt>
      <trkpt lat="46.15189" lon="4.57372">
        <ele>485.8</ele>
        <time>2020-10-19T14:17:52Z</time>
      </trkpt>
      <trkpt lat="46.15189" lon="4.57372">
        <ele>485.8</ele>
        <time>2020-10-19T14:17:53Z</time>
      </trkpt>
      <trkpt lat="46.15191" lon="4.57375">
        <ele>485.6</ele>
        <time>2020-10-19T14:17:54Z</time>
      </trkpt>
      <trkpt lat="46.15191" lon="4.57375">
        <ele>485.8</ele>
        <time>2020-10-19T14:17:55Z</time>
      </trkpt>
      <trkpt lat="46.15193" lon="4.57378">
        <ele>485.8</ele>
        <time>2020-10-19T14:17:56Z</time>
      </trkpt>
      <trkpt lat="46.15193" lon="4.57378">
        <ele>485.8</ele>
        <time>2020-10-19T14:17:57Z</time>
      </trkpt>
      <trkpt lat="46.15195" lon="4.57381">
        <ele>485.8</ele>
        <time>2020-10-19T14:17:58Z</time>
      </trkpt>
      <trkpt lat="46.15197" lon="4.57383">
        <ele>486</ele>
        <time>2020-10-19T14:17:59Z</time>
      </trkpt>
      <trkpt lat="46.15197" lon="4.57383">
        <ele>485.8</ele>
        <time>2020-10-19T14:18:00Z</time>
      </trkpt>
      <trkpt lat="46.15199" lon="4.57387">
        <ele>485.8</ele>
        <time>2020-10-19T14:18:01Z</time>
      </trkpt>
      <trkpt lat="46.15199" lon="4.57387">
        <ele>485.8</ele>
        <time>2020-10-19T14:18:02Z</time>
      </trkpt>
      <trkpt lat="46.152" lon="4.5739">
        <ele>485.8</ele>
        <time>2020-10-19T14:18:03Z</time>
      </trkpt>
      <trkpt lat="46.152" lon="4.5739">
        <ele>485.8</ele>
        <time>2020-10-19T14:18:04Z</time>
      </trkpt>
      <trkpt lat="46.15201" lon="4.57394">
        <ele>485.6</ele>
        <time>2020-10-19T14:18:05Z</time>
      </trkpt>
      <trkpt lat="46.15201" lon="4.57394">
        <ele>485.6</ele>
        <time>2020-10-19T14:18:06Z</time>
      </trkpt>
      <trkpt lat="46.15203" lon="4.57397">
        <ele>485.6</ele>
        <time>2020-10-19T14:18:07Z</time>
      </trkpt>
      <trkpt lat="46.15203" lon="4.57397">
        <ele>485.4</ele>
        <time>2020-10-19T14:18:08Z</time>
      </trkpt>
      <trkpt lat="46.15205" lon="4.57401">
        <ele>485.4</ele>
        <time>2020-10-19T14:18:09Z</time>
      </trkpt>
      <trkpt lat="46.15205" lon="4.57401">
        <ele>485.2</ele>
        <time>2020-10-19T14:18:10Z</time>
      </trkpt>
      <trkpt lat="46.15207" lon="4.57404">
        <ele>485.2</ele>
        <time>2020-10-19T14:18:11Z</time>
      </trkpt>
      <trkpt lat="46.15207" lon="4.57404">
        <ele>485.2</ele>
        <time>2020-10-19T14:18:12Z</time>
      </trkpt>
      <trkpt lat="46.15209" lon="4.57407">
        <ele>485</ele>
        <time>2020-10-19T14:18:13Z</time>
      </trkpt>
      <trkpt lat="46.15209" lon="4.57407">
        <ele>485</ele>
        <time>2020-10-19T14:18:14Z</time>
      </trkpt>
      <trkpt lat="46.15211" lon="4.57411">
        <ele>485</ele>
        <time>2020-10-19T14:18:15Z</time>
      </trkpt>
      <trkpt lat="46.15211" lon="4.57411">
        <ele>485.2</ele>
        <time>2020-10-19T14:18:16Z</time>
      </trkpt>
      <trkpt lat="46.15212" lon="4.57415">
        <ele>485.2</ele>
        <time>2020-10-19T14:18:17Z</time>
      </trkpt>
      <trkpt lat="46.15212" lon="4.57415">
        <ele>485.4</ele>
        <time>2020-10-19T14:18:18Z</time>
      </trkpt>
      <trkpt lat="46.15214" lon="4.57419">
        <ele>485.6</ele>
        <time>2020-10-19T14:18:19Z</time>
      </trkpt>
      <trkpt lat="46.15214" lon="4.57419">
        <ele>485.6</ele>
        <time>2020-10-19T14:18:20Z</time>
      </trkpt>
      <trkpt lat="46.15214" lon="4.57422">
        <ele>485.6</ele>
        <time>2020-10-19T14:18:21Z</time>
      </trkpt>
      <trkpt lat="46.15214" lon="4.57422">
        <ele>485.8</ele>
        <time>2020-10-19T14:18:22Z</time>
      </trkpt>
      <trkpt lat="46.15214" lon="4.57422">
        <ele>485.8</ele>
        <time>2020-10-19T14:18:23Z</time>
      </trkpt>
      <trkpt lat="46.15214" lon="4.57422">
        <ele>485.8</ele>
        <time>2020-10-19T14:18:24Z</time>
      </trkpt>
      <trkpt lat="46.15214" lon="4.57422">
        <ele>485.8</ele>
        <time>2020-10-19T14:18:25Z</time>
      </trkpt>
      <trkpt lat="46.15214" lon="4.57422">
        <ele>485.8</ele>
        <time>2020-10-19T14:18:26Z</time>
      </trkpt>
      <trkpt lat="46.15214" lon="4.57422">
        <ele>486</ele>
        <time>2020-10-19T14:18:27Z</time>
      </trkpt>
      <trkpt lat="46.15214" lon="4.57422">
        <ele>486.2</ele>
        <time>2020-10-19T14:18:28Z</time>
      </trkpt>
      <trkpt lat="46.15214" lon="4.57422">
        <ele>486.2</ele>
        <time>2020-10-19T14:18:29Z</time>
      </trkpt>
      <trkpt lat="46.15214" lon="4.57422">
        <ele>486.2</ele>
        <time>2020-10-19T14:18:30Z</time>
      </trkpt>
      <trkpt lat="46.15214" lon="4.57422">
        <ele>486.2</ele>
        <time>2020-10-19T14:18:31Z</time>
      </trkpt>
      <trkpt lat="46.15214" lon="4.57422">
        <ele>486.2</ele>
        <time>2020-10-19T14:18:32Z</time>
      </trkpt>
      <trkpt lat="46.15214" lon="4.57422">
        <ele>486</ele>
        <time>2020-10-19T14:18:33Z</time>
      </trkpt>
      <trkpt lat="46.15214" lon="4.57422">
        <ele>485.8</ele>
        <time>2020-10-19T14:18:34Z</time>
      </trkpt>
      <trkpt lat="46.15214" lon="4.57422">
        <ele>485.8</ele>
        <time>2020-10-19T14:18:35Z</time>
      </trkpt>
      <trkpt lat="46.15214" lon="4.57422">
        <ele>485.8</ele>
        <time>2020-10-19T14:18:36Z</time>
      </trkpt>
      <trkpt lat="46.15214" lon="4.57422">
        <ele>485.8</ele>
        <time>2020-10-19T14:18:37Z</time>
      </trkpt>
      <trkpt lat="46.15214" lon="4.57422">
        <ele>486</ele>
        <time>2020-10-19T14:18:38Z</time>
      </trkpt>
      <trkpt lat="46.15214" lon="4.57422">
        <ele>486</ele>
        <time>2020-10-19T14:18:39Z</time>
      </trkpt>
      <trkpt lat="46.15214" lon="4.57422">
        <ele>486.2</ele>
        <time>2020-10-19T14:18:40Z</time>
      </trkpt>
      <trkpt lat="46.15214" lon="4.57422">
        <ele>486</ele>
        <time>2020-10-19T14:18:41Z</time>
      </trkpt>
      <trkpt lat="46.15214" lon="4.57422">
        <ele>486</ele>
        <time>2020-10-19T14:18:42Z</time>
      </trkpt>
      <trkpt lat="46.15214" lon="4.57424">
        <ele>486</ele>
        <time>2020-10-19T14:18:43Z</time>
      </trkpt>
      <trkpt lat="46.15214" lon="4.57424">
        <ele>485.8</ele>
        <time>2020-10-19T14:18:44Z</time>
      </trkpt>
      <trkpt lat="46.15216" lon="4.57426">
        <ele>485.6</ele>
        <time>2020-10-19T14:18:45Z</time>
      </trkpt>
      <trkpt lat="46.15216" lon="4.57426">
        <ele>485.6</ele>
        <time>2020-10-19T14:18:46Z</time>
      </trkpt>
      <trkpt lat="46.15218" lon="4.57429">
        <ele>485.2</ele>
        <time>2020-10-19T14:18:47Z</time>
      </trkpt>
      <trkpt lat="46.15218" lon="4.57429">
        <ele>485</ele>
        <time>2020-10-19T14:18:48Z</time>
      </trkpt>
      <trkpt lat="46.15219" lon="4.57433">
        <ele>485</ele>
        <time>2020-10-19T14:18:49Z</time>
      </trkpt>
      <trkpt lat="46.1522" lon="4.57435">
        <ele>484.8</ele>
        <time>2020-10-19T14:18:50Z</time>
      </trkpt>
      <trkpt lat="46.1522" lon="4.57435">
        <ele>484.8</ele>
        <time>2020-10-19T14:18:51Z</time>
      </trkpt>
      <trkpt lat="46.15222" lon="4.57439">
        <ele>484.8</ele>
        <time>2020-10-19T14:18:52Z</time>
      </trkpt>
      <trkpt lat="46.15222" lon="4.57439">
        <ele>484.6</ele>
        <time>2020-10-19T14:18:53Z</time>
      </trkpt>
      <trkpt lat="46.15224" lon="4.57443">
        <ele>484.4</ele>
        <time>2020-10-19T14:18:54Z</time>
      </trkpt>
      <trkpt lat="46.15224" lon="4.57443">
        <ele>484.2</ele>
        <time>2020-10-19T14:18:55Z</time>
      </trkpt>
      <trkpt lat="46.15225" lon="4.57447">
        <ele>484.2</ele>
        <time>2020-10-19T14:18:56Z</time>
      </trkpt>
      <trkpt lat="46.15225" lon="4.57447">
        <ele>484</ele>
        <time>2020-10-19T14:18:57Z</time>
      </trkpt>
      <trkpt lat="46.15226" lon="4.5745">
        <ele>483.8</ele>
        <time>2020-10-19T14:18:58Z</time>
      </trkpt>
      <trkpt lat="46.15226" lon="4.5745">
        <ele>484</ele>
        <time>2020-10-19T14:18:59Z</time>
      </trkpt>
      <trkpt lat="46.15228" lon="4.57454">
        <ele>483.8</ele>
        <time>2020-10-19T14:19:00Z</time>
      </trkpt>
      <trkpt lat="46.15228" lon="4.57454">
        <ele>483.6</ele>
        <time>2020-10-19T14:19:01Z</time>
      </trkpt>
      <trkpt lat="46.1523" lon="4.57458">
        <ele>483.6</ele>
        <time>2020-10-19T14:19:02Z</time>
      </trkpt>
      <trkpt lat="46.1523" lon="4.57458">
        <ele>483.2</ele>
        <time>2020-10-19T14:19:03Z</time>
      </trkpt>
      <trkpt lat="46.15231" lon="4.57461">
        <ele>483.4</ele>
        <time>2020-10-19T14:19:04Z</time>
      </trkpt>
      <trkpt lat="46.15231" lon="4.57461">
        <ele>483.2</ele>
        <time>2020-10-19T14:19:05Z</time>
      </trkpt>
      <trkpt lat="46.15232" lon="4.57466">
        <ele>483</ele>
        <time>2020-10-19T14:19:06Z</time>
      </trkpt>
      <trkpt lat="46.15232" lon="4.57466">
        <ele>483</ele>
        <time>2020-10-19T14:19:07Z</time>
      </trkpt>
      <trkpt lat="46.15233" lon="4.57468">
        <ele>483</ele>
        <time>2020-10-19T14:19:08Z</time>
      </trkpt>
      <trkpt lat="46.15233" lon="4.57468">
        <ele>483</ele>
        <time>2020-10-19T14:19:09Z</time>
      </trkpt>
      <trkpt lat="46.15234" lon="4.57473">
        <ele>483</ele>
        <time>2020-10-19T14:19:10Z</time>
      </trkpt>
      <trkpt lat="46.15234" lon="4.57473">
        <ele>482.8</ele>
        <time>2020-10-19T14:19:11Z</time>
      </trkpt>
      <trkpt lat="46.15235" lon="4.57477">
        <ele>482.8</ele>
        <time>2020-10-19T14:19:12Z</time>
      </trkpt>
      <trkpt lat="46.15235" lon="4.57477">
        <ele>482.8</ele>
        <time>2020-10-19T14:19:13Z</time>
      </trkpt>
      <trkpt lat="46.15237" lon="4.57481">
        <ele>482.6</ele>
        <time>2020-10-19T14:19:14Z</time>
      </trkpt>
      <trkpt lat="46.15237" lon="4.57483">
        <ele>482.6</ele>
        <time>2020-10-19T14:19:15Z</time>
      </trkpt>
      <trkpt lat="46.15237" lon="4.57483">
        <ele>482.2</ele>
        <time>2020-10-19T14:19:16Z</time>
      </trkpt>
      <trkpt lat="46.15238" lon="4.57488">
        <ele>482.2</ele>
        <time>2020-10-19T14:19:17Z</time>
      </trkpt>
      <trkpt lat="46.15238" lon="4.57488">
        <ele>482.2</ele>
        <time>2020-10-19T14:19:18Z</time>
      </trkpt>
      <trkpt lat="46.15239" lon="4.57492">
        <ele>482</ele>
        <time>2020-10-19T14:19:19Z</time>
      </trkpt>
      <trkpt lat="46.15239" lon="4.57492">
        <ele>482</ele>
        <time>2020-10-19T14:19:20Z</time>
      </trkpt>
      <trkpt lat="46.15239" lon="4.57496">
        <ele>482</ele>
        <time>2020-10-19T14:19:21Z</time>
      </trkpt>
      <trkpt lat="46.15239" lon="4.57496">
        <ele>481.8</ele>
        <time>2020-10-19T14:19:22Z</time>
      </trkpt>
      <trkpt lat="46.1524" lon="4.57499">
        <ele>481.8</ele>
        <time>2020-10-19T14:19:23Z</time>
      </trkpt>
      <trkpt lat="46.1524" lon="4.57502">
        <ele>481.8</ele>
        <time>2020-10-19T14:19:24Z</time>
      </trkpt>
      <trkpt lat="46.1524" lon="4.57504">
        <ele>481.6</ele>
        <time>2020-10-19T14:19:25Z</time>
      </trkpt>
      <trkpt lat="46.1524" lon="4.57508">
        <ele>481.6</ele>
        <time>2020-10-19T14:19:26Z</time>
      </trkpt>
      <trkpt lat="46.15241" lon="4.5751">
        <ele>481.6</ele>
        <time>2020-10-19T14:19:27Z</time>
      </trkpt>
      <trkpt lat="46.15241" lon="4.57513">
        <ele>481.6</ele>
        <time>2020-10-19T14:19:28Z</time>
      </trkpt>
      <trkpt lat="46.15242" lon="4.57517">
        <ele>481.8</ele>
        <time>2020-10-19T14:19:29Z</time>
      </trkpt>
      <trkpt lat="46.15242" lon="4.57519">
        <ele>481.8</ele>
        <time>2020-10-19T14:19:30Z</time>
      </trkpt>
      <trkpt lat="46.15242" lon="4.57522">
        <ele>481.8</ele>
        <time>2020-10-19T14:19:31Z</time>
      </trkpt>
      <trkpt lat="46.15242" lon="4.57522">
        <ele>481.8</ele>
        <time>2020-10-19T14:19:32Z</time>
      </trkpt>
      <trkpt lat="46.15243" lon="4.57527">
        <ele>481.8</ele>
        <time>2020-10-19T14:19:33Z</time>
      </trkpt>
      <trkpt lat="46.15243" lon="4.57527">
        <ele>481.8</ele>
        <time>2020-10-19T14:19:34Z</time>
      </trkpt>
      <trkpt lat="46.15244" lon="4.57531">
        <ele>481.6</ele>
        <time>2020-10-19T14:19:35Z</time>
      </trkpt>
      <trkpt lat="46.15244" lon="4.57531">
        <ele>481.8</ele>
        <time>2020-10-19T14:19:36Z</time>
      </trkpt>
      <trkpt lat="46.15245" lon="4.57536">
        <ele>481.6</ele>
        <time>2020-10-19T14:19:37Z</time>
      </trkpt>
      <trkpt lat="46.15245" lon="4.57536">
        <ele>481.6</ele>
        <time>2020-10-19T14:19:38Z</time>
      </trkpt>
      <trkpt lat="46.15246" lon="4.5754">
        <ele>481.6</ele>
        <time>2020-10-19T14:19:39Z</time>
      </trkpt>
      <trkpt lat="46.15246" lon="4.5754">
        <ele>481.4</ele>
        <time>2020-10-19T14:19:40Z</time>
      </trkpt>
      <trkpt lat="46.15246" lon="4.57545">
        <ele>481.4</ele>
        <time>2020-10-19T14:19:41Z</time>
      </trkpt>
      <trkpt lat="46.15246" lon="4.57545">
        <ele>481.2</ele>
        <time>2020-10-19T14:19:42Z</time>
      </trkpt>
      <trkpt lat="46.15247" lon="4.57549">
        <ele>480.8</ele>
        <time>2020-10-19T14:19:43Z</time>
      </trkpt>
      <trkpt lat="46.15247" lon="4.57549">
        <ele>480.2</ele>
        <time>2020-10-19T14:19:44Z</time>
      </trkpt>
      <trkpt lat="46.15248" lon="4.57554">
        <ele>479.8</ele>
        <time>2020-10-19T14:19:45Z</time>
      </trkpt>
      <trkpt lat="46.15248" lon="4.57554">
        <ele>479.4</ele>
        <time>2020-10-19T14:19:46Z</time>
      </trkpt>
      <trkpt lat="46.15249" lon="4.57558">
        <ele>479</ele>
        <time>2020-10-19T14:19:47Z</time>
      </trkpt>
      <trkpt lat="46.15249" lon="4.57558">
        <ele>478.8</ele>
        <time>2020-10-19T14:19:48Z</time>
      </trkpt>
      <trkpt lat="46.1525" lon="4.57563">
        <ele>478.8</ele>
        <time>2020-10-19T14:19:49Z</time>
      </trkpt>
      <trkpt lat="46.1525" lon="4.57563">
        <ele>478.6</ele>
        <time>2020-10-19T14:19:50Z</time>
      </trkpt>
      <trkpt lat="46.15251" lon="4.57567">
        <ele>478.6</ele>
        <time>2020-10-19T14:19:51Z</time>
      </trkpt>
      <trkpt lat="46.15251" lon="4.57567">
        <ele>478.6</ele>
        <time>2020-10-19T14:19:52Z</time>
      </trkpt>
      <trkpt lat="46.15252" lon="4.57571">
        <ele>478.4</ele>
        <time>2020-10-19T14:19:53Z</time>
      </trkpt>
      <trkpt lat="46.15252" lon="4.57571">
        <ele>478.4</ele>
        <time>2020-10-19T14:19:54Z</time>
      </trkpt>
      <trkpt lat="46.15254" lon="4.57575">
        <ele>478.4</ele>
        <time>2020-10-19T14:19:55Z</time>
      </trkpt>
      <trkpt lat="46.15254" lon="4.57575">
        <ele>478.4</ele>
        <time>2020-10-19T14:19:56Z</time>
      </trkpt>
      <trkpt lat="46.15254" lon="4.57579">
        <ele>478.2</ele>
        <time>2020-10-19T14:19:57Z</time>
      </trkpt>
      <trkpt lat="46.15254" lon="4.57579">
        <ele>478.2</ele>
        <time>2020-10-19T14:19:58Z</time>
      </trkpt>
      <trkpt lat="46.15255" lon="4.57583">
        <ele>478.2</ele>
        <time>2020-10-19T14:19:59Z</time>
      </trkpt>
      <trkpt lat="46.15255" lon="4.57587">
        <ele>477.8</ele>
        <time>2020-10-19T14:20:01Z</time>
      </trkpt>
      <trkpt lat="46.15255" lon="4.57587">
        <ele>477.8</ele>
        <time>2020-10-19T14:20:02Z</time>
      </trkpt>
      <trkpt lat="46.15255" lon="4.57591">
        <ele>477.8</ele>
        <time>2020-10-19T14:20:03Z</time>
      </trkpt>
      <trkpt lat="46.15255" lon="4.57591">
        <ele>478</ele>
        <time>2020-10-19T14:20:04Z</time>
      </trkpt>
      <trkpt lat="46.15255" lon="4.57596">
        <ele>477.8</ele>
        <time>2020-10-19T14:20:05Z</time>
      </trkpt>
      <trkpt lat="46.15255" lon="4.57596">
        <ele>477.6</ele>
        <time>2020-10-19T14:20:06Z</time>
      </trkpt>
      <trkpt lat="46.15256" lon="4.576">
        <ele>477.8</ele>
        <time>2020-10-19T14:20:07Z</time>
      </trkpt>
      <trkpt lat="46.15256" lon="4.576">
        <ele>477.8</ele>
        <time>2020-10-19T14:20:08Z</time>
      </trkpt>
      <trkpt lat="46.15257" lon="4.57605">
        <ele>477.8</ele>
        <time>2020-10-19T14:20:09Z</time>
      </trkpt>
      <trkpt lat="46.15257" lon="4.57605">
        <ele>477.8</ele>
        <time>2020-10-19T14:20:10Z</time>
      </trkpt>
      <trkpt lat="46.15258" lon="4.57609">
        <ele>477.8</ele>
        <time>2020-10-19T14:20:11Z</time>
      </trkpt>
      <trkpt lat="46.15258" lon="4.57609">
        <ele>477.8</ele>
        <time>2020-10-19T14:20:12Z</time>
      </trkpt>
      <trkpt lat="46.15258" lon="4.57613">
        <ele>477.8</ele>
        <time>2020-10-19T14:20:13Z</time>
      </trkpt>
      <trkpt lat="46.15258" lon="4.57613">
        <ele>477.8</ele>
        <time>2020-10-19T14:20:14Z</time>
      </trkpt>
      <trkpt lat="46.15259" lon="4.57617">
        <ele>477.8</ele>
        <time>2020-10-19T14:20:15Z</time>
      </trkpt>
      <trkpt lat="46.15259" lon="4.57617">
        <ele>477.8</ele>
        <time>2020-10-19T14:20:16Z</time>
      </trkpt>
      <trkpt lat="46.1526" lon="4.57621">
        <ele>478</ele>
        <time>2020-10-19T14:20:17Z</time>
      </trkpt>
      <trkpt lat="46.1526" lon="4.57621">
        <ele>478</ele>
        <time>2020-10-19T14:20:18Z</time>
      </trkpt>
      <trkpt lat="46.15261" lon="4.57625">
        <ele>478.2</ele>
        <time>2020-10-19T14:20:19Z</time>
      </trkpt>
      <trkpt lat="46.15261" lon="4.57625">
        <ele>478.2</ele>
        <time>2020-10-19T14:20:20Z</time>
      </trkpt>
      <trkpt lat="46.15263" lon="4.57628">
        <ele>478.2</ele>
        <time>2020-10-19T14:20:21Z</time>
      </trkpt>
      <trkpt lat="46.15263" lon="4.57628">
        <ele>478.4</ele>
        <time>2020-10-19T14:20:22Z</time>
      </trkpt>
      <trkpt lat="46.15266" lon="4.5763">
        <ele>478.4</ele>
        <time>2020-10-19T14:20:23Z</time>
      </trkpt>
      <trkpt lat="46.15266" lon="4.5763">
        <ele>478.6</ele>
        <time>2020-10-19T14:20:24Z</time>
      </trkpt>
      <trkpt lat="46.15269" lon="4.57632">
        <ele>478.8</ele>
        <time>2020-10-19T14:20:25Z</time>
      </trkpt>
      <trkpt lat="46.15269" lon="4.57632">
        <ele>478.8</ele>
        <time>2020-10-19T14:20:26Z</time>
      </trkpt>
      <trkpt lat="46.15271" lon="4.57633">
        <ele>478.8</ele>
        <time>2020-10-19T14:20:27Z</time>
      </trkpt>
      <trkpt lat="46.15271" lon="4.57633">
        <ele>478.8</ele>
        <time>2020-10-19T14:20:28Z</time>
      </trkpt>
      <trkpt lat="46.15273" lon="4.57634">
        <ele>479</ele>
        <time>2020-10-19T14:20:29Z</time>
      </trkpt>
      <trkpt lat="46.15273" lon="4.57634">
        <ele>479</ele>
        <time>2020-10-19T14:20:30Z</time>
      </trkpt>
      <trkpt lat="46.15275" lon="4.57635">
        <ele>479</ele>
        <time>2020-10-19T14:20:31Z</time>
      </trkpt>
      <trkpt lat="46.15275" lon="4.57635">
        <ele>479</ele>
        <time>2020-10-19T14:20:32Z</time>
      </trkpt>
      <trkpt lat="46.15277" lon="4.57637">
        <ele>479.2</ele>
        <time>2020-10-19T14:20:33Z</time>
      </trkpt>
      <trkpt lat="46.15277" lon="4.57637">
        <ele>479.4</ele>
        <time>2020-10-19T14:20:34Z</time>
      </trkpt>
      <trkpt lat="46.15277" lon="4.57637">
        <ele>479.6</ele>
        <time>2020-10-19T14:20:35Z</time>
      </trkpt>
      <trkpt lat="46.15277" lon="4.57637">
        <ele>479.8</ele>
        <time>2020-10-19T14:20:36Z</time>
      </trkpt>
      <trkpt lat="46.15277" lon="4.57637">
        <ele>480</ele>
        <time>2020-10-19T14:20:37Z</time>
      </trkpt>
      <trkpt lat="46.15277" lon="4.57637">
        <ele>480.2</ele>
        <time>2020-10-19T14:20:38Z</time>
      </trkpt>
      <trkpt lat="46.15277" lon="4.57637">
        <ele>479.8</ele>
        <time>2020-10-19T14:20:39Z</time>
      </trkpt>
      <trkpt lat="46.1528" lon="4.57637">
        <ele>479.8</ele>
        <time>2020-10-19T14:20:40Z</time>
      </trkpt>
      <trkpt lat="46.1528" lon="4.57637">
        <ele>479.6</ele>
        <time>2020-10-19T14:20:41Z</time>
      </trkpt>
      <trkpt lat="46.1528" lon="4.57637">
        <ele>479.6</ele>
        <time>2020-10-19T14:20:42Z</time>
      </trkpt>
      <trkpt lat="46.1528" lon="4.57637">
        <ele>479.4</ele>
        <time>2020-10-19T14:20:43Z</time>
      </trkpt>
      <trkpt lat="46.1528" lon="4.57637">
        <ele>479.4</ele>
        <time>2020-10-19T14:20:44Z</time>
      </trkpt>
      <trkpt lat="46.1528" lon="4.57637">
        <ele>479.4</ele>
        <time>2020-10-19T14:20:45Z</time>
      </trkpt>
      <trkpt lat="46.15281" lon="4.57636">
        <ele>479.2</ele>
        <time>2020-10-19T14:20:46Z</time>
      </trkpt>
      <trkpt lat="46.15281" lon="4.57636">
        <ele>479.2</ele>
        <time>2020-10-19T14:20:47Z</time>
      </trkpt>
      <trkpt lat="46.15283" lon="4.57635">
        <ele>479.2</ele>
        <time>2020-10-19T14:20:48Z</time>
      </trkpt>
      <trkpt lat="46.15283" lon="4.57635">
        <ele>479.4</ele>
        <time>2020-10-19T14:20:49Z</time>
      </trkpt>
      <trkpt lat="46.15286" lon="4.57633">
        <ele>479.4</ele>
        <time>2020-10-19T14:20:50Z</time>
      </trkpt>
      <trkpt lat="46.15286" lon="4.57633">
        <ele>479.2</ele>
        <time>2020-10-19T14:20:51Z</time>
      </trkpt>
      <trkpt lat="46.15288" lon="4.57631">
        <ele>479.4</ele>
        <time>2020-10-19T14:20:52Z</time>
      </trkpt>
      <trkpt lat="46.15288" lon="4.57631">
        <ele>479.2</ele>
        <time>2020-10-19T14:20:53Z</time>
      </trkpt>
      <trkpt lat="46.15291" lon="4.5763">
        <ele>479.2</ele>
        <time>2020-10-19T14:20:54Z</time>
      </trkpt>
      <trkpt lat="46.15291" lon="4.5763">
        <ele>479.2</ele>
        <time>2020-10-19T14:20:55Z</time>
      </trkpt>
      <trkpt lat="46.15294" lon="4.57629">
        <ele>479.2</ele>
        <time>2020-10-19T14:20:56Z</time>
      </trkpt>
      <trkpt lat="46.15294" lon="4.57629">
        <ele>478.8</ele>
        <time>2020-10-19T14:20:57Z</time>
      </trkpt>
      <trkpt lat="46.15297" lon="4.57627">
        <ele>478.6</ele>
        <time>2020-10-19T14:20:58Z</time>
      </trkpt>
      <trkpt lat="46.15297" lon="4.57627">
        <ele>478.6</ele>
        <time>2020-10-19T14:20:59Z</time>
      </trkpt>
      <trkpt lat="46.15299" lon="4.57626">
        <ele>478.4</ele>
        <time>2020-10-19T14:21:00Z</time>
      </trkpt>
      <trkpt lat="46.15299" lon="4.57626">
        <ele>478.4</ele>
        <time>2020-10-19T14:21:01Z</time>
      </trkpt>
      <trkpt lat="46.15302" lon="4.57625">
        <ele>478.2</ele>
        <time>2020-10-19T14:21:02Z</time>
      </trkpt>
      <trkpt lat="46.15302" lon="4.57625">
        <ele>478.2</ele>
        <time>2020-10-19T14:21:03Z</time>
      </trkpt>
      <trkpt lat="46.15304" lon="4.57624">
        <ele>478.2</ele>
        <time>2020-10-19T14:21:04Z</time>
      </trkpt>
      <trkpt lat="46.15304" lon="4.57624">
        <ele>478.2</ele>
        <time>2020-10-19T14:21:05Z</time>
      </trkpt>
      <trkpt lat="46.15306" lon="4.57623">
        <ele>478.2</ele>
        <time>2020-10-19T14:21:06Z</time>
      </trkpt>
      <trkpt lat="46.15306" lon="4.57623">
        <ele>478</ele>
        <time>2020-10-19T14:21:07Z</time>
      </trkpt>
      <trkpt lat="46.15308" lon="4.57621">
        <ele>477.8</ele>
        <time>2020-10-19T14:21:08Z</time>
      </trkpt>
      <trkpt lat="46.1531" lon="4.57621">
        <ele>478</ele>
        <time>2020-10-19T14:21:09Z</time>
      </trkpt>
      <trkpt lat="46.15312" lon="4.5762">
        <ele>477.6</ele>
        <time>2020-10-19T14:21:10Z</time>
      </trkpt>
      <trkpt lat="46.15314" lon="4.57618">
        <ele>477.6</ele>
        <time>2020-10-19T14:21:11Z</time>
      </trkpt>
      <trkpt lat="46.15315" lon="4.57617">
        <ele>477.8</ele>
        <time>2020-10-19T14:21:12Z</time>
      </trkpt>
      <trkpt lat="46.15317" lon="4.57616">
        <ele>477.6</ele>
        <time>2020-10-19T14:21:13Z</time>
      </trkpt>
      <trkpt lat="46.1532" lon="4.57614">
        <ele>477.6</ele>
        <time>2020-10-19T14:21:14Z</time>
      </trkpt>
      <trkpt lat="46.15322" lon="4.57612">
        <ele>477.4</ele>
        <time>2020-10-19T14:21:15Z</time>
      </trkpt>
      <trkpt lat="46.15324" lon="4.5761">
        <ele>477.2</ele>
        <time>2020-10-19T14:21:16Z</time>
      </trkpt>
      <trkpt lat="46.15326" lon="4.57608">
        <ele>476.8</ele>
        <time>2020-10-19T14:21:17Z</time>
      </trkpt>
      <trkpt lat="46.15328" lon="4.57607">
        <ele>476.4</ele>
        <time>2020-10-19T14:21:18Z</time>
      </trkpt>
      <trkpt lat="46.1533" lon="4.57605">
        <ele>476</ele>
        <time>2020-10-19T14:21:19Z</time>
      </trkpt>
      <trkpt lat="46.15332" lon="4.57603">
        <ele>475.8</ele>
        <time>2020-10-19T14:21:20Z</time>
      </trkpt>
      <trkpt lat="46.15334" lon="4.57601">
        <ele>475.2</ele>
        <time>2020-10-19T14:21:21Z</time>
      </trkpt>
      <trkpt lat="46.15336" lon="4.576">
        <ele>474.6</ele>
        <time>2020-10-19T14:21:22Z</time>
      </trkpt>
      <trkpt lat="46.15338" lon="4.57599">
        <ele>474.2</ele>
        <time>2020-10-19T14:21:23Z</time>
      </trkpt>
      <trkpt lat="46.1534" lon="4.57599">
        <ele>474</ele>
        <time>2020-10-19T14:21:24Z</time>
      </trkpt>
      <trkpt lat="46.15341" lon="4.57601">
        <ele>473.6</ele>
        <time>2020-10-19T14:21:25Z</time>
      </trkpt>
      <trkpt lat="46.15342" lon="4.57603">
        <ele>473.2</ele>
        <time>2020-10-19T14:21:26Z</time>
      </trkpt>
      <trkpt lat="46.15342" lon="4.57606">
        <ele>472.8</ele>
        <time>2020-10-19T14:21:27Z</time>
      </trkpt>
      <trkpt lat="46.15342" lon="4.57606">
        <ele>472.2</ele>
        <time>2020-10-19T14:21:28Z</time>
      </trkpt>
      <trkpt lat="46.15342" lon="4.5761">
        <ele>471.8</ele>
        <time>2020-10-19T14:21:29Z</time>
      </trkpt>
      <trkpt lat="46.15342" lon="4.5761">
        <ele>471.4</ele>
        <time>2020-10-19T14:21:30Z</time>
      </trkpt>
      <trkpt lat="46.15342" lon="4.57614">
        <ele>471</ele>
        <time>2020-10-19T14:21:31Z</time>
      </trkpt>
      <trkpt lat="46.15342" lon="4.57617">
        <ele>470.4</ele>
        <time>2020-10-19T14:21:32Z</time>
      </trkpt>
      <trkpt lat="46.15342" lon="4.5762">
        <ele>470.4</ele>
        <time>2020-10-19T14:21:33Z</time>
      </trkpt>
      <trkpt lat="46.15342" lon="4.57624">
        <ele>469.6</ele>
        <time>2020-10-19T14:21:34Z</time>
      </trkpt>
      <trkpt lat="46.15342" lon="4.57627">
        <ele>469.2</ele>
        <time>2020-10-19T14:21:35Z</time>
      </trkpt>
      <trkpt lat="46.15341" lon="4.57631">
        <ele>469.4</ele>
        <time>2020-10-19T14:21:36Z</time>
      </trkpt>
      <trkpt lat="46.15341" lon="4.57634">
        <ele>469</ele>
        <time>2020-10-19T14:21:37Z</time>
      </trkpt>
      <trkpt lat="46.1534" lon="4.57638">
        <ele>468.6</ele>
        <time>2020-10-19T14:21:38Z</time>
      </trkpt>
      <trkpt lat="46.15339" lon="4.57641">
        <ele>468</ele>
        <time>2020-10-19T14:21:39Z</time>
      </trkpt>
      <trkpt lat="46.15338" lon="4.57646">
        <ele>467.6</ele>
        <time>2020-10-19T14:21:40Z</time>
      </trkpt>
      <trkpt lat="46.15337" lon="4.57649">
        <ele>468</ele>
        <time>2020-10-19T14:21:41Z</time>
      </trkpt>
      <trkpt lat="46.15336" lon="4.57653">
        <ele>467.6</ele>
        <time>2020-10-19T14:21:42Z</time>
      </trkpt>
      <trkpt lat="46.15335" lon="4.57657">
        <ele>467</ele>
        <time>2020-10-19T14:21:43Z</time>
      </trkpt>
      <trkpt lat="46.15335" lon="4.5766">
        <ele>467.2</ele>
        <time>2020-10-19T14:21:44Z</time>
      </trkpt>
      <trkpt lat="46.15335" lon="4.57664">
        <ele>466.8</ele>
        <time>2020-10-19T14:21:45Z</time>
      </trkpt>
      <trkpt lat="46.15335" lon="4.57666">
        <ele>466.8</ele>
        <time>2020-10-19T14:21:46Z</time>
      </trkpt>
      <trkpt lat="46.15335" lon="4.5767">
        <ele>466.4</ele>
        <time>2020-10-19T14:21:47Z</time>
      </trkpt>
      <trkpt lat="46.15336" lon="4.57673">
        <ele>465.8</ele>
        <time>2020-10-19T14:21:48Z</time>
      </trkpt>
      <trkpt lat="46.15336" lon="4.57676">
        <ele>465</ele>
        <time>2020-10-19T14:21:49Z</time>
      </trkpt>
      <trkpt lat="46.15337" lon="4.5768">
        <ele>464.6</ele>
        <time>2020-10-19T14:21:50Z</time>
      </trkpt>
      <trkpt lat="46.15339" lon="4.57683">
        <ele>463.8</ele>
        <time>2020-10-19T14:21:51Z</time>
      </trkpt>
      <trkpt lat="46.1534" lon="4.57686">
        <ele>463.4</ele>
        <time>2020-10-19T14:21:52Z</time>
      </trkpt>
      <trkpt lat="46.15341" lon="4.5769">
        <ele>463.6</ele>
        <time>2020-10-19T14:21:53Z</time>
      </trkpt>
      <trkpt lat="46.15342" lon="4.57694">
        <ele>463.4</ele>
        <time>2020-10-19T14:21:54Z</time>
      </trkpt>
      <trkpt lat="46.15344" lon="4.57697">
        <ele>463.2</ele>
        <time>2020-10-19T14:21:55Z</time>
      </trkpt>
      <trkpt lat="46.15345" lon="4.577">
        <ele>462.8</ele>
        <time>2020-10-19T14:21:56Z</time>
      </trkpt>
      <trkpt lat="46.15346" lon="4.57703">
        <ele>462.2</ele>
        <time>2020-10-19T14:21:57Z</time>
      </trkpt>
      <trkpt lat="46.15348" lon="4.57707">
        <ele>462.6</ele>
        <time>2020-10-19T14:21:58Z</time>
      </trkpt>
      <trkpt lat="46.1535" lon="4.5771">
        <ele>462</ele>
        <time>2020-10-19T14:21:59Z</time>
      </trkpt>
      <trkpt lat="46.15351" lon="4.57713">
        <ele>461</ele>
        <time>2020-10-19T14:22:00Z</time>
      </trkpt>
      <trkpt lat="46.15352" lon="4.57716">
        <ele>461.4</ele>
        <time>2020-10-19T14:22:01Z</time>
      </trkpt>
      <trkpt lat="46.15353" lon="4.5772">
        <ele>461</ele>
        <time>2020-10-19T14:22:02Z</time>
      </trkpt>
      <trkpt lat="46.15355" lon="4.57723">
        <ele>460.8</ele>
        <time>2020-10-19T14:22:03Z</time>
      </trkpt>
      <trkpt lat="46.15356" lon="4.57726">
        <ele>460.4</ele>
        <time>2020-10-19T14:22:04Z</time>
      </trkpt>
      <trkpt lat="46.15357" lon="4.57728">
        <ele>459.8</ele>
        <time>2020-10-19T14:22:05Z</time>
      </trkpt>
      <trkpt lat="46.15359" lon="4.57731">
        <ele>459.8</ele>
        <time>2020-10-19T14:22:06Z</time>
      </trkpt>
      <trkpt lat="46.1536" lon="4.57733">
        <ele>459.6</ele>
        <time>2020-10-19T14:22:07Z</time>
      </trkpt>
      <trkpt lat="46.15362" lon="4.57736">
        <ele>459.2</ele>
        <time>2020-10-19T14:22:08Z</time>
      </trkpt>
      <trkpt lat="46.15364" lon="4.57738">
        <ele>459.4</ele>
        <time>2020-10-19T14:22:09Z</time>
      </trkpt>
      <trkpt lat="46.15365" lon="4.57741">
        <ele>459</ele>
        <time>2020-10-19T14:22:10Z</time>
      </trkpt>
      <trkpt lat="46.15367" lon="4.57743">
        <ele>458.6</ele>
        <time>2020-10-19T14:22:11Z</time>
      </trkpt>
      <trkpt lat="46.15367" lon="4.57743">
        <ele>458.6</ele>
        <time>2020-10-19T14:22:12Z</time>
      </trkpt>
      <trkpt lat="46.15369" lon="4.57746">
        <ele>458.2</ele>
        <time>2020-10-19T14:22:13Z</time>
      </trkpt>
      <trkpt lat="46.15369" lon="4.57746">
        <ele>458</ele>
        <time>2020-10-19T14:22:14Z</time>
      </trkpt>
      <trkpt lat="46.15372" lon="4.57749">
        <ele>457.6</ele>
        <time>2020-10-19T14:22:15Z</time>
      </trkpt>
      <trkpt lat="46.15372" lon="4.57749">
        <ele>457.2</ele>
        <time>2020-10-19T14:22:16Z</time>
      </trkpt>
      <trkpt lat="46.15373" lon="4.57752">
        <ele>456.8</ele>
        <time>2020-10-19T14:22:17Z</time>
      </trkpt>
      <trkpt lat="46.15373" lon="4.57752">
        <ele>456.6</ele>
        <time>2020-10-19T14:22:18Z</time>
      </trkpt>
      <trkpt lat="46.15376" lon="4.57754">
        <ele>456.6</ele>
        <time>2020-10-19T14:22:19Z</time>
      </trkpt>
      <trkpt lat="46.15376" lon="4.57754">
        <ele>456.4</ele>
        <time>2020-10-19T14:22:20Z</time>
      </trkpt>
      <trkpt lat="46.15378" lon="4.57757">
        <ele>456.2</ele>
        <time>2020-10-19T14:22:21Z</time>
      </trkpt>
      <trkpt lat="46.15378" lon="4.57757">
        <ele>456.2</ele>
        <time>2020-10-19T14:22:22Z</time>
      </trkpt>
      <trkpt lat="46.15379" lon="4.5776">
        <ele>456.6</ele>
        <time>2020-10-19T14:22:23Z</time>
      </trkpt>
      <trkpt lat="46.15379" lon="4.5776">
        <ele>456.6</ele>
        <time>2020-10-19T14:22:24Z</time>
      </trkpt>
      <trkpt lat="46.15381" lon="4.57762">
        <ele>456.4</ele>
        <time>2020-10-19T14:22:25Z</time>
      </trkpt>
      <trkpt lat="46.15381" lon="4.57762">
        <ele>456.4</ele>
        <time>2020-10-19T14:22:26Z</time>
      </trkpt>
      <trkpt lat="46.15384" lon="4.57765">
        <ele>456</ele>
        <time>2020-10-19T14:22:27Z</time>
      </trkpt>
      <trkpt lat="46.15384" lon="4.57765">
        <ele>455.8</ele>
        <time>2020-10-19T14:22:28Z</time>
      </trkpt>
      <trkpt lat="46.15386" lon="4.57768">
        <ele>455.6</ele>
        <time>2020-10-19T14:22:29Z</time>
      </trkpt>
      <trkpt lat="46.15386" lon="4.57768">
        <ele>455.6</ele>
        <time>2020-10-19T14:22:30Z</time>
      </trkpt>
      <trkpt lat="46.15388" lon="4.57771">
        <ele>455.4</ele>
        <time>2020-10-19T14:22:31Z</time>
      </trkpt>
      <trkpt lat="46.15388" lon="4.57771">
        <ele>455.2</ele>
        <time>2020-10-19T14:22:32Z</time>
      </trkpt>
      <trkpt lat="46.1539" lon="4.57774">
        <ele>455.4</ele>
        <time>2020-10-19T14:22:33Z</time>
      </trkpt>
      <trkpt lat="46.1539" lon="4.57774">
        <ele>455</ele>
        <time>2020-10-19T14:22:34Z</time>
      </trkpt>
      <trkpt lat="46.15392" lon="4.57776">
        <ele>455</ele>
        <time>2020-10-19T14:22:35Z</time>
      </trkpt>
      <trkpt lat="46.15392" lon="4.57776">
        <ele>454.6</ele>
        <time>2020-10-19T14:22:36Z</time>
      </trkpt>
      <trkpt lat="46.15394" lon="4.57778">
        <ele>454.4</ele>
        <time>2020-10-19T14:22:37Z</time>
      </trkpt>
      <trkpt lat="46.15394" lon="4.57778">
        <ele>454.2</ele>
        <time>2020-10-19T14:22:38Z</time>
      </trkpt>
      <trkpt lat="46.15398" lon="4.57779">
        <ele>454</ele>
        <time>2020-10-19T14:22:39Z</time>
      </trkpt>
      <trkpt lat="46.154" lon="4.5778">
        <ele>453.8</ele>
        <time>2020-10-19T14:22:40Z</time>
      </trkpt>
      <trkpt lat="46.154" lon="4.5778">
        <ele>453.8</ele>
        <time>2020-10-19T14:22:41Z</time>
      </trkpt>
      <trkpt lat="46.15403" lon="4.57782">
        <ele>453.8</ele>
        <time>2020-10-19T14:22:42Z</time>
      </trkpt>
      <trkpt lat="46.15403" lon="4.57782">
        <ele>453.8</ele>
        <time>2020-10-19T14:22:43Z</time>
      </trkpt>
      <trkpt lat="46.15405" lon="4.57783">
        <ele>453.6</ele>
        <time>2020-10-19T14:22:44Z</time>
      </trkpt>
      <trkpt lat="46.15405" lon="4.57783">
        <ele>453.4</ele>
        <time>2020-10-19T14:22:45Z</time>
      </trkpt>
      <trkpt lat="46.15408" lon="4.57784">
        <ele>453</ele>
        <time>2020-10-19T14:22:46Z</time>
      </trkpt>
      <trkpt lat="46.15408" lon="4.57784">
        <ele>452.8</ele>
        <time>2020-10-19T14:22:47Z</time>
      </trkpt>
      <trkpt lat="46.15411" lon="4.57786">
        <ele>452.6</ele>
        <time>2020-10-19T14:22:48Z</time>
      </trkpt>
      <trkpt lat="46.15411" lon="4.57786">
        <ele>452.4</ele>
        <time>2020-10-19T14:22:49Z</time>
      </trkpt>
      <trkpt lat="46.15414" lon="4.57788">
        <ele>452.4</ele>
        <time>2020-10-19T14:22:50Z</time>
      </trkpt>
      <trkpt lat="46.15414" lon="4.57788">
        <ele>452.4</ele>
        <time>2020-10-19T14:22:51Z</time>
      </trkpt>
      <trkpt lat="46.15416" lon="4.5779">
        <ele>452.2</ele>
        <time>2020-10-19T14:22:52Z</time>
      </trkpt>
      <trkpt lat="46.15416" lon="4.5779">
        <ele>452</ele>
        <time>2020-10-19T14:22:53Z</time>
      </trkpt>
      <trkpt lat="46.15419" lon="4.57792">
        <ele>451.8</ele>
        <time>2020-10-19T14:22:54Z</time>
      </trkpt>
      <trkpt lat="46.15419" lon="4.57792">
        <ele>451.8</ele>
        <time>2020-10-19T14:22:55Z</time>
      </trkpt>
      <trkpt lat="46.15419" lon="4.57792">
        <ele>451.8</ele>
        <time>2020-10-19T14:22:56Z</time>
      </trkpt>
      <trkpt lat="46.15421" lon="4.57792">
        <ele>451.8</ele>
        <time>2020-10-19T14:22:57Z</time>
      </trkpt>
      <trkpt lat="46.15421" lon="4.57792">
        <ele>452</ele>
        <time>2020-10-19T14:22:58Z</time>
      </trkpt>
      <trkpt lat="46.15423" lon="4.57794">
        <ele>452</ele>
        <time>2020-10-19T14:22:59Z</time>
      </trkpt>
      <trkpt lat="46.15423" lon="4.57794">
        <ele>452</ele>
        <time>2020-10-19T14:23:00Z</time>
      </trkpt>
      <trkpt lat="46.15425" lon="4.57797">
        <ele>451.8</ele>
        <time>2020-10-19T14:23:01Z</time>
      </trkpt>
      <trkpt lat="46.15425" lon="4.57797">
        <ele>451.8</ele>
        <time>2020-10-19T14:23:02Z</time>
      </trkpt>
      <trkpt lat="46.15428" lon="4.578">
        <ele>451.8</ele>
        <time>2020-10-19T14:23:03Z</time>
      </trkpt>
      <trkpt lat="46.15429" lon="4.57802">
        <ele>452.2</ele>
        <time>2020-10-19T14:23:04Z</time>
      </trkpt>
      <trkpt lat="46.15429" lon="4.57802">
        <ele>452.4</ele>
        <time>2020-10-19T14:23:05Z</time>
      </trkpt>
      <trkpt lat="46.15432" lon="4.57805">
        <ele>452.2</ele>
        <time>2020-10-19T14:23:06Z</time>
      </trkpt>
      <trkpt lat="46.15432" lon="4.57805">
        <ele>452</ele>
        <time>2020-10-19T14:23:07Z</time>
      </trkpt>
      <trkpt lat="46.15434" lon="4.57809">
        <ele>452</ele>
        <time>2020-10-19T14:23:08Z</time>
      </trkpt>
      <trkpt lat="46.15434" lon="4.57809">
        <ele>452</ele>
        <time>2020-10-19T14:23:09Z</time>
      </trkpt>
      <trkpt lat="46.15435" lon="4.57812">
        <ele>452</ele>
        <time>2020-10-19T14:23:10Z</time>
      </trkpt>
      <trkpt lat="46.15435" lon="4.57812">
        <ele>452</ele>
        <time>2020-10-19T14:23:11Z</time>
      </trkpt>
      <trkpt lat="46.15437" lon="4.57816">
        <ele>451.8</ele>
        <time>2020-10-19T14:23:12Z</time>
      </trkpt>
      <trkpt lat="46.15437" lon="4.57816">
        <ele>452</ele>
        <time>2020-10-19T14:23:13Z</time>
      </trkpt>
      <trkpt lat="46.15438" lon="4.5782">
        <ele>451.8</ele>
        <time>2020-10-19T14:23:14Z</time>
      </trkpt>
      <trkpt lat="46.15438" lon="4.5782">
        <ele>452</ele>
        <time>2020-10-19T14:23:15Z</time>
      </trkpt>
      <trkpt lat="46.15439" lon="4.57824">
        <ele>452</ele>
        <time>2020-10-19T14:23:16Z</time>
      </trkpt>
      <trkpt lat="46.15439" lon="4.57824">
        <ele>452.2</ele>
        <time>2020-10-19T14:23:17Z</time>
      </trkpt>
      <trkpt lat="46.1544" lon="4.57828">
        <ele>452.4</ele>
        <time>2020-10-19T14:23:18Z</time>
      </trkpt>
      <trkpt lat="46.1544" lon="4.57828">
        <ele>452.4</ele>
        <time>2020-10-19T14:23:19Z</time>
      </trkpt>
      <trkpt lat="46.15441" lon="4.57832">
        <ele>452.6</ele>
        <time>2020-10-19T14:23:20Z</time>
      </trkpt>
      <trkpt lat="46.15441" lon="4.57832">
        <ele>452.4</ele>
        <time>2020-10-19T14:23:21Z</time>
      </trkpt>
      <trkpt lat="46.15442" lon="4.57836">
        <ele>452.4</ele>
        <time>2020-10-19T14:23:22Z</time>
      </trkpt>
      <trkpt lat="46.15442" lon="4.57836">
        <ele>452.4</ele>
        <time>2020-10-19T14:23:23Z</time>
      </trkpt>
      <trkpt lat="46.15442" lon="4.5784">
        <ele>452</ele>
        <time>2020-10-19T14:23:24Z</time>
      </trkpt>
      <trkpt lat="46.15442" lon="4.5784">
        <ele>452.4</ele>
        <time>2020-10-19T14:23:25Z</time>
      </trkpt>
      <trkpt lat="46.15443" lon="4.57845">
        <ele>452.2</ele>
        <time>2020-10-19T14:23:26Z</time>
      </trkpt>
      <trkpt lat="46.15443" lon="4.57845">
        <ele>452.2</ele>
        <time>2020-10-19T14:23:27Z</time>
      </trkpt>
      <trkpt lat="46.15444" lon="4.57849">
        <ele>452.2</ele>
        <time>2020-10-19T14:23:28Z</time>
      </trkpt>
      <trkpt lat="46.15444" lon="4.57849">
        <ele>452.4</ele>
        <time>2020-10-19T14:23:29Z</time>
      </trkpt>
      <trkpt lat="46.15446" lon="4.57853">
        <ele>452.4</ele>
        <time>2020-10-19T14:23:30Z</time>
      </trkpt>
      <trkpt lat="46.15446" lon="4.57853">
        <ele>452.4</ele>
        <time>2020-10-19T14:23:31Z</time>
      </trkpt>
      <trkpt lat="46.15448" lon="4.57857">
        <ele>452.6</ele>
        <time>2020-10-19T14:23:32Z</time>
      </trkpt>
      <trkpt lat="46.15448" lon="4.57857">
        <ele>452.6</ele>
        <time>2020-10-19T14:23:33Z</time>
      </trkpt>
      <trkpt lat="46.15449" lon="4.5786">
        <ele>452.4</ele>
        <time>2020-10-19T14:23:34Z</time>
      </trkpt>
      <trkpt lat="46.15449" lon="4.5786">
        <ele>452.4</ele>
        <time>2020-10-19T14:23:35Z</time>
      </trkpt>
      <trkpt lat="46.15449" lon="4.57863">
        <ele>452.4</ele>
        <time>2020-10-19T14:23:36Z</time>
      </trkpt>
      <trkpt lat="46.15449" lon="4.57863">
        <ele>452.4</ele>
        <time>2020-10-19T14:23:37Z</time>
      </trkpt>
      <trkpt lat="46.15447" lon="4.57866">
        <ele>452.6</ele>
        <time>2020-10-19T14:23:38Z</time>
      </trkpt>
      <trkpt lat="46.15447" lon="4.57866">
        <ele>452.8</ele>
        <time>2020-10-19T14:23:39Z</time>
      </trkpt>
      <trkpt lat="46.15446" lon="4.57869">
        <ele>453.2</ele>
        <time>2020-10-19T14:23:40Z</time>
      </trkpt>
      <trkpt lat="46.15446" lon="4.57869">
        <ele>453.4</ele>
        <time>2020-10-19T14:23:41Z</time>
      </trkpt>
      <trkpt lat="46.15445" lon="4.57873">
        <ele>453.4</ele>
        <time>2020-10-19T14:23:42Z</time>
      </trkpt>
      <trkpt lat="46.15445" lon="4.57873">
        <ele>453.6</ele>
        <time>2020-10-19T14:23:43Z</time>
      </trkpt>
      <trkpt lat="46.15444" lon="4.57876">
        <ele>453.6</ele>
        <time>2020-10-19T14:23:44Z</time>
      </trkpt>
      <trkpt lat="46.15444" lon="4.57876">
        <ele>453.8</ele>
        <time>2020-10-19T14:23:45Z</time>
      </trkpt>
      <trkpt lat="46.15443" lon="4.5788">
        <ele>454</ele>
        <time>2020-10-19T14:23:46Z</time>
      </trkpt>
      <trkpt lat="46.15443" lon="4.5788">
        <ele>454</ele>
        <time>2020-10-19T14:23:47Z</time>
      </trkpt>
      <trkpt lat="46.15442" lon="4.57883">
        <ele>454</ele>
        <time>2020-10-19T14:23:48Z</time>
      </trkpt>
      <trkpt lat="46.15442" lon="4.57883">
        <ele>454</ele>
        <time>2020-10-19T14:23:49Z</time>
      </trkpt>
      <trkpt lat="46.15441" lon="4.57886">
        <ele>454</ele>
        <time>2020-10-19T14:23:50Z</time>
      </trkpt>
      <trkpt lat="46.15441" lon="4.57886">
        <ele>453.8</ele>
        <time>2020-10-19T14:23:51Z</time>
      </trkpt>
      <trkpt lat="46.1544" lon="4.5789">
        <ele>453.8</ele>
        <time>2020-10-19T14:23:52Z</time>
      </trkpt>
      <trkpt lat="46.1544" lon="4.5789">
        <ele>453.8</ele>
        <time>2020-10-19T14:23:53Z</time>
      </trkpt>
      <trkpt lat="46.15439" lon="4.57894">
        <ele>453.8</ele>
        <time>2020-10-19T14:23:54Z</time>
      </trkpt>
      <trkpt lat="46.15439" lon="4.57894">
        <ele>454</ele>
        <time>2020-10-19T14:23:55Z</time>
      </trkpt>
      <trkpt lat="46.15438" lon="4.57898">
        <ele>453.8</ele>
        <time>2020-10-19T14:23:56Z</time>
      </trkpt>
      <trkpt lat="46.15438" lon="4.57898">
        <ele>453.8</ele>
        <time>2020-10-19T14:23:57Z</time>
      </trkpt>
      <trkpt lat="46.15437" lon="4.579">
        <ele>453.4</ele>
        <time>2020-10-19T14:23:58Z</time>
      </trkpt>
      <trkpt lat="46.15437" lon="4.579">
        <ele>453.4</ele>
        <time>2020-10-19T14:23:59Z</time>
      </trkpt>
      <trkpt lat="46.15435" lon="4.57903">
        <ele>453.2</ele>
        <time>2020-10-19T14:24:00Z</time>
      </trkpt>
      <trkpt lat="46.15435" lon="4.57903">
        <ele>453</ele>
        <time>2020-10-19T14:24:01Z</time>
      </trkpt>
      <trkpt lat="46.15433" lon="4.57906">
        <ele>453</ele>
        <time>2020-10-19T14:24:02Z</time>
      </trkpt>
      <trkpt lat="46.15433" lon="4.57906">
        <ele>453</ele>
        <time>2020-10-19T14:24:03Z</time>
      </trkpt>
      <trkpt lat="46.15431" lon="4.57908">
        <ele>453</ele>
        <time>2020-10-19T14:24:04Z</time>
      </trkpt>
      <trkpt lat="46.15431" lon="4.57908">
        <ele>453</ele>
        <time>2020-10-19T14:24:05Z</time>
      </trkpt>
      <trkpt lat="46.15428" lon="4.5791">
        <ele>453</ele>
        <time>2020-10-19T14:24:06Z</time>
      </trkpt>
      <trkpt lat="46.15428" lon="4.5791">
        <ele>453.2</ele>
        <time>2020-10-19T14:24:07Z</time>
      </trkpt>
      <trkpt lat="46.15426" lon="4.57911">
        <ele>453.2</ele>
        <time>2020-10-19T14:24:08Z</time>
      </trkpt>
      <trkpt lat="46.15426" lon="4.57911">
        <ele>453.2</ele>
        <time>2020-10-19T14:24:09Z</time>
      </trkpt>
      <trkpt lat="46.15426" lon="4.57911">
        <ele>453</ele>
        <time>2020-10-19T14:24:10Z</time>
      </trkpt>
      <trkpt lat="46.15422" lon="4.57912">
        <ele>452.8</ele>
        <time>2020-10-19T14:24:11Z</time>
      </trkpt>
      <trkpt lat="46.1542" lon="4.57912">
        <ele>453</ele>
        <time>2020-10-19T14:24:12Z</time>
      </trkpt>
      <trkpt lat="46.1542" lon="4.57912">
        <ele>453</ele>
        <time>2020-10-19T14:24:13Z</time>
      </trkpt>
      <trkpt lat="46.15418" lon="4.57911">
        <ele>453</ele>
        <time>2020-10-19T14:24:14Z</time>
      </trkpt>
      <trkpt lat="46.15418" lon="4.57911">
        <ele>453</ele>
        <time>2020-10-19T14:24:15Z</time>
      </trkpt>
      <trkpt lat="46.15416" lon="4.5791">
        <ele>452.8</ele>
        <time>2020-10-19T14:24:16Z</time>
      </trkpt>
      <trkpt lat="46.15416" lon="4.5791">
        <ele>452.8</ele>
        <time>2020-10-19T14:24:17Z</time>
      </trkpt>
      <trkpt lat="46.15416" lon="4.5791">
        <ele>452.8</ele>
        <time>2020-10-19T14:24:18Z</time>
      </trkpt>
      <trkpt lat="46.15414" lon="4.57907">
        <ele>452.8</ele>
        <time>2020-10-19T14:24:19Z</time>
      </trkpt>
      <trkpt lat="46.15414" lon="4.57907">
        <ele>452.6</ele>
        <time>2020-10-19T14:24:20Z</time>
      </trkpt>
      <trkpt lat="46.15414" lon="4.57907">
        <ele>452.4</ele>
        <time>2020-10-19T14:24:21Z</time>
      </trkpt>
      <trkpt lat="46.15413" lon="4.57904">
        <ele>452.4</ele>
        <time>2020-10-19T14:24:22Z</time>
      </trkpt>
      <trkpt lat="46.15413" lon="4.57904">
        <ele>452.6</ele>
        <time>2020-10-19T14:24:23Z</time>
      </trkpt>
      <trkpt lat="46.15413" lon="4.57904">
        <ele>452.8</ele>
        <time>2020-10-19T14:24:24Z</time>
      </trkpt>
      <trkpt lat="46.15413" lon="4.57904">
        <ele>452.8</ele>
        <time>2020-10-19T14:24:25Z</time>
      </trkpt>
      <trkpt lat="46.15413" lon="4.57901">
        <ele>452.8</ele>
        <time>2020-10-19T14:24:26Z</time>
      </trkpt>
      <trkpt lat="46.15413" lon="4.57901">
        <ele>452.8</ele>
        <time>2020-10-19T14:24:27Z</time>
      </trkpt>
      <trkpt lat="46.15414" lon="4.57898">
        <ele>452.8</ele>
        <time>2020-10-19T14:24:28Z</time>
      </trkpt>
      <trkpt lat="46.15414" lon="4.57898">
        <ele>452.8</ele>
        <time>2020-10-19T14:24:29Z</time>
      </trkpt>
      <trkpt lat="46.15414" lon="4.57898">
        <ele>452.8</ele>
        <time>2020-10-19T14:24:30Z</time>
      </trkpt>
      <trkpt lat="46.15414" lon="4.57898">
        <ele>452.8</ele>
        <time>2020-10-19T14:24:31Z</time>
      </trkpt>
      <trkpt lat="46.15414" lon="4.57898">
        <ele>453</ele>
        <time>2020-10-19T14:24:32Z</time>
      </trkpt>
      <trkpt lat="46.15415" lon="4.579">
        <ele>453</ele>
        <time>2020-10-19T14:24:33Z</time>
      </trkpt>
      <trkpt lat="46.15415" lon="4.579">
        <ele>452.8</ele>
        <time>2020-10-19T14:24:34Z</time>
      </trkpt>
      <trkpt lat="46.15414" lon="4.57903">
        <ele>452.8</ele>
        <time>2020-10-19T14:24:35Z</time>
      </trkpt>
      <trkpt lat="46.15414" lon="4.57903">
        <ele>453</ele>
        <time>2020-10-19T14:24:36Z</time>
      </trkpt>
      <trkpt lat="46.15414" lon="4.57906">
        <ele>453.2</ele>
        <time>2020-10-19T14:24:37Z</time>
      </trkpt>
      <trkpt lat="46.15414" lon="4.57906">
        <ele>453.2</ele>
        <time>2020-10-19T14:24:38Z</time>
      </trkpt>
      <trkpt lat="46.15416" lon="4.57908">
        <ele>453.4</ele>
        <time>2020-10-19T14:24:39Z</time>
      </trkpt>
      <trkpt lat="46.15416" lon="4.57908">
        <ele>453.4</ele>
        <time>2020-10-19T14:24:40Z</time>
      </trkpt>
      <trkpt lat="46.15418" lon="4.57909">
        <ele>453.4</ele>
        <time>2020-10-19T14:24:41Z</time>
      </trkpt>
      <trkpt lat="46.15418" lon="4.57909">
        <ele>453.2</ele>
        <time>2020-10-19T14:24:42Z</time>
      </trkpt>
      <trkpt lat="46.1542" lon="4.5791">
        <ele>453.4</ele>
        <time>2020-10-19T14:24:43Z</time>
      </trkpt>
      <trkpt lat="46.1542" lon="4.5791">
        <ele>453.2</ele>
        <time>2020-10-19T14:24:44Z</time>
      </trkpt>
      <trkpt lat="46.1542" lon="4.5791">
        <ele>453.2</ele>
        <time>2020-10-19T14:24:45Z</time>
      </trkpt>
      <trkpt lat="46.1542" lon="4.5791">
        <ele>453.2</ele>
        <time>2020-10-19T14:24:46Z</time>
      </trkpt>
      <trkpt lat="46.1542" lon="4.5791">
        <ele>452.8</ele>
        <time>2020-10-19T14:24:47Z</time>
      </trkpt>
      <trkpt lat="46.1542" lon="4.5791">
        <ele>453</ele>
        <time>2020-10-19T14:24:48Z</time>
      </trkpt>
      <trkpt lat="46.15423" lon="4.57909">
        <ele>453</ele>
        <time>2020-10-19T14:24:49Z</time>
      </trkpt>
      <trkpt lat="46.15423" lon="4.57909">
        <ele>453</ele>
        <time>2020-10-19T14:24:50Z</time>
      </trkpt>
      <trkpt lat="46.15425" lon="4.57911">
        <ele>452.8</ele>
        <time>2020-10-19T14:24:51Z</time>
      </trkpt>
      <trkpt lat="46.15425" lon="4.57911">
        <ele>452.8</ele>
        <time>2020-10-19T14:24:52Z</time>
      </trkpt>
      <trkpt lat="46.15428" lon="4.57913">
        <ele>452.8</ele>
        <time>2020-10-19T14:24:53Z</time>
      </trkpt>
      <trkpt lat="46.15428" lon="4.57913">
        <ele>452.8</ele>
        <time>2020-10-19T14:24:54Z</time>
      </trkpt>
      <trkpt lat="46.15431" lon="4.57916">
        <ele>452.8</ele>
        <time>2020-10-19T14:24:55Z</time>
      </trkpt>
      <trkpt lat="46.15432" lon="4.57918">
        <ele>452.6</ele>
        <time>2020-10-19T14:24:56Z</time>
      </trkpt>
      <trkpt lat="46.15432" lon="4.57918">
        <ele>452.6</ele>
        <time>2020-10-19T14:24:57Z</time>
      </trkpt>
      <trkpt lat="46.15435" lon="4.57921">
        <ele>452.6</ele>
        <time>2020-10-19T14:24:58Z</time>
      </trkpt>
      <trkpt lat="46.15435" lon="4.57921">
        <ele>452.6</ele>
        <time>2020-10-19T14:24:59Z</time>
      </trkpt>
      <trkpt lat="46.15437" lon="4.57924">
        <ele>452.8</ele>
        <time>2020-10-19T14:25:00Z</time>
      </trkpt>
      <trkpt lat="46.15437" lon="4.57924">
        <ele>452.8</ele>
        <time>2020-10-19T14:25:01Z</time>
      </trkpt>
      <trkpt lat="46.1544" lon="4.57927">
        <ele>452.8</ele>
        <time>2020-10-19T14:25:02Z</time>
      </trkpt>
      <trkpt lat="46.1544" lon="4.57927">
        <ele>452.6</ele>
        <time>2020-10-19T14:25:03Z</time>
      </trkpt>
      <trkpt lat="46.15442" lon="4.57931">
        <ele>452.4</ele>
        <time>2020-10-19T14:25:04Z</time>
      </trkpt>
      <trkpt lat="46.15442" lon="4.57931">
        <ele>452</ele>
        <time>2020-10-19T14:25:05Z</time>
      </trkpt>
      <trkpt lat="46.15444" lon="4.57934">
        <ele>452</ele>
        <time>2020-10-19T14:25:06Z</time>
      </trkpt>
      <trkpt lat="46.15444" lon="4.57934">
        <ele>451.8</ele>
        <time>2020-10-19T14:25:07Z</time>
      </trkpt>
      <trkpt lat="46.15446" lon="4.57937">
        <ele>451.6</ele>
        <time>2020-10-19T14:25:08Z</time>
      </trkpt>
      <trkpt lat="46.15446" lon="4.57937">
        <ele>451.4</ele>
        <time>2020-10-19T14:25:09Z</time>
      </trkpt>
      <trkpt lat="46.15449" lon="4.5794">
        <ele>451</ele>
        <time>2020-10-19T14:25:10Z</time>
      </trkpt>
      <trkpt lat="46.15449" lon="4.5794">
        <ele>450.8</ele>
        <time>2020-10-19T14:25:11Z</time>
      </trkpt>
      <trkpt lat="46.15451" lon="4.57943">
        <ele>450.4</ele>
        <time>2020-10-19T14:25:12Z</time>
      </trkpt>
      <trkpt lat="46.15451" lon="4.57943">
        <ele>450.4</ele>
        <time>2020-10-19T14:25:13Z</time>
      </trkpt>
      <trkpt lat="46.15453" lon="4.57946">
        <ele>450</ele>
        <time>2020-10-19T14:25:14Z</time>
      </trkpt>
      <trkpt lat="46.15453" lon="4.57946">
        <ele>450.2</ele>
        <time>2020-10-19T14:25:15Z</time>
      </trkpt>
      <trkpt lat="46.15456" lon="4.57947">
        <ele>449.8</ele>
        <time>2020-10-19T14:25:16Z</time>
      </trkpt>
      <trkpt lat="46.15456" lon="4.57947">
        <ele>449.6</ele>
        <time>2020-10-19T14:25:17Z</time>
      </trkpt>
      <trkpt lat="46.15458" lon="4.5795">
        <ele>449.6</ele>
        <time>2020-10-19T14:25:18Z</time>
      </trkpt>
      <trkpt lat="46.15458" lon="4.5795">
        <ele>449.2</ele>
        <time>2020-10-19T14:25:19Z</time>
      </trkpt>
      <trkpt lat="46.15461" lon="4.57952">
        <ele>448.8</ele>
        <time>2020-10-19T14:25:20Z</time>
      </trkpt>
      <trkpt lat="46.15461" lon="4.57952">
        <ele>448.4</ele>
        <time>2020-10-19T14:25:21Z</time>
      </trkpt>
      <trkpt lat="46.15462" lon="4.57955">
        <ele>448</ele>
        <time>2020-10-19T14:25:22Z</time>
      </trkpt>
      <trkpt lat="46.15462" lon="4.57955">
        <ele>447.6</ele>
        <time>2020-10-19T14:25:23Z</time>
      </trkpt>
      <trkpt lat="46.15464" lon="4.57958">
        <ele>447.4</ele>
        <time>2020-10-19T14:25:24Z</time>
      </trkpt>
      <trkpt lat="46.15464" lon="4.57958">
        <ele>447.2</ele>
        <time>2020-10-19T14:25:25Z</time>
      </trkpt>
      <trkpt lat="46.15467" lon="4.5796">
        <ele>447</ele>
        <time>2020-10-19T14:25:26Z</time>
      </trkpt>
      <trkpt lat="46.15467" lon="4.5796">
        <ele>446.8</ele>
        <time>2020-10-19T14:25:27Z</time>
      </trkpt>
      <trkpt lat="46.15469" lon="4.57964">
        <ele>446.6</ele>
        <time>2020-10-19T14:25:28Z</time>
      </trkpt>
      <trkpt lat="46.15469" lon="4.57964">
        <ele>446.4</ele>
        <time>2020-10-19T14:25:29Z</time>
      </trkpt>
      <trkpt lat="46.15471" lon="4.57966">
        <ele>446.2</ele>
        <time>2020-10-19T14:25:30Z</time>
      </trkpt>
      <trkpt lat="46.15471" lon="4.57966">
        <ele>446</ele>
        <time>2020-10-19T14:25:31Z</time>
      </trkpt>
      <trkpt lat="46.15473" lon="4.57965">
        <ele>445.6</ele>
        <time>2020-10-19T14:25:32Z</time>
      </trkpt>
      <trkpt lat="46.15473" lon="4.57965">
        <ele>445.4</ele>
        <time>2020-10-19T14:25:33Z</time>
      </trkpt>
      <trkpt lat="46.15476" lon="4.57965">
        <ele>445.2</ele>
        <time>2020-10-19T14:25:34Z</time>
      </trkpt>
      <trkpt lat="46.15476" lon="4.57965">
        <ele>444.8</ele>
        <time>2020-10-19T14:25:35Z</time>
      </trkpt>
      <trkpt lat="46.15478" lon="4.57968">
        <ele>444.6</ele>
        <time>2020-10-19T14:25:36Z</time>
      </trkpt>
      <trkpt lat="46.15478" lon="4.57968">
        <ele>444.6</ele>
        <time>2020-10-19T14:25:37Z</time>
      </trkpt>
      <trkpt lat="46.15481" lon="4.57969">
        <ele>444.4</ele>
        <time>2020-10-19T14:25:38Z</time>
      </trkpt>
      <trkpt lat="46.15481" lon="4.57969">
        <ele>444</ele>
        <time>2020-10-19T14:25:39Z</time>
      </trkpt>
      <trkpt lat="46.15483" lon="4.57971">
        <ele>443.8</ele>
        <time>2020-10-19T14:25:40Z</time>
      </trkpt>
      <trkpt lat="46.15483" lon="4.57971">
        <ele>443.4</ele>
        <time>2020-10-19T14:25:41Z</time>
      </trkpt>
      <trkpt lat="46.15486" lon="4.57972">
        <ele>443.2</ele>
        <time>2020-10-19T14:25:42Z</time>
      </trkpt>
      <trkpt lat="46.15486" lon="4.57972">
        <ele>443</ele>
        <time>2020-10-19T14:25:43Z</time>
      </trkpt>
      <trkpt lat="46.15488" lon="4.57974">
        <ele>442.8</ele>
        <time>2020-10-19T14:25:44Z</time>
      </trkpt>
      <trkpt lat="46.15488" lon="4.57974">
        <ele>442.6</ele>
        <time>2020-10-19T14:25:45Z</time>
      </trkpt>
      <trkpt lat="46.15491" lon="4.57976">
        <ele>442.6</ele>
        <time>2020-10-19T14:25:46Z</time>
      </trkpt>
      <trkpt lat="46.15491" lon="4.57976">
        <ele>442.2</ele>
        <time>2020-10-19T14:25:47Z</time>
      </trkpt>
      <trkpt lat="46.15493" lon="4.57977">
        <ele>442</ele>
        <time>2020-10-19T14:25:48Z</time>
      </trkpt>
      <trkpt lat="46.15493" lon="4.57977">
        <ele>441.6</ele>
        <time>2020-10-19T14:25:49Z</time>
      </trkpt>
      <trkpt lat="46.15496" lon="4.5798">
        <ele>441.4</ele>
        <time>2020-10-19T14:25:50Z</time>
      </trkpt>
      <trkpt lat="46.15498" lon="4.57981">
        <ele>441.2</ele>
        <time>2020-10-19T14:25:51Z</time>
      </trkpt>
      <trkpt lat="46.15499" lon="4.57983">
        <ele>441</ele>
        <time>2020-10-19T14:25:52Z</time>
      </trkpt>
      <trkpt lat="46.155" lon="4.57985">
        <ele>441.2</ele>
        <time>2020-10-19T14:25:53Z</time>
      </trkpt>
      <trkpt lat="46.15501" lon="4.57987">
        <ele>441.4</ele>
        <time>2020-10-19T14:25:54Z</time>
      </trkpt>
      <trkpt lat="46.15501" lon="4.5799">
        <ele>441.6</ele>
        <time>2020-10-19T14:25:55Z</time>
      </trkpt>
      <trkpt lat="46.15501" lon="4.5799">
        <ele>441.8</ele>
        <time>2020-10-19T14:25:56Z</time>
      </trkpt>
      <trkpt lat="46.15503" lon="4.57994">
        <ele>441.8</ele>
        <time>2020-10-19T14:25:57Z</time>
      </trkpt>
      <trkpt lat="46.15503" lon="4.57994">
        <ele>441.6</ele>
        <time>2020-10-19T14:25:58Z</time>
      </trkpt>
      <trkpt lat="46.15505" lon="4.57997">
        <ele>441.6</ele>
        <time>2020-10-19T14:25:59Z</time>
      </trkpt>
      <trkpt lat="46.15505" lon="4.57997">
        <ele>441.6</ele>
        <time>2020-10-19T14:26:00Z</time>
      </trkpt>
      <trkpt lat="46.15507" lon="4.58">
        <ele>441.2</ele>
        <time>2020-10-19T14:26:01Z</time>
      </trkpt>
      <trkpt lat="46.15507" lon="4.58">
        <ele>440.8</ele>
        <time>2020-10-19T14:26:02Z</time>
      </trkpt>
      <trkpt lat="46.15509" lon="4.58003">
        <ele>440.2</ele>
        <time>2020-10-19T14:26:03Z</time>
      </trkpt>
      <trkpt lat="46.15509" lon="4.58003">
        <ele>440</ele>
        <time>2020-10-19T14:26:04Z</time>
      </trkpt>
      <trkpt lat="46.15511" lon="4.58006">
        <ele>439.8</ele>
        <time>2020-10-19T14:26:05Z</time>
      </trkpt>
      <trkpt lat="46.15511" lon="4.58006">
        <ele>439.6</ele>
        <time>2020-10-19T14:26:06Z</time>
      </trkpt>
      <trkpt lat="46.15513" lon="4.5801">
        <ele>439.4</ele>
        <time>2020-10-19T14:26:07Z</time>
      </trkpt>
      <trkpt lat="46.15513" lon="4.5801">
        <ele>439.2</ele>
        <time>2020-10-19T14:26:08Z</time>
      </trkpt>
      <trkpt lat="46.15514" lon="4.58013">
        <ele>439</ele>
        <time>2020-10-19T14:26:09Z</time>
      </trkpt>
      <trkpt lat="46.15514" lon="4.58013">
        <ele>439</ele>
        <time>2020-10-19T14:26:10Z</time>
      </trkpt>
      <trkpt lat="46.15516" lon="4.58017">
        <ele>438.6</ele>
        <time>2020-10-19T14:26:11Z</time>
      </trkpt>
      <trkpt lat="46.15516" lon="4.58017">
        <ele>438.4</ele>
        <time>2020-10-19T14:26:12Z</time>
      </trkpt>
      <trkpt lat="46.15517" lon="4.58021">
        <ele>438.6</ele>
        <time>2020-10-19T14:26:13Z</time>
      </trkpt>
      <trkpt lat="46.15517" lon="4.58021">
        <ele>438.6</ele>
        <time>2020-10-19T14:26:14Z</time>
      </trkpt>
      <trkpt lat="46.15519" lon="4.58025">
        <ele>438.4</ele>
        <time>2020-10-19T14:26:15Z</time>
      </trkpt>
      <trkpt lat="46.15519" lon="4.58025">
        <ele>438.2</ele>
        <time>2020-10-19T14:26:16Z</time>
      </trkpt>
      <trkpt lat="46.15521" lon="4.58029">
        <ele>438.2</ele>
        <time>2020-10-19T14:26:17Z</time>
      </trkpt>
      <trkpt lat="46.15521" lon="4.58029">
        <ele>438</ele>
        <time>2020-10-19T14:26:18Z</time>
      </trkpt>
      <trkpt lat="46.15522" lon="4.58033">
        <ele>438</ele>
        <time>2020-10-19T14:26:19Z</time>
      </trkpt>
      <trkpt lat="46.15522" lon="4.58033">
        <ele>438</ele>
        <time>2020-10-19T14:26:20Z</time>
      </trkpt>
      <trkpt lat="46.15524" lon="4.58036">
        <ele>438</ele>
        <time>2020-10-19T14:26:21Z</time>
      </trkpt>
      <trkpt lat="46.15524" lon="4.58036">
        <ele>437.8</ele>
        <time>2020-10-19T14:26:22Z</time>
      </trkpt>
      <trkpt lat="46.15525" lon="4.58038">
        <ele>437.8</ele>
        <time>2020-10-19T14:26:23Z</time>
      </trkpt>
      <trkpt lat="46.15525" lon="4.58038">
        <ele>437.6</ele>
        <time>2020-10-19T14:26:24Z</time>
      </trkpt>
      <trkpt lat="46.15527" lon="4.58041">
        <ele>437.4</ele>
        <time>2020-10-19T14:26:25Z</time>
      </trkpt>
      <trkpt lat="46.15527" lon="4.58041">
        <ele>437.2</ele>
        <time>2020-10-19T14:26:26Z</time>
      </trkpt>
      <trkpt lat="46.15528" lon="4.58043">
        <ele>436.8</ele>
        <time>2020-10-19T14:26:27Z</time>
      </trkpt>
      <trkpt lat="46.15528" lon="4.58043">
        <ele>436.6</ele>
        <time>2020-10-19T14:26:28Z</time>
      </trkpt>
      <trkpt lat="46.15528" lon="4.58043">
        <ele>436.4</ele>
        <time>2020-10-19T14:26:29Z</time>
      </trkpt>
      <trkpt lat="46.15529" lon="4.58046">
        <ele>436.2</ele>
        <time>2020-10-19T14:26:30Z</time>
      </trkpt>
      <trkpt lat="46.15529" lon="4.58046">
        <ele>436</ele>
        <time>2020-10-19T14:26:31Z</time>
      </trkpt>
      <trkpt lat="46.15529" lon="4.58046">
        <ele>435.8</ele>
        <time>2020-10-19T14:26:32Z</time>
      </trkpt>
      <trkpt lat="46.1553" lon="4.5805">
        <ele>435.6</ele>
        <time>2020-10-19T14:26:33Z</time>
      </trkpt>
      <trkpt lat="46.1553" lon="4.5805">
        <ele>435.6</ele>
        <time>2020-10-19T14:26:34Z</time>
      </trkpt>
      <trkpt lat="46.15531" lon="4.58052">
        <ele>435.4</ele>
        <time>2020-10-19T14:26:35Z</time>
      </trkpt>
      <trkpt lat="46.15531" lon="4.58052">
        <ele>435.4</ele>
        <time>2020-10-19T14:26:36Z</time>
      </trkpt>
      <trkpt lat="46.15533" lon="4.58054">
        <ele>435.4</ele>
        <time>2020-10-19T14:26:37Z</time>
      </trkpt>
    </trkseg>
  </trk>
</gpx>